<?xml version='1.0' encoding='UTF-8'?><gpx version="1.1" creator="JPX - https://github.com/jenetics/jpx" xmlns="http://www.topografix.com/GPX/1/1"><trk><trkseg><trkpt lat="42.0210048" lon="14.5823767"><ele>388.00000000000006</ele><time>2026-04-19T08:07:27.244Z</time></trkpt><trkpt lat="42.0209469" lon="14.5823257"><ele>388.0</ele><time>2026-04-19T08:07:39.26Z</time></trkpt><trkpt lat="42.0208835" lon="14.5823047"><ele>388.0</ele><time>2026-04-19T08:07:42.22Z</time></trkpt><trkpt lat="42.0208697" lon="14.5821815"><ele>388.0</ele><time>2026-04-19T08:07:45.248Z</time></trkpt><trkpt lat="42.0208326" lon="14.5820379"><ele>388.00000000000006</ele><time>2026-04-19T08:07:47.241Z</time></trkpt><trkpt lat="42.0208162" lon="14.5819557"><ele>388.0</ele><time>2026-04-19T08:07:48.255Z</time></trkpt><trkpt lat="42.0207823" lon="14.5818234"><ele>390.79999999999995</ele><time>2026-04-19T08:07:50.245Z</time></trkpt><trkpt lat="42.0207658" lon="14.5817292"><ele>393.6</ele><time>2026-04-19T08:07:53.219Z</time></trkpt><trkpt lat="42.0207291" lon="14.5816312"><ele>396.4</ele><time>2026-04-19T08:07:56.249Z</time></trkpt><trkpt lat="42.0206479" lon="14.5815852"><ele>399.20000000000005</ele><time>2026-04-19T08:07:58.244Z</time></trkpt><trkpt lat="42.0205358" lon="14.5815554"><ele>402.0</ele><time>2026-04-19T08:08:00.204Z</time></trkpt><trkpt lat="42.0204342" lon="14.5814945"><ele>402.0</ele><time>2026-04-19T08:08:02.214Z</time></trkpt><trkpt lat="42.0203398" lon="14.5814529"><ele>402.0</ele><time>2026-04-19T08:08:04.201Z</time></trkpt><trkpt lat="42.0202471" lon="14.5813977"><ele>402.0</ele><time>2026-04-19T08:08:06.255Z</time></trkpt><trkpt lat="42.0201579" lon="14.5813489"><ele>402.0</ele><time>2026-04-19T08:08:08.24Z</time></trkpt><trkpt lat="42.0200838" lon="14.5813072"><ele>402.0</ele><time>2026-04-19T08:08:10.243Z</time></trkpt><trkpt lat="42.0199961" lon="14.5812486"><ele>403.20000000000005</ele><time>2026-04-19T08:08:12.25Z</time></trkpt><trkpt lat="42.0198953" lon="14.5811935"><ele>404.4</ele><time>2026-04-19T08:08:14.253Z</time></trkpt><trkpt lat="42.0197865" lon="14.5812292"><ele>405.6</ele><time>2026-04-19T08:08:16.266Z</time></trkpt><trkpt lat="42.0197225" lon="14.5812409"><ele>406.79999999999995</ele><time>2026-04-19T08:08:17.235Z</time></trkpt><trkpt lat="42.0196153" lon="14.581244"><ele>408.0</ele><time>2026-04-19T08:08:19.239Z</time></trkpt><trkpt lat="42.0195351" lon="14.5812498"><ele>408.0</ele><time>2026-04-19T08:08:21.213Z</time></trkpt><trkpt lat="42.0194517" lon="14.5812661"><ele>408.0</ele><time>2026-04-19T08:08:24.26Z</time></trkpt><trkpt lat="42.0193939" lon="14.5813354"><ele>408.0</ele><time>2026-04-19T08:08:26.254Z</time></trkpt><trkpt lat="42.019434" lon="14.5814352"><ele>408.0</ele><time>2026-04-19T08:08:29.228Z</time></trkpt><trkpt lat="42.0194897" lon="14.5815011"><ele>408.0</ele><time>2026-04-19T08:08:32.215Z</time></trkpt><trkpt lat="42.0195482" lon="14.5814018"><ele>408.0</ele><time>2026-04-19T08:08:35.251Z</time></trkpt><trkpt lat="42.0195928" lon="14.5813334"><ele>408.0</ele><time>2026-04-19T08:08:39.265Z</time></trkpt><trkpt lat="42.0196642" lon="14.5812841"><ele>408.0</ele><time>2026-04-19T08:08:42.223Z</time></trkpt><trkpt lat="42.0197479" lon="14.5812696"><ele>408.0</ele><time>2026-04-19T08:08:45.222Z</time></trkpt><trkpt lat="42.0198056" lon="14.5812139"><ele>408.0</ele><time>2026-04-19T08:08:50.275Z</time></trkpt><trkpt lat="42.0197331" lon="14.5811507"><ele>408.0</ele><time>2026-04-19T08:08:53.264Z</time></trkpt><trkpt lat="42.0196551" lon="14.5811334"><ele>408.0</ele><time>2026-04-19T08:08:55.208Z</time></trkpt><trkpt lat="42.0195957" lon="14.5811013"><ele>406.1666666666667</ele><time>2026-04-19T08:08:57.221Z</time></trkpt><trkpt lat="42.0195144" lon="14.5810934"><ele>404.33333333333337</ele><time>2026-04-19T08:08:59.288Z</time></trkpt><trkpt lat="42.0194675" lon="14.5810029"><ele>402.5</ele><time>2026-04-19T08:09:03.275Z</time></trkpt><trkpt lat="42.0194086" lon="14.5809268"><ele>400.6666666666667</ele><time>2026-04-19T08:09:07.216Z</time></trkpt><trkpt lat="42.0193542" lon="14.5808532"><ele>398.83333333333337</ele><time>2026-04-19T08:09:10.251Z</time></trkpt><trkpt lat="42.019313" lon="14.5807627"><ele>397.0</ele><time>2026-04-19T08:09:13.227Z</time></trkpt><trkpt lat="42.0192829" lon="14.5806475"><ele>397.0</ele><time>2026-04-19T08:09:16.254Z</time></trkpt><trkpt lat="42.0192786" lon="14.5805409"><ele>397.0</ele><time>2026-04-19T08:09:19.256Z</time></trkpt><trkpt lat="42.0192644" lon="14.5804206"><ele>397.0</ele><time>2026-04-19T08:09:22.252Z</time></trkpt><trkpt lat="42.0192846" lon="14.5803261"><ele>397.0</ele><time>2026-04-19T08:09:36.258Z</time></trkpt><trkpt lat="42.0193498" lon="14.5802173"><ele>397.0</ele><time>2026-04-19T08:09:39.25Z</time></trkpt><trkpt lat="42.0194062" lon="14.5800985"><ele>393.6</ele><time>2026-04-19T08:09:41.257Z</time></trkpt><trkpt lat="42.0194346" lon="14.579968"><ele>390.20000000000005</ele><time>2026-04-19T08:09:43.246Z</time></trkpt><trkpt lat="42.0194747" lon="14.5798306"><ele>386.8</ele><time>2026-04-19T08:09:45.255Z</time></trkpt><trkpt lat="42.0194873" lon="14.5797068"><ele>383.4</ele><time>2026-04-19T08:09:47.232Z</time></trkpt><trkpt lat="42.0194806" lon="14.5795581"><ele>380.0</ele><time>2026-04-19T08:09:49.215Z</time></trkpt><trkpt lat="42.019464" lon="14.5794573"><ele>378.1666666666667</ele><time>2026-04-19T08:09:50.216Z</time></trkpt><trkpt lat="42.0194476" lon="14.579353"><ele>376.33333333333337</ele><time>2026-04-19T08:09:51.252Z</time></trkpt><trkpt lat="42.01943" lon="14.5792552"><ele>374.5</ele><time>2026-04-19T08:09:52.23Z</time></trkpt><trkpt lat="42.0194135" lon="14.5791684"><ele>372.6666666666667</ele><time>2026-04-19T08:09:53.248Z</time></trkpt><trkpt lat="42.0193793" lon="14.5790212"><ele>370.8333333333333</ele><time>2026-04-19T08:09:55.276Z</time></trkpt><trkpt lat="42.019333" lon="14.5788918"><ele>369.0</ele><time>2026-04-19T08:09:57.257Z</time></trkpt><trkpt lat="42.0192848" lon="14.5787697"><ele>366.8333333333333</ele><time>2026-04-19T08:09:59.244Z</time></trkpt><trkpt lat="42.0192577" lon="14.5786801"><ele>364.6666666666667</ele><time>2026-04-19T08:10:01.211Z</time></trkpt><trkpt lat="42.0192788" lon="14.5785866"><ele>362.5</ele><time>2026-04-19T08:10:03.256Z</time></trkpt><trkpt lat="42.019314" lon="14.5785126"><ele>360.33333333333337</ele><time>2026-04-19T08:10:05.227Z</time></trkpt><trkpt lat="42.0194094" lon="14.5784433"><ele>358.1666666666667</ele><time>2026-04-19T08:10:07.235Z</time></trkpt><trkpt lat="42.0195192" lon="14.5783678"><ele>356.0</ele><time>2026-04-19T08:10:09.252Z</time></trkpt><trkpt lat="42.0196386" lon="14.5783355"><ele>356.0</ele><time>2026-04-19T08:10:11.255Z</time></trkpt><trkpt lat="42.019703" lon="14.5783246"><ele>356.0</ele><time>2026-04-19T08:10:12.236Z</time></trkpt><trkpt lat="42.0197627" lon="14.578295"><ele>356.0</ele><time>2026-04-19T08:10:13.249Z</time></trkpt><trkpt lat="42.0198474" lon="14.5782403"><ele>356.0</ele><time>2026-04-19T08:10:15.252Z</time></trkpt><trkpt lat="42.019926" lon="14.578171"><ele>356.0</ele><time>2026-04-19T08:10:17.252Z</time></trkpt><trkpt lat="42.0199936" lon="14.5781215"><ele>356.0</ele><time>2026-04-19T08:10:19.217Z</time></trkpt><trkpt lat="42.0200703" lon="14.5780592"><ele>355.1666666666667</ele><time>2026-04-19T08:10:21.253Z</time></trkpt><trkpt lat="42.020131" lon="14.5780196"><ele>354.33333333333337</ele><time>2026-04-19T08:10:23.245Z</time></trkpt><trkpt lat="42.0201893" lon="14.5779785"><ele>353.5</ele><time>2026-04-19T08:10:26.265Z</time></trkpt><trkpt lat="42.0202553" lon="14.5779114"><ele>352.6666666666667</ele><time>2026-04-19T08:10:29.244Z</time></trkpt><trkpt lat="42.020295" lon="14.5778373"><ele>351.8333333333333</ele><time>2026-04-19T08:10:31.215Z</time></trkpt><trkpt lat="42.0203582" lon="14.5777033"><ele>351.0</ele><time>2026-04-19T08:10:33.256Z</time></trkpt><trkpt lat="42.0204048" lon="14.5775764"><ele>349.8333333333333</ele><time>2026-04-19T08:10:35.267Z</time></trkpt><trkpt lat="42.020453" lon="14.5774736"><ele>348.6666666666667</ele><time>2026-04-19T08:10:37.233Z</time></trkpt><trkpt lat="42.0205111" lon="14.5773937"><ele>347.5</ele><time>2026-04-19T08:10:39.266Z</time></trkpt><trkpt lat="42.0205798" lon="14.5773114"><ele>346.33333333333337</ele><time>2026-04-19T08:10:41.247Z</time></trkpt><trkpt lat="42.0206547" lon="14.5772496"><ele>345.1666666666667</ele><time>2026-04-19T08:10:43.254Z</time></trkpt><trkpt lat="42.0207158" lon="14.5771954"><ele>344.0</ele><time>2026-04-19T08:10:45.263Z</time></trkpt><trkpt lat="42.0207648" lon="14.5771217"><ele>344.0</ele><time>2026-04-19T08:10:59.233Z</time></trkpt><trkpt lat="42.020818" lon="14.5770284"><ele>344.0</ele><time>2026-04-19T08:11:02.239Z</time></trkpt><trkpt lat="42.0208787" lon="14.5768859"><ele>344.0</ele><time>2026-04-19T08:11:04.246Z</time></trkpt><trkpt lat="42.0209138" lon="14.5768114"><ele>344.0</ele><time>2026-04-19T08:11:05.219Z</time></trkpt><trkpt lat="42.0209477" lon="14.5767263"><ele>344.0</ele><time>2026-04-19T08:11:06.22Z</time></trkpt><trkpt lat="42.02098" lon="14.5766381"><ele>344.0</ele><time>2026-04-19T08:11:07.226Z</time></trkpt><trkpt lat="42.0210082" lon="14.5765542"><ele>342.8571428571429</ele><time>2026-04-19T08:11:08.234Z</time></trkpt><trkpt lat="42.0210324" lon="14.5764712"><ele>341.7142857142857</ele><time>2026-04-19T08:11:09.245Z</time></trkpt><trkpt lat="42.0210591" lon="14.5763895"><ele>340.57142857142856</ele><time>2026-04-19T08:11:10.254Z</time></trkpt><trkpt lat="42.0210834" lon="14.5763066"><ele>339.42857142857144</ele><time>2026-04-19T08:11:11.212Z</time></trkpt><trkpt lat="42.0211098" lon="14.5762212"><ele>338.2857142857143</ele><time>2026-04-19T08:11:12.214Z</time></trkpt><trkpt lat="42.0211413" lon="14.5761416"><ele>337.14285714285717</ele><time>2026-04-19T08:11:13.257Z</time></trkpt><trkpt lat="42.021177" lon="14.5760515"><ele>336.0</ele><time>2026-04-19T08:11:14.25Z</time></trkpt><trkpt lat="42.0212155" lon="14.5759672"><ele>334.57142857142856</ele><time>2026-04-19T08:11:15.254Z</time></trkpt><trkpt lat="42.0212544" lon="14.5758838"><ele>333.1428571428571</ele><time>2026-04-19T08:11:16.25Z</time></trkpt><trkpt lat="42.0212961" lon="14.5757984"><ele>331.7142857142857</ele><time>2026-04-19T08:11:17.246Z</time></trkpt><trkpt lat="42.0213363" lon="14.5757178"><ele>330.2857142857143</ele><time>2026-04-19T08:11:18.266Z</time></trkpt><trkpt lat="42.0213766" lon="14.5756396"><ele>328.85714285714283</ele><time>2026-04-19T08:11:19.244Z</time></trkpt><trkpt lat="42.0214164" lon="14.5755595"><ele>327.42857142857144</ele><time>2026-04-19T08:11:20.275Z</time></trkpt><trkpt lat="42.021461" lon="14.575471"><ele>326.0</ele><time>2026-04-19T08:11:21.267Z</time></trkpt><trkpt lat="42.0215044" lon="14.5753899"><ele>323.8</ele><time>2026-04-19T08:11:22.255Z</time></trkpt><trkpt lat="42.021544" lon="14.5753013"><ele>321.6</ele><time>2026-04-19T08:11:23.245Z</time></trkpt><trkpt lat="42.0215792" lon="14.5752227"><ele>319.4</ele><time>2026-04-19T08:11:24.252Z</time></trkpt><trkpt lat="42.0216317" lon="14.5750862"><ele>317.2</ele><time>2026-04-19T08:11:26.231Z</time></trkpt><trkpt lat="42.0216758" lon="14.5749295"><ele>315.0</ele><time>2026-04-19T08:11:28.226Z</time></trkpt><trkpt lat="42.0217154" lon="14.5747616"><ele>314.0</ele><time>2026-04-19T08:11:30.257Z</time></trkpt><trkpt lat="42.0217445" lon="14.5746752"><ele>313.0</ele><time>2026-04-19T08:11:31.258Z</time></trkpt><trkpt lat="42.0217776" lon="14.5745831"><ele>312.0</ele><time>2026-04-19T08:11:32.248Z</time></trkpt><trkpt lat="42.0218094" lon="14.5744891"><ele>311.0</ele><time>2026-04-19T08:11:33.248Z</time></trkpt><trkpt lat="42.0218395" lon="14.5743983"><ele>310.0</ele><time>2026-04-19T08:11:34.278Z</time></trkpt><trkpt lat="42.0218713" lon="14.5743081"><ele>309.0</ele><time>2026-04-19T08:11:35.24Z</time></trkpt><trkpt lat="42.0218984" lon="14.5742186"><ele>308.0</ele><time>2026-04-19T08:11:36.26Z</time></trkpt><trkpt lat="42.0219228" lon="14.5741392"><ele>305.57142857142856</ele><time>2026-04-19T08:11:37.266Z</time></trkpt><trkpt lat="42.0219464" lon="14.5740517"><ele>303.1428571428571</ele><time>2026-04-19T08:11:38.262Z</time></trkpt><trkpt lat="42.0219678" lon="14.5739655"><ele>300.7142857142857</ele><time>2026-04-19T08:11:39.272Z</time></trkpt><trkpt lat="42.0219909" lon="14.5738842"><ele>298.2857142857143</ele><time>2026-04-19T08:11:40.255Z</time></trkpt><trkpt lat="42.0220154" lon="14.5738028"><ele>295.85714285714283</ele><time>2026-04-19T08:11:41.26Z</time></trkpt><trkpt lat="42.0220361" lon="14.5737155"><ele>293.42857142857144</ele><time>2026-04-19T08:11:42.23Z</time></trkpt><trkpt lat="42.0220598" lon="14.5736214"><ele>291.0</ele><time>2026-04-19T08:11:43.22Z</time></trkpt><trkpt lat="42.022088" lon="14.5735198"><ele>289.5</ele><time>2026-04-19T08:11:44.25Z</time></trkpt><trkpt lat="42.0221121" lon="14.5734185"><ele>288.0</ele><time>2026-04-19T08:11:45.269Z</time></trkpt><trkpt lat="42.0221271" lon="14.5733171"><ele>286.5</ele><time>2026-04-19T08:11:46.239Z</time></trkpt><trkpt lat="42.022134" lon="14.5732134"><ele>285.0</ele><time>2026-04-19T08:11:47.26Z</time></trkpt><trkpt lat="42.022146" lon="14.5731135"><ele>283.5</ele><time>2026-04-19T08:11:48.25Z</time></trkpt><trkpt lat="42.0221561" lon="14.5730161"><ele>282.0</ele><time>2026-04-19T08:11:49.247Z</time></trkpt><trkpt lat="42.0221677" lon="14.5729236"><ele>281.0</ele><time>2026-04-19T08:11:50.263Z</time></trkpt><trkpt lat="42.0221779" lon="14.5728314"><ele>280.0</ele><time>2026-04-19T08:11:51.253Z</time></trkpt><trkpt lat="42.0221973" lon="14.5727157"><ele>279.0</ele><time>2026-04-19T08:11:52.212Z</time></trkpt><trkpt lat="42.0222142" lon="14.5726111"><ele>278.0</ele><time>2026-04-19T08:11:53.259Z</time></trkpt><trkpt lat="42.0222306" lon="14.5725207"><ele>277.0</ele><time>2026-04-19T08:11:54.247Z</time></trkpt><trkpt lat="42.0222563" lon="14.5723528"><ele>276.0</ele><time>2026-04-19T08:11:56.259Z</time></trkpt><trkpt lat="42.0222623" lon="14.5722625"><ele>276.0</ele><time>2026-04-19T08:11:57.228Z</time></trkpt><trkpt lat="42.0222782" lon="14.5721754"><ele>276.0</ele><time>2026-04-19T08:11:58.243Z</time></trkpt><trkpt lat="42.0223005" lon="14.5720908"><ele>276.0</ele><time>2026-04-19T08:11:59.221Z</time></trkpt><trkpt lat="42.0223386" lon="14.5719411"><ele>276.0</ele><time>2026-04-19T08:12:01.253Z</time></trkpt><trkpt lat="42.0223873" lon="14.5717767"><ele>276.0</ele><time>2026-04-19T08:12:03.26Z</time></trkpt><trkpt lat="42.0224226" lon="14.5716972"><ele>274.8333333333333</ele><time>2026-04-19T08:12:04.244Z</time></trkpt><trkpt lat="42.0224675" lon="14.5716132"><ele>273.6666666666667</ele><time>2026-04-19T08:12:05.211Z</time></trkpt><trkpt lat="42.0225278" lon="14.5715329"><ele>272.5</ele><time>2026-04-19T08:12:06.227Z</time></trkpt><trkpt lat="42.0225847" lon="14.5714704"><ele>271.33333333333337</ele><time>2026-04-19T08:12:07.248Z</time></trkpt><trkpt lat="42.0226741" lon="14.5713908"><ele>270.1666666666667</ele><time>2026-04-19T08:12:09.266Z</time></trkpt><trkpt lat="42.0227585" lon="14.5713521"><ele>269.0</ele><time>2026-04-19T08:12:11.22Z</time></trkpt><trkpt lat="42.0228474" lon="14.571342"><ele>267.1666666666667</ele><time>2026-04-19T08:12:13.268Z</time></trkpt><trkpt lat="42.0229355" lon="14.5713566"><ele>265.33333333333337</ele><time>2026-04-19T08:12:15.254Z</time></trkpt><trkpt lat="42.0230228" lon="14.5713536"><ele>263.5</ele><time>2026-04-19T08:12:17.246Z</time></trkpt><trkpt lat="42.0230963" lon="14.5713336"><ele>261.6666666666667</ele><time>2026-04-19T08:12:19.251Z</time></trkpt><trkpt lat="42.0231675" lon="14.571359"><ele>259.8333333333333</ele><time>2026-04-19T08:12:33.244Z</time></trkpt><trkpt lat="42.0231282" lon="14.5712782"><ele>258.0</ele><time>2026-04-19T08:12:37.226Z</time></trkpt><trkpt lat="42.0231593" lon="14.5713606"><ele>258.0</ele><time>2026-04-19T08:13:02.275Z</time></trkpt><trkpt lat="42.0232031" lon="14.5712989"><ele>258.0</ele><time>2026-04-19T08:13:28.24Z</time></trkpt><trkpt lat="42.0232294" lon="14.571215"><ele>258.0</ele><time>2026-04-19T08:14:02.216Z</time></trkpt><trkpt lat="42.023239" lon="14.5710884"><ele>258.0</ele><time>2026-04-19T08:14:06.224Z</time></trkpt><trkpt lat="42.0232679" lon="14.5709835"><ele>258.0</ele><time>2026-04-19T08:14:09.217Z</time></trkpt><trkpt lat="42.0232832" lon="14.5708951"><ele>258.0</ele><time>2026-04-19T08:14:11.212Z</time></trkpt><trkpt lat="42.0232862" lon="14.5707727"><ele>258.0</ele><time>2026-04-19T08:14:13.231Z</time></trkpt><trkpt lat="42.0232904" lon="14.5706595"><ele>258.0</ele><time>2026-04-19T08:14:15.224Z</time></trkpt><trkpt lat="42.0233392" lon="14.5705433"><ele>258.0</ele><time>2026-04-19T08:14:17.211Z</time></trkpt><trkpt lat="42.0233886" lon="14.570431"><ele>258.0</ele><time>2026-04-19T08:14:19.24Z</time></trkpt><trkpt lat="42.0234302" lon="14.5703322"><ele>258.0</ele><time>2026-04-19T08:14:21.216Z</time></trkpt><trkpt lat="42.023474" lon="14.5702547"><ele>258.0</ele><time>2026-04-19T08:14:23.235Z</time></trkpt><trkpt lat="42.0235409" lon="14.5701985"><ele>256.5</ele><time>2026-04-19T08:14:25.211Z</time></trkpt><trkpt lat="42.0236251" lon="14.570177"><ele>255.0</ele><time>2026-04-19T08:14:27.261Z</time></trkpt><trkpt lat="42.0236922" lon="14.5701638"><ele>253.5</ele><time>2026-04-19T08:14:29.25Z</time></trkpt><trkpt lat="42.0237568" lon="14.5701481"><ele>252.0</ele><time>2026-04-19T08:14:31.208Z</time></trkpt><trkpt lat="42.0238011" lon="14.5700575"><ele>250.5</ele><time>2026-04-19T08:14:34.238Z</time></trkpt><trkpt lat="42.0238149" lon="14.569902"><ele>249.0</ele><time>2026-04-19T08:14:36.245Z</time></trkpt><trkpt lat="42.0238234" lon="14.5698149"><ele>249.0</ele><time>2026-04-19T08:14:37.233Z</time></trkpt><trkpt lat="42.0238492" lon="14.5696968"><ele>248.99999999999997</ele><time>2026-04-19T08:14:39.257Z</time></trkpt><trkpt lat="42.0238979" lon="14.5695691"><ele>248.99999999999997</ele><time>2026-04-19T08:14:43.252Z</time></trkpt><trkpt lat="42.0239537" lon="14.5694513"><ele>249.0</ele><time>2026-04-19T08:14:45.251Z</time></trkpt><trkpt lat="42.0240294" lon="14.5693478"><ele>249.0</ele><time>2026-04-19T08:14:47.251Z</time></trkpt><trkpt lat="42.0240759" lon="14.5692786"><ele>249.16666666666666</ele><time>2026-04-19T08:14:48.275Z</time></trkpt><trkpt lat="42.0241179" lon="14.5692036"><ele>249.33333333333331</ele><time>2026-04-19T08:14:49.216Z</time></trkpt><trkpt lat="42.0241577" lon="14.5691343"><ele>249.5</ele><time>2026-04-19T08:14:50.209Z</time></trkpt><trkpt lat="42.0242251" lon="14.5690148"><ele>249.66666666666666</ele><time>2026-04-19T08:14:52.231Z</time></trkpt><trkpt lat="42.0242897" lon="14.5689038"><ele>249.83333333333331</ele><time>2026-04-19T08:14:54.252Z</time></trkpt><trkpt lat="42.0243477" lon="14.568797"><ele>250.0</ele><time>2026-04-19T08:14:56.258Z</time></trkpt><trkpt lat="42.02441" lon="14.5686807"><ele>249.99999999999997</ele><time>2026-04-19T08:14:58.256Z</time></trkpt><trkpt lat="42.0244664" lon="14.5685968"><ele>250.0</ele><time>2026-04-19T08:15:00.276Z</time></trkpt><trkpt lat="42.0245388" lon="14.5685326"><ele>250.0</ele><time>2026-04-19T08:15:02.241Z</time></trkpt><trkpt lat="42.024633" lon="14.5684902"><ele>250.0</ele><time>2026-04-19T08:15:04.244Z</time></trkpt><trkpt lat="42.0247037" lon="14.5684385"><ele>249.99999999999997</ele><time>2026-04-19T08:15:06.231Z</time></trkpt><trkpt lat="42.0247562" lon="14.5683402"><ele>250.0</ele><time>2026-04-19T08:15:08.198Z</time></trkpt><trkpt lat="42.0248385" lon="14.5682124"><ele>249.99999999999997</ele><time>2026-04-19T08:15:10.248Z</time></trkpt><trkpt lat="42.0248918" lon="14.5681342"><ele>250.0</ele><time>2026-04-19T08:15:11.247Z</time></trkpt><trkpt lat="42.0249482" lon="14.568051"><ele>250.0</ele><time>2026-04-19T08:15:12.251Z</time></trkpt><trkpt lat="42.0250047" lon="14.5679766"><ele>250.0</ele><time>2026-04-19T08:15:13.252Z</time></trkpt><trkpt lat="42.0250556" lon="14.5679122"><ele>249.99999999999997</ele><time>2026-04-19T08:15:14.254Z</time></trkpt><trkpt lat="42.0251188" lon="14.5678436"><ele>250.0</ele><time>2026-04-19T08:15:16.209Z</time></trkpt><trkpt lat="42.025184" lon="14.5678599"><ele>249.33333333333331</ele><time>2026-04-19T08:15:18.211Z</time></trkpt><trkpt lat="42.0252509" lon="14.5678404"><ele>248.66666666666666</ele><time>2026-04-19T08:15:21.224Z</time></trkpt><trkpt lat="42.0252815" lon="14.567747"><ele>248.0</ele><time>2026-04-19T08:15:23.245Z</time></trkpt><trkpt lat="42.0253494" lon="14.5676514"><ele>247.33333333333331</ele><time>2026-04-19T08:15:25.244Z</time></trkpt><trkpt lat="42.0254185" lon="14.5675797"><ele>246.66666666666666</ele><time>2026-04-19T08:15:27.259Z</time></trkpt><trkpt lat="42.0253791" lon="14.5674846"><ele>246.0</ele><time>2026-04-19T08:15:29.244Z</time></trkpt><trkpt lat="42.0252805" lon="14.5674536"><ele>246.0</ele><time>2026-04-19T08:15:31.269Z</time></trkpt><trkpt lat="42.0251916" lon="14.5674089"><ele>246.0</ele><time>2026-04-19T08:15:33.254Z</time></trkpt><trkpt lat="42.025143" lon="14.5672148"><ele>246.0</ele><time>2026-04-19T08:15:35.254Z</time></trkpt><trkpt lat="42.0251225" lon="14.5670563"><ele>246.0</ele><time>2026-04-19T08:15:36.26Z</time></trkpt><trkpt lat="42.0251028" lon="14.5669192"><ele>247.5</ele><time>2026-04-19T08:15:37.266Z</time></trkpt><trkpt lat="42.0250816" lon="14.5668194"><ele>249.0</ele><time>2026-04-19T08:15:38.261Z</time></trkpt><trkpt lat="42.0250627" lon="14.5667242"><ele>250.5</ele><time>2026-04-19T08:15:39.272Z</time></trkpt><trkpt lat="42.0250456" lon="14.5666353"><ele>252.0</ele><time>2026-04-19T08:15:40.236Z</time></trkpt><trkpt lat="42.0250256" lon="14.5665522"><ele>253.5</ele><time>2026-04-19T08:15:41.236Z</time></trkpt><trkpt lat="42.0249812" lon="14.5664073"><ele>255.0</ele><time>2026-04-19T08:15:43.279Z</time></trkpt><trkpt lat="42.0249225" lon="14.5662791"><ele>257.2857142857143</ele><time>2026-04-19T08:15:45.249Z</time></trkpt><trkpt lat="42.0248844" lon="14.5662053"><ele>259.5714285714286</ele><time>2026-04-19T08:15:46.256Z</time></trkpt><trkpt lat="42.0248462" lon="14.5661272"><ele>261.8571428571429</ele><time>2026-04-19T08:15:47.253Z</time></trkpt><trkpt lat="42.0248195" lon="14.5660448"><ele>264.14285714285717</ele><time>2026-04-19T08:15:48.259Z</time></trkpt><trkpt lat="42.0247876" lon="14.5659563"><ele>266.42857142857144</ele><time>2026-04-19T08:15:49.274Z</time></trkpt><trkpt lat="42.0247499" lon="14.565872"><ele>268.7142857142857</ele><time>2026-04-19T08:15:50.252Z</time></trkpt><trkpt lat="42.0247079" lon="14.5657856"><ele>271.0</ele><time>2026-04-19T08:15:51.25Z</time></trkpt><trkpt lat="42.0246661" lon="14.5656973"><ele>273.5</ele><time>2026-04-19T08:15:52.214Z</time></trkpt><trkpt lat="42.0246242" lon="14.565611"><ele>276.0</ele><time>2026-04-19T08:15:53.269Z</time></trkpt><trkpt lat="42.0245855" lon="14.5655287"><ele>278.5</ele><time>2026-04-19T08:15:54.222Z</time></trkpt><trkpt lat="42.0245563" lon="14.5654422"><ele>281.0</ele><time>2026-04-19T08:15:55.265Z</time></trkpt><trkpt lat="42.0245378" lon="14.5653571"><ele>283.5</ele><time>2026-04-19T08:15:56.267Z</time></trkpt><trkpt lat="42.0245046" lon="14.5652414"><ele>286.0</ele><time>2026-04-19T08:15:58.237Z</time></trkpt><trkpt lat="42.0244332" lon="14.5651367"><ele>288.0</ele><time>2026-04-19T08:16:00.25Z</time></trkpt><trkpt lat="42.0243645" lon="14.5650467"><ele>290.0</ele><time>2026-04-19T08:16:02.237Z</time></trkpt><trkpt lat="42.0243064" lon="14.5649886"><ele>292.0</ele><time>2026-04-19T08:16:03.231Z</time></trkpt><trkpt lat="42.0242594" lon="14.5649183"><ele>294.0</ele><time>2026-04-19T08:16:04.221Z</time></trkpt><trkpt lat="42.0242259" lon="14.5648348"><ele>296.0</ele><time>2026-04-19T08:16:05.241Z</time></trkpt><trkpt lat="42.0242106" lon="14.564751"><ele>298.0</ele><time>2026-04-19T08:16:06.233Z</time></trkpt><trkpt lat="42.0241619" lon="14.5645923"><ele>302.8</ele><time>2026-04-19T08:16:08.268Z</time></trkpt><trkpt lat="42.024098" lon="14.5644422"><ele>307.6</ele><time>2026-04-19T08:16:10.237Z</time></trkpt><trkpt lat="42.0240518" lon="14.5642913"><ele>312.40000000000003</ele><time>2026-04-19T08:16:12.233Z</time></trkpt><trkpt lat="42.0240215" lon="14.5641583"><ele>317.20000000000005</ele><time>2026-04-19T08:16:14.216Z</time></trkpt><trkpt lat="42.024035" lon="14.5640387"><ele>322.0</ele><time>2026-04-19T08:16:16.247Z</time></trkpt><trkpt lat="42.0241027" lon="14.5639823"><ele>322.0</ele><time>2026-04-19T08:16:27.216Z</time></trkpt><trkpt lat="42.024148" lon="14.5639197"><ele>322.0</ele><time>2026-04-19T08:16:29.259Z</time></trkpt><trkpt lat="42.0241955" lon="14.5638466"><ele>322.0</ele><time>2026-04-19T08:16:31.244Z</time></trkpt><trkpt lat="42.0242087" lon="14.563754"><ele>322.0</ele><time>2026-04-19T08:16:33.255Z</time></trkpt><trkpt lat="42.0241114" lon="14.5637856"><ele>322.0</ele><time>2026-04-19T08:16:39.223Z</time></trkpt><trkpt lat="42.0240262" lon="14.5638512"><ele>322.0</ele><time>2026-04-19T08:16:41.249Z</time></trkpt><trkpt lat="42.0239429" lon="14.5639269"><ele>322.0</ele><time>2026-04-19T08:16:43.259Z</time></trkpt><trkpt lat="42.0238913" lon="14.5639774"><ele>322.0</ele><time>2026-04-19T08:16:44.253Z</time></trkpt><trkpt lat="42.0238285" lon="14.564023"><ele>322.0</ele><time>2026-04-19T08:16:45.258Z</time></trkpt><trkpt lat="42.0237634" lon="14.5640669"><ele>322.0</ele><time>2026-04-19T08:16:46.239Z</time></trkpt><trkpt lat="42.0236721" lon="14.5641379"><ele>322.0</ele><time>2026-04-19T08:16:48.252Z</time></trkpt><trkpt lat="42.0235838" lon="14.5641408"><ele>322.0</ele><time>2026-04-19T08:16:50.249Z</time></trkpt><trkpt lat="42.0235006" lon="14.5641132"><ele>322.0</ele><time>2026-04-19T08:16:52.226Z</time></trkpt><trkpt lat="42.0234368" lon="14.5641719"><ele>322.0</ele><time>2026-04-19T08:16:54.243Z</time></trkpt><trkpt lat="42.0233815" lon="14.5642825"><ele>322.0</ele><time>2026-04-19T08:16:56.252Z</time></trkpt><trkpt lat="42.023338" lon="14.5643741"><ele>322.0</ele><time>2026-04-19T08:16:58.257Z</time></trkpt><trkpt lat="42.0232551" lon="14.564449"><ele>322.0</ele><time>2026-04-19T08:17:00.266Z</time></trkpt><trkpt lat="42.023149" lon="14.5645321"><ele>323.8333333333333</ele><time>2026-04-19T08:17:02.229Z</time></trkpt><trkpt lat="42.0230473" lon="14.5646217"><ele>325.66666666666663</ele><time>2026-04-19T08:17:04.242Z</time></trkpt><trkpt lat="42.0229515" lon="14.5647003"><ele>327.5</ele><time>2026-04-19T08:17:06.261Z</time></trkpt><trkpt lat="42.0228968" lon="14.5647425"><ele>329.3333333333333</ele><time>2026-04-19T08:17:07.253Z</time></trkpt><trkpt lat="42.022838" lon="14.5647959"><ele>331.1666666666667</ele><time>2026-04-19T08:17:08.259Z</time></trkpt><trkpt lat="42.0227785" lon="14.5648482"><ele>333.0</ele><time>2026-04-19T08:17:09.248Z</time></trkpt><trkpt lat="42.0227214" lon="14.564894"><ele>333.0</ele><time>2026-04-19T08:17:10.216Z</time></trkpt><trkpt lat="42.0226671" lon="14.564943"><ele>333.0</ele><time>2026-04-19T08:17:11.245Z</time></trkpt><trkpt lat="42.0226106" lon="14.5649877"><ele>333.0</ele><time>2026-04-19T08:17:12.231Z</time></trkpt><trkpt lat="42.0225321" lon="14.5650324"><ele>333.0</ele><time>2026-04-19T08:17:14.23Z</time></trkpt><trkpt lat="42.0226215" lon="14.564994"><ele>333.0</ele><time>2026-04-19T08:17:25.225Z</time></trkpt><trkpt lat="42.022681" lon="14.5649378"><ele>333.0</ele><time>2026-04-19T08:17:26.225Z</time></trkpt><trkpt lat="42.0227358" lon="14.5648849"><ele>333.0</ele><time>2026-04-19T08:17:27.215Z</time></trkpt><trkpt lat="42.0228242" lon="14.5648063"><ele>333.0</ele><time>2026-04-19T08:17:29.216Z</time></trkpt><trkpt lat="42.0228913" lon="14.5647534"><ele>333.0</ele><time>2026-04-19T08:17:31.239Z</time></trkpt><trkpt lat="42.0229707" lon="14.5646795"><ele>333.0</ele><time>2026-04-19T08:17:34.264Z</time></trkpt><trkpt lat="42.0230883" lon="14.5645973"><ele>333.0</ele><time>2026-04-19T08:17:36.241Z</time></trkpt><trkpt lat="42.0231489" lon="14.5645436"><ele>332.6666666666667</ele><time>2026-04-19T08:17:37.26Z</time></trkpt><trkpt lat="42.0231987" lon="14.5644706"><ele>332.3333333333333</ele><time>2026-04-19T08:17:38.261Z</time></trkpt><trkpt lat="42.0232503" lon="14.5643738"><ele>332.0</ele><time>2026-04-19T08:17:39.244Z</time></trkpt><trkpt lat="42.0233009" lon="14.5642831"><ele>331.66666666666663</ele><time>2026-04-19T08:17:40.263Z</time></trkpt><trkpt lat="42.0233341" lon="14.5642063"><ele>331.3333333333333</ele><time>2026-04-19T08:17:41.214Z</time></trkpt><trkpt lat="42.0233604" lon="14.5640899"><ele>331.0</ele><time>2026-04-19T08:17:43.25Z</time></trkpt><trkpt lat="42.0234033" lon="14.5640224"><ele>331.0</ele><time>2026-04-19T08:17:47.22Z</time></trkpt><trkpt lat="42.0233401" lon="14.5639797"><ele>331.0</ele><time>2026-04-19T08:17:55.272Z</time></trkpt><trkpt lat="42.0232626" lon="14.563949"><ele>331.0</ele><time>2026-04-19T08:17:56.201Z</time></trkpt><trkpt lat="42.0231795" lon="14.563921"><ele>331.0</ele><time>2026-04-19T08:17:57.26Z</time></trkpt><trkpt lat="42.0231079" lon="14.5638878"><ele>331.0</ele><time>2026-04-19T08:17:58.244Z</time></trkpt><trkpt lat="42.0230487" lon="14.5638511"><ele>331.0</ele><time>2026-04-19T08:17:59.264Z</time></trkpt><trkpt lat="42.0229697" lon="14.5638113"><ele>331.0</ele><time>2026-04-19T08:18:03.265Z</time></trkpt><trkpt lat="42.0229093" lon="14.563773"><ele>331.0</ele><time>2026-04-19T08:18:05.231Z</time></trkpt><trkpt lat="42.0228369" lon="14.563721"><ele>331.0</ele><time>2026-04-19T08:18:07.252Z</time></trkpt><trkpt lat="42.0227228" lon="14.5636508"><ele>331.0</ele><time>2026-04-19T08:18:09.239Z</time></trkpt><trkpt lat="42.0226368" lon="14.5635951"><ele>331.0</ele><time>2026-04-19T08:18:10.265Z</time></trkpt><trkpt lat="42.022563" lon="14.5635456"><ele>330.66666666666663</ele><time>2026-04-19T08:18:11.277Z</time></trkpt><trkpt lat="42.0225287" lon="14.5634569"><ele>330.3333333333333</ele><time>2026-04-19T08:18:13.222Z</time></trkpt><trkpt lat="42.022494" lon="14.5633709"><ele>330.0</ele><time>2026-04-19T08:18:15.22Z</time></trkpt><trkpt lat="42.0224226" lon="14.5633222"><ele>329.6666666666667</ele><time>2026-04-19T08:18:17.257Z</time></trkpt><trkpt lat="42.0223251" lon="14.5633491"><ele>329.33333333333337</ele><time>2026-04-19T08:18:20.247Z</time></trkpt><trkpt lat="42.022208" lon="14.5633641"><ele>329.0</ele><time>2026-04-19T08:18:22.246Z</time></trkpt><trkpt lat="42.022129" lon="14.5633161"><ele>329.0</ele><time>2026-04-19T08:18:24.241Z</time></trkpt><trkpt lat="42.0220725" lon="14.5632655"><ele>329.0</ele><time>2026-04-19T08:18:26.251Z</time></trkpt><trkpt lat="42.0220093" lon="14.5632052"><ele>329.0</ele><time>2026-04-19T08:18:28.248Z</time></trkpt><trkpt lat="42.0219482" lon="14.5631592"><ele>329.0</ele><time>2026-04-19T08:18:30.252Z</time></trkpt><trkpt lat="42.0218672" lon="14.5631264"><ele>329.0</ele><time>2026-04-19T08:18:32.225Z</time></trkpt><trkpt lat="42.0217611" lon="14.5630737"><ele>329.0</ele><time>2026-04-19T08:18:34.207Z</time></trkpt><trkpt lat="42.0216719" lon="14.5630134"><ele>330.4</ele><time>2026-04-19T08:18:36.238Z</time></trkpt><trkpt lat="42.0215857" lon="14.5629476"><ele>331.79999999999995</ele><time>2026-04-19T08:18:38.209Z</time></trkpt><trkpt lat="42.0215283" lon="14.5629106"><ele>333.20000000000005</ele><time>2026-04-19T08:18:40.242Z</time></trkpt><trkpt lat="42.0214225" lon="14.5628642"><ele>334.6</ele><time>2026-04-19T08:18:42.225Z</time></trkpt><trkpt lat="42.0213511" lon="14.5627928"><ele>336.0</ele><time>2026-04-19T08:18:47.23Z</time></trkpt><trkpt lat="42.0212987" lon="14.562693"><ele>336.0</ele><time>2026-04-19T08:18:49.241Z</time></trkpt><trkpt lat="42.0212679" lon="14.5625497"><ele>336.0</ele><time>2026-04-19T08:18:51.248Z</time></trkpt><trkpt lat="42.0212482" lon="14.5624018"><ele>336.0</ele><time>2026-04-19T08:18:53.243Z</time></trkpt><trkpt lat="42.0212349" lon="14.5623047"><ele>336.0</ele><time>2026-04-19T08:18:54.249Z</time></trkpt><trkpt lat="42.0212232" lon="14.5621898"><ele>336.0</ele><time>2026-04-19T08:18:55.213Z</time></trkpt><trkpt lat="42.0212018" lon="14.5620615"><ele>335.8333333333333</ele><time>2026-04-19T08:18:56.25Z</time></trkpt><trkpt lat="42.0211846" lon="14.5619593"><ele>335.6666666666667</ele><time>2026-04-19T08:18:57.232Z</time></trkpt><trkpt lat="42.0212165" lon="14.5618685"><ele>335.5</ele><time>2026-04-19T08:18:59.221Z</time></trkpt><trkpt lat="42.0212776" lon="14.5617732"><ele>335.33333333333337</ele><time>2026-04-19T08:19:01.233Z</time></trkpt><trkpt lat="42.0213024" lon="14.5616671"><ele>335.1666666666667</ele><time>2026-04-19T08:19:03.209Z</time></trkpt><trkpt lat="42.0212938" lon="14.5615682"><ele>335.0</ele><time>2026-04-19T08:19:05.237Z</time></trkpt><trkpt lat="42.0212541" lon="14.5614858"><ele>335.0</ele><time>2026-04-19T08:19:07.242Z</time></trkpt><trkpt lat="42.0212073" lon="14.5614283"><ele>335.0</ele><time>2026-04-19T08:19:09.242Z</time></trkpt><trkpt lat="42.0211754" lon="14.5613394"><ele>335.0</ele><time>2026-04-19T08:19:12.244Z</time></trkpt><trkpt lat="42.0211927" lon="14.5612442"><ele>335.0</ele><time>2026-04-19T08:19:15.245Z</time></trkpt><trkpt lat="42.0211879" lon="14.5611356"><ele>335.0</ele><time>2026-04-19T08:19:18.222Z</time></trkpt><trkpt lat="42.0211649" lon="14.5610187"><ele>335.0</ele><time>2026-04-19T08:19:21.24Z</time></trkpt><trkpt lat="42.0211846" lon="14.5609062"><ele>333.1666666666667</ele><time>2026-04-19T08:19:24.261Z</time></trkpt><trkpt lat="42.0212175" lon="14.5607948"><ele>331.33333333333337</ele><time>2026-04-19T08:19:27.27Z</time></trkpt><trkpt lat="42.0212334" lon="14.5606913"><ele>329.5</ele><time>2026-04-19T08:19:29.273Z</time></trkpt><trkpt lat="42.021249" lon="14.5605855"><ele>327.6666666666667</ele><time>2026-04-19T08:19:31.231Z</time></trkpt><trkpt lat="42.0212752" lon="14.5604661"><ele>325.8333333333333</ele><time>2026-04-19T08:19:34.244Z</time></trkpt><trkpt lat="42.0213093" lon="14.5603512"><ele>324.0</ele><time>2026-04-19T08:19:36.25Z</time></trkpt><trkpt lat="42.0213376" lon="14.5602584"><ele>322.0</ele><time>2026-04-19T08:19:38.227Z</time></trkpt><trkpt lat="42.02137" lon="14.5601857"><ele>320.0</ele><time>2026-04-19T08:19:40.215Z</time></trkpt><trkpt lat="42.0214112" lon="14.5600941"><ele>318.0</ele><time>2026-04-19T08:19:42.242Z</time></trkpt><trkpt lat="42.0214563" lon="14.5600326"><ele>316.0</ele><time>2026-04-19T08:19:44.244Z</time></trkpt><trkpt lat="42.0215133" lon="14.5599509"><ele>314.0</ele><time>2026-04-19T08:19:47.205Z</time></trkpt><trkpt lat="42.0215847" lon="14.55988"><ele>312.0</ele><time>2026-04-19T08:19:50.231Z</time></trkpt><trkpt lat="42.021644" lon="14.5598383"><ele>310.0</ele><time>2026-04-19T08:19:52.249Z</time></trkpt><trkpt lat="42.021711" lon="14.5598007"><ele>309.0</ele><time>2026-04-19T08:19:54.266Z</time></trkpt><trkpt lat="42.0217864" lon="14.5597655"><ele>308.0</ele><time>2026-04-19T08:19:57.238Z</time></trkpt><trkpt lat="42.0218701" lon="14.559819"><ele>307.0</ele><time>2026-04-19T08:20:44.21Z</time></trkpt><trkpt lat="42.0219141" lon="14.5598893"><ele>306.0</ele><time>2026-04-19T08:20:47.219Z</time></trkpt><trkpt lat="42.0219362" lon="14.5599725"><ele>305.0</ele><time>2026-04-19T08:20:50.253Z</time></trkpt><trkpt lat="42.0219968" lon="14.5600041"><ele>304.0</ele><time>2026-04-19T08:21:05.227Z</time></trkpt><trkpt lat="42.0220747" lon="14.5599927"><ele>304.0</ele><time>2026-04-19T08:21:09.229Z</time></trkpt><trkpt lat="42.0221454" lon="14.560053"><ele>304.0</ele><time>2026-04-19T08:21:13.236Z</time></trkpt><trkpt lat="42.0222232" lon="14.5600806"><ele>304.0</ele><time>2026-04-19T08:21:15.239Z</time></trkpt><trkpt lat="42.0222943" lon="14.5600877"><ele>304.0</ele><time>2026-04-19T08:21:17.224Z</time></trkpt><trkpt lat="42.0223704" lon="14.5600409"><ele>304.0</ele><time>2026-04-19T08:21:20.22Z</time></trkpt><trkpt lat="42.0224229" lon="14.5599871"><ele>304.0</ele><time>2026-04-19T08:21:22.229Z</time></trkpt><trkpt lat="42.0224835" lon="14.5599171"><ele>302.57142857142856</ele><time>2026-04-19T08:21:25.22Z</time></trkpt><trkpt lat="42.0225484" lon="14.5598544"><ele>301.14285714285717</ele><time>2026-04-19T08:21:28.217Z</time></trkpt><trkpt lat="42.0226117" lon="14.5597975"><ele>299.7142857142857</ele><time>2026-04-19T08:21:31.228Z</time></trkpt><trkpt lat="42.0226583" lon="14.5597198"><ele>298.2857142857143</ele><time>2026-04-19T08:21:34.228Z</time></trkpt><trkpt lat="42.0226491" lon="14.5596169"><ele>296.8571428571429</ele><time>2026-04-19T08:21:37.238Z</time></trkpt><trkpt lat="42.0226503" lon="14.5595297"><ele>295.42857142857144</ele><time>2026-04-19T08:21:40.221Z</time></trkpt><trkpt lat="42.0226565" lon="14.559426"><ele>294.0</ele><time>2026-04-19T08:21:43.213Z</time></trkpt><trkpt lat="42.0226892" lon="14.5593297"><ele>292.3333333333333</ele><time>2026-04-19T08:21:46.204Z</time></trkpt><trkpt lat="42.0227391" lon="14.5592751"><ele>290.6666666666667</ele><time>2026-04-19T08:21:49.226Z</time></trkpt><trkpt lat="42.0228013" lon="14.5593201"><ele>289.0</ele><time>2026-04-19T08:22:04.238Z</time></trkpt><trkpt lat="42.0228669" lon="14.5593619"><ele>287.33333333333337</ele><time>2026-04-19T08:22:06.245Z</time></trkpt><trkpt lat="42.0229566" lon="14.559322"><ele>285.6666666666667</ele><time>2026-04-19T08:22:08.234Z</time></trkpt><trkpt lat="42.0230238" lon="14.5593266"><ele>284.0</ele><time>2026-04-19T08:22:10.259Z</time></trkpt><trkpt lat="42.0231024" lon="14.5593695"><ele>284.0</ele><time>2026-04-19T08:22:13.251Z</time></trkpt><trkpt lat="42.0231765" lon="14.5594506"><ele>284.0</ele><time>2026-04-19T08:22:16.244Z</time></trkpt><trkpt lat="42.0232157" lon="14.5595231"><ele>284.0</ele><time>2026-04-19T08:22:18.234Z</time></trkpt><trkpt lat="42.0232581" lon="14.5596115"><ele>284.0</ele><time>2026-04-19T08:22:20.217Z</time></trkpt><trkpt lat="42.0233126" lon="14.5597304"><ele>284.0</ele><time>2026-04-19T08:22:22.257Z</time></trkpt><trkpt lat="42.023345" lon="14.559826"><ele>284.0</ele><time>2026-04-19T08:22:24.244Z</time></trkpt><trkpt lat="42.0233939" lon="14.559923"><ele>283.83333333333337</ele><time>2026-04-19T08:22:27.238Z</time></trkpt><trkpt lat="42.023426" lon="14.560019"><ele>283.6666666666667</ele><time>2026-04-19T08:22:31.261Z</time></trkpt><trkpt lat="42.0234331" lon="14.5601041"><ele>283.5</ele><time>2026-04-19T08:22:34.25Z</time></trkpt><trkpt lat="42.0233837" lon="14.5601932"><ele>283.3333333333333</ele><time>2026-04-19T08:22:39.252Z</time></trkpt><trkpt lat="42.0233103" lon="14.5602615"><ele>283.16666666666663</ele><time>2026-04-19T08:22:42.234Z</time></trkpt><trkpt lat="42.0232454" lon="14.5602989"><ele>283.0</ele><time>2026-04-19T08:22:44.242Z</time></trkpt><trkpt lat="42.0231769" lon="14.5603597"><ele>285.14285714285717</ele><time>2026-04-19T08:22:46.219Z</time></trkpt><trkpt lat="42.0231142" lon="14.5604105"><ele>287.28571428571433</ele><time>2026-04-19T08:22:48.229Z</time></trkpt><trkpt lat="42.0230537" lon="14.5604607"><ele>289.42857142857144</ele><time>2026-04-19T08:22:50.251Z</time></trkpt><trkpt lat="42.0229958" lon="14.5605156"><ele>291.57142857142856</ele><time>2026-04-19T08:22:52.242Z</time></trkpt><trkpt lat="42.0229461" lon="14.56059"><ele>293.71428571428567</ele><time>2026-04-19T08:22:55.221Z</time></trkpt><trkpt lat="42.0229092" lon="14.5606691"><ele>295.85714285714283</ele><time>2026-04-19T08:22:58.206Z</time></trkpt><trkpt lat="42.0228399" lon="14.560711"><ele>298.0</ele><time>2026-04-19T08:23:22.228Z</time></trkpt><trkpt lat="42.0227691" lon="14.5606999"><ele>298.0</ele><time>2026-04-19T08:23:24.2Z</time></trkpt><trkpt lat="42.0226828" lon="14.5606705"><ele>298.0</ele><time>2026-04-19T08:23:26.24Z</time></trkpt><trkpt lat="42.0226216" lon="14.5605922"><ele>298.0</ele><time>2026-04-19T08:23:28.243Z</time></trkpt><trkpt lat="42.0225359" lon="14.5605516"><ele>298.0</ele><time>2026-04-19T08:23:30.244Z</time></trkpt><trkpt lat="42.0224547" lon="14.5605616"><ele>298.0</ele><time>2026-04-19T08:23:33.248Z</time></trkpt><trkpt lat="42.0223877" lon="14.5606321"><ele>298.0</ele><time>2026-04-19T08:23:35.212Z</time></trkpt><trkpt lat="42.022299" lon="14.5606933"><ele>300.8</ele><time>2026-04-19T08:23:37.236Z</time></trkpt><trkpt lat="42.0222131" lon="14.5607646"><ele>303.6</ele><time>2026-04-19T08:23:39.264Z</time></trkpt><trkpt lat="42.0221319" lon="14.560845"><ele>306.4</ele><time>2026-04-19T08:23:41.267Z</time></trkpt><trkpt lat="42.0220532" lon="14.5609091"><ele>309.2</ele><time>2026-04-19T08:23:43.24Z</time></trkpt><trkpt lat="42.0219513" lon="14.5609888"><ele>312.0</ele><time>2026-04-19T08:23:45.251Z</time></trkpt><trkpt lat="42.0218959" lon="14.5610372"><ele>312.0</ele><time>2026-04-19T08:23:46.289Z</time></trkpt><trkpt lat="42.0218442" lon="14.561093"><ele>312.0</ele><time>2026-04-19T08:23:47.258Z</time></trkpt><trkpt lat="42.0217477" lon="14.5611968"><ele>312.0</ele><time>2026-04-19T08:23:49.246Z</time></trkpt><trkpt lat="42.0216568" lon="14.5613084"><ele>312.0</ele><time>2026-04-19T08:23:51.229Z</time></trkpt><trkpt lat="42.021605" lon="14.5613568"><ele>312.0</ele><time>2026-04-19T08:23:52.266Z</time></trkpt><trkpt lat="42.021502" lon="14.5614352"><ele>316.6</ele><time>2026-04-19T08:23:54.228Z</time></trkpt><trkpt lat="42.0214188" lon="14.5615206"><ele>321.2</ele><time>2026-04-19T08:23:56.24Z</time></trkpt><trkpt lat="42.0213733" lon="14.5616382"><ele>325.8</ele><time>2026-04-19T08:23:58.254Z</time></trkpt><trkpt lat="42.0213365" lon="14.5617731"><ele>330.4</ele><time>2026-04-19T08:24:00.233Z</time></trkpt><trkpt lat="42.0212984" lon="14.5618459"><ele>335.0</ele><time>2026-04-19T08:24:02.217Z</time></trkpt><trkpt lat="42.0212246" lon="14.5618862"><ele>335.0</ele><time>2026-04-19T08:24:04.234Z</time></trkpt><trkpt lat="42.0211444" lon="14.5619273"><ele>335.0</ele><time>2026-04-19T08:24:06.251Z</time></trkpt><trkpt lat="42.0211658" lon="14.5620324"><ele>335.0</ele><time>2026-04-19T08:24:08.243Z</time></trkpt><trkpt lat="42.0211964" lon="14.5621279"><ele>335.0</ele><time>2026-04-19T08:24:10.247Z</time></trkpt><trkpt lat="42.0212088" lon="14.5622277"><ele>335.0</ele><time>2026-04-19T08:24:11.252Z</time></trkpt><trkpt lat="42.0212302" lon="14.5623743"><ele>335.0</ele><time>2026-04-19T08:24:12.198Z</time></trkpt><trkpt lat="42.0212455" lon="14.562502"><ele>335.2</ele><time>2026-04-19T08:24:13.199Z</time></trkpt><trkpt lat="42.0212604" lon="14.5625933"><ele>335.4</ele><time>2026-04-19T08:24:14.197Z</time></trkpt><trkpt lat="42.0212908" lon="14.562719"><ele>335.6</ele><time>2026-04-19T08:24:16.204Z</time></trkpt><trkpt lat="42.0213521" lon="14.5628266"><ele>335.8</ele><time>2026-04-19T08:24:18.215Z</time></trkpt><trkpt lat="42.0214333" lon="14.5628798"><ele>336.0</ele><time>2026-04-19T08:24:20.212Z</time></trkpt><trkpt lat="42.0215393" lon="14.5629306"><ele>336.8</ele><time>2026-04-19T08:24:22.217Z</time></trkpt><trkpt lat="42.0216281" lon="14.5629999"><ele>337.6</ele><time>2026-04-19T08:24:24.209Z</time></trkpt><trkpt lat="42.021684" lon="14.5630402"><ele>338.4</ele><time>2026-04-19T08:24:26.243Z</time></trkpt><trkpt lat="42.0217674" lon="14.5630979"><ele>339.2</ele><time>2026-04-19T08:24:28.243Z</time></trkpt><trkpt lat="42.0218702" lon="14.5631521"><ele>340.0</ele><time>2026-04-19T08:24:30.243Z</time></trkpt><trkpt lat="42.0219498" lon="14.5631826"><ele>337.8</ele><time>2026-04-19T08:24:32.253Z</time></trkpt><trkpt lat="42.0220328" lon="14.5632503"><ele>335.6</ele><time>2026-04-19T08:24:35.247Z</time></trkpt><trkpt lat="42.022112" lon="14.563335"><ele>333.4</ele><time>2026-04-19T08:24:37.212Z</time></trkpt><trkpt lat="42.0222188" lon="14.5633872"><ele>331.2</ele><time>2026-04-19T08:24:39.244Z</time></trkpt><trkpt lat="42.0223459" lon="14.5633691"><ele>329.0</ele><time>2026-04-19T08:24:41.229Z</time></trkpt><trkpt lat="42.0224495" lon="14.5633491"><ele>328.33333333333337</ele><time>2026-04-19T08:24:43.246Z</time></trkpt><trkpt lat="42.0225038" lon="14.5634129"><ele>327.6666666666667</ele><time>2026-04-19T08:24:45.239Z</time></trkpt><trkpt lat="42.0225673" lon="14.563399"><ele>327.0</ele><time>2026-04-19T08:24:49.212Z</time></trkpt><trkpt lat="42.0226119" lon="14.5633202"><ele>326.3333333333333</ele><time>2026-04-19T08:33:29.231Z</time></trkpt><trkpt lat="42.0226543" lon="14.5632149"><ele>325.66666666666663</ele><time>2026-04-19T08:33:33.237Z</time></trkpt><trkpt lat="42.0225831" lon="14.5631578"><ele>325.0</ele><time>2026-04-19T08:33:36.237Z</time></trkpt><trkpt lat="42.0225864" lon="14.5632871"><ele>325.0</ele><time>2026-04-19T08:33:38.271Z</time></trkpt><trkpt lat="42.0225645" lon="14.5634417"><ele>325.0</ele><time>2026-04-19T08:33:40.255Z</time></trkpt><trkpt lat="42.0225506" lon="14.5635487"><ele>325.0</ele><time>2026-04-19T08:33:42.257Z</time></trkpt><trkpt lat="42.0226337" lon="14.5636275"><ele>325.0</ele><time>2026-04-19T08:33:44.216Z</time></trkpt><trkpt lat="42.0227013" lon="14.5636746"><ele>325.0</ele><time>2026-04-19T08:33:45.244Z</time></trkpt><trkpt lat="42.0227639" lon="14.5637133"><ele>325.0</ele><time>2026-04-19T08:33:46.22Z</time></trkpt><trkpt lat="42.022822" lon="14.563747"><ele>326.2</ele><time>2026-04-19T08:33:47.221Z</time></trkpt><trkpt lat="42.0229124" lon="14.5638018"><ele>327.4</ele><time>2026-04-19T08:33:49.251Z</time></trkpt><trkpt lat="42.0229956" lon="14.5638569"><ele>328.6</ele><time>2026-04-19T08:33:51.222Z</time></trkpt><trkpt lat="42.0230893" lon="14.5639177"><ele>329.8</ele><time>2026-04-19T08:33:53.209Z</time></trkpt><trkpt lat="42.0231678" lon="14.5639601"><ele>331.0</ele><time>2026-04-19T08:33:55.255Z</time></trkpt><trkpt lat="42.0232612" lon="14.563991"><ele>329.20000000000005</ele><time>2026-04-19T08:33:57.213Z</time></trkpt><trkpt lat="42.0233618" lon="14.5640193"><ele>327.40000000000003</ele><time>2026-04-19T08:33:59.215Z</time></trkpt><trkpt lat="42.0234501" lon="14.564068"><ele>325.6</ele><time>2026-04-19T08:34:01.26Z</time></trkpt><trkpt lat="42.023527" lon="14.5640891"><ele>323.8</ele><time>2026-04-19T08:34:03.248Z</time></trkpt><trkpt lat="42.023613" lon="14.5641404"><ele>322.0</ele><time>2026-04-19T08:34:06.251Z</time></trkpt><trkpt lat="42.0237379" lon="14.5640886"><ele>322.0</ele><time>2026-04-19T08:34:08.253Z</time></trkpt><trkpt lat="42.023793" lon="14.564006"><ele>322.0</ele><time>2026-04-19T08:34:09.264Z</time></trkpt><trkpt lat="42.023868" lon="14.5639385"><ele>322.0</ele><time>2026-04-19T08:34:10.251Z</time></trkpt><trkpt lat="42.0239516" lon="14.563881"><ele>322.0</ele><time>2026-04-19T08:34:11.27Z</time></trkpt><trkpt lat="42.0240245" lon="14.5638198"><ele>322.0</ele><time>2026-04-19T08:34:12.253Z</time></trkpt><trkpt lat="42.024087" lon="14.563777"><ele>322.0</ele><time>2026-04-19T08:34:13.268Z</time></trkpt><trkpt lat="42.0241483" lon="14.5637453"><ele>320.20000000000005</ele><time>2026-04-19T08:34:14.251Z</time></trkpt><trkpt lat="42.0242535" lon="14.5637026"><ele>318.40000000000003</ele><time>2026-04-19T08:34:16.248Z</time></trkpt><trkpt lat="42.0243564" lon="14.5637098"><ele>316.6</ele><time>2026-04-19T08:34:18.262Z</time></trkpt><trkpt lat="42.0244472" lon="14.5637293"><ele>314.8</ele><time>2026-04-19T08:34:20.276Z</time></trkpt><trkpt lat="42.0245239" lon="14.5637659"><ele>313.0</ele><time>2026-04-19T08:34:23.256Z</time></trkpt><trkpt lat="42.0245937" lon="14.5637826"><ele>313.0</ele><time>2026-04-19T08:34:26.243Z</time></trkpt><trkpt lat="42.0246629" lon="14.5638142"><ele>313.0</ele><time>2026-04-19T08:34:29.235Z</time></trkpt><trkpt lat="42.0245618" lon="14.5637607"><ele>313.0</ele><time>2026-04-19T08:34:37.261Z</time></trkpt><trkpt lat="42.0244718" lon="14.56373"><ele>313.0</ele><time>2026-04-19T08:34:38.249Z</time></trkpt><trkpt lat="42.0243761" lon="14.5636977"><ele>313.0</ele><time>2026-04-19T08:34:39.237Z</time></trkpt><trkpt lat="42.0242898" lon="14.5636902"><ele>313.0</ele><time>2026-04-19T08:34:40.203Z</time></trkpt><trkpt lat="42.0242128" lon="14.563726"><ele>313.0</ele><time>2026-04-19T08:34:42.219Z</time></trkpt><trkpt lat="42.0241905" lon="14.5638288"><ele>313.0</ele><time>2026-04-19T08:34:44.202Z</time></trkpt><trkpt lat="42.0241454" lon="14.5639083"><ele>313.0</ele><time>2026-04-19T08:34:46.202Z</time></trkpt><trkpt lat="42.0240861" lon="14.5639729"><ele>313.0</ele><time>2026-04-19T08:34:48.243Z</time></trkpt><trkpt lat="42.024055" lon="14.5640869"><ele>313.0</ele><time>2026-04-19T08:34:51.24Z</time></trkpt><trkpt lat="42.0241013" lon="14.5641961"><ele>313.0</ele><time>2026-04-19T08:34:54.208Z</time></trkpt><trkpt lat="42.024147" lon="14.5642619"><ele>313.0</ele><time>2026-04-19T08:34:56.239Z</time></trkpt><trkpt lat="42.0241929" lon="14.5643349"><ele>313.0</ele><time>2026-04-19T08:34:58.212Z</time></trkpt><trkpt lat="42.0242469" lon="14.5644074"><ele>313.0</ele><time>2026-04-19T08:35:00.256Z</time></trkpt><trkpt lat="42.0242991" lon="14.5644802"><ele>313.0</ele><time>2026-04-19T08:35:02.222Z</time></trkpt><trkpt lat="42.0243543" lon="14.564552"><ele>313.0</ele><time>2026-04-19T08:35:04.226Z</time></trkpt><trkpt lat="42.0244021" lon="14.5646392"><ele>313.0</ele><time>2026-04-19T08:35:06.213Z</time></trkpt><trkpt lat="42.0244296" lon="14.5647231"><ele>310.85714285714283</ele><time>2026-04-19T08:35:08.206Z</time></trkpt><trkpt lat="42.0244644" lon="14.5648037"><ele>308.7142857142857</ele><time>2026-04-19T08:35:10.248Z</time></trkpt><trkpt lat="42.0245144" lon="14.5648807"><ele>306.57142857142856</ele><time>2026-04-19T08:35:12.264Z</time></trkpt><trkpt lat="42.024555" lon="14.5649621"><ele>304.42857142857144</ele><time>2026-04-19T08:35:14.231Z</time></trkpt><trkpt lat="42.0245817" lon="14.565044"><ele>302.2857142857143</ele><time>2026-04-19T08:35:16.243Z</time></trkpt><trkpt lat="42.0245826" lon="14.5651312"><ele>300.1428571428571</ele><time>2026-04-19T08:35:18.256Z</time></trkpt><trkpt lat="42.0245643" lon="14.5652572"><ele>298.0</ele><time>2026-04-19T08:35:21.239Z</time></trkpt><trkpt lat="42.0245571" lon="14.5653531"><ele>295.6</ele><time>2026-04-19T08:35:23.229Z</time></trkpt><trkpt lat="42.0245551" lon="14.5654798"><ele>293.20000000000005</ele><time>2026-04-19T08:35:26.247Z</time></trkpt><trkpt lat="42.0245892" lon="14.5656022"><ele>290.8</ele><time>2026-04-19T08:35:28.238Z</time></trkpt><trkpt lat="42.0246457" lon="14.5657232"><ele>288.40000000000003</ele><time>2026-04-19T08:35:30.264Z</time></trkpt><trkpt lat="42.0247062" lon="14.5658617"><ele>286.0</ele><time>2026-04-19T08:35:32.247Z</time></trkpt><trkpt lat="42.0247621" lon="14.5659881"><ele>286.0</ele><time>2026-04-19T08:35:34.253Z</time></trkpt><trkpt lat="42.0248383" lon="14.5661252"><ele>286.0</ele><time>2026-04-19T08:35:36.249Z</time></trkpt><trkpt lat="42.0248716" lon="14.5661998"><ele>286.0</ele><time>2026-04-19T08:35:37.241Z</time></trkpt><trkpt lat="42.024899" lon="14.5662824"><ele>286.0</ele><time>2026-04-19T08:35:38.255Z</time></trkpt><trkpt lat="42.0249399" lon="14.5664288"><ele>286.0</ele><time>2026-04-19T08:35:40.256Z</time></trkpt><trkpt lat="42.0249827" lon="14.5665637"><ele>279.8</ele><time>2026-04-19T08:35:42.229Z</time></trkpt><trkpt lat="42.0250131" lon="14.5666999"><ele>273.6</ele><time>2026-04-19T08:35:44.257Z</time></trkpt><trkpt lat="42.0250377" lon="14.5668027"><ele>267.4</ele><time>2026-04-19T08:35:46.201Z</time></trkpt><trkpt lat="42.025082" lon="14.5669229"><ele>261.2</ele><time>2026-04-19T08:35:48.233Z</time></trkpt><trkpt lat="42.0251112" lon="14.5670658"><ele>255.0</ele><time>2026-04-19T08:35:50.243Z</time></trkpt><trkpt lat="42.0251274" lon="14.5671598"><ele>253.5</ele><time>2026-04-19T08:35:51.263Z</time></trkpt><trkpt lat="42.0251426" lon="14.5672466"><ele>252.0</ele><time>2026-04-19T08:35:52.234Z</time></trkpt><trkpt lat="42.0251532" lon="14.5673743"><ele>250.5</ele><time>2026-04-19T08:35:54.25Z</time></trkpt><trkpt lat="42.0251478" lon="14.5674594"><ele>249.0</ele><time>2026-04-19T08:35:57.255Z</time></trkpt><trkpt lat="42.0252137" lon="14.5675074"><ele>247.5</ele><time>2026-04-19T08:36:03.217Z</time></trkpt><trkpt lat="42.0253015" lon="14.5675057"><ele>246.0</ele><time>2026-04-19T08:36:06.213Z</time></trkpt><trkpt lat="42.0253781" lon="14.5675557"><ele>246.0</ele><time>2026-04-19T08:36:10.203Z</time></trkpt><trkpt lat="42.0253551" lon="14.567669"><ele>246.0</ele><time>2026-04-19T08:36:15.213Z</time></trkpt><trkpt lat="42.0252839" lon="14.5677254"><ele>246.0</ele><time>2026-04-19T08:36:17.226Z</time></trkpt><trkpt lat="42.0252438" lon="14.567811"><ele>246.0</ele><time>2026-04-19T08:36:19.214Z</time></trkpt><trkpt lat="42.025158" lon="14.5678151"><ele>246.0</ele><time>2026-04-19T08:36:22.21Z</time></trkpt><trkpt lat="42.0250627" lon="14.567852"><ele>246.0</ele><time>2026-04-19T08:36:24.208Z</time></trkpt><trkpt lat="42.0249927" lon="14.5679275"><ele>246.66666666666666</ele><time>2026-04-19T08:36:26.235Z</time></trkpt><trkpt lat="42.0249297" lon="14.5680195"><ele>247.33333333333331</ele><time>2026-04-19T08:36:28.242Z</time></trkpt><trkpt lat="42.0248736" lon="14.5681038"><ele>248.0</ele><time>2026-04-19T08:36:30.225Z</time></trkpt><trkpt lat="42.0248292" lon="14.5681731"><ele>248.66666666666666</ele><time>2026-04-19T08:36:32.206Z</time></trkpt><trkpt lat="42.0247791" lon="14.5682748"><ele>249.33333333333331</ele><time>2026-04-19T08:36:35.264Z</time></trkpt><trkpt lat="42.0247271" lon="14.5683633"><ele>250.0</ele><time>2026-04-19T08:36:38.209Z</time></trkpt><trkpt lat="42.0246796" lon="14.5684325"><ele>250.0</ele><time>2026-04-19T08:36:40.25Z</time></trkpt><trkpt lat="42.024595" lon="14.5684795"><ele>250.0</ele><time>2026-04-19T08:36:42.224Z</time></trkpt><trkpt lat="42.0245215" lon="14.5685152"><ele>250.0</ele><time>2026-04-19T08:36:43.242Z</time></trkpt><trkpt lat="42.0244613" lon="14.5685672"><ele>250.0</ele><time>2026-04-19T08:36:44.212Z</time></trkpt><trkpt lat="42.0244014" lon="14.5687248"><ele>250.0</ele><time>2026-04-19T08:36:46.237Z</time></trkpt><trkpt lat="42.0243431" lon="14.5688333"><ele>248.8</ele><time>2026-04-19T08:36:47.242Z</time></trkpt><trkpt lat="42.0242753" lon="14.5689518"><ele>247.6</ele><time>2026-04-19T08:36:48.221Z</time></trkpt><trkpt lat="42.0242132" lon="14.569046"><ele>246.39999999999998</ele><time>2026-04-19T08:36:49.24Z</time></trkpt><trkpt lat="42.0241631" lon="14.5691321"><ele>245.2</ele><time>2026-04-19T08:36:50.247Z</time></trkpt><trkpt lat="42.0241133" lon="14.5692031"><ele>244.0</ele><time>2026-04-19T08:36:51.244Z</time></trkpt><trkpt lat="42.0240526" lon="14.5693072"><ele>245.0</ele><time>2026-04-19T08:36:52.232Z</time></trkpt><trkpt lat="42.0239995" lon="14.5693935"><ele>245.99999999999997</ele><time>2026-04-19T08:36:53.245Z</time></trkpt><trkpt lat="42.0239578" lon="14.5694579"><ele>246.99999999999997</ele><time>2026-04-19T08:36:54.244Z</time></trkpt><trkpt lat="42.0238908" lon="14.5695766"><ele>248.0</ele><time>2026-04-19T08:36:56.199Z</time></trkpt><trkpt lat="42.0238424" lon="14.5697085"><ele>249.0</ele><time>2026-04-19T08:36:58.243Z</time></trkpt><trkpt lat="42.0238243" lon="14.5698443"><ele>249.0</ele><time>2026-04-19T08:37:00.212Z</time></trkpt><trkpt lat="42.0238182" lon="14.5699822"><ele>249.0</ele><time>2026-04-19T08:37:02.246Z</time></trkpt><trkpt lat="42.0238078" lon="14.5700691"><ele>249.0</ele><time>2026-04-19T08:37:04.211Z</time></trkpt><trkpt lat="42.0237665" lon="14.5701358"><ele>249.0</ele><time>2026-04-19T08:37:06.211Z</time></trkpt><trkpt lat="42.0237036" lon="14.5701947"><ele>249.0</ele><time>2026-04-19T08:37:21.231Z</time></trkpt><trkpt lat="42.023657" lon="14.5702739"><ele>249.0</ele><time>2026-04-19T08:37:23.247Z</time></trkpt><trkpt lat="42.0236425" lon="14.570363"><ele>248.5</ele><time>2026-04-19T08:37:25.234Z</time></trkpt><trkpt lat="42.0236496" lon="14.5704551"><ele>248.0</ele><time>2026-04-19T08:37:27.246Z</time></trkpt><trkpt lat="42.0236661" lon="14.5705401"><ele>247.5</ele><time>2026-04-19T08:37:29.201Z</time></trkpt><trkpt lat="42.0236733" lon="14.5706401"><ele>247.0</ele><time>2026-04-19T08:37:32.233Z</time></trkpt><trkpt lat="42.0236753" lon="14.5707342"><ele>246.5</ele><time>2026-04-19T08:37:36.233Z</time></trkpt><trkpt lat="42.0235908" lon="14.5707958"><ele>246.0</ele><time>2026-04-19T08:37:48.198Z</time></trkpt><trkpt lat="42.0235199" lon="14.5708431"><ele>246.0</ele><time>2026-04-19T08:37:50.238Z</time></trkpt><trkpt lat="42.0234489" lon="14.5709046"><ele>246.0</ele><time>2026-04-19T08:37:52.232Z</time></trkpt><trkpt lat="42.0233317" lon="14.5709517"><ele>246.0</ele><time>2026-04-19T08:37:54.236Z</time></trkpt><trkpt lat="42.0232551" lon="14.5709989"><ele>246.0</ele><time>2026-04-19T08:37:56.23Z</time></trkpt><trkpt lat="42.0232257" lon="14.5710771"><ele>246.0</ele><time>2026-04-19T08:38:22.23Z</time></trkpt><trkpt lat="42.0231978" lon="14.5711676"><ele>246.0</ele><time>2026-04-19T08:38:28.227Z</time></trkpt><trkpt lat="42.0231582" lon="14.571244"><ele>248.0</ele><time>2026-04-19T08:38:40.201Z</time></trkpt><trkpt lat="42.0231277" lon="14.5713271"><ele>250.0</ele><time>2026-04-19T08:38:45.232Z</time></trkpt><trkpt lat="42.0230452" lon="14.5713333"><ele>252.0</ele><time>2026-04-19T08:38:47.238Z</time></trkpt><trkpt lat="42.0229655" lon="14.5713219"><ele>254.0</ele><time>2026-04-19T08:38:48.238Z</time></trkpt><trkpt lat="42.0228548" lon="14.571307"><ele>256.0</ele><time>2026-04-19T08:38:49.241Z</time></trkpt><trkpt lat="42.0227536" lon="14.5713292"><ele>258.0</ele><time>2026-04-19T08:38:50.235Z</time></trkpt><trkpt lat="42.0226509" lon="14.571397"><ele>258.0</ele><time>2026-04-19T08:38:51.226Z</time></trkpt><trkpt lat="42.0225571" lon="14.5714803"><ele>258.0</ele><time>2026-04-19T08:38:52.226Z</time></trkpt><trkpt lat="42.0224728" lon="14.5715686"><ele>258.0</ele><time>2026-04-19T08:38:53.246Z</time></trkpt><trkpt lat="42.0224163" lon="14.5716835"><ele>258.0</ele><time>2026-04-19T08:38:54.271Z</time></trkpt><trkpt lat="42.0223602" lon="14.5718139"><ele>258.0</ele><time>2026-04-19T08:38:55.246Z</time></trkpt><trkpt lat="42.0223169" lon="14.5719838"><ele>262.5</ele><time>2026-04-19T08:38:56.25Z</time></trkpt><trkpt lat="42.0222737" lon="14.572161"><ele>267.0</ele><time>2026-04-19T08:38:57.237Z</time></trkpt><trkpt lat="42.0222424" lon="14.5723214"><ele>271.5</ele><time>2026-04-19T08:38:58.208Z</time></trkpt><trkpt lat="42.0222098" lon="14.5724898"><ele>276.0</ele><time>2026-04-19T08:38:59.219Z</time></trkpt><trkpt lat="42.0221839" lon="14.5726656"><ele>276.0</ele><time>2026-04-19T08:39:00.255Z</time></trkpt><trkpt lat="42.0221582" lon="14.5728351"><ele>276.0</ele><time>2026-04-19T08:39:01.24Z</time></trkpt><trkpt lat="42.0221348" lon="14.5729732"><ele>276.0</ele><time>2026-04-19T08:39:02.245Z</time></trkpt><trkpt lat="42.0221223" lon="14.5731089"><ele>276.0</ele><time>2026-04-19T08:39:03.246Z</time></trkpt><trkpt lat="42.0221092" lon="14.5732457"><ele>276.0</ele><time>2026-04-19T08:39:04.23Z</time></trkpt><trkpt lat="42.0220958" lon="14.5733736"><ele>277.2</ele><time>2026-04-19T08:39:05.239Z</time></trkpt><trkpt lat="42.0220787" lon="14.5735005"><ele>278.40000000000003</ele><time>2026-04-19T08:39:06.244Z</time></trkpt><trkpt lat="42.0220549" lon="14.5736272"><ele>279.6</ele><time>2026-04-19T08:39:07.25Z</time></trkpt><trkpt lat="42.0220181" lon="14.5737592"><ele>280.8</ele><time>2026-04-19T08:39:08.236Z</time></trkpt><trkpt lat="42.0219789" lon="14.5738917"><ele>282.0</ele><time>2026-04-19T08:39:09.238Z</time></trkpt><trkpt lat="42.0219308" lon="14.5740299"><ele>285.0</ele><time>2026-04-19T08:39:10.25Z</time></trkpt><trkpt lat="42.0218892" lon="14.5741736"><ele>288.0</ele><time>2026-04-19T08:39:11.321Z</time></trkpt><trkpt lat="42.0217961" lon="14.574471"><ele>291.0</ele><time>2026-04-19T08:39:13.243Z</time></trkpt><trkpt lat="42.0217362" lon="14.5746372"><ele>295.25</ele><time>2026-04-19T08:39:14.227Z</time></trkpt><trkpt lat="42.0216822" lon="14.5748036"><ele>299.5</ele><time>2026-04-19T08:39:15.23Z</time></trkpt><trkpt lat="42.0216368" lon="14.5749598"><ele>303.75</ele><time>2026-04-19T08:39:16.231Z</time></trkpt><trkpt lat="42.0215976" lon="14.5751039"><ele>308.0</ele><time>2026-04-19T08:39:17.231Z</time></trkpt><trkpt lat="42.0215488" lon="14.5752379"><ele>312.5</ele><time>2026-04-19T08:39:18.229Z</time></trkpt><trkpt lat="42.0214913" lon="14.575356"><ele>317.0</ele><time>2026-04-19T08:39:19.2Z</time></trkpt><trkpt lat="42.0214309" lon="14.5754679"><ele>321.5</ele><time>2026-04-19T08:39:20.251Z</time></trkpt><trkpt lat="42.0213609" lon="14.5755957"><ele>326.0</ele><time>2026-04-19T08:39:21.201Z</time></trkpt><trkpt lat="42.0212819" lon="14.5757484"><ele>326.0</ele><time>2026-04-19T08:39:22.188Z</time></trkpt><trkpt lat="42.021202" lon="14.5759224"><ele>326.0</ele><time>2026-04-19T08:39:23.206Z</time></trkpt><trkpt lat="42.0211267" lon="14.5760952"><ele>326.0</ele><time>2026-04-19T08:39:24.216Z</time></trkpt><trkpt lat="42.0210669" lon="14.5762494"><ele>326.0</ele><time>2026-04-19T08:39:25.202Z</time></trkpt><trkpt lat="42.0210114" lon="14.5764221"><ele>328.5</ele><time>2026-04-19T08:39:26.244Z</time></trkpt><trkpt lat="42.0209465" lon="14.5766233"><ele>331.0</ele><time>2026-04-19T08:39:27.216Z</time></trkpt><trkpt lat="42.0208787" lon="14.5768137"><ele>333.5</ele><time>2026-04-19T08:39:28.2Z</time></trkpt><trkpt lat="42.0208184" lon="14.5769677"><ele>336.0</ele><time>2026-04-19T08:39:29.202Z</time></trkpt><trkpt lat="42.0207487" lon="14.5771106"><ele>337.6</ele><time>2026-04-19T08:39:30.241Z</time></trkpt><trkpt lat="42.0206819" lon="14.5772546"><ele>339.20000000000005</ele><time>2026-04-19T08:39:31.221Z</time></trkpt><trkpt lat="42.0206478" lon="14.5773886"><ele>340.79999999999995</ele><time>2026-04-19T08:39:32.24Z</time></trkpt><trkpt lat="42.0206326" lon="14.5775037"><ele>342.4</ele><time>2026-04-19T08:39:33.204Z</time></trkpt><trkpt lat="42.0206128" lon="14.5776346"><ele>344.0</ele><time>2026-04-19T08:39:34.218Z</time></trkpt><trkpt lat="42.0205855" lon="14.5777529"><ele>344.0</ele><time>2026-04-19T08:39:35.193Z</time></trkpt><trkpt lat="42.0205584" lon="14.5778378"><ele>344.0</ele><time>2026-04-19T08:39:36.194Z</time></trkpt><trkpt lat="42.0205641" lon="14.5779554"><ele>344.0</ele><time>2026-04-19T08:39:38.207Z</time></trkpt><trkpt lat="42.0206102" lon="14.5780254"><ele>344.0</ele><time>2026-04-19T08:39:40.201Z</time></trkpt><trkpt lat="42.0206785" lon="14.5781218"><ele>344.0</ele><time>2026-04-19T08:39:43.195Z</time></trkpt><trkpt lat="42.0207335" lon="14.578226"><ele>344.0</ele><time>2026-04-19T08:39:45.199Z</time></trkpt><trkpt lat="42.0208114" lon="14.5783261"><ele>345.4</ele><time>2026-04-19T08:39:47.19Z</time></trkpt><trkpt lat="42.020844" lon="14.5784449"><ele>346.79999999999995</ele><time>2026-04-19T08:39:49.21Z</time></trkpt><trkpt lat="42.0208361" lon="14.5785913"><ele>348.20000000000005</ele><time>2026-04-19T08:39:51.214Z</time></trkpt><trkpt lat="42.0208222" lon="14.5787734"><ele>349.6</ele><time>2026-04-19T08:39:53.219Z</time></trkpt><trkpt lat="42.0208075" lon="14.5788919"><ele>351.0</ele><time>2026-04-19T08:39:54.245Z</time></trkpt><trkpt lat="42.0207944" lon="14.579021"><ele>353.0</ele><time>2026-04-19T08:39:55.238Z</time></trkpt><trkpt lat="42.0207849" lon="14.5791359"><ele>355.0</ele><time>2026-04-19T08:39:56.215Z</time></trkpt><trkpt lat="42.0207824" lon="14.57923"><ele>357.0</ele><time>2026-04-19T08:39:57.204Z</time></trkpt><trkpt lat="42.0208252" lon="14.5793494"><ele>359.0</ele><time>2026-04-19T08:39:59.236Z</time></trkpt><trkpt lat="42.0208426" lon="14.5794593"><ele>361.0</ele><time>2026-04-19T08:40:09.199Z</time></trkpt><trkpt lat="42.0207914" lon="14.5795501"><ele>363.0</ele><time>2026-04-19T08:40:11.226Z</time></trkpt><trkpt lat="42.0207184" lon="14.5796074"><ele>363.79999999999995</ele><time>2026-04-19T08:40:13.239Z</time></trkpt><trkpt lat="42.0206265" lon="14.5796674"><ele>364.6</ele><time>2026-04-19T08:40:15.241Z</time></trkpt><trkpt lat="42.0206085" lon="14.5795416"><ele>365.4</ele><time>2026-04-19T08:40:26.258Z</time></trkpt><trkpt lat="42.0206175" lon="14.5794079"><ele>366.20000000000005</ele><time>2026-04-19T08:40:28.247Z</time></trkpt><trkpt lat="42.0206256" lon="14.5792889"><ele>367.0</ele><time>2026-04-19T08:40:30.233Z</time></trkpt><trkpt lat="42.0206541" lon="14.5791365"><ele>367.0</ele><time>2026-04-19T08:40:33.209Z</time></trkpt><trkpt lat="42.0206896" lon="14.579003"><ele>367.0</ele><time>2026-04-19T08:40:34.226Z</time></trkpt><trkpt lat="42.02073" lon="14.5788795"><ele>367.0</ele><time>2026-04-19T08:40:35.257Z</time></trkpt><trkpt lat="42.02076" lon="14.578776"><ele>367.0</ele><time>2026-04-19T08:40:36.222Z</time></trkpt><trkpt lat="42.0207916" lon="14.5786841"><ele>367.0</ele><time>2026-04-19T08:40:37.222Z</time></trkpt><trkpt lat="42.0208167" lon="14.5786033"><ele>367.0</ele><time>2026-04-19T08:40:38.218Z</time></trkpt><trkpt lat="42.0208451" lon="14.5784803"><ele>363.8</ele><time>2026-04-19T08:40:40.217Z</time></trkpt><trkpt lat="42.0208496" lon="14.5783674"><ele>360.6</ele><time>2026-04-19T08:40:42.21Z</time></trkpt><trkpt lat="42.0208076" lon="14.5782616"><ele>357.40000000000003</ele><time>2026-04-19T08:40:44.238Z</time></trkpt><trkpt lat="42.0207242" lon="14.5781372"><ele>354.20000000000005</ele><time>2026-04-19T08:40:46.241Z</time></trkpt><trkpt lat="42.0206441" lon="14.5780176"><ele>351.0</ele><time>2026-04-19T08:40:48.235Z</time></trkpt><trkpt lat="42.0206128" lon="14.5778657"><ele>349.8333333333333</ele><time>2026-04-19T08:40:50.206Z</time></trkpt><trkpt lat="42.0206275" lon="14.5777591"><ele>348.6666666666667</ele><time>2026-04-19T08:40:51.242Z</time></trkpt><trkpt lat="42.0206474" lon="14.5776472"><ele>347.5</ele><time>2026-04-19T08:40:52.243Z</time></trkpt><trkpt lat="42.020656" lon="14.5775507"><ele>346.33333333333337</ele><time>2026-04-19T08:40:53.249Z</time></trkpt><trkpt lat="42.0206635" lon="14.5774627"><ele>345.1666666666667</ele><time>2026-04-19T08:40:54.25Z</time></trkpt><trkpt lat="42.0206693" lon="14.5773456"><ele>344.0</ele><time>2026-04-19T08:40:56.263Z</time></trkpt><trkpt lat="42.0206197" lon="14.5772649"><ele>344.0</ele><time>2026-04-19T08:40:59.209Z</time></trkpt><trkpt lat="42.0205552" lon="14.5773116"><ele>344.0</ele><time>2026-04-19T08:41:01.225Z</time></trkpt><trkpt lat="42.0204688" lon="14.5774122"><ele>344.0</ele><time>2026-04-19T08:41:03.208Z</time></trkpt><trkpt lat="42.0204023" lon="14.5775079"><ele>344.0</ele><time>2026-04-19T08:41:05.24Z</time></trkpt><trkpt lat="42.0203652" lon="14.577577"><ele>344.0</ele><time>2026-04-19T08:41:06.233Z</time></trkpt><trkpt lat="42.0203279" lon="14.5776567"><ele>344.0</ele><time>2026-04-19T08:41:07.236Z</time></trkpt><trkpt lat="42.0202899" lon="14.5777378"><ele>344.0</ele><time>2026-04-19T08:41:08.252Z</time></trkpt><trkpt lat="42.0202581" lon="14.5778133"><ele>344.0</ele><time>2026-04-19T08:41:09.218Z</time></trkpt><trkpt lat="42.0202134" lon="14.5778738"><ele>344.0</ele><time>2026-04-19T08:41:12.25Z</time></trkpt><trkpt lat="42.0201605" lon="14.5779354"><ele>344.0</ele><time>2026-04-19T08:41:16.247Z</time></trkpt><trkpt lat="42.0200599" lon="14.5780165"><ele>344.0</ele><time>2026-04-19T08:41:19.217Z</time></trkpt><trkpt lat="42.0199894" lon="14.5780686"><ele>344.0</ele><time>2026-04-19T08:41:24.222Z</time></trkpt><trkpt lat="42.0199081" lon="14.5781236"><ele>346.0</ele><time>2026-04-19T08:41:27.241Z</time></trkpt><trkpt lat="42.0198453" lon="14.5781494"><ele>348.0</ele><time>2026-04-19T08:41:29.255Z</time></trkpt><trkpt lat="42.0197521" lon="14.5782326"><ele>350.0</ele><time>2026-04-19T08:41:31.22Z</time></trkpt><trkpt lat="42.0196776" lon="14.5782685"><ele>352.0</ele><time>2026-04-19T08:41:32.205Z</time></trkpt><trkpt lat="42.0195959" lon="14.5783003"><ele>354.0</ele><time>2026-04-19T08:41:33.216Z</time></trkpt><trkpt lat="42.0195058" lon="14.5783178"><ele>356.0</ele><time>2026-04-19T08:41:34.255Z</time></trkpt><trkpt lat="42.0194142" lon="14.5783354"><ele>356.0</ele><time>2026-04-19T08:41:35.248Z</time></trkpt><trkpt lat="42.0193457" lon="14.5783437"><ele>356.0</ele><time>2026-04-19T08:41:36.24Z</time></trkpt><trkpt lat="42.0193036" lon="14.578416"><ele>356.0</ele><time>2026-04-19T08:41:38.201Z</time></trkpt><trkpt lat="42.0192463" lon="14.5785624"><ele>356.0</ele><time>2026-04-19T08:41:40.235Z</time></trkpt><trkpt lat="42.0192576" lon="14.5786945"><ele>356.0</ele><time>2026-04-19T08:41:42.229Z</time></trkpt><trkpt lat="42.0193135" lon="14.5788643"><ele>358.1666666666667</ele><time>2026-04-19T08:41:44.221Z</time></trkpt><trkpt lat="42.0193409" lon="14.5789459"><ele>360.33333333333337</ele><time>2026-04-19T08:41:45.265Z</time></trkpt><trkpt lat="42.0193656" lon="14.5790264"><ele>362.5</ele><time>2026-04-19T08:41:46.244Z</time></trkpt><trkpt lat="42.019379" lon="14.5791162"><ele>364.6666666666667</ele><time>2026-04-19T08:41:47.253Z</time></trkpt><trkpt lat="42.0193834" lon="14.5792168"><ele>366.8333333333333</ele><time>2026-04-19T08:41:48.254Z</time></trkpt><trkpt lat="42.0193935" lon="14.5793399"><ele>369.0</ele><time>2026-04-19T08:41:49.249Z</time></trkpt><trkpt lat="42.019414" lon="14.5794618"><ele>370.8333333333333</ele><time>2026-04-19T08:41:50.238Z</time></trkpt><trkpt lat="42.0194061" lon="14.5795676"><ele>372.6666666666667</ele><time>2026-04-19T08:41:51.22Z</time></trkpt><trkpt lat="42.0193848" lon="14.579664"><ele>374.5</ele><time>2026-04-19T08:41:52.227Z</time></trkpt><trkpt lat="42.0193743" lon="14.5797749"><ele>376.33333333333337</ele><time>2026-04-19T08:41:53.241Z</time></trkpt><trkpt lat="42.0193666" lon="14.5798899"><ele>378.1666666666667</ele><time>2026-04-19T08:41:54.201Z</time></trkpt><trkpt lat="42.0193561" lon="14.5800017"><ele>380.0</ele><time>2026-04-19T08:41:55.222Z</time></trkpt><trkpt lat="42.0193316" lon="14.5800975"><ele>380.0</ele><time>2026-04-19T08:41:56.247Z</time></trkpt><trkpt lat="42.0192933" lon="14.5801911"><ele>380.0</ele><time>2026-04-19T08:41:57.234Z</time></trkpt><trkpt lat="42.0192686" lon="14.5802784"><ele>380.0</ele><time>2026-04-19T08:41:58.244Z</time></trkpt><trkpt lat="42.0192539" lon="14.5803754"><ele>380.0</ele><time>2026-04-19T08:41:59.237Z</time></trkpt><trkpt lat="42.0192561" lon="14.5805039"><ele>380.0</ele><time>2026-04-19T08:42:00.238Z</time></trkpt><trkpt lat="42.0192677" lon="14.5806405"><ele>380.0</ele><time>2026-04-19T08:42:01.246Z</time></trkpt><trkpt lat="42.019291" lon="14.5807753"><ele>383.4</ele><time>2026-04-19T08:42:02.244Z</time></trkpt><trkpt lat="42.0193576" lon="14.5808899"><ele>386.8</ele><time>2026-04-19T08:42:03.242Z</time></trkpt><trkpt lat="42.0194221" lon="14.5809958"><ele>390.20000000000005</ele><time>2026-04-19T08:42:04.248Z</time></trkpt><trkpt lat="42.0194629" lon="14.5810871"><ele>393.6</ele><time>2026-04-19T08:42:06.24Z</time></trkpt><trkpt lat="42.0195299" lon="14.5811505"><ele>397.0</ele><time>2026-04-19T08:42:08.229Z</time></trkpt><trkpt lat="42.0196183" lon="14.5811562"><ele>397.00000000000006</ele><time>2026-04-19T08:42:09.251Z</time></trkpt><trkpt lat="42.0197134" lon="14.5811802"><ele>397.0</ele><time>2026-04-19T08:42:10.219Z</time></trkpt><trkpt lat="42.0197927" lon="14.5812147"><ele>397.0</ele><time>2026-04-19T08:42:11.202Z</time></trkpt><trkpt lat="42.0198715" lon="14.5812532"><ele>397.0</ele><time>2026-04-19T08:42:12.228Z</time></trkpt><trkpt lat="42.0199468" lon="14.5812864"><ele>397.00000000000006</ele><time>2026-04-19T08:42:13.218Z</time></trkpt><trkpt lat="42.0200158" lon="14.5813228"><ele>397.0</ele><time>2026-04-19T08:42:14.201Z</time></trkpt><trkpt lat="42.0200795" lon="14.5813549"><ele>398.0</ele><time>2026-04-19T08:42:15.247Z</time></trkpt><trkpt lat="42.0201461" lon="14.5813916"><ele>399.0</ele><time>2026-04-19T08:42:16.235Z</time></trkpt><trkpt lat="42.0202147" lon="14.581423"><ele>400.0</ele><time>2026-04-19T08:42:17.25Z</time></trkpt><trkpt lat="42.0203369" lon="14.5815024"><ele>401.0</ele><time>2026-04-19T08:42:19.263Z</time></trkpt><trkpt lat="42.0204145" lon="14.5815556"><ele>402.0</ele><time>2026-04-19T08:42:20.218Z</time></trkpt><trkpt lat="42.0204951" lon="14.5816038"><ele>402.0</ele><time>2026-04-19T08:42:21.231Z</time></trkpt><trkpt lat="42.0205687" lon="14.5816425"><ele>402.0</ele><time>2026-04-19T08:42:22.246Z</time></trkpt><trkpt lat="42.0206301" lon="14.5816666"><ele>402.0</ele><time>2026-04-19T08:42:23.263Z</time></trkpt><trkpt lat="42.0207121" lon="14.5816976"><ele>402.0</ele><time>2026-04-19T08:42:25.26Z</time></trkpt><trkpt lat="42.0207591" lon="14.5817851"><ele>402.0</ele><time>2026-04-19T08:42:28.199Z</time></trkpt><trkpt lat="42.0207766" lon="14.5819016"><ele>402.0</ele><time>2026-04-19T08:42:30.224Z</time></trkpt><trkpt lat="42.0208006" lon="14.5820392"><ele>401.0</ele><time>2026-04-19T08:42:32.223Z</time></trkpt><trkpt lat="42.0208267" lon="14.5821622"><ele>400.0</ele><time>2026-04-19T08:42:34.207Z</time></trkpt><trkpt lat="42.0208488" lon="14.5822581"><ele>399.0</ele><time>2026-04-19T08:42:36.231Z</time></trkpt><trkpt lat="42.0208098" lon="14.5823451"><ele>398.0</ele><time>2026-04-19T08:42:38.209Z</time></trkpt><trkpt lat="42.0207458" lon="14.5824133"><ele>397.0</ele><time>2026-04-19T08:42:39.209Z</time></trkpt><trkpt lat="42.02065" lon="14.582473"><ele>396.0</ele><time>2026-04-19T08:42:40.21Z</time></trkpt><trkpt lat="42.0205472" lon="14.5825462"><ele>396.0</ele><time>2026-04-19T08:42:41.203Z</time></trkpt><trkpt lat="42.0204727" lon="14.5826237"><ele>396.0</ele><time>2026-04-19T08:42:42.205Z</time></trkpt><trkpt lat="42.0204151" lon="14.5827127"><ele>396.0</ele><time>2026-04-19T08:42:43.271Z</time></trkpt><trkpt lat="42.0203993" lon="14.5828164"><ele>396.0</ele><time>2026-04-19T08:42:44.226Z</time></trkpt><trkpt lat="42.0204041" lon="14.5829333"><ele>396.0</ele><time>2026-04-19T08:42:45.196Z</time></trkpt><trkpt lat="42.0204167" lon="14.5830687"><ele>396.0</ele><time>2026-04-19T08:42:46.195Z</time></trkpt><trkpt lat="42.0204414" lon="14.5832156"><ele>395.1666666666667</ele><time>2026-04-19T08:42:47.256Z</time></trkpt><trkpt lat="42.0204646" lon="14.5833682"><ele>394.33333333333337</ele><time>2026-04-19T08:42:48.23Z</time></trkpt><trkpt lat="42.0204977" lon="14.5834939"><ele>393.5</ele><time>2026-04-19T08:42:49.211Z</time></trkpt><trkpt lat="42.0205305" lon="14.5835857"><ele>392.6666666666667</ele><time>2026-04-19T08:42:50.201Z</time></trkpt><trkpt lat="42.0205672" lon="14.5836687"><ele>391.83333333333337</ele><time>2026-04-19T08:42:52.232Z</time></trkpt><trkpt lat="42.0205836" lon="14.5837642"><ele>391.0</ele><time>2026-04-19T08:42:55.251Z</time></trkpt><trkpt lat="42.0206185" lon="14.5838587"><ele>392.71428571428567</ele><time>2026-04-19T08:42:58.196Z</time></trkpt><trkpt lat="42.0206764" lon="14.5839078"><ele>394.42857142857144</ele><time>2026-04-19T08:43:01.214Z</time></trkpt><trkpt lat="42.0207385" lon="14.5839303"><ele>396.1428571428571</ele><time>2026-04-19T08:43:03.244Z</time></trkpt><trkpt lat="42.0208106" lon="14.5840117"><ele>397.85714285714283</ele><time>2026-04-19T08:43:06.205Z</time></trkpt><trkpt lat="42.0207476" lon="14.584071"><ele>399.57142857142856</ele><time>2026-04-19T08:43:09.243Z</time></trkpt><trkpt lat="42.0206784" lon="14.5841004"><ele>401.2857142857143</ele><time>2026-04-19T08:43:11.201Z</time></trkpt><trkpt lat="42.0206196" lon="14.584155"><ele>403.0</ele><time>2026-04-19T08:43:13.226Z</time></trkpt><trkpt lat="42.0205592" lon="14.5842446"><ele>403.0</ele><time>2026-04-19T08:43:15.247Z</time></trkpt><trkpt lat="42.0205051" lon="14.5842919"><ele>403.0</ele><time>2026-04-19T08:43:17.198Z</time></trkpt><trkpt lat="42.0204431" lon="14.5843358"><ele>403.0</ele><time>2026-04-19T08:43:19.234Z</time></trkpt><trkpt lat="42.0203686" lon="14.5843542"><ele>403.0</ele><time>2026-04-19T08:43:22.217Z</time></trkpt><trkpt lat="42.020306" lon="14.5844039"><ele>403.0</ele><time>2026-04-19T08:43:25.199Z</time></trkpt><trkpt lat="42.0202767" lon="14.5844875"><ele>403.0</ele><time>2026-04-19T08:43:27.237Z</time></trkpt><trkpt lat="42.0202799" lon="14.5845891"><ele>403.0</ele><time>2026-04-19T08:43:29.228Z</time></trkpt><trkpt lat="42.0202648" lon="14.5846875"><ele>403.83333333333337</ele><time>2026-04-19T08:43:31.218Z</time></trkpt><trkpt lat="42.0201882" lon="14.5847346"><ele>404.6666666666667</ele><time>2026-04-19T08:43:34.229Z</time></trkpt><trkpt lat="42.0200923" lon="14.5847631"><ele>405.5</ele><time>2026-04-19T08:43:36.235Z</time></trkpt><trkpt lat="42.0200081" lon="14.5847926"><ele>406.33333333333337</ele><time>2026-04-19T08:43:38.236Z</time></trkpt><trkpt lat="42.0199431" lon="14.5848185"><ele>407.1666666666667</ele><time>2026-04-19T08:43:40.226Z</time></trkpt><trkpt lat="42.0198846" lon="14.5848823"><ele>408.0</ele><time>2026-04-19T08:43:43.237Z</time></trkpt><trkpt lat="42.0199204" lon="14.5850031"><ele>410.59999999999997</ele><time>2026-04-19T08:43:46.2Z</time></trkpt><trkpt lat="42.0199839" lon="14.5850518"><ele>413.2</ele><time>2026-04-19T08:43:47.246Z</time></trkpt><trkpt lat="42.0200716" lon="14.5851339"><ele>415.8</ele><time>2026-04-19T08:43:49.2Z</time></trkpt><trkpt lat="42.020097" lon="14.5852648"><ele>418.4</ele><time>2026-04-19T08:43:51.218Z</time></trkpt><trkpt lat="42.0201241" lon="14.5854174"><ele>421.0</ele><time>2026-04-19T08:43:53.242Z</time></trkpt><trkpt lat="42.0201429" lon="14.5855055"><ele>423.1666666666667</ele><time>2026-04-19T08:43:54.254Z</time></trkpt><trkpt lat="42.0201699" lon="14.5856057"><ele>425.33333333333337</ele><time>2026-04-19T08:43:55.247Z</time></trkpt><trkpt lat="42.0202054" lon="14.5857126"><ele>427.5</ele><time>2026-04-19T08:43:56.221Z</time></trkpt><trkpt lat="42.0202258" lon="14.5858026"><ele>429.66666666666663</ele><time>2026-04-19T08:43:57.248Z</time></trkpt><trkpt lat="42.0202851" lon="14.5859415"><ele>431.8333333333333</ele><time>2026-04-19T08:43:59.204Z</time></trkpt><trkpt lat="42.0203292" lon="14.5860047"><ele>434.0</ele><time>2026-04-19T08:44:00.263Z</time></trkpt><trkpt lat="42.0203851" lon="14.5861058"><ele>434.6</ele><time>2026-04-19T08:44:02.238Z</time></trkpt><trkpt lat="42.020384" lon="14.5862044"><ele>435.2</ele><time>2026-04-19T08:44:04.231Z</time></trkpt><trkpt lat="42.020317" lon="14.5863601"><ele>435.80000000000007</ele><time>2026-04-19T08:44:06.209Z</time></trkpt><trkpt lat="42.0202777" lon="14.5864896"><ele>436.40000000000003</ele><time>2026-04-19T08:44:08.264Z</time></trkpt><trkpt lat="42.0202639" lon="14.5865921"><ele>437.0</ele><time>2026-04-19T08:44:11.207Z</time></trkpt><trkpt lat="42.020179" lon="14.5866371"><ele>436.99999999999994</ele><time>2026-04-19T08:44:14.21Z</time></trkpt><trkpt lat="42.0201159" lon="14.5866383"><ele>437.0</ele><time>2026-04-19T08:44:15.207Z</time></trkpt><trkpt lat="42.0200312" lon="14.5867069"><ele>437.0</ele><time>2026-04-19T08:44:17.237Z</time></trkpt><trkpt lat="42.0199991" lon="14.5867854"><ele>437.0</ele><time>2026-04-19T08:44:18.241Z</time></trkpt><trkpt lat="42.0199707" lon="14.5868826"><ele>436.99999999999994</ele><time>2026-04-19T08:44:19.249Z</time></trkpt><trkpt lat="42.0199361" lon="14.5869833"><ele>437.0</ele><time>2026-04-19T08:44:20.208Z</time></trkpt><trkpt lat="42.0199049" lon="14.587103"><ele>437.0</ele><time>2026-04-19T08:44:21.22Z</time></trkpt><trkpt lat="42.0198761" lon="14.5872309"><ele>437.00000000000006</ele><time>2026-04-19T08:44:22.211Z</time></trkpt><trkpt lat="42.0198491" lon="14.5873608"><ele>437.00000000000006</ele><time>2026-04-19T08:44:23.243Z</time></trkpt><trkpt lat="42.0198207" lon="14.5874999"><ele>437.0</ele><time>2026-04-19T08:44:24.222Z</time></trkpt><trkpt lat="42.0197859" lon="14.5876418"><ele>437.0</ele><time>2026-04-19T08:44:25.229Z</time></trkpt><trkpt lat="42.0197378" lon="14.5878015"><ele>438.75</ele><time>2026-04-19T08:44:26.237Z</time></trkpt><trkpt lat="42.0196837" lon="14.5879629"><ele>440.5</ele><time>2026-04-19T08:44:27.255Z</time></trkpt><trkpt lat="42.0196324" lon="14.5881224"><ele>442.25</ele><time>2026-04-19T08:44:28.234Z</time></trkpt><trkpt lat="42.0195887" lon="14.5882909"><ele>444.0</ele><time>2026-04-19T08:44:29.225Z</time></trkpt><trkpt lat="42.0195597" lon="14.588464"><ele>444.0</ele><time>2026-04-19T08:44:30.23Z</time></trkpt><trkpt lat="42.0195381" lon="14.5886114"><ele>444.0</ele><time>2026-04-19T08:44:31.237Z</time></trkpt><trkpt lat="42.0195218" lon="14.5887179"><ele>444.0</ele><time>2026-04-19T08:44:32.23Z</time></trkpt><trkpt lat="42.0195004" lon="14.5888263"><ele>444.0</ele><time>2026-04-19T08:44:34.238Z</time></trkpt><trkpt lat="42.0194532" lon="14.5888975"><ele>444.0</ele><time>2026-04-19T08:44:37.24Z</time></trkpt><trkpt lat="42.0194254" lon="14.5890121"><ele>444.0</ele><time>2026-04-19T08:44:40.21Z</time></trkpt><trkpt lat="42.0194784" lon="14.5890688"><ele>445.2</ele><time>2026-04-19T08:44:41.205Z</time></trkpt><trkpt lat="42.0195619" lon="14.5891452"><ele>446.4</ele><time>2026-04-19T08:44:42.205Z</time></trkpt><trkpt lat="42.0196528" lon="14.589243"><ele>447.6</ele><time>2026-04-19T08:44:43.234Z</time></trkpt><trkpt lat="42.0197389" lon="14.5893449"><ele>448.8</ele><time>2026-04-19T08:44:44.229Z</time></trkpt><trkpt lat="42.0198181" lon="14.589455"><ele>450.0</ele><time>2026-04-19T08:44:45.215Z</time></trkpt><trkpt lat="42.0198862" lon="14.5895466"><ele>448.6666666666667</ele><time>2026-04-19T08:44:46.229Z</time></trkpt><trkpt lat="42.0199483" lon="14.5896403"><ele>447.33333333333337</ele><time>2026-04-19T08:44:47.226Z</time></trkpt><trkpt lat="42.0200098" lon="14.5897432"><ele>446.0</ele><time>2026-04-19T08:44:48.218Z</time></trkpt><trkpt lat="42.0200678" lon="14.5898313"><ele>444.6666666666667</ele><time>2026-04-19T08:44:49.223Z</time></trkpt><trkpt lat="42.0201271" lon="14.5899034"><ele>443.33333333333337</ele><time>2026-04-19T08:44:50.208Z</time></trkpt><trkpt lat="42.0201921" lon="14.5899673"><ele>442.0</ele><time>2026-04-19T08:44:51.206Z</time></trkpt><trkpt lat="42.0202628" lon="14.5900286"><ele>442.00000000000006</ele><time>2026-04-19T08:44:52.231Z</time></trkpt><trkpt lat="42.0203299" lon="14.5900951"><ele>442.0</ele><time>2026-04-19T08:44:53.249Z</time></trkpt><trkpt lat="42.0203931" lon="14.5901646"><ele>442.0</ele><time>2026-04-19T08:44:54.267Z</time></trkpt><trkpt lat="42.0204454" lon="14.5902347"><ele>442.0</ele><time>2026-04-19T08:44:55.242Z</time></trkpt><trkpt lat="42.0204899" lon="14.5903215"><ele>442.00000000000006</ele><time>2026-04-19T08:44:56.237Z</time></trkpt><trkpt lat="42.020521" lon="14.5904137"><ele>442.0</ele><time>2026-04-19T08:44:57.232Z</time></trkpt><trkpt lat="42.0205592" lon="14.5905105"><ele>442.6666666666667</ele><time>2026-04-19T08:44:58.232Z</time></trkpt><trkpt lat="42.0205972" lon="14.5906001"><ele>443.33333333333337</ele><time>2026-04-19T08:44:59.233Z</time></trkpt><trkpt lat="42.0206316" lon="14.5906933"><ele>444.0</ele><time>2026-04-19T08:45:00.241Z</time></trkpt><trkpt lat="42.0206708" lon="14.5907824"><ele>444.66666666666663</ele><time>2026-04-19T08:45:01.224Z</time></trkpt><trkpt lat="42.0207061" lon="14.5908627"><ele>445.3333333333333</ele><time>2026-04-19T08:45:02.241Z</time></trkpt><trkpt lat="42.0207458" lon="14.5909595"><ele>446.0</ele><time>2026-04-19T08:45:03.244Z</time></trkpt><trkpt lat="42.0207922" lon="14.5910572"><ele>443.8333333333333</ele><time>2026-04-19T08:45:04.236Z</time></trkpt><trkpt lat="42.0208393" lon="14.591143"><ele>441.66666666666663</ele><time>2026-04-19T08:45:05.235Z</time></trkpt><trkpt lat="42.0208743" lon="14.5912237"><ele>439.5</ele><time>2026-04-19T08:45:06.203Z</time></trkpt><trkpt lat="42.0209303" lon="14.5913341"><ele>437.33333333333337</ele><time>2026-04-19T08:45:08.235Z</time></trkpt><trkpt lat="42.0209632" lon="14.5914362"><ele>435.1666666666667</ele><time>2026-04-19T08:45:10.192Z</time></trkpt><trkpt lat="42.0209844" lon="14.5915162"><ele>433.0</ele><time>2026-04-19T08:45:11.247Z</time></trkpt><trkpt lat="42.0210098" lon="14.5916205"><ele>432.6666666666667</ele><time>2026-04-19T08:45:12.197Z</time></trkpt><trkpt lat="42.0210326" lon="14.5917298"><ele>432.33333333333337</ele><time>2026-04-19T08:45:13.241Z</time></trkpt><trkpt lat="42.0210496" lon="14.5918307"><ele>432.0</ele><time>2026-04-19T08:45:14.336Z</time></trkpt><trkpt lat="42.0210716" lon="14.591935"><ele>431.66666666666663</ele><time>2026-04-19T08:45:15.238Z</time></trkpt><trkpt lat="42.0210963" lon="14.5920406"><ele>431.3333333333333</ele><time>2026-04-19T08:45:16.257Z</time></trkpt><trkpt lat="42.0211147" lon="14.592151"><ele>431.0</ele><time>2026-04-19T08:45:17.25Z</time></trkpt><trkpt lat="42.0211299" lon="14.5922483"><ele>429.49999999999994</ele><time>2026-04-19T08:45:18.256Z</time></trkpt><trkpt lat="42.0211379" lon="14.5923494"><ele>428.0</ele><time>2026-04-19T08:45:19.255Z</time></trkpt><trkpt lat="42.0211431" lon="14.5924598"><ele>426.5</ele><time>2026-04-19T08:45:20.242Z</time></trkpt><trkpt lat="42.0211493" lon="14.592561"><ele>425.0</ele><time>2026-04-19T08:45:21.229Z</time></trkpt><trkpt lat="42.0211383" lon="14.5926526"><ele>423.49999999999994</ele><time>2026-04-19T08:45:22.251Z</time></trkpt><trkpt lat="42.0211312" lon="14.5928038"><ele>422.0</ele><time>2026-04-19T08:45:24.246Z</time></trkpt><trkpt lat="42.0211535" lon="14.5929602"><ele>420.40000000000003</ele><time>2026-04-19T08:45:26.243Z</time></trkpt><trkpt lat="42.0211628" lon="14.5930698"><ele>418.8</ele><time>2026-04-19T08:45:27.255Z</time></trkpt><trkpt lat="42.0211799" lon="14.5931826"><ele>417.2</ele><time>2026-04-19T08:45:28.254Z</time></trkpt><trkpt lat="42.0211929" lon="14.5932803"><ele>415.6</ele><time>2026-04-19T08:45:29.211Z</time></trkpt><trkpt lat="42.0212209" lon="14.5934393"><ele>414.0</ele><time>2026-04-19T08:45:31.215Z</time></trkpt><trkpt lat="42.0212567" lon="14.5935859"><ele>414.0</ele><time>2026-04-19T08:45:33.25Z</time></trkpt><trkpt lat="42.021285" lon="14.5936661"><ele>414.0</ele><time>2026-04-19T08:45:34.241Z</time></trkpt><trkpt lat="42.0213214" lon="14.5937565"><ele>414.0</ele><time>2026-04-19T08:45:35.267Z</time></trkpt><trkpt lat="42.0213671" lon="14.5938515"><ele>414.0</ele><time>2026-04-19T08:45:36.279Z</time></trkpt><trkpt lat="42.0214069" lon="14.5939387"><ele>414.0</ele><time>2026-04-19T08:45:37.246Z</time></trkpt><trkpt lat="42.0214455" lon="14.5940269"><ele>414.0</ele><time>2026-04-19T08:45:38.236Z</time></trkpt><trkpt lat="42.0214867" lon="14.5941085"><ele>412.14285714285717</ele><time>2026-04-19T08:45:39.25Z</time></trkpt><trkpt lat="42.0215284" lon="14.5941921"><ele>410.2857142857143</ele><time>2026-04-19T08:45:40.229Z</time></trkpt><trkpt lat="42.0215694" lon="14.594264"><ele>408.42857142857144</ele><time>2026-04-19T08:45:41.208Z</time></trkpt><trkpt lat="42.0216083" lon="14.5943466"><ele>406.57142857142856</ele><time>2026-04-19T08:45:42.222Z</time></trkpt><trkpt lat="42.0216462" lon="14.5944194"><ele>404.7142857142857</ele><time>2026-04-19T08:45:43.244Z</time></trkpt><trkpt lat="42.0216863" lon="14.5944898"><ele>402.8571428571429</ele><time>2026-04-19T08:45:44.238Z</time></trkpt><trkpt lat="42.0217318" lon="14.5945667"><ele>401.0</ele><time>2026-04-19T08:45:45.203Z</time></trkpt><trkpt lat="42.0217784" lon="14.5946416"><ele>399.16666666666663</ele><time>2026-04-19T08:45:46.24Z</time></trkpt><trkpt lat="42.0218303" lon="14.5947072"><ele>397.3333333333333</ele><time>2026-04-19T08:45:47.254Z</time></trkpt><trkpt lat="42.0218823" lon="14.5947731"><ele>395.5</ele><time>2026-04-19T08:45:48.251Z</time></trkpt><trkpt lat="42.0219373" lon="14.5948317"><ele>393.66666666666663</ele><time>2026-04-19T08:45:49.242Z</time></trkpt><trkpt lat="42.0219956" lon="14.5948945"><ele>391.8333333333333</ele><time>2026-04-19T08:45:50.25Z</time></trkpt><trkpt lat="42.022051" lon="14.5949463"><ele>390.0</ele><time>2026-04-19T08:45:51.233Z</time></trkpt><trkpt lat="42.0221449" lon="14.5950428"><ele>390.0</ele><time>2026-04-19T08:45:53.269Z</time></trkpt><trkpt lat="42.022225" lon="14.5951438"><ele>390.0</ele><time>2026-04-19T08:45:55.261Z</time></trkpt><trkpt lat="42.0222648" lon="14.5952102"><ele>390.0</ele><time>2026-04-19T08:45:56.204Z</time></trkpt><trkpt lat="42.0223068" lon="14.5952895"><ele>390.0</ele><time>2026-04-19T08:45:57.242Z</time></trkpt><trkpt lat="42.0223438" lon="14.5953663"><ele>390.0</ele><time>2026-04-19T08:45:58.258Z</time></trkpt><trkpt lat="42.0223789" lon="14.5954377"><ele>390.0</ele><time>2026-04-19T08:45:59.261Z</time></trkpt><trkpt lat="42.0224278" lon="14.5955607"><ele>387.8</ele><time>2026-04-19T08:46:01.225Z</time></trkpt><trkpt lat="42.0224759" lon="14.5956548"><ele>385.6</ele><time>2026-04-19T08:46:03.231Z</time></trkpt><trkpt lat="42.022538" lon="14.5957542"><ele>383.4</ele><time>2026-04-19T08:46:05.226Z</time></trkpt><trkpt lat="42.0226104" lon="14.5958307"><ele>381.2</ele><time>2026-04-19T08:46:07.266Z</time></trkpt><trkpt lat="42.0226819" lon="14.5958978"><ele>379.0</ele><time>2026-04-19T08:46:09.246Z</time></trkpt><trkpt lat="42.0227767" lon="14.5959785"><ele>378.75</ele><time>2026-04-19T08:46:11.237Z</time></trkpt><trkpt lat="42.0228827" lon="14.5960433"><ele>378.5</ele><time>2026-04-19T08:46:13.265Z</time></trkpt><trkpt lat="42.0229966" lon="14.5960968"><ele>378.25</ele><time>2026-04-19T08:46:15.204Z</time></trkpt><trkpt lat="42.0231023" lon="14.5961422"><ele>378.0</ele><time>2026-04-19T08:46:17.25Z</time></trkpt><trkpt lat="42.0232072" lon="14.5961832"><ele>374.4</ele><time>2026-04-19T08:46:19.217Z</time></trkpt><trkpt lat="42.0233167" lon="14.5962205"><ele>370.79999999999995</ele><time>2026-04-19T08:46:21.251Z</time></trkpt><trkpt lat="42.023415" lon="14.5962614"><ele>367.2</ele><time>2026-04-19T08:46:23.249Z</time></trkpt><trkpt lat="42.0235091" lon="14.596305"><ele>363.6</ele><time>2026-04-19T08:46:25.266Z</time></trkpt><trkpt lat="42.0235772" lon="14.5963465"><ele>360.0</ele><time>2026-04-19T08:46:27.247Z</time></trkpt><trkpt lat="42.0236483" lon="14.5963976"><ele>360.0</ele><time>2026-04-19T08:46:29.254Z</time></trkpt><trkpt lat="42.0237049" lon="14.596462"><ele>360.0</ele><time>2026-04-19T08:46:30.24Z</time></trkpt><trkpt lat="42.0237671" lon="14.5965287"><ele>360.0</ele><time>2026-04-19T08:46:31.239Z</time></trkpt><trkpt lat="42.0238293" lon="14.5965916"><ele>360.0</ele><time>2026-04-19T08:46:32.223Z</time></trkpt><trkpt lat="42.0238871" lon="14.5966489"><ele>360.0</ele><time>2026-04-19T08:46:33.225Z</time></trkpt><trkpt lat="42.0239515" lon="14.5967058"><ele>360.0</ele><time>2026-04-19T08:46:34.245Z</time></trkpt><trkpt lat="42.0240069" lon="14.59676"><ele>360.0</ele><time>2026-04-19T08:46:35.208Z</time></trkpt><trkpt lat="42.0240514" lon="14.5968225"><ele>360.0</ele><time>2026-04-19T08:46:36.202Z</time></trkpt><trkpt lat="42.0241295" lon="14.5969682"><ele>360.0</ele><time>2026-04-19T08:46:38.242Z</time></trkpt><trkpt lat="42.0241691" lon="14.5970534"><ele>360.0</ele><time>2026-04-19T08:46:39.257Z</time></trkpt><trkpt lat="42.0242124" lon="14.5971379"><ele>360.0</ele><time>2026-04-19T08:46:40.246Z</time></trkpt><trkpt lat="42.0242574" lon="14.5972193"><ele>360.0</ele><time>2026-04-19T08:46:41.225Z</time></trkpt><trkpt lat="42.0243054" lon="14.5973092"><ele>360.0</ele><time>2026-04-19T08:46:42.24Z</time></trkpt><trkpt lat="42.0243528" lon="14.5974129"><ele>357.0</ele><time>2026-04-19T08:46:43.241Z</time></trkpt><trkpt lat="42.024409" lon="14.5975258"><ele>354.0</ele><time>2026-04-19T08:46:44.243Z</time></trkpt><trkpt lat="42.0244666" lon="14.5976231"><ele>351.0</ele><time>2026-04-19T08:46:45.255Z</time></trkpt><trkpt lat="42.0245164" lon="14.5977141"><ele>348.0</ele><time>2026-04-19T08:46:46.246Z</time></trkpt><trkpt lat="42.0245584" lon="14.5977952"><ele>345.0</ele><time>2026-04-19T08:46:47.231Z</time></trkpt><trkpt lat="42.0246252" lon="14.5978952"><ele>343.3333333333333</ele><time>2026-04-19T08:46:49.255Z</time></trkpt><trkpt lat="42.0247026" lon="14.5979757"><ele>341.6666666666667</ele><time>2026-04-19T08:46:52.244Z</time></trkpt><trkpt lat="42.0247639" lon="14.5980277"><ele>340.0</ele><time>2026-04-19T08:46:54.243Z</time></trkpt><trkpt lat="42.0248238" lon="14.5980955"><ele>338.33333333333337</ele><time>2026-04-19T08:46:57.26Z</time></trkpt><trkpt lat="42.0248816" lon="14.5981521"><ele>336.6666666666667</ele><time>2026-04-19T08:47:01.202Z</time></trkpt><trkpt lat="42.0249364" lon="14.5982156"><ele>335.0</ele><time>2026-04-19T08:47:16.241Z</time></trkpt><trkpt lat="42.0248693" lon="14.5982463"><ele>335.0</ele><time>2026-04-19T08:47:21.246Z</time></trkpt><trkpt lat="42.024863" lon="14.5981524"><ele>335.0</ele><time>2026-04-19T08:47:23.218Z</time></trkpt><trkpt lat="42.0248463" lon="14.5980666"><ele>335.0</ele><time>2026-04-19T08:47:25.258Z</time></trkpt><trkpt lat="42.0247619" lon="14.5979861"><ele>335.0</ele><time>2026-04-19T08:47:27.251Z</time></trkpt><trkpt lat="42.0246802" lon="14.5979361"><ele>335.0</ele><time>2026-04-19T08:47:29.245Z</time></trkpt><trkpt lat="42.0246205" lon="14.5979913"><ele>335.0</ele><time>2026-04-19T08:47:32.228Z</time></trkpt><trkpt lat="42.0246097" lon="14.5980839"><ele>335.0</ele><time>2026-04-19T08:47:34.244Z</time></trkpt><trkpt lat="42.0245973" lon="14.598178"><ele>335.0</ele><time>2026-04-19T08:47:36.227Z</time></trkpt><trkpt lat="42.0246307" lon="14.5983973"><ele>335.0</ele><time>2026-04-19T08:47:39.266Z</time></trkpt><trkpt lat="42.0246662" lon="14.5985588"><ele>335.0</ele><time>2026-04-19T08:47:41.254Z</time></trkpt><trkpt lat="42.0246878" lon="14.5986608"><ele>335.0</ele><time>2026-04-19T08:47:42.238Z</time></trkpt><trkpt lat="42.0247152" lon="14.5987656"><ele>333.83333333333337</ele><time>2026-04-19T08:47:43.249Z</time></trkpt><trkpt lat="42.0247399" lon="14.5988616"><ele>332.6666666666667</ele><time>2026-04-19T08:47:44.237Z</time></trkpt><trkpt lat="42.0247801" lon="14.5990083"><ele>331.5</ele><time>2026-04-19T08:47:46.252Z</time></trkpt><trkpt lat="42.0247945" lon="14.5991132"><ele>330.3333333333333</ele><time>2026-04-19T08:47:48.217Z</time></trkpt><trkpt lat="42.0248196" lon="14.5992516"><ele>329.16666666666663</ele><time>2026-04-19T08:47:50.243Z</time></trkpt><trkpt lat="42.0248477" lon="14.5993295"><ele>328.0</ele><time>2026-04-19T08:47:51.249Z</time></trkpt><trkpt lat="42.0249003" lon="14.599472"><ele>326.75</ele><time>2026-04-19T08:47:53.255Z</time></trkpt><trkpt lat="42.0249422" lon="14.5996177"><ele>325.5</ele><time>2026-04-19T08:47:55.254Z</time></trkpt><trkpt lat="42.0249785" lon="14.5997749"><ele>324.25</ele><time>2026-04-19T08:47:57.236Z</time></trkpt><trkpt lat="42.025023" lon="14.5999138"><ele>323.0</ele><time>2026-04-19T08:47:59.262Z</time></trkpt><trkpt lat="42.0250645" lon="14.6000446"><ele>321.0</ele><time>2026-04-19T08:48:01.245Z</time></trkpt><trkpt lat="42.0250948" lon="14.6001699"><ele>319.0</ele><time>2026-04-19T08:48:03.25Z</time></trkpt><trkpt lat="42.0251316" lon="14.6002872"><ele>317.0</ele><time>2026-04-19T08:48:05.233Z</time></trkpt><trkpt lat="42.0251753" lon="14.6003993"><ele>315.0</ele><time>2026-04-19T08:48:07.198Z</time></trkpt><trkpt lat="42.0252111" lon="14.6005536"><ele>313.0</ele><time>2026-04-19T08:48:09.208Z</time></trkpt><trkpt lat="42.0252499" lon="14.6007192"><ele>311.6</ele><time>2026-04-19T08:48:11.264Z</time></trkpt><trkpt lat="42.0252695" lon="14.6008059"><ele>310.20000000000005</ele><time>2026-04-19T08:48:12.236Z</time></trkpt><trkpt lat="42.0253004" lon="14.6009581"><ele>308.8</ele><time>2026-04-19T08:48:14.21Z</time></trkpt><trkpt lat="42.0253319" lon="14.6011055"><ele>307.40000000000003</ele><time>2026-04-19T08:48:16.226Z</time></trkpt><trkpt lat="42.0253673" lon="14.6012621"><ele>306.0</ele><time>2026-04-19T08:48:18.242Z</time></trkpt><trkpt lat="42.0254086" lon="14.6014031"><ele>304.8</ele><time>2026-04-19T08:48:20.26Z</time></trkpt><trkpt lat="42.0254485" lon="14.6015463"><ele>303.6</ele><time>2026-04-19T08:48:22.233Z</time></trkpt><trkpt lat="42.025473" lon="14.6016842"><ele>302.4</ele><time>2026-04-19T08:48:24.254Z</time></trkpt><trkpt lat="42.0254746" lon="14.6017919"><ele>301.2</ele><time>2026-04-19T08:48:26.194Z</time></trkpt><trkpt lat="42.0254673" lon="14.6019294"><ele>300.0</ele><time>2026-04-19T08:48:28.238Z</time></trkpt><trkpt lat="42.0254681" lon="14.60202"><ele>298.8333333333333</ele><time>2026-04-19T08:48:29.231Z</time></trkpt><trkpt lat="42.0254684" lon="14.6021075"><ele>297.6666666666667</ele><time>2026-04-19T08:48:30.232Z</time></trkpt><trkpt lat="42.0254694" lon="14.6021957"><ele>296.5</ele><time>2026-04-19T08:48:31.247Z</time></trkpt><trkpt lat="42.0254701" lon="14.602354"><ele>295.33333333333337</ele><time>2026-04-19T08:48:33.255Z</time></trkpt><trkpt lat="42.0254723" lon="14.6024623"><ele>294.1666666666667</ele><time>2026-04-19T08:48:35.198Z</time></trkpt><trkpt lat="42.0254829" lon="14.6025708"><ele>293.0</ele><time>2026-04-19T08:48:37.212Z</time></trkpt><trkpt lat="42.0254945" lon="14.6026837"><ele>292.99999999999994</ele><time>2026-04-19T08:48:39.201Z</time></trkpt><trkpt lat="42.0255102" lon="14.6027869"><ele>293.0</ele><time>2026-04-19T08:48:41.225Z</time></trkpt><trkpt lat="42.0255238" lon="14.6028784"><ele>293.0</ele><time>2026-04-19T08:48:43.257Z</time></trkpt><trkpt lat="42.0255473" lon="14.6029729"><ele>293.0</ele><time>2026-04-19T08:48:45.222Z</time></trkpt><trkpt lat="42.0255755" lon="14.6030579"><ele>293.0</ele><time>2026-04-19T08:48:47.253Z</time></trkpt><trkpt lat="42.0256017" lon="14.6031445"><ele>292.99999999999994</ele><time>2026-04-19T08:48:49.244Z</time></trkpt><trkpt lat="42.0256337" lon="14.6032273"><ele>293.0</ele><time>2026-04-19T08:48:51.211Z</time></trkpt><trkpt lat="42.0256623" lon="14.6033061"><ele>292.1428571428571</ele><time>2026-04-19T08:48:53.234Z</time></trkpt><trkpt lat="42.0256949" lon="14.6033834"><ele>291.2857142857143</ele><time>2026-04-19T08:48:55.23Z</time></trkpt><trkpt lat="42.0257298" lon="14.603467"><ele>290.42857142857144</ele><time>2026-04-19T08:48:57.237Z</time></trkpt><trkpt lat="42.0257657" lon="14.6035488"><ele>289.57142857142856</ele><time>2026-04-19T08:48:59.246Z</time></trkpt><trkpt lat="42.0258071" lon="14.6036353"><ele>288.7142857142857</ele><time>2026-04-19T08:49:02.236Z</time></trkpt><trkpt lat="42.0258359" lon="14.6037254"><ele>287.85714285714283</ele><time>2026-04-19T08:49:59.245Z</time></trkpt><trkpt lat="42.0258315" lon="14.6038456"><ele>287.0</ele><time>2026-04-19T08:50:03.265Z</time></trkpt><trkpt lat="42.0258651" lon="14.6039449"><ele>284.4</ele><time>2026-04-19T08:50:05.245Z</time></trkpt><trkpt lat="42.0259114" lon="14.6040734"><ele>281.79999999999995</ele><time>2026-04-19T08:50:07.244Z</time></trkpt><trkpt lat="42.0259697" lon="14.6041986"><ele>279.2</ele><time>2026-04-19T08:50:09.248Z</time></trkpt><trkpt lat="42.0260153" lon="14.6042688"><ele>276.59999999999997</ele><time>2026-04-19T08:50:10.232Z</time></trkpt><trkpt lat="42.0260599" lon="14.6043571"><ele>274.0</ele><time>2026-04-19T08:50:11.217Z</time></trkpt><trkpt lat="42.0261005" lon="14.6044587"><ele>272.5</ele><time>2026-04-19T08:50:12.258Z</time></trkpt><trkpt lat="42.0261424" lon="14.6045552"><ele>271.0</ele><time>2026-04-19T08:50:13.256Z</time></trkpt><trkpt lat="42.0261743" lon="14.6046474"><ele>269.5</ele><time>2026-04-19T08:50:14.199Z</time></trkpt><trkpt lat="42.0261973" lon="14.6047329"><ele>268.0</ele><time>2026-04-19T08:50:15.237Z</time></trkpt><trkpt lat="42.0262103" lon="14.604837"><ele>266.5</ele><time>2026-04-19T08:50:16.258Z</time></trkpt><trkpt lat="42.0262189" lon="14.6049462"><ele>265.0</ele><time>2026-04-19T08:50:17.221Z</time></trkpt><trkpt lat="42.0262248" lon="14.6050317"><ele>265.0</ele><time>2026-04-19T08:50:18.202Z</time></trkpt><trkpt lat="42.0262703" lon="14.6051865"><ele>265.0</ele><time>2026-04-19T08:50:20.244Z</time></trkpt><trkpt lat="42.0263031" lon="14.6052855"><ele>265.0</ele><time>2026-04-19T08:50:21.232Z</time></trkpt><trkpt lat="42.0263501" lon="14.6054063"><ele>265.0</ele><time>2026-04-19T08:50:22.221Z</time></trkpt><trkpt lat="42.026403" lon="14.6055469"><ele>265.0</ele><time>2026-04-19T08:50:23.219Z</time></trkpt><trkpt lat="42.0264501" lon="14.6056783"><ele>262.8</ele><time>2026-04-19T08:50:24.219Z</time></trkpt><trkpt lat="42.0264893" lon="14.6057741"><ele>260.6</ele><time>2026-04-19T08:50:25.262Z</time></trkpt><trkpt lat="42.0265241" lon="14.6058594"><ele>258.4</ele><time>2026-04-19T08:50:26.217Z</time></trkpt><trkpt lat="42.0265788" lon="14.6060101"><ele>256.2</ele><time>2026-04-19T08:50:28.23Z</time></trkpt><trkpt lat="42.0266111" lon="14.6060855"><ele>254.0</ele><time>2026-04-19T08:50:29.228Z</time></trkpt><trkpt lat="42.0266684" lon="14.6062076"><ele>253.16666666666669</ele><time>2026-04-19T08:50:31.198Z</time></trkpt><trkpt lat="42.026712" lon="14.6062897"><ele>252.33333333333334</ele><time>2026-04-19T08:50:33.214Z</time></trkpt><trkpt lat="42.0267615" lon="14.6063573"><ele>251.5</ele><time>2026-04-19T08:50:35.246Z</time></trkpt><trkpt lat="42.0268226" lon="14.6064198"><ele>250.66666666666669</ele><time>2026-04-19T08:50:37.237Z</time></trkpt><trkpt lat="42.0268827" lon="14.6065107"><ele>249.83333333333334</ele><time>2026-04-19T08:50:39.243Z</time></trkpt><trkpt lat="42.0269137" lon="14.6066235"><ele>249.0</ele><time>2026-04-19T08:50:41.195Z</time></trkpt><trkpt lat="42.0269257" lon="14.6067536"><ele>249.0</ele><time>2026-04-19T08:50:43.256Z</time></trkpt><trkpt lat="42.0269457" lon="14.6069162"><ele>248.99999999999997</ele><time>2026-04-19T08:50:45.238Z</time></trkpt><trkpt lat="42.0269542" lon="14.6070424"><ele>248.99999999999997</ele><time>2026-04-19T08:50:47.227Z</time></trkpt><trkpt lat="42.0269676" lon="14.607174"><ele>249.0</ele><time>2026-04-19T08:50:49.248Z</time></trkpt><trkpt lat="42.0269841" lon="14.6073023"><ele>249.0</ele><time>2026-04-19T08:50:51.207Z</time></trkpt><trkpt lat="42.0270019" lon="14.6074559"><ele>247.0</ele><time>2026-04-19T08:50:53.242Z</time></trkpt><trkpt lat="42.0270367" lon="14.6076087"><ele>244.99999999999997</ele><time>2026-04-19T08:50:55.196Z</time></trkpt><trkpt lat="42.0270951" lon="14.6077466"><ele>242.99999999999997</ele><time>2026-04-19T08:50:57.263Z</time></trkpt><trkpt lat="42.0271397" lon="14.6078284"><ele>241.0</ele><time>2026-04-19T08:50:58.255Z</time></trkpt><trkpt lat="42.0271809" lon="14.6079029"><ele>239.0</ele><time>2026-04-19T08:50:59.232Z</time></trkpt><trkpt lat="42.0272201" lon="14.6079825"><ele>237.5714285714286</ele><time>2026-04-19T08:51:00.209Z</time></trkpt><trkpt lat="42.0272577" lon="14.6080569"><ele>236.14285714285717</ele><time>2026-04-19T08:51:01.201Z</time></trkpt><trkpt lat="42.0272978" lon="14.6081335"><ele>234.71428571428572</ele><time>2026-04-19T08:51:02.231Z</time></trkpt><trkpt lat="42.0273351" lon="14.6082099"><ele>233.2857142857143</ele><time>2026-04-19T08:51:03.261Z</time></trkpt><trkpt lat="42.0273683" lon="14.6082841"><ele>231.8571428571429</ele><time>2026-04-19T08:51:04.247Z</time></trkpt><trkpt lat="42.0274051" lon="14.6083588"><ele>230.42857142857142</ele><time>2026-04-19T08:51:05.29Z</time></trkpt><trkpt lat="42.0274407" lon="14.6084345"><ele>229.0</ele><time>2026-04-19T08:51:06.213Z</time></trkpt><trkpt lat="42.0274752" lon="14.6085113"><ele>229.2</ele><time>2026-04-19T08:51:07.267Z</time></trkpt><trkpt lat="42.0275338" lon="14.608649"><ele>229.39999999999998</ele><time>2026-04-19T08:51:09.249Z</time></trkpt><trkpt lat="42.0275704" lon="14.6087898"><ele>229.6</ele><time>2026-04-19T08:51:11.194Z</time></trkpt><trkpt lat="42.0275956" lon="14.6089063"><ele>229.8</ele><time>2026-04-19T08:51:13.261Z</time></trkpt><trkpt lat="42.0276244" lon="14.6089919"><ele>230.0</ele><time>2026-04-19T08:51:15.211Z</time></trkpt><trkpt lat="42.0276447" lon="14.6090813"><ele>228.4</ele><time>2026-04-19T08:51:17.239Z</time></trkpt><trkpt lat="42.0276872" lon="14.6091551"><ele>226.8</ele><time>2026-04-19T08:51:19.216Z</time></trkpt><trkpt lat="42.027769" lon="14.6092028"><ele>225.2</ele><time>2026-04-19T08:51:21.207Z</time></trkpt><trkpt lat="42.0278309" lon="14.6092668"><ele>223.6</ele><time>2026-04-19T08:51:23.201Z</time></trkpt><trkpt lat="42.027868" lon="14.6093745"><ele>222.0</ele><time>2026-04-19T08:51:25.201Z</time></trkpt><trkpt lat="42.0279011" lon="14.6095419"><ele>221.83333333333334</ele><time>2026-04-19T08:51:27.249Z</time></trkpt><trkpt lat="42.0279234" lon="14.6096302"><ele>221.66666666666669</ele><time>2026-04-19T08:51:28.248Z</time></trkpt><trkpt lat="42.0279512" lon="14.6097265"><ele>221.5</ele><time>2026-04-19T08:51:29.258Z</time></trkpt><trkpt lat="42.0279829" lon="14.6098233"><ele>221.33333333333334</ele><time>2026-04-19T08:51:30.235Z</time></trkpt><trkpt lat="42.028009" lon="14.6099074"><ele>221.16666666666669</ele><time>2026-04-19T08:51:31.208Z</time></trkpt><trkpt lat="42.0280657" lon="14.6100418"><ele>221.0</ele><time>2026-04-19T08:51:33.241Z</time></trkpt><trkpt lat="42.0281063" lon="14.6101094"><ele>221.00000000000003</ele><time>2026-04-19T08:51:34.253Z</time></trkpt><trkpt lat="42.0281517" lon="14.6101948"><ele>221.0</ele><time>2026-04-19T08:51:35.257Z</time></trkpt><trkpt lat="42.0281884" lon="14.6102721"><ele>221.0</ele><time>2026-04-19T08:51:36.247Z</time></trkpt><trkpt lat="42.0282442" lon="14.6104009"><ele>221.0</ele><time>2026-04-19T08:51:38.237Z</time></trkpt><trkpt lat="42.0282977" lon="14.6104845"><ele>221.00000000000003</ele><time>2026-04-19T08:51:40.213Z</time></trkpt><trkpt lat="42.0283735" lon="14.6105405"><ele>221.0</ele><time>2026-04-19T08:51:43.212Z</time></trkpt><trkpt lat="42.0284361" lon="14.6106032"><ele>220.00000000000003</ele><time>2026-04-19T08:51:50.22Z</time></trkpt><trkpt lat="42.0285019" lon="14.6106155"><ele>219.0</ele><time>2026-04-19T08:51:53.249Z</time></trkpt><trkpt lat="42.0286083" lon="14.6105864"><ele>218.0</ele><time>2026-04-19T08:52:03.244Z</time></trkpt><trkpt lat="42.0286815" lon="14.6105326"><ele>217.0</ele><time>2026-04-19T08:52:05.223Z</time></trkpt><trkpt lat="42.0287548" lon="14.6104907"><ele>216.00000000000003</ele><time>2026-04-19T08:52:07.209Z</time></trkpt><trkpt lat="42.0288227" lon="14.6104626"><ele>215.0</ele><time>2026-04-19T08:52:09.235Z</time></trkpt><trkpt lat="42.0289061" lon="14.6104341"><ele>215.00000000000003</ele><time>2026-04-19T08:52:11.234Z</time></trkpt><trkpt lat="42.0289864" lon="14.6103968"><ele>215.0</ele><time>2026-04-19T08:52:13.227Z</time></trkpt><trkpt lat="42.0290781" lon="14.6103496"><ele>215.0</ele><time>2026-04-19T08:52:15.254Z</time></trkpt><trkpt lat="42.0291591" lon="14.6103216"><ele>215.0</ele><time>2026-04-19T08:52:17.247Z</time></trkpt><trkpt lat="42.0292375" lon="14.6103271"><ele>215.00000000000003</ele><time>2026-04-19T08:52:19.23Z</time></trkpt><trkpt lat="42.0292965" lon="14.6103936"><ele>215.0</ele><time>2026-04-19T08:52:21.236Z</time></trkpt><trkpt lat="42.0293309" lon="14.6104677"><ele>215.57142857142856</ele><time>2026-04-19T08:52:23.258Z</time></trkpt><trkpt lat="42.0293762" lon="14.6105588"><ele>216.14285714285717</ele><time>2026-04-19T08:52:26.209Z</time></trkpt><trkpt lat="42.0294212" lon="14.6106354"><ele>216.71428571428572</ele><time>2026-04-19T08:52:29.204Z</time></trkpt><trkpt lat="42.0294646" lon="14.6106975"><ele>217.28571428571428</ele><time>2026-04-19T08:52:32.213Z</time></trkpt><trkpt lat="42.0295212" lon="14.6107416"><ele>217.85714285714283</ele><time>2026-04-19T08:52:35.198Z</time></trkpt><trkpt lat="42.0295869" lon="14.6107843"><ele>218.42857142857144</ele><time>2026-04-19T08:52:38.231Z</time></trkpt><trkpt lat="42.0296596" lon="14.6107906"><ele>219.0</ele><time>2026-04-19T08:52:41.237Z</time></trkpt><trkpt lat="42.029727" lon="14.6108154"><ele>219.0</ele><time>2026-04-19T08:52:44.214Z</time></trkpt><trkpt lat="42.0297989" lon="14.6108299"><ele>219.0</ele><time>2026-04-19T08:52:47.23Z</time></trkpt><trkpt lat="42.0298795" lon="14.6108245"><ele>219.0</ele><time>2026-04-19T08:52:50.239Z</time></trkpt><trkpt lat="42.0299504" lon="14.6108069"><ele>219.0</ele><time>2026-04-19T08:52:53.245Z</time></trkpt><trkpt lat="42.0300032" lon="14.6108559"><ele>219.0</ele><time>2026-04-19T08:53:14.249Z</time></trkpt><trkpt lat="42.0300642" lon="14.6109466"><ele>219.0</ele><time>2026-04-19T08:53:16.218Z</time></trkpt><trkpt lat="42.0301296" lon="14.6110426"><ele>220.39999999999998</ele><time>2026-04-19T08:53:18.237Z</time></trkpt><trkpt lat="42.0301598" lon="14.61115"><ele>221.79999999999998</ele><time>2026-04-19T08:53:20.192Z</time></trkpt><trkpt lat="42.0301665" lon="14.6112795"><ele>223.20000000000002</ele><time>2026-04-19T08:53:22.195Z</time></trkpt><trkpt lat="42.0301687" lon="14.611401"><ele>224.60000000000002</ele><time>2026-04-19T08:53:24.242Z</time></trkpt><trkpt lat="42.0301754" lon="14.6115291"><ele>226.0</ele><time>2026-04-19T08:53:26.257Z</time></trkpt><trkpt lat="42.0301771" lon="14.6116505"><ele>226.16666666666666</ele><time>2026-04-19T08:53:28.237Z</time></trkpt><trkpt lat="42.0301793" lon="14.6117597"><ele>226.33333333333331</ele><time>2026-04-19T08:53:30.243Z</time></trkpt><trkpt lat="42.030185" lon="14.6118729"><ele>226.5</ele><time>2026-04-19T08:53:32.242Z</time></trkpt><trkpt lat="42.0301908" lon="14.6119713"><ele>226.66666666666669</ele><time>2026-04-19T08:53:34.191Z</time></trkpt><trkpt lat="42.0301819" lon="14.6120826"><ele>226.83333333333334</ele><time>2026-04-19T08:53:41.232Z</time></trkpt><trkpt lat="42.0301834" lon="14.6121961"><ele>227.0</ele><time>2026-04-19T08:53:44.225Z</time></trkpt><trkpt lat="42.0301849" lon="14.6122867"><ele>227.50000000000003</ele><time>2026-04-19T08:53:47.221Z</time></trkpt><trkpt lat="42.0301936" lon="14.6123716"><ele>228.0</ele><time>2026-04-19T08:53:50.256Z</time></trkpt><trkpt lat="42.030235" lon="14.6124426"><ele>228.5</ele><time>2026-04-19T08:53:53.2Z</time></trkpt><trkpt lat="42.0303151" lon="14.6124787"><ele>229.0</ele><time>2026-04-19T08:53:56.241Z</time></trkpt><trkpt lat="42.0303769" lon="14.6125131"><ele>229.50000000000003</ele><time>2026-04-19T08:53:59.267Z</time></trkpt><trkpt lat="42.0304331" lon="14.612594"><ele>230.0</ele><time>2026-04-19T08:54:02.25Z</time></trkpt><trkpt lat="42.0305316" lon="14.6125835"><ele>230.0</ele><time>2026-04-19T08:54:05.24Z</time></trkpt><trkpt lat="42.0305947" lon="14.612572"><ele>230.0</ele><time>2026-04-19T08:54:06.227Z</time></trkpt><trkpt lat="42.0306578" lon="14.6125663"><ele>230.0</ele><time>2026-04-19T08:54:07.255Z</time></trkpt><trkpt lat="42.0307732" lon="14.6125511"><ele>230.0</ele><time>2026-04-19T08:54:09.243Z</time></trkpt><trkpt lat="42.030893" lon="14.6125284"><ele>230.0</ele><time>2026-04-19T08:54:11.24Z</time></trkpt><trkpt lat="42.0309939" lon="14.6125015"><ele>231.83333333333334</ele><time>2026-04-19T08:54:13.244Z</time></trkpt><trkpt lat="42.0310805" lon="14.6124507"><ele>233.66666666666669</ele><time>2026-04-19T08:54:15.253Z</time></trkpt><trkpt lat="42.031163" lon="14.6124176"><ele>235.5</ele><time>2026-04-19T08:54:17.251Z</time></trkpt><trkpt lat="42.0312613" lon="14.6124393"><ele>237.33333333333331</ele><time>2026-04-19T08:54:20.251Z</time></trkpt><trkpt lat="42.0313495" lon="14.6124425"><ele>239.16666666666666</ele><time>2026-04-19T08:54:22.247Z</time></trkpt><trkpt lat="42.0314174" lon="14.6124446"><ele>241.0</ele><time>2026-04-19T08:54:24.251Z</time></trkpt><trkpt lat="42.0315125" lon="14.6124708"><ele>240.99999999999997</ele><time>2026-04-19T08:54:27.234Z</time></trkpt><trkpt lat="42.0315936" lon="14.6124495"><ele>241.0</ele><time>2026-04-19T08:54:29.226Z</time></trkpt><trkpt lat="42.0316755" lon="14.6124342"><ele>241.0</ele><time>2026-04-19T08:54:31.249Z</time></trkpt><trkpt lat="42.0317581" lon="14.6124248"><ele>241.0</ele><time>2026-04-19T08:54:33.196Z</time></trkpt><trkpt lat="42.0318384" lon="14.6124103"><ele>240.99999999999997</ele><time>2026-04-19T08:54:35.255Z</time></trkpt><trkpt lat="42.0319306" lon="14.6124046"><ele>241.0</ele><time>2026-04-19T08:54:37.241Z</time></trkpt><trkpt lat="42.0320212" lon="14.6124063"><ele>243.60000000000002</ele><time>2026-04-19T08:54:39.205Z</time></trkpt><trkpt lat="42.0320989" lon="14.6124084"><ele>246.20000000000002</ele><time>2026-04-19T08:54:41.198Z</time></trkpt><trkpt lat="42.032185" lon="14.6124025"><ele>248.79999999999998</ele><time>2026-04-19T08:54:43.243Z</time></trkpt><trkpt lat="42.0322838" lon="14.6124181"><ele>251.39999999999998</ele><time>2026-04-19T08:54:45.246Z</time></trkpt><trkpt lat="42.0323835" lon="14.6124157"><ele>254.0</ele><time>2026-04-19T08:54:47.231Z</time></trkpt><trkpt lat="42.0324675" lon="14.6123828"><ele>257.5</ele><time>2026-04-19T08:54:49.235Z</time></trkpt><trkpt lat="42.0325389" lon="14.6123886"><ele>261.0</ele><time>2026-04-19T08:54:51.215Z</time></trkpt><trkpt lat="42.032593" lon="14.6124668"><ele>264.5</ele><time>2026-04-19T08:54:53.259Z</time></trkpt><trkpt lat="42.0325921" lon="14.6125926"><ele>268.0</ele><time>2026-04-19T08:54:55.238Z</time></trkpt><trkpt lat="42.0325633" lon="14.6126991"><ele>271.5</ele><time>2026-04-19T08:54:58.242Z</time></trkpt><trkpt lat="42.0325615" lon="14.612798"><ele>275.0</ele><time>2026-04-19T08:55:06.217Z</time></trkpt><trkpt lat="42.0325772" lon="14.6128909"><ele>275.0</ele><time>2026-04-19T08:55:08.225Z</time></trkpt><trkpt lat="42.0326072" lon="14.6129864"><ele>275.0</ele><time>2026-04-19T08:55:10.24Z</time></trkpt><trkpt lat="42.0326301" lon="14.6130949"><ele>275.0</ele><time>2026-04-19T08:55:13.211Z</time></trkpt><trkpt lat="42.0325726" lon="14.6130574"><ele>275.0</ele><time>2026-04-19T08:55:25.201Z</time></trkpt><trkpt lat="42.0326342" lon="14.6130343"><ele>275.0</ele><time>2026-04-19T08:55:31.232Z</time></trkpt><trkpt lat="42.0327068" lon="14.6131077"><ele>275.0</ele><time>2026-04-19T08:55:33.217Z</time></trkpt><trkpt lat="42.0327598" lon="14.6131641"><ele>275.0</ele><time>2026-04-19T08:55:35.225Z</time></trkpt><trkpt lat="42.0328464" lon="14.6131837"><ele>275.0</ele><time>2026-04-19T08:55:37.249Z</time></trkpt><trkpt lat="42.0329626" lon="14.6131526"><ele>275.0</ele><time>2026-04-19T08:55:39.235Z</time></trkpt><trkpt lat="42.0330323" lon="14.6131256"><ele>275.0</ele><time>2026-04-19T08:55:40.221Z</time></trkpt><trkpt lat="42.0331019" lon="14.6131262"><ele>275.0</ele><time>2026-04-19T08:55:41.217Z</time></trkpt><trkpt lat="42.0331659" lon="14.6131387"><ele>275.0</ele><time>2026-04-19T08:55:42.245Z</time></trkpt><trkpt lat="42.0332596" lon="14.6131599"><ele>275.0</ele><time>2026-04-19T08:55:44.204Z</time></trkpt><trkpt lat="42.0333406" lon="14.6131718"><ele>277.42857142857144</ele><time>2026-04-19T08:55:46.196Z</time></trkpt><trkpt lat="42.0334101" lon="14.6131715"><ele>279.85714285714283</ele><time>2026-04-19T08:55:48.211Z</time></trkpt><trkpt lat="42.0334787" lon="14.6131473"><ele>282.2857142857143</ele><time>2026-04-19T08:55:50.24Z</time></trkpt><trkpt lat="42.0335468" lon="14.6131358"><ele>284.7142857142857</ele><time>2026-04-19T08:55:52.202Z</time></trkpt><trkpt lat="42.0336184" lon="14.6131361"><ele>287.14285714285717</ele><time>2026-04-19T08:55:54.216Z</time></trkpt><trkpt lat="42.0336912" lon="14.6131282"><ele>289.57142857142856</ele><time>2026-04-19T08:55:56.253Z</time></trkpt><trkpt lat="42.0337678" lon="14.6131238"><ele>292.0</ele><time>2026-04-19T08:55:58.253Z</time></trkpt><trkpt lat="42.033836" lon="14.613132"><ele>292.0</ele><time>2026-04-19T08:56:00.189Z</time></trkpt><trkpt lat="42.0339268" lon="14.6131269"><ele>292.0</ele><time>2026-04-19T08:56:03.185Z</time></trkpt><trkpt lat="42.0339871" lon="14.6130759"><ele>292.0</ele><time>2026-04-19T08:56:05.187Z</time></trkpt><trkpt lat="42.0340541" lon="14.6130915"><ele>292.0</ele><time>2026-04-19T08:56:07.196Z</time></trkpt><trkpt lat="42.0341299" lon="14.613075"><ele>292.0</ele><time>2026-04-19T08:56:09.195Z</time></trkpt><trkpt lat="42.0341931" lon="14.613066"><ele>292.0</ele><time>2026-04-19T08:56:11.199Z</time></trkpt><trkpt lat="42.0342418" lon="14.6129926"><ele>292.0</ele><time>2026-04-19T08:56:14.21Z</time></trkpt><trkpt lat="42.0342805" lon="14.6129225"><ele>294.16666666666663</ele><time>2026-04-19T08:56:16.198Z</time></trkpt><trkpt lat="42.0343463" lon="14.6128385"><ele>296.3333333333333</ele><time>2026-04-19T08:56:19.197Z</time></trkpt><trkpt lat="42.034415" lon="14.6127755"><ele>298.5</ele><time>2026-04-19T08:56:21.2Z</time></trkpt><trkpt lat="42.0344848" lon="14.6127087"><ele>300.6666666666667</ele><time>2026-04-19T08:56:23.204Z</time></trkpt><trkpt lat="42.034546" lon="14.6126411"><ele>302.83333333333337</ele><time>2026-04-19T08:56:27.227Z</time></trkpt><trkpt lat="42.0345864" lon="14.612565"><ele>305.0</ele><time>2026-04-19T08:56:29.208Z</time></trkpt><trkpt lat="42.0345986" lon="14.612479"><ele>306.2</ele><time>2026-04-19T08:56:31.205Z</time></trkpt><trkpt lat="42.0346239" lon="14.6123523"><ele>307.4</ele><time>2026-04-19T08:56:34.237Z</time></trkpt><trkpt lat="42.0346373" lon="14.6122443"><ele>308.6</ele><time>2026-04-19T08:56:37.206Z</time></trkpt><trkpt lat="42.0347095" lon="14.6122064"><ele>309.8</ele><time>2026-04-19T08:56:48.219Z</time></trkpt><trkpt lat="42.0347109" lon="14.6123717"><ele>311.0</ele><time>2026-04-19T08:56:51.209Z</time></trkpt><trkpt lat="42.0346996" lon="14.6124818"><ele>311.0</ele><time>2026-04-19T08:56:52.204Z</time></trkpt><trkpt lat="42.0346985" lon="14.6126165"><ele>311.0</ele><time>2026-04-19T08:56:53.214Z</time></trkpt><trkpt lat="42.0347015" lon="14.61273"><ele>311.0</ele><time>2026-04-19T08:56:54.223Z</time></trkpt><trkpt lat="42.0347001" lon="14.6128263"><ele>311.0</ele><time>2026-04-19T08:56:55.214Z</time></trkpt><trkpt lat="42.0347033" lon="14.6129252"><ele>311.0</ele><time>2026-04-19T08:56:56.251Z</time></trkpt><trkpt lat="42.0347106" lon="14.6130173"><ele>311.0</ele><time>2026-04-19T08:56:57.201Z</time></trkpt><trkpt lat="42.0347191" lon="14.613119"><ele>310.0</ele><time>2026-04-19T08:56:58.198Z</time></trkpt><trkpt lat="42.0347252" lon="14.6132251"><ele>309.0</ele><time>2026-04-19T08:56:59.251Z</time></trkpt><trkpt lat="42.03473" lon="14.6133252"><ele>308.0</ele><time>2026-04-19T08:57:00.257Z</time></trkpt><trkpt lat="42.0347383" lon="14.6134142"><ele>307.0</ele><time>2026-04-19T08:57:01.236Z</time></trkpt><trkpt lat="42.0347548" lon="14.6135819"><ele>306.0</ele><time>2026-04-19T08:57:03.242Z</time></trkpt><trkpt lat="42.0347606" lon="14.6136771"><ele>305.0</ele><time>2026-04-19T08:57:04.229Z</time></trkpt><trkpt lat="42.034771" lon="14.6137857"><ele>303.75</ele><time>2026-04-19T08:57:05.241Z</time></trkpt><trkpt lat="42.0347887" lon="14.6139159"><ele>302.5</ele><time>2026-04-19T08:57:06.251Z</time></trkpt><trkpt lat="42.0348058" lon="14.6140541"><ele>301.25</ele><time>2026-04-19T08:57:07.238Z</time></trkpt><trkpt lat="42.0348258" lon="14.6142253"><ele>300.0</ele><time>2026-04-19T08:57:08.262Z</time></trkpt><trkpt lat="42.0348477" lon="14.6144081"><ele>299.4</ele><time>2026-04-19T08:57:09.199Z</time></trkpt><trkpt lat="42.0348614" lon="14.6145644"><ele>298.8</ele><time>2026-04-19T08:57:10.237Z</time></trkpt><trkpt lat="42.0348753" lon="14.614696"><ele>298.2</ele><time>2026-04-19T08:57:11.2Z</time></trkpt><trkpt lat="42.0348924" lon="14.6148257"><ele>297.6</ele><time>2026-04-19T08:57:12.218Z</time></trkpt><trkpt lat="42.034917" lon="14.614954"><ele>297.0</ele><time>2026-04-19T08:57:13.238Z</time></trkpt><trkpt lat="42.0349497" lon="14.6150759"><ele>297.0</ele><time>2026-04-19T08:57:14.24Z</time></trkpt><trkpt lat="42.0349822" lon="14.6151677"><ele>297.0</ele><time>2026-04-19T08:57:15.244Z</time></trkpt><trkpt lat="42.0350193" lon="14.6152451"><ele>297.0</ele><time>2026-04-19T08:57:16.219Z</time></trkpt><trkpt lat="42.0350631" lon="14.61532"><ele>297.0</ele><time>2026-04-19T08:57:17.216Z</time></trkpt><trkpt lat="42.0351192" lon="14.615392"><ele>297.0</ele><time>2026-04-19T08:57:18.217Z</time></trkpt><trkpt lat="42.0351756" lon="14.6154694"><ele>297.0</ele><time>2026-04-19T08:57:19.256Z</time></trkpt><trkpt lat="42.0352437" lon="14.6155456"><ele>295.8333333333333</ele><time>2026-04-19T08:57:20.234Z</time></trkpt><trkpt lat="42.0353136" lon="14.6156273"><ele>294.6666666666667</ele><time>2026-04-19T08:57:21.215Z</time></trkpt><trkpt lat="42.0353796" lon="14.6157087"><ele>293.5</ele><time>2026-04-19T08:57:22.212Z</time></trkpt><trkpt lat="42.0354509" lon="14.6157877"><ele>292.33333333333337</ele><time>2026-04-19T08:57:23.213Z</time></trkpt><trkpt lat="42.0355197" lon="14.6158572"><ele>291.1666666666667</ele><time>2026-04-19T08:57:24.22Z</time></trkpt><trkpt lat="42.0355884" lon="14.6159289"><ele>290.0</ele><time>2026-04-19T08:57:25.214Z</time></trkpt><trkpt lat="42.0356536" lon="14.6160027"><ele>290.0</ele><time>2026-04-19T08:57:26.233Z</time></trkpt><trkpt lat="42.035725" lon="14.6160847"><ele>290.0</ele><time>2026-04-19T08:57:27.196Z</time></trkpt><trkpt lat="42.0358057" lon="14.6161691"><ele>290.0</ele><time>2026-04-19T08:57:28.23Z</time></trkpt><trkpt lat="42.0358812" lon="14.616249"><ele>290.0</ele><time>2026-04-19T08:57:29.201Z</time></trkpt><trkpt lat="42.0359598" lon="14.6163373"><ele>290.0</ele><time>2026-04-19T08:57:30.214Z</time></trkpt><trkpt lat="42.0360318" lon="14.6164342"><ele>286.6</ele><time>2026-04-19T08:57:31.206Z</time></trkpt><trkpt lat="42.0360984" lon="14.6165478"><ele>283.2</ele><time>2026-04-19T08:57:32.213Z</time></trkpt><trkpt lat="42.0361695" lon="14.6166675"><ele>279.8</ele><time>2026-04-19T08:57:33.205Z</time></trkpt><trkpt lat="42.0362414" lon="14.6167879"><ele>276.4</ele><time>2026-04-19T08:57:34.221Z</time></trkpt><trkpt lat="42.0363045" lon="14.6169052"><ele>273.0</ele><time>2026-04-19T08:57:35.213Z</time></trkpt><trkpt lat="42.0363603" lon="14.6170206"><ele>271.0</ele><time>2026-04-19T08:57:36.198Z</time></trkpt><trkpt lat="42.0364118" lon="14.6171342"><ele>269.0</ele><time>2026-04-19T08:57:37.22Z</time></trkpt><trkpt lat="42.0364671" lon="14.6172351"><ele>267.0</ele><time>2026-04-19T08:57:38.196Z</time></trkpt><trkpt lat="42.03652" lon="14.6173247"><ele>265.0</ele><time>2026-04-19T08:57:39.212Z</time></trkpt><trkpt lat="42.0365856" lon="14.617406"><ele>263.0</ele><time>2026-04-19T08:57:40.218Z</time></trkpt><trkpt lat="42.0366655" lon="14.617474"><ele>263.0</ele><time>2026-04-19T08:57:41.205Z</time></trkpt><trkpt lat="42.0367562" lon="14.6175292"><ele>263.0</ele><time>2026-04-19T08:57:42.205Z</time></trkpt><trkpt lat="42.0368551" lon="14.617584"><ele>263.0</ele><time>2026-04-19T08:57:43.224Z</time></trkpt><trkpt lat="42.0369603" lon="14.6176399"><ele>263.0</ele><time>2026-04-19T08:57:44.194Z</time></trkpt><trkpt lat="42.0370659" lon="14.6176989"><ele>263.0</ele><time>2026-04-19T08:57:45.24Z</time></trkpt><trkpt lat="42.0371631" lon="14.6177609"><ele>261.0</ele><time>2026-04-19T08:57:46.22Z</time></trkpt><trkpt lat="42.0372564" lon="14.6178249"><ele>259.0</ele><time>2026-04-19T08:57:47.238Z</time></trkpt><trkpt lat="42.0373575" lon="14.6178836"><ele>257.0</ele><time>2026-04-19T08:57:48.224Z</time></trkpt><trkpt lat="42.0374701" lon="14.6179425"><ele>255.0</ele><time>2026-04-19T08:57:49.244Z</time></trkpt><trkpt lat="42.0375739" lon="14.6180028"><ele>253.0</ele><time>2026-04-19T08:57:50.253Z</time></trkpt><trkpt lat="42.0376691" lon="14.6180609"><ele>253.0</ele><time>2026-04-19T08:57:51.245Z</time></trkpt><trkpt lat="42.0377696" lon="14.6181273"><ele>253.0</ele><time>2026-04-19T08:57:52.22Z</time></trkpt><trkpt lat="42.0378718" lon="14.6182022"><ele>253.0</ele><time>2026-04-19T08:57:53.239Z</time></trkpt><trkpt lat="42.0379612" lon="14.6182868"><ele>253.0</ele><time>2026-04-19T08:57:54.202Z</time></trkpt><trkpt lat="42.038047" lon="14.6183848"><ele>253.0</ele><time>2026-04-19T08:57:55.201Z</time></trkpt><trkpt lat="42.0381258" lon="14.6184752"><ele>253.0</ele><time>2026-04-19T08:57:56.197Z</time></trkpt><trkpt lat="42.0382022" lon="14.6185755"><ele>253.0</ele><time>2026-04-19T08:57:57.254Z</time></trkpt><trkpt lat="42.0382844" lon="14.6186704"><ele>253.0</ele><time>2026-04-19T08:57:58.247Z</time></trkpt><trkpt lat="42.0383751" lon="14.6187407"><ele>253.0</ele><time>2026-04-19T08:57:59.247Z</time></trkpt><trkpt lat="42.0384715" lon="14.6188153"><ele>251.25</ele><time>2026-04-19T08:58:00.261Z</time></trkpt><trkpt lat="42.0385605" lon="14.6189081"><ele>249.5</ele><time>2026-04-19T08:58:01.227Z</time></trkpt><trkpt lat="42.0386429" lon="14.6190105"><ele>247.75</ele><time>2026-04-19T08:58:02.212Z</time></trkpt><trkpt lat="42.0387319" lon="14.6191098"><ele>246.0</ele><time>2026-04-19T08:58:03.211Z</time></trkpt><trkpt lat="42.03882" lon="14.6191988"><ele>246.0</ele><time>2026-04-19T08:58:04.198Z</time></trkpt><trkpt lat="42.0389045" lon="14.6192707"><ele>246.00000000000003</ele><time>2026-04-19T08:58:05.246Z</time></trkpt><trkpt lat="42.0389974" lon="14.6193308"><ele>246.00000000000003</ele><time>2026-04-19T08:58:06.249Z</time></trkpt><trkpt lat="42.0391107" lon="14.6193693"><ele>246.0</ele><time>2026-04-19T08:58:07.229Z</time></trkpt><trkpt lat="42.0392193" lon="14.6193808"><ele>246.0</ele><time>2026-04-19T08:58:08.249Z</time></trkpt><trkpt lat="42.0393151" lon="14.6193869"><ele>245.66666666666666</ele><time>2026-04-19T08:58:09.255Z</time></trkpt><trkpt lat="42.0393896" lon="14.6194108"><ele>245.33333333333331</ele><time>2026-04-19T08:58:10.238Z</time></trkpt><trkpt lat="42.039447" lon="14.619468"><ele>245.0</ele><time>2026-04-19T08:58:11.203Z</time></trkpt><trkpt lat="42.039491" lon="14.6195675"><ele>244.66666666666666</ele><time>2026-04-19T08:58:12.214Z</time></trkpt><trkpt lat="42.0395373" lon="14.6196892"><ele>244.33333333333331</ele><time>2026-04-19T08:58:13.221Z</time></trkpt><trkpt lat="42.0395755" lon="14.619812"><ele>244.0</ele><time>2026-04-19T08:58:14.234Z</time></trkpt><trkpt lat="42.0395955" lon="14.6199463"><ele>243.49999999999997</ele><time>2026-04-19T08:58:15.259Z</time></trkpt><trkpt lat="42.0396121" lon="14.6200777"><ele>243.0</ele><time>2026-04-19T08:58:16.208Z</time></trkpt><trkpt lat="42.0396239" lon="14.6202019"><ele>242.5</ele><time>2026-04-19T08:58:17.261Z</time></trkpt><trkpt lat="42.0396405" lon="14.6203165"><ele>242.0</ele><time>2026-04-19T08:58:18.244Z</time></trkpt><trkpt lat="42.0396576" lon="14.6204211"><ele>241.49999999999997</ele><time>2026-04-19T08:58:19.242Z</time></trkpt><trkpt lat="42.039685" lon="14.6205213"><ele>241.0</ele><time>2026-04-19T08:58:20.209Z</time></trkpt><trkpt lat="42.0397321" lon="14.6206253"><ele>239.16666666666666</ele><time>2026-04-19T08:58:21.214Z</time></trkpt><trkpt lat="42.0397801" lon="14.620722"><ele>237.33333333333331</ele><time>2026-04-19T08:58:22.204Z</time></trkpt><trkpt lat="42.0398103" lon="14.6208288"><ele>235.5</ele><time>2026-04-19T08:58:23.232Z</time></trkpt><trkpt lat="42.0398337" lon="14.620928"><ele>233.66666666666669</ele><time>2026-04-19T08:58:24.246Z</time></trkpt><trkpt lat="42.0398553" lon="14.6210369"><ele>231.83333333333334</ele><time>2026-04-19T08:58:25.221Z</time></trkpt><trkpt lat="42.039869" lon="14.6211631"><ele>230.0</ele><time>2026-04-19T08:58:26.201Z</time></trkpt><trkpt lat="42.0398828" lon="14.6212979"><ele>229.6</ele><time>2026-04-19T08:58:27.227Z</time></trkpt><trkpt lat="42.0398984" lon="14.621429"><ele>229.2</ele><time>2026-04-19T08:58:28.251Z</time></trkpt><trkpt lat="42.0399224" lon="14.6215583"><ele>228.8</ele><time>2026-04-19T08:58:29.245Z</time></trkpt><trkpt lat="42.0399532" lon="14.6216875"><ele>228.4</ele><time>2026-04-19T08:58:30.243Z</time></trkpt><trkpt lat="42.0399891" lon="14.6218231"><ele>228.0</ele><time>2026-04-19T08:58:31.206Z</time></trkpt><trkpt lat="42.0400306" lon="14.6219724"><ele>227.0</ele><time>2026-04-19T08:58:32.218Z</time></trkpt><trkpt lat="42.04007" lon="14.6221168"><ele>226.0</ele><time>2026-04-19T08:58:33.219Z</time></trkpt><trkpt lat="42.0401039" lon="14.6222458"><ele>225.0</ele><time>2026-04-19T08:58:34.238Z</time></trkpt><trkpt lat="42.0401379" lon="14.6223618"><ele>224.0</ele><time>2026-04-19T08:58:35.263Z</time></trkpt><trkpt lat="42.0401679" lon="14.6224873"><ele>223.0</ele><time>2026-04-19T08:58:36.256Z</time></trkpt><trkpt lat="42.0402" lon="14.6226224"><ele>222.99999999999997</ele><time>2026-04-19T08:58:37.238Z</time></trkpt><trkpt lat="42.0402362" lon="14.622753"><ele>223.0</ele><time>2026-04-19T08:58:38.241Z</time></trkpt><trkpt lat="42.0402742" lon="14.6228677"><ele>223.0</ele><time>2026-04-19T08:58:39.2Z</time></trkpt><trkpt lat="42.0403083" lon="14.6229622"><ele>223.0</ele><time>2026-04-19T08:58:40.209Z</time></trkpt><trkpt lat="42.0403565" lon="14.6230505"><ele>222.99999999999997</ele><time>2026-04-19T08:58:41.221Z</time></trkpt><trkpt lat="42.0404224" lon="14.6231382"><ele>223.0</ele><time>2026-04-19T08:58:42.25Z</time></trkpt><trkpt lat="42.0405038" lon="14.6232233"><ele>222.60000000000002</ele><time>2026-04-19T08:58:43.208Z</time></trkpt><trkpt lat="42.040595" lon="14.6233018"><ele>222.20000000000002</ele><time>2026-04-19T08:58:44.221Z</time></trkpt><trkpt lat="42.040694" lon="14.6233788"><ele>221.8</ele><time>2026-04-19T08:58:45.26Z</time></trkpt><trkpt lat="42.0407913" lon="14.6234339"><ele>221.4</ele><time>2026-04-19T08:58:46.228Z</time></trkpt><trkpt lat="42.0408814" lon="14.6234787"><ele>221.0</ele><time>2026-04-19T08:58:47.246Z</time></trkpt><trkpt lat="42.0409736" lon="14.6235169"><ele>221.0</ele><time>2026-04-19T08:58:48.222Z</time></trkpt><trkpt lat="42.0410671" lon="14.6235631"><ele>221.0</ele><time>2026-04-19T08:58:49.218Z</time></trkpt><trkpt lat="42.0411655" lon="14.6236253"><ele>221.0</ele><time>2026-04-19T08:58:50.223Z</time></trkpt><trkpt lat="42.041277" lon="14.6237093"><ele>221.0</ele><time>2026-04-19T08:58:51.209Z</time></trkpt><trkpt lat="42.0413963" lon="14.6238013"><ele>220.0</ele><time>2026-04-19T08:58:52.233Z</time></trkpt><trkpt lat="42.0415184" lon="14.6238926"><ele>219.0</ele><time>2026-04-19T08:58:53.245Z</time></trkpt><trkpt lat="42.0416468" lon="14.6239776"><ele>218.0</ele><time>2026-04-19T08:58:54.254Z</time></trkpt><trkpt lat="42.0417913" lon="14.6240623"><ele>217.0</ele><time>2026-04-19T08:58:55.252Z</time></trkpt><trkpt lat="42.0419356" lon="14.6241572"><ele>216.5</ele><time>2026-04-19T08:58:56.251Z</time></trkpt><trkpt lat="42.0420709" lon="14.6242464"><ele>216.0</ele><time>2026-04-19T08:58:57.235Z</time></trkpt><trkpt lat="42.0422031" lon="14.6243164"><ele>215.5</ele><time>2026-04-19T08:58:58.256Z</time></trkpt><trkpt lat="42.0423137" lon="14.6243826"><ele>215.0</ele><time>2026-04-19T08:58:59.246Z</time></trkpt><trkpt lat="42.0424153" lon="14.6244488"><ele>214.75</ele><time>2026-04-19T08:59:00.256Z</time></trkpt><trkpt lat="42.0425201" lon="14.6245144"><ele>214.5</ele><time>2026-04-19T08:59:01.198Z</time></trkpt><trkpt lat="42.0426256" lon="14.6245784"><ele>214.25</ele><time>2026-04-19T08:59:02.209Z</time></trkpt><trkpt lat="42.042736" lon="14.6246552"><ele>214.0</ele><time>2026-04-19T08:59:03.202Z</time></trkpt><trkpt lat="42.0428443" lon="14.6247435"><ele>214.0</ele><time>2026-04-19T08:59:04.246Z</time></trkpt><trkpt lat="42.0429499" lon="14.6248271"><ele>213.99999999999997</ele><time>2026-04-19T08:59:05.239Z</time></trkpt><trkpt lat="42.0430396" lon="14.6249165"><ele>213.99999999999997</ele><time>2026-04-19T08:59:06.234Z</time></trkpt><trkpt lat="42.0431215" lon="14.6250073"><ele>214.0</ele><time>2026-04-19T08:59:07.26Z</time></trkpt><trkpt lat="42.0432016" lon="14.625094"><ele>214.0</ele><time>2026-04-19T08:59:08.239Z</time></trkpt><trkpt lat="42.043283" lon="14.6251824"><ele>212.2</ele><time>2026-04-19T08:59:09.245Z</time></trkpt><trkpt lat="42.0433628" lon="14.6252658"><ele>210.39999999999998</ele><time>2026-04-19T08:59:10.24Z</time></trkpt><trkpt lat="42.043443" lon="14.625346"><ele>208.6</ele><time>2026-04-19T08:59:11.247Z</time></trkpt><trkpt lat="42.0435168" lon="14.6254259"><ele>206.8</ele><time>2026-04-19T08:59:12.253Z</time></trkpt><trkpt lat="42.0435886" lon="14.6255012"><ele>205.0</ele><time>2026-04-19T08:59:13.233Z</time></trkpt><trkpt lat="42.0436577" lon="14.6255696"><ele>204.33333333333331</ele><time>2026-04-19T08:59:14.237Z</time></trkpt><trkpt lat="42.0437258" lon="14.6256398"><ele>203.66666666666666</ele><time>2026-04-19T08:59:15.247Z</time></trkpt><trkpt lat="42.043792" lon="14.62571"><ele>203.0</ele><time>2026-04-19T08:59:16.248Z</time></trkpt><trkpt lat="42.0438603" lon="14.6257998"><ele>202.33333333333331</ele><time>2026-04-19T08:59:17.245Z</time></trkpt><trkpt lat="42.0439237" lon="14.625891"><ele>201.66666666666666</ele><time>2026-04-19T08:59:18.248Z</time></trkpt><trkpt lat="42.0439824" lon="14.6259841"><ele>201.0</ele><time>2026-04-19T08:59:19.251Z</time></trkpt><trkpt lat="42.0440372" lon="14.62609"><ele>198.4</ele><time>2026-04-19T08:59:20.232Z</time></trkpt><trkpt lat="42.044094" lon="14.6261968"><ele>195.8</ele><time>2026-04-19T08:59:21.209Z</time></trkpt><trkpt lat="42.0441479" lon="14.6262953"><ele>193.20000000000002</ele><time>2026-04-19T08:59:22.218Z</time></trkpt><trkpt lat="42.0442003" lon="14.6263996"><ele>190.60000000000002</ele><time>2026-04-19T08:59:23.252Z</time></trkpt><trkpt lat="42.0442524" lon="14.6265072"><ele>188.0</ele><time>2026-04-19T08:59:24.201Z</time></trkpt><trkpt lat="42.0443084" lon="14.6266097"><ele>188.0</ele><time>2026-04-19T08:59:25.261Z</time></trkpt><trkpt lat="42.0443632" lon="14.6267056"><ele>188.0</ele><time>2026-04-19T08:59:26.198Z</time></trkpt><trkpt lat="42.0444285" lon="14.6267939"><ele>188.0</ele><time>2026-04-19T08:59:27.213Z</time></trkpt><trkpt lat="42.0444971" lon="14.6268954"><ele>188.0</ele><time>2026-04-19T08:59:28.251Z</time></trkpt><trkpt lat="42.0445587" lon="14.6269986"><ele>188.0</ele><time>2026-04-19T08:59:29.246Z</time></trkpt><trkpt lat="42.04462" lon="14.6270964"><ele>186.83333333333331</ele><time>2026-04-19T08:59:30.237Z</time></trkpt><trkpt lat="42.0446883" lon="14.6271836"><ele>185.66666666666666</ele><time>2026-04-19T08:59:31.239Z</time></trkpt><trkpt lat="42.0447622" lon="14.6272476"><ele>184.5</ele><time>2026-04-19T08:59:32.256Z</time></trkpt><trkpt lat="42.0448319" lon="14.6272975"><ele>183.33333333333334</ele><time>2026-04-19T08:59:33.255Z</time></trkpt><trkpt lat="42.0449108" lon="14.6273376"><ele>182.16666666666669</ele><time>2026-04-19T08:59:34.237Z</time></trkpt><trkpt lat="42.0449947" lon="14.6273548"><ele>181.0</ele><time>2026-04-19T08:59:35.262Z</time></trkpt><trkpt lat="42.0450781" lon="14.6273543"><ele>181.0</ele><time>2026-04-19T08:59:36.243Z</time></trkpt><trkpt lat="42.045164" lon="14.6273641"><ele>181.0</ele><time>2026-04-19T08:59:37.268Z</time></trkpt><trkpt lat="42.0452512" lon="14.6273922"><ele>181.0</ele><time>2026-04-19T08:59:38.242Z</time></trkpt><trkpt lat="42.0453483" lon="14.6274245"><ele>181.0</ele><time>2026-04-19T08:59:39.273Z</time></trkpt><trkpt lat="42.0454371" lon="14.6274363"><ele>181.0</ele><time>2026-04-19T08:59:40.246Z</time></trkpt><trkpt lat="42.0455273" lon="14.62745"><ele>181.0</ele><time>2026-04-19T08:59:41.238Z</time></trkpt><trkpt lat="42.0456095" lon="14.627476"><ele>181.0</ele><time>2026-04-19T08:59:42.247Z</time></trkpt><trkpt lat="42.0456818" lon="14.6275086"><ele>181.0</ele><time>2026-04-19T08:59:43.259Z</time></trkpt><trkpt lat="42.0457381" lon="14.6275509"><ele>181.0</ele><time>2026-04-19T08:59:44.249Z</time></trkpt><trkpt lat="42.0457971" lon="14.627683"><ele>181.0</ele><time>2026-04-19T08:59:46.251Z</time></trkpt><trkpt lat="42.0457953" lon="14.6277735"><ele>181.0</ele><time>2026-04-19T08:59:47.245Z</time></trkpt><trkpt lat="42.0457958" lon="14.6278667"><ele>179.60000000000002</ele><time>2026-04-19T08:59:48.22Z</time></trkpt><trkpt lat="42.0457936" lon="14.6279546"><ele>178.2</ele><time>2026-04-19T08:59:49.248Z</time></trkpt><trkpt lat="42.0457896" lon="14.628044"><ele>176.8</ele><time>2026-04-19T08:59:50.24Z</time></trkpt><trkpt lat="42.0457462" lon="14.6281928"><ele>175.39999999999998</ele><time>2026-04-19T08:59:52.246Z</time></trkpt><trkpt lat="42.0456414" lon="14.6283012"><ele>174.0</ele><time>2026-04-19T08:59:54.209Z</time></trkpt><trkpt lat="42.0455692" lon="14.6283262"><ele>174.0</ele><time>2026-04-19T08:59:55.24Z</time></trkpt><trkpt lat="42.0454893" lon="14.628358"><ele>174.0</ele><time>2026-04-19T08:59:56.211Z</time></trkpt><trkpt lat="42.0453907" lon="14.6283795"><ele>174.0</ele><time>2026-04-19T08:59:57.244Z</time></trkpt><trkpt lat="42.045275" lon="14.6284041"><ele>174.0</ele><time>2026-04-19T08:59:58.242Z</time></trkpt><trkpt lat="42.0451586" lon="14.6284329"><ele>174.0</ele><time>2026-04-19T08:59:59.277Z</time></trkpt><trkpt lat="42.0450583" lon="14.6284493"><ele>174.0</ele><time>2026-04-19T09:00:00.211Z</time></trkpt><trkpt lat="42.0449724" lon="14.6284777"><ele>174.0</ele><time>2026-04-19T09:00:01.247Z</time></trkpt><trkpt lat="42.0448986" lon="14.6285039"><ele>174.0</ele><time>2026-04-19T09:00:02.205Z</time></trkpt><trkpt lat="42.0448325" lon="14.6285479"><ele>174.0</ele><time>2026-04-19T09:00:03.207Z</time></trkpt><trkpt lat="42.0447575" lon="14.6285975"><ele>174.0</ele><time>2026-04-19T09:00:04.212Z</time></trkpt><trkpt lat="42.0446716" lon="14.628654"><ele>174.0</ele><time>2026-04-19T09:00:05.242Z</time></trkpt><trkpt lat="42.0445806" lon="14.6287133"><ele>170.6</ele><time>2026-04-19T09:00:06.23Z</time></trkpt><trkpt lat="42.0445147" lon="14.6287857"><ele>167.2</ele><time>2026-04-19T09:00:07.197Z</time></trkpt><trkpt lat="42.0444897" lon="14.6289157"><ele>163.79999999999998</ele><time>2026-04-19T09:00:08.21Z</time></trkpt><trkpt lat="42.0444794" lon="14.6290582"><ele>160.39999999999998</ele><time>2026-04-19T09:00:09.23Z</time></trkpt><trkpt lat="42.0444582" lon="14.6291784"><ele>157.0</ele><time>2026-04-19T09:00:10.246Z</time></trkpt><trkpt lat="42.0444323" lon="14.6292816"><ele>157.0</ele><time>2026-04-19T09:00:11.205Z</time></trkpt><trkpt lat="42.044399" lon="14.6293824"><ele>157.0</ele><time>2026-04-19T09:00:12.251Z</time></trkpt><trkpt lat="42.0443506" lon="14.6294908"><ele>157.0</ele><time>2026-04-19T09:00:13.244Z</time></trkpt><trkpt lat="42.0442938" lon="14.6296165"><ele>157.0</ele><time>2026-04-19T09:00:14.263Z</time></trkpt><trkpt lat="42.0442353" lon="14.6297274"><ele>157.0</ele><time>2026-04-19T09:00:15.203Z</time></trkpt><trkpt lat="42.0441817" lon="14.6298395"><ele>155.4</ele><time>2026-04-19T09:00:16.25Z</time></trkpt><trkpt lat="42.0441293" lon="14.6299527"><ele>153.79999999999998</ele><time>2026-04-19T09:00:17.209Z</time></trkpt><trkpt lat="42.0440806" lon="14.6300678"><ele>152.2</ele><time>2026-04-19T09:00:18.205Z</time></trkpt><trkpt lat="42.0440312" lon="14.6301755"><ele>150.6</ele><time>2026-04-19T09:00:19.194Z</time></trkpt><trkpt lat="42.0439866" lon="14.6302781"><ele>149.0</ele><time>2026-04-19T09:00:20.231Z</time></trkpt><trkpt lat="42.0439552" lon="14.6303661"><ele>149.0</ele><time>2026-04-19T09:00:21.199Z</time></trkpt><trkpt lat="42.0439066" lon="14.630503"><ele>149.0</ele><time>2026-04-19T09:00:23.262Z</time></trkpt><trkpt lat="42.043875" lon="14.6305825"><ele>149.0</ele><time>2026-04-19T09:00:24.23Z</time></trkpt><trkpt lat="42.0438456" lon="14.6306885"><ele>149.0</ele><time>2026-04-19T09:00:25.229Z</time></trkpt><trkpt lat="42.0438123" lon="14.6308013"><ele>149.0</ele><time>2026-04-19T09:00:26.203Z</time></trkpt><trkpt lat="42.0437826" lon="14.6309054"><ele>149.0</ele><time>2026-04-19T09:00:27.245Z</time></trkpt><trkpt lat="42.0437643" lon="14.6310161"><ele>149.0</ele><time>2026-04-19T09:00:29.233Z</time></trkpt><trkpt lat="42.0438513" lon="14.6310698"><ele>149.0</ele><time>2026-04-19T09:00:32.243Z</time></trkpt><trkpt lat="42.0439516" lon="14.6310353"><ele>149.0</ele><time>2026-04-19T09:00:34.253Z</time></trkpt><trkpt lat="42.044044" lon="14.6310294"><ele>149.0</ele><time>2026-04-19T09:00:36.234Z</time></trkpt><trkpt lat="42.0441085" lon="14.6310357"><ele>149.0</ele><time>2026-04-19T09:00:37.25Z</time></trkpt><trkpt lat="42.044196" lon="14.6310396"><ele>149.0</ele><time>2026-04-19T09:00:38.229Z</time></trkpt><trkpt lat="42.0443049" lon="14.6310483"><ele>148.33333333333331</ele><time>2026-04-19T09:00:39.227Z</time></trkpt><trkpt lat="42.044441" lon="14.631055"><ele>147.66666666666666</ele><time>2026-04-19T09:00:40.248Z</time></trkpt><trkpt lat="42.044613" lon="14.6310691"><ele>147.0</ele><time>2026-04-19T09:00:41.215Z</time></trkpt><trkpt lat="42.0448015" lon="14.6310955"><ele>146.66666666666666</ele><time>2026-04-19T09:00:42.241Z</time></trkpt><trkpt lat="42.0449711" lon="14.6311238"><ele>146.33333333333331</ele><time>2026-04-19T09:00:43.236Z</time></trkpt><trkpt lat="42.0451248" lon="14.6311442"><ele>146.0</ele><time>2026-04-19T09:00:44.28Z</time></trkpt><trkpt lat="42.0452703" lon="14.6311614"><ele>148.0</ele><time>2026-04-19T09:00:45.242Z</time></trkpt><trkpt lat="42.0454069" lon="14.631162"><ele>150.0</ele><time>2026-04-19T09:00:46.249Z</time></trkpt><trkpt lat="42.0455331" lon="14.631164"><ele>152.0</ele><time>2026-04-19T09:00:47.244Z</time></trkpt><trkpt lat="42.0456547" lon="14.6311708"><ele>154.0</ele><time>2026-04-19T09:00:48.245Z</time></trkpt><trkpt lat="42.045769" lon="14.6311673"><ele>153.6</ele><time>2026-04-19T09:00:49.257Z</time></trkpt><trkpt lat="42.0458853" lon="14.6311672"><ele>153.2</ele><time>2026-04-19T09:00:50.238Z</time></trkpt><trkpt lat="42.046002" lon="14.6311668"><ele>152.79999999999998</ele><time>2026-04-19T09:00:51.202Z</time></trkpt><trkpt lat="42.0461126" lon="14.6311714"><ele>152.4</ele><time>2026-04-19T09:00:52.227Z</time></trkpt><trkpt lat="42.0462123" lon="14.6311734"><ele>152.0</ele><time>2026-04-19T09:00:53.246Z</time></trkpt><trkpt lat="42.0463079" lon="14.6311776"><ele>152.0</ele><time>2026-04-19T09:00:54.223Z</time></trkpt><trkpt lat="42.0463922" lon="14.6311857"><ele>152.0</ele><time>2026-04-19T09:00:55.239Z</time></trkpt><trkpt lat="42.0464733" lon="14.6311818"><ele>152.0</ele><time>2026-04-19T09:00:56.211Z</time></trkpt><trkpt lat="42.046543" lon="14.6311731"><ele>152.0</ele><time>2026-04-19T09:00:57.22Z</time></trkpt><trkpt lat="42.0466142" lon="14.6311741"><ele>152.0</ele><time>2026-04-19T09:00:58.239Z</time></trkpt><trkpt lat="42.0466943" lon="14.6311702"><ele>152.0</ele><time>2026-04-19T09:00:59.247Z</time></trkpt><trkpt lat="42.0467753" lon="14.6311784"><ele>151.0</ele><time>2026-04-19T09:01:00.24Z</time></trkpt><trkpt lat="42.0468661" lon="14.6311951"><ele>150.0</ele><time>2026-04-19T09:01:01.229Z</time></trkpt><trkpt lat="42.0469749" lon="14.6312077"><ele>149.0</ele><time>2026-04-19T09:01:02.252Z</time></trkpt><trkpt lat="42.0470972" lon="14.6312133"><ele>148.0</ele><time>2026-04-19T09:01:03.202Z</time></trkpt><trkpt lat="42.0472401" lon="14.6312145"><ele>148.0</ele><time>2026-04-19T09:01:04.227Z</time></trkpt><trkpt lat="42.0474018" lon="14.6312177"><ele>148.0</ele><time>2026-04-19T09:01:05.251Z</time></trkpt><trkpt lat="42.0475706" lon="14.6312155"><ele>148.0</ele><time>2026-04-19T09:01:06.231Z</time></trkpt><trkpt lat="42.0477403" lon="14.6312044"><ele>147.66666666666669</ele><time>2026-04-19T09:01:07.24Z</time></trkpt><trkpt lat="42.0479027" lon="14.631194"><ele>147.33333333333334</ele><time>2026-04-19T09:01:08.211Z</time></trkpt><trkpt lat="42.0480531" lon="14.6311732"><ele>147.0</ele><time>2026-04-19T09:01:09.217Z</time></trkpt><trkpt lat="42.0481916" lon="14.6311514"><ele>145.0</ele><time>2026-04-19T09:01:10.225Z</time></trkpt><trkpt lat="42.0483194" lon="14.631128"><ele>143.0</ele><time>2026-04-19T09:01:11.211Z</time></trkpt><trkpt lat="42.0484406" lon="14.6310998"><ele>141.0</ele><time>2026-04-19T09:01:12.194Z</time></trkpt><trkpt lat="42.0485508" lon="14.6310691"><ele>139.0</ele><time>2026-04-19T09:01:13.233Z</time></trkpt><trkpt lat="42.0486435" lon="14.6310481"><ele>139.0</ele><time>2026-04-19T09:01:14.259Z</time></trkpt><trkpt lat="42.0487289" lon="14.6310257"><ele>139.0</ele><time>2026-04-19T09:01:15.238Z</time></trkpt><trkpt lat="42.048818" lon="14.6310076"><ele>139.0</ele><time>2026-04-19T09:01:16.242Z</time></trkpt><trkpt lat="42.048919" lon="14.6309843"><ele>139.0</ele><time>2026-04-19T09:01:17.229Z</time></trkpt><trkpt lat="42.0490248" lon="14.6309613"><ele>139.0</ele><time>2026-04-19T09:01:18.229Z</time></trkpt><trkpt lat="42.0491327" lon="14.6309361"><ele>138.75</ele><time>2026-04-19T09:01:19.211Z</time></trkpt><trkpt lat="42.049246" lon="14.6309126"><ele>138.5</ele><time>2026-04-19T09:01:20.253Z</time></trkpt><trkpt lat="42.0493691" lon="14.6308975"><ele>138.25</ele><time>2026-04-19T09:01:21.229Z</time></trkpt><trkpt lat="42.0494998" lon="14.6308797"><ele>138.0</ele><time>2026-04-19T09:01:22.21Z</time></trkpt><trkpt lat="42.0496346" lon="14.6308632"><ele>138.0</ele><time>2026-04-19T09:01:23.231Z</time></trkpt><trkpt lat="42.0497802" lon="14.6308561"><ele>138.0</ele><time>2026-04-19T09:01:24.206Z</time></trkpt><trkpt lat="42.0499349" lon="14.6308462"><ele>138.0</ele><time>2026-04-19T09:01:25.244Z</time></trkpt><trkpt lat="42.0500971" lon="14.6308389"><ele>137.33333333333334</ele><time>2026-04-19T09:01:26.233Z</time></trkpt><trkpt lat="42.0502621" lon="14.6308391"><ele>136.66666666666669</ele><time>2026-04-19T09:01:27.246Z</time></trkpt><trkpt lat="42.0504229" lon="14.6308339"><ele>136.0</ele><time>2026-04-19T09:01:28.195Z</time></trkpt><trkpt lat="42.0505735" lon="14.6308297"><ele>136.0</ele><time>2026-04-19T09:01:29.194Z</time></trkpt><trkpt lat="42.0507174" lon="14.6308266"><ele>136.0</ele><time>2026-04-19T09:01:30.201Z</time></trkpt><trkpt lat="42.0508506" lon="14.6308179"><ele>136.0</ele><time>2026-04-19T09:01:31.234Z</time></trkpt><trkpt lat="42.0509839" lon="14.6308104"><ele>136.0</ele><time>2026-04-19T09:01:32.221Z</time></trkpt><trkpt lat="42.0511153" lon="14.630809"><ele>135.75</ele><time>2026-04-19T09:01:33.24Z</time></trkpt><trkpt lat="42.0512442" lon="14.6308137"><ele>135.5</ele><time>2026-04-19T09:01:34.244Z</time></trkpt><trkpt lat="42.0513713" lon="14.630831"><ele>135.25</ele><time>2026-04-19T09:01:35.236Z</time></trkpt><trkpt lat="42.0515065" lon="14.6308619"><ele>135.0</ele><time>2026-04-19T09:01:36.247Z</time></trkpt><trkpt lat="42.051635" lon="14.6308937"><ele>134.0</ele><time>2026-04-19T09:01:37.256Z</time></trkpt><trkpt lat="42.0517565" lon="14.6309209"><ele>133.0</ele><time>2026-04-19T09:01:38.236Z</time></trkpt><trkpt lat="42.0518744" lon="14.6309463"><ele>132.0</ele><time>2026-04-19T09:01:39.253Z</time></trkpt><trkpt lat="42.0519938" lon="14.6309701"><ele>131.0</ele><time>2026-04-19T09:01:40.233Z</time></trkpt><trkpt lat="42.0521193" lon="14.6310011"><ele>131.0</ele><time>2026-04-19T09:01:41.219Z</time></trkpt><trkpt lat="42.0522491" lon="14.6310259"><ele>131.0</ele><time>2026-04-19T09:01:42.235Z</time></trkpt><trkpt lat="42.0523798" lon="14.6310504"><ele>131.0</ele><time>2026-04-19T09:01:43.239Z</time></trkpt><trkpt lat="42.0525118" lon="14.6310805"><ele>131.0</ele><time>2026-04-19T09:01:44.248Z</time></trkpt><trkpt lat="42.0526449" lon="14.6311067"><ele>130.75</ele><time>2026-04-19T09:01:45.237Z</time></trkpt><trkpt lat="42.0527806" lon="14.6311316"><ele>130.5</ele><time>2026-04-19T09:01:46.239Z</time></trkpt><trkpt lat="42.0529137" lon="14.6311543"><ele>130.25</ele><time>2026-04-19T09:01:47.252Z</time></trkpt><trkpt lat="42.0530394" lon="14.6311824"><ele>130.0</ele><time>2026-04-19T09:01:48.23Z</time></trkpt><trkpt lat="42.053163" lon="14.6312152"><ele>130.75</ele><time>2026-04-19T09:01:49.24Z</time></trkpt><trkpt lat="42.0532879" lon="14.6312489"><ele>131.5</ele><time>2026-04-19T09:01:50.223Z</time></trkpt><trkpt lat="42.0534056" lon="14.6312989"><ele>132.25</ele><time>2026-04-19T09:01:51.258Z</time></trkpt><trkpt lat="42.0535078" lon="14.6313576"><ele>133.0</ele><time>2026-04-19T09:01:52.236Z</time></trkpt><trkpt lat="42.0535972" lon="14.6314448"><ele>133.0</ele><time>2026-04-19T09:01:53.22Z</time></trkpt><trkpt lat="42.0536871" lon="14.6315488"><ele>133.0</ele><time>2026-04-19T09:01:54.253Z</time></trkpt><trkpt lat="42.0537635" lon="14.6316625"><ele>133.0</ele><time>2026-04-19T09:01:55.242Z</time></trkpt><trkpt lat="42.0538361" lon="14.6317819"><ele>133.0</ele><time>2026-04-19T09:01:56.235Z</time></trkpt><trkpt lat="42.0539159" lon="14.6318843"><ele>133.0</ele><time>2026-04-19T09:01:57.238Z</time></trkpt><trkpt lat="42.0540166" lon="14.6319731"><ele>133.0</ele><time>2026-04-19T09:01:58.233Z</time></trkpt><trkpt lat="42.0541219" lon="14.6320327"><ele>133.0</ele><time>2026-04-19T09:01:59.246Z</time></trkpt><trkpt lat="42.0542351" lon="14.6320703"><ele>133.0</ele><time>2026-04-19T09:02:00.195Z</time></trkpt><trkpt lat="42.0543532" lon="14.632079"><ele>132.25</ele><time>2026-04-19T09:02:01.207Z</time></trkpt><trkpt lat="42.0544734" lon="14.6320614"><ele>131.5</ele><time>2026-04-19T09:02:02.228Z</time></trkpt><trkpt lat="42.0545851" lon="14.6320414"><ele>130.75</ele><time>2026-04-19T09:02:03.229Z</time></trkpt><trkpt lat="42.0547066" lon="14.6319984"><ele>130.0</ele><time>2026-04-19T09:02:04.218Z</time></trkpt><trkpt lat="42.054827" lon="14.6319568"><ele>130.0</ele><time>2026-04-19T09:02:05.228Z</time></trkpt><trkpt lat="42.0549479" lon="14.6319111"><ele>130.0</ele><time>2026-04-19T09:02:06.227Z</time></trkpt><trkpt lat="42.0550658" lon="14.6318626"><ele>130.0</ele><time>2026-04-19T09:02:07.221Z</time></trkpt><trkpt lat="42.0551751" lon="14.6318201"><ele>130.0</ele><time>2026-04-19T09:02:08.217Z</time></trkpt><trkpt lat="42.0552845" lon="14.6317833"><ele>130.25</ele><time>2026-04-19T09:02:09.209Z</time></trkpt><trkpt lat="42.0553888" lon="14.6317557"><ele>130.5</ele><time>2026-04-19T09:02:10.211Z</time></trkpt><trkpt lat="42.0554971" lon="14.6317188"><ele>130.75</ele><time>2026-04-19T09:02:11.192Z</time></trkpt><trkpt lat="42.0556103" lon="14.6316611"><ele>131.0</ele><time>2026-04-19T09:02:12.218Z</time></trkpt><trkpt lat="42.0557278" lon="14.6315901"><ele>131.25</ele><time>2026-04-19T09:02:13.232Z</time></trkpt><trkpt lat="42.0558441" lon="14.6315079"><ele>131.5</ele><time>2026-04-19T09:02:14.208Z</time></trkpt><trkpt lat="42.0559574" lon="14.6314244"><ele>131.75</ele><time>2026-04-19T09:02:15.228Z</time></trkpt><trkpt lat="42.0560611" lon="14.6313456"><ele>132.0</ele><time>2026-04-19T09:02:16.219Z</time></trkpt><trkpt lat="42.0561593" lon="14.6312695"><ele>132.0</ele><time>2026-04-19T09:02:17.242Z</time></trkpt><trkpt lat="42.0562597" lon="14.631202"><ele>132.0</ele><time>2026-04-19T09:02:18.232Z</time></trkpt><trkpt lat="42.0563642" lon="14.6311401"><ele>132.0</ele><time>2026-04-19T09:02:19.293Z</time></trkpt><trkpt lat="42.0564668" lon="14.6310917"><ele>132.0</ele><time>2026-04-19T09:02:20.232Z</time></trkpt><trkpt lat="42.0565581" lon="14.631064"><ele>132.0</ele><time>2026-04-19T09:02:21.211Z</time></trkpt><trkpt lat="42.0566432" lon="14.6310622"><ele>131.79999999999998</ele><time>2026-04-19T09:02:22.195Z</time></trkpt><trkpt lat="42.0567336" lon="14.6310805"><ele>131.6</ele><time>2026-04-19T09:02:23.2Z</time></trkpt><trkpt lat="42.0568211" lon="14.6311124"><ele>131.39999999999998</ele><time>2026-04-19T09:02:24.244Z</time></trkpt><trkpt lat="42.0569128" lon="14.6311606"><ele>131.2</ele><time>2026-04-19T09:02:25.242Z</time></trkpt><trkpt lat="42.0570164" lon="14.6312224"><ele>131.0</ele><time>2026-04-19T09:02:26.244Z</time></trkpt><trkpt lat="42.0571262" lon="14.631269"><ele>131.0</ele><time>2026-04-19T09:02:27.276Z</time></trkpt><trkpt lat="42.0572414" lon="14.6313063"><ele>131.0</ele><time>2026-04-19T09:02:28.236Z</time></trkpt><trkpt lat="42.0573631" lon="14.6313197"><ele>131.0</ele><time>2026-04-19T09:02:29.251Z</time></trkpt><trkpt lat="42.0574968" lon="14.6313095"><ele>131.0</ele><time>2026-04-19T09:02:30.254Z</time></trkpt><trkpt lat="42.0576365" lon="14.6312739"><ele>131.66666666666666</ele><time>2026-04-19T09:02:31.208Z</time></trkpt><trkpt lat="42.0577784" lon="14.6312111"><ele>132.33333333333334</ele><time>2026-04-19T09:02:32.225Z</time></trkpt><trkpt lat="42.057922" lon="14.6311348"><ele>133.0</ele><time>2026-04-19T09:02:33.266Z</time></trkpt><trkpt lat="42.0580652" lon="14.6310634"><ele>131.25</ele><time>2026-04-19T09:02:34.231Z</time></trkpt><trkpt lat="42.0582032" lon="14.6309956"><ele>129.5</ele><time>2026-04-19T09:02:35.24Z</time></trkpt><trkpt lat="42.0583343" lon="14.6309323"><ele>127.75</ele><time>2026-04-19T09:02:36.204Z</time></trkpt><trkpt lat="42.0584652" lon="14.6308735"><ele>126.0</ele><time>2026-04-19T09:02:37.249Z</time></trkpt><trkpt lat="42.0585925" lon="14.6308204"><ele>126.0</ele><time>2026-04-19T09:02:38.223Z</time></trkpt><trkpt lat="42.0587168" lon="14.6307883"><ele>126.0</ele><time>2026-04-19T09:02:39.226Z</time></trkpt><trkpt lat="42.0588446" lon="14.6307518"><ele>126.0</ele><time>2026-04-19T09:02:40.241Z</time></trkpt><trkpt lat="42.058976" lon="14.6307144"><ele>126.0</ele><time>2026-04-19T09:02:41.221Z</time></trkpt><trkpt lat="42.0591092" lon="14.6306738"><ele>127.25</ele><time>2026-04-19T09:02:42.234Z</time></trkpt><trkpt lat="42.0592458" lon="14.6306332"><ele>128.5</ele><time>2026-04-19T09:02:43.217Z</time></trkpt><trkpt lat="42.0593869" lon="14.6305931"><ele>129.75</ele><time>2026-04-19T09:02:44.229Z</time></trkpt><trkpt lat="42.0595246" lon="14.6305505"><ele>131.0</ele><time>2026-04-19T09:02:45.209Z</time></trkpt><trkpt lat="42.0596605" lon="14.6305054"><ele>131.0</ele><time>2026-04-19T09:02:46.237Z</time></trkpt><trkpt lat="42.0597951" lon="14.6304649"><ele>131.0</ele><time>2026-04-19T09:02:47.258Z</time></trkpt><trkpt lat="42.0599278" lon="14.6304207"><ele>131.0</ele><time>2026-04-19T09:02:48.232Z</time></trkpt><trkpt lat="42.0600609" lon="14.6303765"><ele>131.0</ele><time>2026-04-19T09:02:49.252Z</time></trkpt><trkpt lat="42.0602015" lon="14.6303296"><ele>128.75</ele><time>2026-04-19T09:02:50.239Z</time></trkpt><trkpt lat="42.0603412" lon="14.630276"><ele>126.5</ele><time>2026-04-19T09:02:51.261Z</time></trkpt><trkpt lat="42.0604822" lon="14.6302158"><ele>124.25</ele><time>2026-04-19T09:02:52.219Z</time></trkpt><trkpt lat="42.0606238" lon="14.6301415"><ele>122.0</ele><time>2026-04-19T09:02:53.257Z</time></trkpt><trkpt lat="42.060754" lon="14.630064"><ele>121.5</ele><time>2026-04-19T09:02:54.236Z</time></trkpt><trkpt lat="42.0608781" lon="14.6299862"><ele>121.0</ele><time>2026-04-19T09:02:55.231Z</time></trkpt><trkpt lat="42.0609904" lon="14.6299175"><ele>120.5</ele><time>2026-04-19T09:02:56.187Z</time></trkpt><trkpt lat="42.0610951" lon="14.6298538"><ele>120.0</ele><time>2026-04-19T09:02:57.222Z</time></trkpt><trkpt lat="42.0611939" lon="14.629804"><ele>120.0</ele><time>2026-04-19T09:02:58.243Z</time></trkpt><trkpt lat="42.0612917" lon="14.6297739"><ele>120.0</ele><time>2026-04-19T09:02:59.224Z</time></trkpt><trkpt lat="42.0613836" lon="14.6297653"><ele>120.0</ele><time>2026-04-19T09:03:00.234Z</time></trkpt><trkpt lat="42.0614725" lon="14.6297767"><ele>120.0</ele><time>2026-04-19T09:03:01.214Z</time></trkpt><trkpt lat="42.0615614" lon="14.6298098"><ele>120.0</ele><time>2026-04-19T09:03:02.245Z</time></trkpt><trkpt lat="42.0616448" lon="14.6298503"><ele>120.6</ele><time>2026-04-19T09:03:03.193Z</time></trkpt><trkpt lat="42.0617317" lon="14.6298936"><ele>121.2</ele><time>2026-04-19T09:03:04.222Z</time></trkpt><trkpt lat="42.0618287" lon="14.6299279"><ele>121.80000000000001</ele><time>2026-04-19T09:03:05.246Z</time></trkpt><trkpt lat="42.0619319" lon="14.629957"><ele>122.4</ele><time>2026-04-19T09:03:06.234Z</time></trkpt><trkpt lat="42.062039" lon="14.6299677"><ele>123.0</ele><time>2026-04-19T09:03:07.239Z</time></trkpt><trkpt lat="42.0621572" lon="14.6299657"><ele>123.0</ele><time>2026-04-19T09:03:08.226Z</time></trkpt><trkpt lat="42.0622757" lon="14.6299777"><ele>123.0</ele><time>2026-04-19T09:03:09.235Z</time></trkpt><trkpt lat="42.0623948" lon="14.6300016"><ele>123.0</ele><time>2026-04-19T09:03:10.249Z</time></trkpt><trkpt lat="42.0625111" lon="14.6300362"><ele>123.0</ele><time>2026-04-19T09:03:11.213Z</time></trkpt><trkpt lat="42.0626282" lon="14.6300687"><ele>121.60000000000001</ele><time>2026-04-19T09:03:12.255Z</time></trkpt><trkpt lat="42.0627357" lon="14.6301001"><ele>120.20000000000002</ele><time>2026-04-19T09:03:13.223Z</time></trkpt><trkpt lat="42.0628362" lon="14.6301286"><ele>118.8</ele><time>2026-04-19T09:03:14.247Z</time></trkpt><trkpt lat="42.0629263" lon="14.6301584"><ele>117.4</ele><time>2026-04-19T09:03:15.249Z</time></trkpt><trkpt lat="42.0630048" lon="14.6301867"><ele>116.0</ele><time>2026-04-19T09:03:16.239Z</time></trkpt><trkpt lat="42.0630725" lon="14.6302146"><ele>116.0</ele><time>2026-04-19T09:03:17.243Z</time></trkpt><trkpt lat="42.0631427" lon="14.6302765"><ele>116.0</ele><time>2026-04-19T09:03:19.205Z</time></trkpt><trkpt lat="42.0631651" lon="14.6303789"><ele>116.0</ele><time>2026-04-19T09:03:21.231Z</time></trkpt><trkpt lat="42.0631955" lon="14.6304853"><ele>116.0</ele><time>2026-04-19T09:03:24.188Z</time></trkpt><trkpt lat="42.0632477" lon="14.6306168"><ele>116.0</ele><time>2026-04-19T09:03:33.238Z</time></trkpt><trkpt lat="42.0633105" lon="14.6307639"><ele>116.8</ele><time>2026-04-19T09:03:35.256Z</time></trkpt><trkpt lat="42.0633472" lon="14.6308519"><ele>117.6</ele><time>2026-04-19T09:03:36.224Z</time></trkpt><trkpt lat="42.0634165" lon="14.6309632"><ele>118.4</ele><time>2026-04-19T09:03:37.249Z</time></trkpt><trkpt lat="42.0635073" lon="14.6310738"><ele>119.2</ele><time>2026-04-19T09:03:38.256Z</time></trkpt><trkpt lat="42.0635663" lon="14.6311496"><ele>120.0</ele><time>2026-04-19T09:03:39.248Z</time></trkpt><trkpt lat="42.06361" lon="14.6313077"><ele>121.8</ele><time>2026-04-19T09:03:41.21Z</time></trkpt><trkpt lat="42.0636273" lon="14.6314178"><ele>123.6</ele><time>2026-04-19T09:03:42.226Z</time></trkpt><trkpt lat="42.0636428" lon="14.6315337"><ele>125.4</ele><time>2026-04-19T09:03:43.252Z</time></trkpt><trkpt lat="42.0636598" lon="14.6316705"><ele>127.2</ele><time>2026-04-19T09:03:44.26Z</time></trkpt><trkpt lat="42.0636873" lon="14.6318248"><ele>129.0</ele><time>2026-04-19T09:03:45.25Z</time></trkpt><trkpt lat="42.063705" lon="14.6319507"><ele>130.16666666666666</ele><time>2026-04-19T09:03:46.187Z</time></trkpt><trkpt lat="42.063723" lon="14.6320395"><ele>131.33333333333334</ele><time>2026-04-19T09:03:47.257Z</time></trkpt><trkpt lat="42.063761" lon="14.6321351"><ele>132.5</ele><time>2026-04-19T09:03:50.247Z</time></trkpt><trkpt lat="42.0638274" lon="14.6321903"><ele>133.66666666666669</ele><time>2026-04-19T09:03:52.226Z</time></trkpt><trkpt lat="42.0638761" lon="14.6322665"><ele>134.83333333333334</ele><time>2026-04-19T09:04:02.242Z</time></trkpt><trkpt lat="42.0639207" lon="14.6323606"><ele>136.0</ele><time>2026-04-19T09:04:05.251Z</time></trkpt><trkpt lat="42.0639371" lon="14.6324713"><ele>136.0</ele><time>2026-04-19T09:04:07.227Z</time></trkpt><trkpt lat="42.0639512" lon="14.6325905"><ele>136.0</ele><time>2026-04-19T09:04:09.279Z</time></trkpt><trkpt lat="42.0639271" lon="14.6326855"><ele>136.0</ele><time>2026-04-19T09:04:23.231Z</time></trkpt><trkpt lat="42.0639066" lon="14.6327992"><ele>136.0</ele><time>2026-04-19T09:04:26.203Z</time></trkpt><trkpt lat="42.0639044" lon="14.6329381"><ele>136.0</ele><time>2026-04-19T09:04:29.201Z</time></trkpt><trkpt lat="42.0638997" lon="14.6330324"><ele>136.0</ele><time>2026-04-19T09:04:31.201Z</time></trkpt><trkpt lat="42.0638896" lon="14.6331406"><ele>137.5</ele><time>2026-04-19T09:04:33.227Z</time></trkpt><trkpt lat="42.0638962" lon="14.6332353"><ele>139.0</ele><time>2026-04-19T09:04:35.227Z</time></trkpt><trkpt lat="42.0639019" lon="14.6333462"><ele>140.5</ele><time>2026-04-19T09:04:37.238Z</time></trkpt><trkpt lat="42.0639077" lon="14.6334714"><ele>142.0</ele><time>2026-04-19T09:04:39.235Z</time></trkpt><trkpt lat="42.0639118" lon="14.6335835"><ele>143.5</ele><time>2026-04-19T09:04:41.216Z</time></trkpt><trkpt lat="42.0639195" lon="14.6336889"><ele>145.0</ele><time>2026-04-19T09:04:43.223Z</time></trkpt><trkpt lat="42.0639383" lon="14.633786"><ele>145.83333333333334</ele><time>2026-04-19T09:04:45.236Z</time></trkpt><trkpt lat="42.063936" lon="14.6339182"><ele>146.66666666666669</ele><time>2026-04-19T09:04:47.245Z</time></trkpt><trkpt lat="42.0639208" lon="14.6340033"><ele>147.5</ele><time>2026-04-19T09:04:48.227Z</time></trkpt><trkpt lat="42.0638816" lon="14.6341371"><ele>148.33333333333334</ele><time>2026-04-19T09:04:50.21Z</time></trkpt><trkpt lat="42.0638489" lon="14.634217"><ele>149.16666666666666</ele><time>2026-04-19T09:04:51.205Z</time></trkpt><trkpt lat="42.0637749" lon="14.6343059"><ele>150.0</ele><time>2026-04-19T09:04:53.241Z</time></trkpt><trkpt lat="42.0637169" lon="14.6343868"><ele>151.2</ele><time>2026-04-19T09:05:17.236Z</time></trkpt><trkpt lat="42.0636644" lon="14.6344739"><ele>152.4</ele><time>2026-04-19T09:05:20.217Z</time></trkpt><trkpt lat="42.0636396" lon="14.6345772"><ele>153.6</ele><time>2026-04-19T09:05:24.234Z</time></trkpt><trkpt lat="42.0636538" lon="14.6346931"><ele>154.8</ele><time>2026-04-19T09:05:27.249Z</time></trkpt><trkpt lat="42.0637025" lon="14.6348188"><ele>156.0</ele><time>2026-04-19T09:05:29.205Z</time></trkpt><trkpt lat="42.0637718" lon="14.6349746"><ele>156.0</ele><time>2026-04-19T09:05:31.2Z</time></trkpt><trkpt lat="42.0638119" lon="14.6350743"><ele>156.0</ele><time>2026-04-19T09:05:32.205Z</time></trkpt><trkpt lat="42.0638411" lon="14.6351696"><ele>156.0</ele><time>2026-04-19T09:05:33.201Z</time></trkpt><trkpt lat="42.0638698" lon="14.6352565"><ele>156.0</ele><time>2026-04-19T09:05:34.194Z</time></trkpt><trkpt lat="42.0638951" lon="14.6353393"><ele>156.0</ele><time>2026-04-19T09:05:35.212Z</time></trkpt><trkpt lat="42.0639206" lon="14.6354183"><ele>156.0</ele><time>2026-04-19T09:05:36.237Z</time></trkpt><trkpt lat="42.0639682" lon="14.6355718"><ele>158.5</ele><time>2026-04-19T09:05:38.243Z</time></trkpt><trkpt lat="42.0639934" lon="14.6356546"><ele>161.0</ele><time>2026-04-19T09:05:39.24Z</time></trkpt><trkpt lat="42.064016" lon="14.6357391"><ele>163.5</ele><time>2026-04-19T09:05:40.245Z</time></trkpt><trkpt lat="42.0640842" lon="14.6358545"><ele>166.0</ele><time>2026-04-19T09:05:42.214Z</time></trkpt><trkpt lat="42.064181" lon="14.6359097"><ele>168.5</ele><time>2026-04-19T09:05:44.231Z</time></trkpt><trkpt lat="42.064268" lon="14.6359465"><ele>171.0</ele><time>2026-04-19T09:05:46.44Z</time></trkpt><trkpt lat="42.0643659" lon="14.6359978"><ele>171.60000000000002</ele><time>2026-04-19T09:05:48.246Z</time></trkpt><trkpt lat="42.0644775" lon="14.6360471"><ele>172.2</ele><time>2026-04-19T09:05:50.243Z</time></trkpt><trkpt lat="42.064584" lon="14.6360846"><ele>172.8</ele><time>2026-04-19T09:05:52.303Z</time></trkpt><trkpt lat="42.0646768" lon="14.6361237"><ele>173.39999999999998</ele><time>2026-04-19T09:05:54.224Z</time></trkpt><trkpt lat="42.064749" lon="14.6361662"><ele>174.0</ele><time>2026-04-19T09:05:56.225Z</time></trkpt><trkpt lat="42.0647834" lon="14.63627"><ele>176.83333333333334</ele><time>2026-04-19T09:05:58.235Z</time></trkpt><trkpt lat="42.0647707" lon="14.6364163"><ele>179.66666666666666</ele><time>2026-04-19T09:06:00.2Z</time></trkpt><trkpt lat="42.0647621" lon="14.6365112"><ele>182.5</ele><time>2026-04-19T09:06:01.233Z</time></trkpt><trkpt lat="42.0647521" lon="14.6366024"><ele>185.33333333333331</ele><time>2026-04-19T09:06:02.192Z</time></trkpt><trkpt lat="42.0647425" lon="14.6367114"><ele>188.16666666666666</ele><time>2026-04-19T09:06:03.215Z</time></trkpt><trkpt lat="42.0647373" lon="14.6368169"><ele>191.0</ele><time>2026-04-19T09:06:04.225Z</time></trkpt><trkpt lat="42.0647343" lon="14.6369159"><ele>193.5</ele><time>2026-04-19T09:06:05.24Z</time></trkpt><trkpt lat="42.0647324" lon="14.6370381"><ele>196.0</ele><time>2026-04-19T09:06:06.225Z</time></trkpt><trkpt lat="42.064734" lon="14.6371626"><ele>198.5</ele><time>2026-04-19T09:06:07.236Z</time></trkpt><trkpt lat="42.064742" lon="14.637276"><ele>201.0</ele><time>2026-04-19T09:06:08.235Z</time></trkpt><trkpt lat="42.064746" lon="14.6373792"><ele>203.50000000000003</ele><time>2026-04-19T09:06:09.22Z</time></trkpt><trkpt lat="42.0647524" lon="14.63747"><ele>206.0</ele><time>2026-04-19T09:06:10.222Z</time></trkpt><trkpt lat="42.0647559" lon="14.6375617"><ele>205.99999999999997</ele><time>2026-04-19T09:06:11.217Z</time></trkpt><trkpt lat="42.0647498" lon="14.6376487"><ele>206.0</ele><time>2026-04-19T09:06:12.233Z</time></trkpt><trkpt lat="42.064742" lon="14.6377394"><ele>206.0</ele><time>2026-04-19T09:06:13.211Z</time></trkpt><trkpt lat="42.0647366" lon="14.6378379"><ele>206.0</ele><time>2026-04-19T09:06:14.25Z</time></trkpt><trkpt lat="42.0647293" lon="14.637943"><ele>206.0</ele><time>2026-04-19T09:06:15.226Z</time></trkpt><trkpt lat="42.0647284" lon="14.638057"><ele>205.99999999999997</ele><time>2026-04-19T09:06:16.231Z</time></trkpt><trkpt lat="42.0647279" lon="14.6381625"><ele>206.0</ele><time>2026-04-19T09:06:17.23Z</time></trkpt><trkpt lat="42.06472" lon="14.6382657"><ele>209.16666666666669</ele><time>2026-04-19T09:06:18.233Z</time></trkpt><trkpt lat="42.064703" lon="14.6383557"><ele>212.33333333333334</ele><time>2026-04-19T09:06:19.248Z</time></trkpt><trkpt lat="42.0646448" lon="14.6384331"><ele>215.5</ele><time>2026-04-19T09:06:23.254Z</time></trkpt><trkpt lat="42.0645364" lon="14.6384699"><ele>218.66666666666669</ele><time>2026-04-19T09:06:25.238Z</time></trkpt><trkpt lat="42.0644761" lon="14.638506"><ele>221.83333333333334</ele><time>2026-04-19T09:06:26.223Z</time></trkpt><trkpt lat="42.0644285" lon="14.6385845"><ele>225.0</ele><time>2026-04-19T09:06:28.235Z</time></trkpt><trkpt lat="42.0644077" lon="14.6387108"><ele>227.16666666666666</ele><time>2026-04-19T09:06:31.215Z</time></trkpt><trkpt lat="42.0644213" lon="14.638834"><ele>229.33333333333331</ele><time>2026-04-19T09:06:33.251Z</time></trkpt><trkpt lat="42.0644415" lon="14.6389345"><ele>231.5</ele><time>2026-04-19T09:06:36.237Z</time></trkpt><trkpt lat="42.0644569" lon="14.6390471"><ele>233.66666666666666</ele><time>2026-04-19T09:06:39.218Z</time></trkpt><trkpt lat="42.0644788" lon="14.639131"><ele>235.83333333333331</ele><time>2026-04-19T09:06:41.197Z</time></trkpt><trkpt lat="42.0645022" lon="14.6392372"><ele>238.0</ele><time>2026-04-19T09:06:43.215Z</time></trkpt><trkpt lat="42.0645117" lon="14.6393313"><ele>238.0</ele><time>2026-04-19T09:06:46.211Z</time></trkpt><trkpt lat="42.064498" lon="14.6391781"><ele>238.0</ele><time>2026-04-19T09:06:50.193Z</time></trkpt><trkpt lat="42.0644817" lon="14.6390652"><ele>238.0</ele><time>2026-04-19T09:06:51.207Z</time></trkpt><trkpt lat="42.0644522" lon="14.6389169"><ele>238.0</ele><time>2026-04-19T09:06:52.239Z</time></trkpt><trkpt lat="42.0644296" lon="14.6387812"><ele>238.0</ele><time>2026-04-19T09:06:53.209Z</time></trkpt><trkpt lat="42.0644238" lon="14.6386729"><ele>234.75</ele><time>2026-04-19T09:06:54.24Z</time></trkpt><trkpt lat="42.0644503" lon="14.6385766"><ele>231.5</ele><time>2026-04-19T09:06:55.202Z</time></trkpt><trkpt lat="42.0645222" lon="14.6384873"><ele>228.25</ele><time>2026-04-19T09:06:56.197Z</time></trkpt><trkpt lat="42.064634" lon="14.6384156"><ele>225.0</ele><time>2026-04-19T09:06:57.249Z</time></trkpt><trkpt lat="42.0647882" lon="14.6383339"><ele>226.0</ele><time>2026-04-19T09:06:58.2Z</time></trkpt><trkpt lat="42.0649675" lon="14.6382519"><ele>227.0</ele><time>2026-04-19T09:06:59.228Z</time></trkpt><trkpt lat="42.0651297" lon="14.6382001"><ele>228.0</ele><time>2026-04-19T09:07:00.237Z</time></trkpt><trkpt lat="42.0652637" lon="14.6381569"><ele>228.0</ele><time>2026-04-19T09:07:01.203Z</time></trkpt><trkpt lat="42.0653828" lon="14.6380762"><ele>228.0</ele><time>2026-04-19T09:07:02.221Z</time></trkpt><trkpt lat="42.0654863" lon="14.6379947"><ele>228.0</ele><time>2026-04-19T09:07:03.226Z</time></trkpt><trkpt lat="42.0655793" lon="14.6379182"><ele>228.0</ele><time>2026-04-19T09:07:04.239Z</time></trkpt><trkpt lat="42.0656726" lon="14.6378793"><ele>227.25</ele><time>2026-04-19T09:07:05.243Z</time></trkpt><trkpt lat="42.0657793" lon="14.6378887"><ele>226.5</ele><time>2026-04-19T09:07:06.24Z</time></trkpt><trkpt lat="42.065907" lon="14.637925"><ele>225.75</ele><time>2026-04-19T09:07:07.227Z</time></trkpt><trkpt lat="42.0660385" lon="14.6379793"><ele>225.0</ele><time>2026-04-19T09:07:08.226Z</time></trkpt><trkpt lat="42.0661469" lon="14.6380461"><ele>225.0</ele><time>2026-04-19T09:07:09.224Z</time></trkpt><trkpt lat="42.0662453" lon="14.6381278"><ele>225.0</ele><time>2026-04-19T09:07:10.239Z</time></trkpt><trkpt lat="42.0663263" lon="14.6381963"><ele>225.0</ele><time>2026-04-19T09:07:11.234Z</time></trkpt><trkpt lat="42.0663999" lon="14.638238"><ele>225.0</ele><time>2026-04-19T09:07:12.253Z</time></trkpt><trkpt lat="42.0664714" lon="14.6382496"><ele>225.0</ele><time>2026-04-19T09:07:13.224Z</time></trkpt><trkpt lat="42.0665556" lon="14.6382456"><ele>225.0</ele><time>2026-04-19T09:07:14.216Z</time></trkpt><trkpt lat="42.0666217" lon="14.6382177"><ele>224.0</ele><time>2026-04-19T09:07:15.232Z</time></trkpt><trkpt lat="42.0666742" lon="14.6381461"><ele>223.0</ele><time>2026-04-19T09:07:16.232Z</time></trkpt><trkpt lat="42.0667146" lon="14.6380439"><ele>222.0</ele><time>2026-04-19T09:07:17.227Z</time></trkpt><trkpt lat="42.0667415" lon="14.6379234"><ele>221.0</ele><time>2026-04-19T09:07:18.232Z</time></trkpt><trkpt lat="42.0667582" lon="14.6377944"><ele>220.0</ele><time>2026-04-19T09:07:19.198Z</time></trkpt><trkpt lat="42.0667695" lon="14.6376493"><ele>219.4</ele><time>2026-04-19T09:07:20.226Z</time></trkpt><trkpt lat="42.066774" lon="14.6375104"><ele>218.8</ele><time>2026-04-19T09:07:21.21Z</time></trkpt><trkpt lat="42.0667742" lon="14.6373718"><ele>218.2</ele><time>2026-04-19T09:07:22.23Z</time></trkpt><trkpt lat="42.0667726" lon="14.6372287"><ele>217.6</ele><time>2026-04-19T09:07:23.265Z</time></trkpt><trkpt lat="42.0667716" lon="14.6370676"><ele>217.0</ele><time>2026-04-19T09:07:24.199Z</time></trkpt><trkpt lat="42.0667642" lon="14.6369018"><ele>216.8</ele><time>2026-04-19T09:07:25.226Z</time></trkpt><trkpt lat="42.0667523" lon="14.636747"><ele>216.6</ele><time>2026-04-19T09:07:26.232Z</time></trkpt><trkpt lat="42.066741" lon="14.6366116"><ele>216.40000000000003</ele><time>2026-04-19T09:07:27.254Z</time></trkpt><trkpt lat="42.066728" lon="14.636481"><ele>216.20000000000002</ele><time>2026-04-19T09:07:28.246Z</time></trkpt><trkpt lat="42.0667144" lon="14.6363559"><ele>216.0</ele><time>2026-04-19T09:07:29.245Z</time></trkpt><trkpt lat="42.066703" lon="14.6362529"><ele>216.0</ele><time>2026-04-19T09:07:30.256Z</time></trkpt><trkpt lat="42.0666956" lon="14.6361635"><ele>216.0</ele><time>2026-04-19T09:07:31.221Z</time></trkpt><trkpt lat="42.0667067" lon="14.6360128"><ele>216.0</ele><time>2026-04-19T09:07:33.231Z</time></trkpt><trkpt lat="42.066754" lon="14.6358724"><ele>216.0</ele><time>2026-04-19T09:07:35.27Z</time></trkpt><trkpt lat="42.0667992" lon="14.635813"><ele>216.0</ele><time>2026-04-19T09:07:36.223Z</time></trkpt><trkpt lat="42.0668631" lon="14.6357682"><ele>216.0</ele><time>2026-04-19T09:07:37.199Z</time></trkpt><trkpt lat="42.0669532" lon="14.6357358"><ele>214.75</ele><time>2026-04-19T09:07:38.222Z</time></trkpt><trkpt lat="42.0670595" lon="14.6357086"><ele>213.5</ele><time>2026-04-19T09:07:39.217Z</time></trkpt><trkpt lat="42.0671765" lon="14.6356892"><ele>212.25</ele><time>2026-04-19T09:07:40.204Z</time></trkpt><trkpt lat="42.0673024" lon="14.6356724"><ele>211.0</ele><time>2026-04-19T09:07:41.228Z</time></trkpt><trkpt lat="42.0674331" lon="14.6356585"><ele>210.0</ele><time>2026-04-19T09:07:42.229Z</time></trkpt><trkpt lat="42.0675622" lon="14.6356495"><ele>209.0</ele><time>2026-04-19T09:07:43.238Z</time></trkpt><trkpt lat="42.0676815" lon="14.6356324"><ele>208.0</ele><time>2026-04-19T09:07:44.232Z</time></trkpt><trkpt lat="42.0677941" lon="14.6355933"><ele>207.0</ele><time>2026-04-19T09:07:45.204Z</time></trkpt><trkpt lat="42.0678968" lon="14.6355562"><ele>207.0</ele><time>2026-04-19T09:07:46.195Z</time></trkpt><trkpt lat="42.0679951" lon="14.6354958"><ele>207.0</ele><time>2026-04-19T09:07:47.207Z</time></trkpt><trkpt lat="42.0680828" lon="14.6354302"><ele>207.0</ele><time>2026-04-19T09:07:48.199Z</time></trkpt><trkpt lat="42.0681652" lon="14.635355"><ele>207.0</ele><time>2026-04-19T09:07:49.197Z</time></trkpt><trkpt lat="42.0682425" lon="14.6352791"><ele>207.0</ele><time>2026-04-19T09:07:50.224Z</time></trkpt><trkpt lat="42.0683185" lon="14.635213"><ele>204.5</ele><time>2026-04-19T09:07:51.227Z</time></trkpt><trkpt lat="42.0683971" lon="14.6351629"><ele>202.0</ele><time>2026-04-19T09:07:52.22Z</time></trkpt><trkpt lat="42.0684774" lon="14.635145"><ele>199.5</ele><time>2026-04-19T09:07:53.25Z</time></trkpt><trkpt lat="42.0685567" lon="14.6351373"><ele>197.0</ele><time>2026-04-19T09:07:54.26Z</time></trkpt><trkpt lat="42.0686299" lon="14.635147"><ele>194.5</ele><time>2026-04-19T09:07:55.256Z</time></trkpt><trkpt lat="42.068698" lon="14.6351797"><ele>192.0</ele><time>2026-04-19T09:07:56.235Z</time></trkpt><trkpt lat="42.068757" lon="14.6352256"><ele>192.0</ele><time>2026-04-19T09:07:57.249Z</time></trkpt><trkpt lat="42.068807" lon="14.6352805"><ele>192.0</ele><time>2026-04-19T09:07:58.198Z</time></trkpt><trkpt lat="42.0688508" lon="14.6353594"><ele>192.0</ele><time>2026-04-19T09:07:59.236Z</time></trkpt><trkpt lat="42.0688914" lon="14.6354493"><ele>192.0</ele><time>2026-04-19T09:08:00.193Z</time></trkpt><trkpt lat="42.068926" lon="14.6355546"><ele>192.0</ele><time>2026-04-19T09:08:01.215Z</time></trkpt><trkpt lat="42.0689669" lon="14.6356568"><ele>192.0</ele><time>2026-04-19T09:08:02.214Z</time></trkpt><trkpt lat="42.0690001" lon="14.635756"><ele>193.16666666666666</ele><time>2026-04-19T09:08:03.205Z</time></trkpt><trkpt lat="42.0690277" lon="14.6358379"><ele>194.33333333333331</ele><time>2026-04-19T09:08:04.206Z</time></trkpt><trkpt lat="42.0690583" lon="14.6359199"><ele>195.5</ele><time>2026-04-19T09:08:06.203Z</time></trkpt><trkpt lat="42.069083" lon="14.6360393"><ele>196.66666666666666</ele><time>2026-04-19T09:08:09.218Z</time></trkpt><trkpt lat="42.0691055" lon="14.6361557"><ele>197.83333333333331</ele><time>2026-04-19T09:08:11.247Z</time></trkpt><trkpt lat="42.0691214" lon="14.6362911"><ele>199.0</ele><time>2026-04-19T09:08:13.236Z</time></trkpt><trkpt lat="42.0691314" lon="14.6363862"><ele>196.66666666666666</ele><time>2026-04-19T09:08:14.257Z</time></trkpt><trkpt lat="42.0691354" lon="14.6364719"><ele>194.33333333333331</ele><time>2026-04-19T09:08:15.233Z</time></trkpt><trkpt lat="42.0691387" lon="14.6366411"><ele>192.0</ele><time>2026-04-19T09:08:17.25Z</time></trkpt><trkpt lat="42.069137" lon="14.6367486"><ele>189.66666666666666</ele><time>2026-04-19T09:08:18.238Z</time></trkpt><trkpt lat="42.0691363" lon="14.6368562"><ele>187.33333333333331</ele><time>2026-04-19T09:08:19.254Z</time></trkpt><trkpt lat="42.0691494" lon="14.6369477"><ele>185.0</ele><time>2026-04-19T09:08:20.236Z</time></trkpt><trkpt lat="42.0691776" lon="14.6370247"><ele>185.0</ele><time>2026-04-19T09:08:21.21Z</time></trkpt><trkpt lat="42.0692691" lon="14.6371253"><ele>185.0</ele><time>2026-04-19T09:08:23.199Z</time></trkpt><trkpt lat="42.0693331" lon="14.6371474"><ele>185.0</ele><time>2026-04-19T09:08:24.234Z</time></trkpt><trkpt lat="42.0693964" lon="14.6371334"><ele>185.0</ele><time>2026-04-19T09:08:25.236Z</time></trkpt><trkpt lat="42.0694684" lon="14.637094"><ele>185.0</ele><time>2026-04-19T09:08:26.228Z</time></trkpt><trkpt lat="42.06954" lon="14.6370244"><ele>185.0</ele><time>2026-04-19T09:08:27.237Z</time></trkpt><trkpt lat="42.0696083" lon="14.6369391"><ele>185.0</ele><time>2026-04-19T09:08:28.244Z</time></trkpt><trkpt lat="42.0696707" lon="14.6368488"><ele>185.0</ele><time>2026-04-19T09:08:29.21Z</time></trkpt><trkpt lat="42.0697261" lon="14.6367599"><ele>185.0</ele><time>2026-04-19T09:08:30.231Z</time></trkpt><trkpt lat="42.0697739" lon="14.6366699"><ele>185.0</ele><time>2026-04-19T09:08:31.205Z</time></trkpt><trkpt lat="42.0698148" lon="14.6365759"><ele>185.0</ele><time>2026-04-19T09:08:32.23Z</time></trkpt><trkpt lat="42.0698543" lon="14.6364775"><ele>185.0</ele><time>2026-04-19T09:08:33.24Z</time></trkpt><trkpt lat="42.0698912" lon="14.6363886"><ele>185.0</ele><time>2026-04-19T09:08:34.241Z</time></trkpt><trkpt lat="42.0699298" lon="14.6362922"><ele>185.0</ele><time>2026-04-19T09:08:35.238Z</time></trkpt><trkpt lat="42.069967" lon="14.6361987"><ele>185.0</ele><time>2026-04-19T09:08:36.196Z</time></trkpt><trkpt lat="42.0700032" lon="14.6360966"><ele>185.0</ele><time>2026-04-19T09:08:37.221Z</time></trkpt><trkpt lat="42.0700424" lon="14.636"><ele>185.0</ele><time>2026-04-19T09:08:38.23Z</time></trkpt><trkpt lat="42.0700815" lon="14.6359105"><ele>185.0</ele><time>2026-04-19T09:08:39.243Z</time></trkpt><trkpt lat="42.0701223" lon="14.6358208"><ele>182.5</ele><time>2026-04-19T09:08:40.236Z</time></trkpt><trkpt lat="42.070172" lon="14.6357353"><ele>180.0</ele><time>2026-04-19T09:08:41.226Z</time></trkpt><trkpt lat="42.0702294" lon="14.6356545"><ele>177.5</ele><time>2026-04-19T09:08:42.238Z</time></trkpt><trkpt lat="42.0702871" lon="14.6355663"><ele>175.0</ele><time>2026-04-19T09:08:43.242Z</time></trkpt><trkpt lat="42.0703481" lon="14.6354795"><ele>172.5</ele><time>2026-04-19T09:08:44.22Z</time></trkpt><trkpt lat="42.0704023" lon="14.6354039"><ele>170.0</ele><time>2026-04-19T09:08:45.2Z</time></trkpt><trkpt lat="42.0704549" lon="14.6353473"><ele>170.0</ele><time>2026-04-19T09:08:46.211Z</time></trkpt><trkpt lat="42.0705675" lon="14.6353039"><ele>170.0</ele><time>2026-04-19T09:08:48.252Z</time></trkpt><trkpt lat="42.0706314" lon="14.6353127"><ele>170.0</ele><time>2026-04-19T09:08:49.232Z</time></trkpt><trkpt lat="42.0707724" lon="14.6352919"><ele>170.0</ele><time>2026-04-19T09:08:51.236Z</time></trkpt><trkpt lat="42.0708723" lon="14.6352524"><ele>170.0</ele><time>2026-04-19T09:08:52.237Z</time></trkpt><trkpt lat="42.0709762" lon="14.6352063"><ele>167.5</ele><time>2026-04-19T09:08:53.199Z</time></trkpt><trkpt lat="42.0710679" lon="14.635172"><ele>165.0</ele><time>2026-04-19T09:08:54.24Z</time></trkpt><trkpt lat="42.0711463" lon="14.6351398"><ele>162.5</ele><time>2026-04-19T09:08:55.248Z</time></trkpt><trkpt lat="42.0712145" lon="14.6351172"><ele>160.0</ele><time>2026-04-19T09:08:56.215Z</time></trkpt><trkpt lat="42.0712818" lon="14.6350959"><ele>157.5</ele><time>2026-04-19T09:08:57.232Z</time></trkpt><trkpt lat="42.0713491" lon="14.6350705"><ele>155.0</ele><time>2026-04-19T09:08:58.408Z</time></trkpt><trkpt lat="42.0714914" lon="14.6350287"><ele>151.25</ele><time>2026-04-19T09:09:00.223Z</time></trkpt><trkpt lat="42.071651" lon="14.6349624"><ele>147.5</ele><time>2026-04-19T09:09:03.216Z</time></trkpt><trkpt lat="42.0717487" lon="14.634919"><ele>143.75</ele><time>2026-04-19T09:09:05.239Z</time></trkpt><trkpt lat="42.0718418" lon="14.6348871"><ele>140.0</ele><time>2026-04-19T09:09:07.212Z</time></trkpt><trkpt lat="42.071938" lon="14.634861"><ele>140.0</ele><time>2026-04-19T09:09:09.241Z</time></trkpt><trkpt lat="42.0720511" lon="14.6348007"><ele>140.0</ele><time>2026-04-19T09:09:11.306Z</time></trkpt><trkpt lat="42.072111" lon="14.6347615"><ele>140.0</ele><time>2026-04-19T09:09:12.244Z</time></trkpt><trkpt lat="42.0722098" lon="14.6347039"><ele>140.0</ele><time>2026-04-19T09:09:14.272Z</time></trkpt><trkpt lat="42.0723052" lon="14.6346616"><ele>140.0</ele><time>2026-04-19T09:09:16.253Z</time></trkpt><trkpt lat="42.0724327" lon="14.6345872"><ele>136.25</ele><time>2026-04-19T09:09:18.244Z</time></trkpt><trkpt lat="42.0725526" lon="14.6345149"><ele>132.5</ele><time>2026-04-19T09:09:19.242Z</time></trkpt><trkpt lat="42.0727046" lon="14.6344368"><ele>128.75</ele><time>2026-04-19T09:09:20.243Z</time></trkpt><trkpt lat="42.0728179" lon="14.6343716"><ele>125.0</ele><time>2026-04-19T09:09:21.24Z</time></trkpt><trkpt lat="42.0729166" lon="14.6343214"><ele>125.0</ele><time>2026-04-19T09:09:22.227Z</time></trkpt><trkpt lat="42.0730272" lon="14.6342753"><ele>125.0</ele><time>2026-04-19T09:09:23.245Z</time></trkpt><trkpt lat="42.0731321" lon="14.6342315"><ele>125.0</ele><time>2026-04-19T09:09:24.243Z</time></trkpt><trkpt lat="42.0732233" lon="14.6342028"><ele>125.0</ele><time>2026-04-19T09:09:25.254Z</time></trkpt><trkpt lat="42.0733091" lon="14.6341736"><ele>125.0</ele><time>2026-04-19T09:09:26.25Z</time></trkpt><trkpt lat="42.0733922" lon="14.6341475"><ele>122.99999999999999</ele><time>2026-04-19T09:09:27.243Z</time></trkpt><trkpt lat="42.0734565" lon="14.634139"><ele>121.0</ele><time>2026-04-19T09:09:28.234Z</time></trkpt><trkpt lat="42.0735681" lon="14.6341762"><ele>119.0</ele><time>2026-04-19T09:09:30.24Z</time></trkpt><trkpt lat="42.0736563" lon="14.6342174"><ele>117.0</ele><time>2026-04-19T09:09:32.242Z</time></trkpt><trkpt lat="42.0737344" lon="14.6342241"><ele>114.99999999999999</ele><time>2026-04-19T09:09:34.219Z</time></trkpt><trkpt lat="42.0737927" lon="14.63426"><ele>113.0</ele><time>2026-04-19T09:09:36.239Z</time></trkpt><trkpt lat="42.0739074" lon="14.6342943"><ele>113.0</ele><time>2026-04-19T09:09:38.239Z</time></trkpt><trkpt lat="42.0740185" lon="14.6342905"><ele>113.00000000000001</ele><time>2026-04-19T09:09:39.233Z</time></trkpt><trkpt lat="42.0741395" lon="14.6342977"><ele>113.00000000000001</ele><time>2026-04-19T09:09:40.226Z</time></trkpt><trkpt lat="42.0742537" lon="14.634288"><ele>113.0</ele><time>2026-04-19T09:09:41.251Z</time></trkpt><trkpt lat="42.0743427" lon="14.634273"><ele>113.0</ele><time>2026-04-19T09:09:42.224Z</time></trkpt><trkpt lat="42.0744187" lon="14.6342512"><ele>111.66666666666666</ele><time>2026-04-19T09:09:43.244Z</time></trkpt><trkpt lat="42.0744882" lon="14.6342168"><ele>110.33333333333333</ele><time>2026-04-19T09:09:44.247Z</time></trkpt><trkpt lat="42.0745438" lon="14.6341621"><ele>109.0</ele><time>2026-04-19T09:09:45.242Z</time></trkpt><trkpt lat="42.0745904" lon="14.6341049"><ele>107.66666666666666</ele><time>2026-04-19T09:09:46.246Z</time></trkpt><trkpt lat="42.0746437" lon="14.6339956"><ele>106.33333333333333</ele><time>2026-04-19T09:09:48.213Z</time></trkpt><trkpt lat="42.0747223" lon="14.6339656"><ele>105.0</ele><time>2026-04-19T09:09:51.239Z</time></trkpt><trkpt lat="42.0747795" lon="14.6340165"><ele>105.0</ele><time>2026-04-19T09:09:52.237Z</time></trkpt><trkpt lat="42.0748728" lon="14.6340923"><ele>105.0</ele><time>2026-04-19T09:09:53.245Z</time></trkpt><trkpt lat="42.0749869" lon="14.6341777"><ele>105.0</ele><time>2026-04-19T09:09:54.208Z</time></trkpt><trkpt lat="42.0751143" lon="14.6342465"><ele>105.0</ele><time>2026-04-19T09:09:55.211Z</time></trkpt><trkpt lat="42.0752511" lon="14.6343117"><ele>102.66666666666666</ele><time>2026-04-19T09:09:56.207Z</time></trkpt><trkpt lat="42.0753998" lon="14.6343754"><ele>100.33333333333333</ele><time>2026-04-19T09:09:57.196Z</time></trkpt><trkpt lat="42.0755665" lon="14.6344451"><ele>98.0</ele><time>2026-04-19T09:09:58.228Z</time></trkpt><trkpt lat="42.0757482" lon="14.6345058"><ele>101.33333333333333</ele><time>2026-04-19T09:09:59.197Z</time></trkpt><trkpt lat="42.0759413" lon="14.6345792"><ele>104.66666666666666</ele><time>2026-04-19T09:10:00.21Z</time></trkpt><trkpt lat="42.0761355" lon="14.6346556"><ele>108.0</ele><time>2026-04-19T09:10:01.241Z</time></trkpt><trkpt lat="42.0763142" lon="14.6347275"><ele>108.0</ele><time>2026-04-19T09:10:02.244Z</time></trkpt><trkpt lat="42.0764732" lon="14.6348041"><ele>108.0</ele><time>2026-04-19T09:10:03.253Z</time></trkpt><trkpt lat="42.0766304" lon="14.6348937"><ele>108.0</ele><time>2026-04-19T09:10:04.238Z</time></trkpt><trkpt lat="42.0767957" lon="14.6350056"><ele>108.66666666666666</ele><time>2026-04-19T09:10:05.221Z</time></trkpt><trkpt lat="42.0769583" lon="14.6351386"><ele>109.33333333333333</ele><time>2026-04-19T09:10:06.206Z</time></trkpt><trkpt lat="42.0771292" lon="14.6352803"><ele>110.0</ele><time>2026-04-19T09:10:07.208Z</time></trkpt><trkpt lat="42.0773124" lon="14.6354311"><ele>107.66666666666666</ele><time>2026-04-19T09:10:08.2Z</time></trkpt><trkpt lat="42.0774957" lon="14.635579"><ele>105.33333333333334</ele><time>2026-04-19T09:10:09.216Z</time></trkpt><trkpt lat="42.0776761" lon="14.6357343"><ele>103.0</ele><time>2026-04-19T09:10:10.237Z</time></trkpt><trkpt lat="42.077854" lon="14.6358852"><ele>103.0</ele><time>2026-04-19T09:10:11.233Z</time></trkpt><trkpt lat="42.078018" lon="14.6360364"><ele>103.0</ele><time>2026-04-19T09:10:12.212Z</time></trkpt><trkpt lat="42.078173" lon="14.6361638"><ele>103.0</ele><time>2026-04-19T09:10:13.249Z</time></trkpt><trkpt lat="42.0783027" lon="14.6362563"><ele>104.16666666666667</ele><time>2026-04-19T09:10:14.239Z</time></trkpt><trkpt lat="42.078398" lon="14.6363212"><ele>105.33333333333334</ele><time>2026-04-19T09:10:15.241Z</time></trkpt><trkpt lat="42.0784619" lon="14.6363706"><ele>106.5</ele><time>2026-04-19T09:10:16.222Z</time></trkpt><trkpt lat="42.0785413" lon="14.6364333"><ele>107.66666666666666</ele><time>2026-04-19T09:10:18.209Z</time></trkpt><trkpt lat="42.078604" lon="14.6364991"><ele>108.83333333333333</ele><time>2026-04-19T09:10:20.196Z</time></trkpt><trkpt lat="42.0786691" lon="14.6365127"><ele>110.0</ele><time>2026-04-19T09:10:21.277Z</time></trkpt><trkpt lat="42.078749" lon="14.6364957"><ele>110.0</ele><time>2026-04-19T09:10:22.195Z</time></trkpt><trkpt lat="42.0788387" lon="14.6364712"><ele>110.0</ele><time>2026-04-19T09:10:23.238Z</time></trkpt><trkpt lat="42.0789408" lon="14.6364416"><ele>110.0</ele><time>2026-04-19T09:10:24.247Z</time></trkpt><trkpt lat="42.0790529" lon="14.6364115"><ele>110.0</ele><time>2026-04-19T09:10:25.247Z</time></trkpt><trkpt lat="42.0791823" lon="14.6363682"><ele>110.0</ele><time>2026-04-19T09:10:26.236Z</time></trkpt><trkpt lat="42.079315" lon="14.6363046"><ele>108.33333333333333</ele><time>2026-04-19T09:10:27.214Z</time></trkpt><trkpt lat="42.0794531" lon="14.6362257"><ele>106.66666666666666</ele><time>2026-04-19T09:10:28.213Z</time></trkpt><trkpt lat="42.0795943" lon="14.636144"><ele>105.0</ele><time>2026-04-19T09:10:29.225Z</time></trkpt><trkpt lat="42.0797388" lon="14.6360498"><ele>102.66666666666666</ele><time>2026-04-19T09:10:30.22Z</time></trkpt><trkpt lat="42.0798803" lon="14.6359546"><ele>100.33333333333333</ele><time>2026-04-19T09:10:31.235Z</time></trkpt><trkpt lat="42.0800127" lon="14.6358433"><ele>98.0</ele><time>2026-04-19T09:10:32.228Z</time></trkpt><trkpt lat="42.0801369" lon="14.6357338"><ele>98.0</ele><time>2026-04-19T09:10:33.243Z</time></trkpt><trkpt lat="42.0802502" lon="14.6356305"><ele>98.0</ele><time>2026-04-19T09:10:34.234Z</time></trkpt><trkpt lat="42.0803557" lon="14.6355381"><ele>98.0</ele><time>2026-04-19T09:10:35.22Z</time></trkpt><trkpt lat="42.0804624" lon="14.6354482"><ele>98.0</ele><time>2026-04-19T09:10:36.244Z</time></trkpt><trkpt lat="42.0805632" lon="14.6353576"><ele>97.0</ele><time>2026-04-19T09:10:37.202Z</time></trkpt><trkpt lat="42.0806584" lon="14.6352717"><ele>96.0</ele><time>2026-04-19T09:10:38.25Z</time></trkpt><trkpt lat="42.0807485" lon="14.6351945"><ele>95.0</ele><time>2026-04-19T09:10:39.258Z</time></trkpt><trkpt lat="42.0808319" lon="14.6351189"><ele>94.0</ele><time>2026-04-19T09:10:40.249Z</time></trkpt><trkpt lat="42.0809099" lon="14.6350513"><ele>93.0</ele><time>2026-04-19T09:10:41.236Z</time></trkpt><trkpt lat="42.0809875" lon="14.6349936"><ele>93.00000000000001</ele><time>2026-04-19T09:10:42.239Z</time></trkpt><trkpt lat="42.0810567" lon="14.6349334"><ele>93.0</ele><time>2026-04-19T09:10:43.242Z</time></trkpt><trkpt lat="42.0811184" lon="14.6348803"><ele>93.0</ele><time>2026-04-19T09:10:44.249Z</time></trkpt><trkpt lat="42.0811791" lon="14.634842"><ele>93.0</ele><time>2026-04-19T09:10:45.256Z</time></trkpt><trkpt lat="42.0812401" lon="14.6348174"><ele>93.0</ele><time>2026-04-19T09:10:46.221Z</time></trkpt><trkpt lat="42.081308" lon="14.634814"><ele>93.00000000000001</ele><time>2026-04-19T09:10:47.19Z</time></trkpt><trkpt lat="42.0813832" lon="14.634841"><ele>93.0</ele><time>2026-04-19T09:10:48.235Z</time></trkpt><trkpt lat="42.0814636" lon="14.6348892"><ele>93.0</ele><time>2026-04-19T09:10:49.262Z</time></trkpt><trkpt lat="42.0815423" lon="14.6349543"><ele>93.0</ele><time>2026-04-19T09:10:50.193Z</time></trkpt><trkpt lat="42.0816274" lon="14.6350364"><ele>93.0</ele><time>2026-04-19T09:10:51.23Z</time></trkpt><trkpt lat="42.0817324" lon="14.6351366"><ele>93.0</ele><time>2026-04-19T09:10:52.226Z</time></trkpt><trkpt lat="42.0818289" lon="14.6352366"><ele>93.0</ele><time>2026-04-19T09:10:53.234Z</time></trkpt><trkpt lat="42.0819096" lon="14.635325"><ele>93.33333333333333</ele><time>2026-04-19T09:10:54.249Z</time></trkpt><trkpt lat="42.0819899" lon="14.6354032"><ele>93.66666666666667</ele><time>2026-04-19T09:10:55.25Z</time></trkpt><trkpt lat="42.0820669" lon="14.6354764"><ele>94.0</ele><time>2026-04-19T09:10:56.233Z</time></trkpt><trkpt lat="42.0821283" lon="14.6355462"><ele>94.33333333333334</ele><time>2026-04-19T09:10:57.25Z</time></trkpt><trkpt lat="42.0821848" lon="14.6356125"><ele>94.66666666666667</ele><time>2026-04-19T09:10:58.198Z</time></trkpt><trkpt lat="42.0822419" lon="14.6356704"><ele>95.0</ele><time>2026-04-19T09:10:59.243Z</time></trkpt><trkpt lat="42.0823331" lon="14.6357603"><ele>95.0</ele><time>2026-04-19T09:11:01.26Z</time></trkpt><trkpt lat="42.0823894" lon="14.6358227"><ele>95.0</ele><time>2026-04-19T09:11:02.226Z</time></trkpt><trkpt lat="42.0824624" lon="14.6358984"><ele>95.0</ele><time>2026-04-19T09:11:03.258Z</time></trkpt><trkpt lat="42.0825455" lon="14.6359696"><ele>95.0</ele><time>2026-04-19T09:11:04.199Z</time></trkpt><trkpt lat="42.0826348" lon="14.6360526"><ele>95.0</ele><time>2026-04-19T09:11:05.201Z</time></trkpt><trkpt lat="42.0827339" lon="14.6361432"><ele>95.0</ele><time>2026-04-19T09:11:06.243Z</time></trkpt><trkpt lat="42.0828427" lon="14.6362467"><ele>95.0</ele><time>2026-04-19T09:11:07.213Z</time></trkpt><trkpt lat="42.0829541" lon="14.6363572"><ele>95.0</ele><time>2026-04-19T09:11:08.216Z</time></trkpt><trkpt lat="42.0830751" lon="14.6364734"><ele>95.0</ele><time>2026-04-19T09:11:09.243Z</time></trkpt><trkpt lat="42.0832078" lon="14.6365793"><ele>93.33333333333334</ele><time>2026-04-19T09:11:10.245Z</time></trkpt><trkpt lat="42.0833528" lon="14.6366729"><ele>91.66666666666667</ele><time>2026-04-19T09:11:11.243Z</time></trkpt><trkpt lat="42.0834979" lon="14.6367552"><ele>90.0</ele><time>2026-04-19T09:11:12.243Z</time></trkpt><trkpt lat="42.0836286" lon="14.6368281"><ele>90.0</ele><time>2026-04-19T09:11:13.241Z</time></trkpt><trkpt lat="42.0837483" lon="14.6368893"><ele>90.0</ele><time>2026-04-19T09:11:14.201Z</time></trkpt><trkpt lat="42.0838554" lon="14.6369458"><ele>90.0</ele><time>2026-04-19T09:11:15.208Z</time></trkpt><trkpt lat="42.0839599" lon="14.6369976"><ele>90.0</ele><time>2026-04-19T09:11:16.234Z</time></trkpt><trkpt lat="42.084062" lon="14.6370469"><ele>92.0</ele><time>2026-04-19T09:11:17.241Z</time></trkpt><trkpt lat="42.0841686" lon="14.6370976"><ele>94.0</ele><time>2026-04-19T09:11:18.195Z</time></trkpt><trkpt lat="42.0842872" lon="14.6371515"><ele>96.0</ele><time>2026-04-19T09:11:19.231Z</time></trkpt><trkpt lat="42.0844182" lon="14.6372028"><ele>98.0</ele><time>2026-04-19T09:11:20.239Z</time></trkpt><trkpt lat="42.084552" lon="14.6372611"><ele>98.0</ele><time>2026-04-19T09:11:21.198Z</time></trkpt><trkpt lat="42.0846854" lon="14.6373128"><ele>98.0</ele><time>2026-04-19T09:11:22.252Z</time></trkpt><trkpt lat="42.0848195" lon="14.6373613"><ele>98.0</ele><time>2026-04-19T09:11:23.248Z</time></trkpt><trkpt lat="42.0849497" lon="14.6374073"><ele>98.0</ele><time>2026-04-19T09:11:24.241Z</time></trkpt><trkpt lat="42.0850832" lon="14.6374526"><ele>97.5</ele><time>2026-04-19T09:11:25.249Z</time></trkpt><trkpt lat="42.0852152" lon="14.6374981"><ele>97.0</ele><time>2026-04-19T09:11:26.195Z</time></trkpt><trkpt lat="42.0853492" lon="14.6375454"><ele>96.5</ele><time>2026-04-19T09:11:27.238Z</time></trkpt><trkpt lat="42.0854886" lon="14.6375884"><ele>96.0</ele><time>2026-04-19T09:11:28.238Z</time></trkpt><trkpt lat="42.0856313" lon="14.6376338"><ele>95.5</ele><time>2026-04-19T09:11:29.242Z</time></trkpt><trkpt lat="42.085775" lon="14.6376806"><ele>95.0</ele><time>2026-04-19T09:11:30.213Z</time></trkpt><trkpt lat="42.0859185" lon="14.6377296"><ele>94.5</ele><time>2026-04-19T09:11:31.24Z</time></trkpt><trkpt lat="42.0860678" lon="14.637772"><ele>94.0</ele><time>2026-04-19T09:11:32.214Z</time></trkpt><trkpt lat="42.0862102" lon="14.6378103"><ele>94.0</ele><time>2026-04-19T09:11:33.218Z</time></trkpt><trkpt lat="42.0863459" lon="14.6378478"><ele>94.0</ele><time>2026-04-19T09:11:34.215Z</time></trkpt><trkpt lat="42.08648" lon="14.63788"><ele>94.0</ele><time>2026-04-19T09:11:35.226Z</time></trkpt><trkpt lat="42.0866091" lon="14.6378969"><ele>94.0</ele><time>2026-04-19T09:11:36.216Z</time></trkpt><trkpt lat="42.0867357" lon="14.6379029"><ele>94.0</ele><time>2026-04-19T09:11:37.226Z</time></trkpt><trkpt lat="42.0868613" lon="14.637906"><ele>94.0</ele><time>2026-04-19T09:11:38.213Z</time></trkpt><trkpt lat="42.0869854" lon="14.6379099"><ele>94.0</ele><time>2026-04-19T09:11:39.237Z</time></trkpt><trkpt lat="42.087112" lon="14.6379134"><ele>94.0</ele><time>2026-04-19T09:11:40.251Z</time></trkpt><trkpt lat="42.0872411" lon="14.6379138"><ele>94.0</ele><time>2026-04-19T09:11:41.195Z</time></trkpt><trkpt lat="42.0873699" lon="14.6379082"><ele>94.0</ele><time>2026-04-19T09:11:42.22Z</time></trkpt><trkpt lat="42.0875005" lon="14.6379113"><ele>94.0</ele><time>2026-04-19T09:11:43.19Z</time></trkpt><trkpt lat="42.0876316" lon="14.6379137"><ele>94.0</ele><time>2026-04-19T09:11:44.226Z</time></trkpt><trkpt lat="42.087766" lon="14.6379092"><ele>93.0</ele><time>2026-04-19T09:11:45.24Z</time></trkpt><trkpt lat="42.0878954" lon="14.6379102"><ele>92.0</ele><time>2026-04-19T09:11:46.23Z</time></trkpt><trkpt lat="42.0880199" lon="14.6379103"><ele>91.0</ele><time>2026-04-19T09:11:47.244Z</time></trkpt><trkpt lat="42.0881496" lon="14.6379089"><ele>90.0</ele><time>2026-04-19T09:11:48.222Z</time></trkpt><trkpt lat="42.0882757" lon="14.6379109"><ele>90.0</ele><time>2026-04-19T09:11:49.238Z</time></trkpt><trkpt lat="42.0884017" lon="14.6379115"><ele>90.0</ele><time>2026-04-19T09:11:50.247Z</time></trkpt><trkpt lat="42.0885301" lon="14.637914"><ele>90.0</ele><time>2026-04-19T09:11:51.23Z</time></trkpt><trkpt lat="42.0886522" lon="14.6379254"><ele>90.0</ele><time>2026-04-19T09:11:52.223Z</time></trkpt><trkpt lat="42.0887776" lon="14.637941"><ele>90.0</ele><time>2026-04-19T09:11:53.192Z</time></trkpt><trkpt lat="42.0889038" lon="14.6379622"><ele>90.0</ele><time>2026-04-19T09:11:54.215Z</time></trkpt><trkpt lat="42.0890286" lon="14.6379894"><ele>90.0</ele><time>2026-04-19T09:11:55.204Z</time></trkpt><trkpt lat="42.0891544" lon="14.6380233"><ele>90.0</ele><time>2026-04-19T09:11:56.193Z</time></trkpt><trkpt lat="42.0892791" lon="14.6380659"><ele>89.75</ele><time>2026-04-19T09:11:57.187Z</time></trkpt><trkpt lat="42.0893982" lon="14.6381119"><ele>89.5</ele><time>2026-04-19T09:11:58.194Z</time></trkpt><trkpt lat="42.0895164" lon="14.6381651"><ele>89.25</ele><time>2026-04-19T09:11:59.19Z</time></trkpt><trkpt lat="42.0896368" lon="14.6382208"><ele>89.0</ele><time>2026-04-19T09:12:00.182Z</time></trkpt><trkpt lat="42.0897568" lon="14.6382741"><ele>89.0</ele><time>2026-04-19T09:12:01.189Z</time></trkpt><trkpt lat="42.089867" lon="14.6383219"><ele>89.0</ele><time>2026-04-19T09:12:02.194Z</time></trkpt><trkpt lat="42.0899886" lon="14.6383673"><ele>89.0</ele><time>2026-04-19T09:12:03.2Z</time></trkpt><trkpt lat="42.0901153" lon="14.6384197"><ele>89.0</ele><time>2026-04-19T09:12:04.189Z</time></trkpt><trkpt lat="42.0902383" lon="14.6384729"><ele>89.5</ele><time>2026-04-19T09:12:05.181Z</time></trkpt><trkpt lat="42.0903569" lon="14.6385312"><ele>90.0</ele><time>2026-04-19T09:12:06.209Z</time></trkpt><trkpt lat="42.0904753" lon="14.6385812"><ele>90.5</ele><time>2026-04-19T09:12:07.217Z</time></trkpt><trkpt lat="42.090595" lon="14.6386285"><ele>91.0</ele><time>2026-04-19T09:12:08.215Z</time></trkpt><trkpt lat="42.0907142" lon="14.6386744"><ele>89.75</ele><time>2026-04-19T09:12:09.217Z</time></trkpt><trkpt lat="42.0908373" lon="14.638724"><ele>88.5</ele><time>2026-04-19T09:12:10.186Z</time></trkpt><trkpt lat="42.0909627" lon="14.6387802"><ele>87.25</ele><time>2026-04-19T09:12:11.204Z</time></trkpt><trkpt lat="42.0910828" lon="14.6388389"><ele>86.0</ele><time>2026-04-19T09:12:12.185Z</time></trkpt><trkpt lat="42.0912021" lon="14.6388952"><ele>86.0</ele><time>2026-04-19T09:12:13.19Z</time></trkpt><trkpt lat="42.091325" lon="14.6389527"><ele>86.0</ele><time>2026-04-19T09:12:14.188Z</time></trkpt><trkpt lat="42.0914441" lon="14.6390116"><ele>86.0</ele><time>2026-04-19T09:12:15.206Z</time></trkpt><trkpt lat="42.0915676" lon="14.6390708"><ele>86.0</ele><time>2026-04-19T09:12:16.2Z</time></trkpt><trkpt lat="42.091689" lon="14.6391233"><ele>84.75</ele><time>2026-04-19T09:12:17.191Z</time></trkpt><trkpt lat="42.0918114" lon="14.6391767"><ele>83.5</ele><time>2026-04-19T09:12:18.187Z</time></trkpt><trkpt lat="42.091931" lon="14.6392313"><ele>82.25</ele><time>2026-04-19T09:12:19.211Z</time></trkpt><trkpt lat="42.0920494" lon="14.6392803"><ele>81.0</ele><time>2026-04-19T09:12:20.22Z</time></trkpt><trkpt lat="42.09217" lon="14.6393342"><ele>81.0</ele><time>2026-04-19T09:12:21.204Z</time></trkpt><trkpt lat="42.0922937" lon="14.6393862"><ele>81.0</ele><time>2026-04-19T09:12:22.199Z</time></trkpt><trkpt lat="42.0924164" lon="14.6394385"><ele>81.0</ele><time>2026-04-19T09:12:23.204Z</time></trkpt><trkpt lat="42.0925318" lon="14.6394872"><ele>81.0</ele><time>2026-04-19T09:12:24.191Z</time></trkpt><trkpt lat="42.0926436" lon="14.6395353"><ele>80.25</ele><time>2026-04-19T09:12:25.215Z</time></trkpt><trkpt lat="42.0927556" lon="14.639587"><ele>79.5</ele><time>2026-04-19T09:12:26.195Z</time></trkpt><trkpt lat="42.0928697" lon="14.6396411"><ele>78.75</ele><time>2026-04-19T09:12:27.204Z</time></trkpt><trkpt lat="42.0929861" lon="14.639697"><ele>78.0</ele><time>2026-04-19T09:12:28.211Z</time></trkpt><trkpt lat="42.093102" lon="14.6397488"><ele>78.0</ele><time>2026-04-19T09:12:29.206Z</time></trkpt><trkpt lat="42.0932222" lon="14.6397947"><ele>78.0</ele><time>2026-04-19T09:12:30.211Z</time></trkpt><trkpt lat="42.0933375" lon="14.6398457"><ele>78.0</ele><time>2026-04-19T09:12:31.202Z</time></trkpt><trkpt lat="42.0934529" lon="14.6398971"><ele>78.0</ele><time>2026-04-19T09:12:32.217Z</time></trkpt><trkpt lat="42.0935674" lon="14.6399514"><ele>78.25</ele><time>2026-04-19T09:12:33.234Z</time></trkpt><trkpt lat="42.0936835" lon="14.6400091"><ele>78.5</ele><time>2026-04-19T09:12:34.2Z</time></trkpt><trkpt lat="42.0938011" lon="14.6400635"><ele>78.75</ele><time>2026-04-19T09:12:35.206Z</time></trkpt><trkpt lat="42.0939213" lon="14.6401223"><ele>79.0</ele><time>2026-04-19T09:12:36.194Z</time></trkpt><trkpt lat="42.0940415" lon="14.6401804"><ele>79.0</ele><time>2026-04-19T09:12:37.315Z</time></trkpt><trkpt lat="42.0941596" lon="14.6402322"><ele>79.0</ele><time>2026-04-19T09:12:38.229Z</time></trkpt><trkpt lat="42.0942761" lon="14.6402848"><ele>79.0</ele><time>2026-04-19T09:12:39.209Z</time></trkpt><trkpt lat="42.0943912" lon="14.6403384"><ele>79.0</ele><time>2026-04-19T09:12:40.208Z</time></trkpt><trkpt lat="42.0945027" lon="14.6403856"><ele>81.0</ele><time>2026-04-19T09:12:41.226Z</time></trkpt><trkpt lat="42.0946164" lon="14.6404393"><ele>83.0</ele><time>2026-04-19T09:12:42.231Z</time></trkpt><trkpt lat="42.0947304" lon="14.6404922"><ele>85.0</ele><time>2026-04-19T09:12:43.223Z</time></trkpt><trkpt lat="42.0948514" lon="14.640547"><ele>87.0</ele><time>2026-04-19T09:12:44.204Z</time></trkpt><trkpt lat="42.0949722" lon="14.6406019"><ele>87.0</ele><time>2026-04-19T09:12:45.213Z</time></trkpt><trkpt lat="42.0950938" lon="14.6406571"><ele>87.0</ele><time>2026-04-19T09:12:46.241Z</time></trkpt><trkpt lat="42.0952107" lon="14.6407118"><ele>87.0</ele><time>2026-04-19T09:12:47.239Z</time></trkpt><trkpt lat="42.0953317" lon="14.6407693"><ele>87.0</ele><time>2026-04-19T09:12:48.23Z</time></trkpt><trkpt lat="42.0954508" lon="14.6408215"><ele>87.0</ele><time>2026-04-19T09:12:49.257Z</time></trkpt><trkpt lat="42.0955785" lon="14.6408701"><ele>87.0</ele><time>2026-04-19T09:12:50.27Z</time></trkpt><trkpt lat="42.0957004" lon="14.6409231"><ele>87.0</ele><time>2026-04-19T09:12:51.23Z</time></trkpt><trkpt lat="42.0958234" lon="14.6409765"><ele>87.0</ele><time>2026-04-19T09:12:52.241Z</time></trkpt><trkpt lat="42.0959428" lon="14.6410283"><ele>87.25</ele><time>2026-04-19T09:12:53.192Z</time></trkpt><trkpt lat="42.0960537" lon="14.6410743"><ele>87.5</ele><time>2026-04-19T09:12:54.223Z</time></trkpt><trkpt lat="42.0961629" lon="14.6411221"><ele>87.75</ele><time>2026-04-19T09:12:55.234Z</time></trkpt><trkpt lat="42.0962713" lon="14.6411595"><ele>88.0</ele><time>2026-04-19T09:12:56.243Z</time></trkpt><trkpt lat="42.0963868" lon="14.6411892"><ele>88.0</ele><time>2026-04-19T09:12:57.22Z</time></trkpt><trkpt lat="42.0965038" lon="14.6412131"><ele>88.0</ele><time>2026-04-19T09:12:58.256Z</time></trkpt><trkpt lat="42.096626" lon="14.6412278"><ele>88.0</ele><time>2026-04-19T09:12:59.235Z</time></trkpt><trkpt lat="42.0967491" lon="14.6412386"><ele>88.0</ele><time>2026-04-19T09:13:00.219Z</time></trkpt><trkpt lat="42.0968768" lon="14.6412514"><ele>87.5</ele><time>2026-04-19T09:13:01.214Z</time></trkpt><trkpt lat="42.097001" lon="14.6412604"><ele>87.0</ele><time>2026-04-19T09:13:02.253Z</time></trkpt><trkpt lat="42.0971256" lon="14.6412749"><ele>86.5</ele><time>2026-04-19T09:13:03.224Z</time></trkpt><trkpt lat="42.0972517" lon="14.6412863"><ele>86.0</ele><time>2026-04-19T09:13:04.25Z</time></trkpt><trkpt lat="42.0973797" lon="14.6412927"><ele>85.25</ele><time>2026-04-19T09:13:05.222Z</time></trkpt><trkpt lat="42.0975078" lon="14.6413054"><ele>84.5</ele><time>2026-04-19T09:13:06.229Z</time></trkpt><trkpt lat="42.097634" lon="14.6413171"><ele>83.75</ele><time>2026-04-19T09:13:07.212Z</time></trkpt><trkpt lat="42.0977554" lon="14.6413236"><ele>83.0</ele><time>2026-04-19T09:13:08.192Z</time></trkpt><trkpt lat="42.0978805" lon="14.6413356"><ele>83.0</ele><time>2026-04-19T09:13:09.206Z</time></trkpt><trkpt lat="42.0980045" lon="14.6413506"><ele>83.0</ele><time>2026-04-19T09:13:10.199Z</time></trkpt><trkpt lat="42.0981269" lon="14.6413714"><ele>83.0</ele><time>2026-04-19T09:13:11.2Z</time></trkpt><trkpt lat="42.0982476" lon="14.6413871"><ele>83.0</ele><time>2026-04-19T09:13:12.19Z</time></trkpt><trkpt lat="42.0983621" lon="14.6414154"><ele>82.60000000000001</ele><time>2026-04-19T09:13:13.218Z</time></trkpt><trkpt lat="42.0984676" lon="14.6414454"><ele>82.2</ele><time>2026-04-19T09:13:14.247Z</time></trkpt><trkpt lat="42.0985707" lon="14.6414869"><ele>81.8</ele><time>2026-04-19T09:13:15.239Z</time></trkpt><trkpt lat="42.0986697" lon="14.6415419"><ele>81.4</ele><time>2026-04-19T09:13:16.232Z</time></trkpt><trkpt lat="42.0987644" lon="14.641599"><ele>81.0</ele><time>2026-04-19T09:13:17.241Z</time></trkpt><trkpt lat="42.0988616" lon="14.6416653"><ele>81.0</ele><time>2026-04-19T09:13:18.233Z</time></trkpt><trkpt lat="42.0989629" lon="14.6417413"><ele>81.0</ele><time>2026-04-19T09:13:19.24Z</time></trkpt><trkpt lat="42.0990593" lon="14.6418294"><ele>81.0</ele><time>2026-04-19T09:13:20.245Z</time></trkpt><trkpt lat="42.0991542" lon="14.6419109"><ele>81.0</ele><time>2026-04-19T09:13:21.202Z</time></trkpt><trkpt lat="42.0992504" lon="14.6419819"><ele>81.75</ele><time>2026-04-19T09:13:22.218Z</time></trkpt><trkpt lat="42.0993531" lon="14.6420476"><ele>82.5</ele><time>2026-04-19T09:13:23.231Z</time></trkpt><trkpt lat="42.0994557" lon="14.6421057"><ele>83.25</ele><time>2026-04-19T09:13:24.254Z</time></trkpt><trkpt lat="42.0995672" lon="14.6421499"><ele>84.0</ele><time>2026-04-19T09:13:25.241Z</time></trkpt><trkpt lat="42.0996861" lon="14.642178"><ele>84.0</ele><time>2026-04-19T09:13:26.24Z</time></trkpt><trkpt lat="42.099811" lon="14.6422009"><ele>84.0</ele><time>2026-04-19T09:13:27.212Z</time></trkpt><trkpt lat="42.0999429" lon="14.642206"><ele>84.0</ele><time>2026-04-19T09:13:28.226Z</time></trkpt><trkpt lat="42.100077" lon="14.6422021"><ele>84.0</ele><time>2026-04-19T09:13:29.197Z</time></trkpt><trkpt lat="42.1002029" lon="14.6421997"><ele>82.75</ele><time>2026-04-19T09:13:30.236Z</time></trkpt><trkpt lat="42.1003333" lon="14.6422008"><ele>81.5</ele><time>2026-04-19T09:13:31.23Z</time></trkpt><trkpt lat="42.1004663" lon="14.6422032"><ele>80.25</ele><time>2026-04-19T09:13:32.247Z</time></trkpt><trkpt lat="42.1006037" lon="14.6421955"><ele>79.0</ele><time>2026-04-19T09:13:33.241Z</time></trkpt><trkpt lat="42.1007379" lon="14.6421878"><ele>79.0</ele><time>2026-04-19T09:13:34.243Z</time></trkpt><trkpt lat="42.1008688" lon="14.6421848"><ele>79.0</ele><time>2026-04-19T09:13:35.246Z</time></trkpt><trkpt lat="42.1009962" lon="14.6421804"><ele>79.0</ele><time>2026-04-19T09:13:36.244Z</time></trkpt><trkpt lat="42.101123" lon="14.6421807"><ele>79.0</ele><time>2026-04-19T09:13:37.242Z</time></trkpt><trkpt lat="42.1012528" lon="14.6421885"><ele>79.0</ele><time>2026-04-19T09:13:38.256Z</time></trkpt><trkpt lat="42.1013827" lon="14.6421907"><ele>79.0</ele><time>2026-04-19T09:13:39.234Z</time></trkpt><trkpt lat="42.1015112" lon="14.6421898"><ele>79.0</ele><time>2026-04-19T09:13:40.236Z</time></trkpt><trkpt lat="42.1016339" lon="14.6421889"><ele>79.0</ele><time>2026-04-19T09:13:41.236Z</time></trkpt><trkpt lat="42.1017596" lon="14.6421939"><ele>78.75</ele><time>2026-04-19T09:13:42.251Z</time></trkpt><trkpt lat="42.1018896" lon="14.6421919"><ele>78.5</ele><time>2026-04-19T09:13:43.246Z</time></trkpt><trkpt lat="42.1020194" lon="14.6421882"><ele>78.25</ele><time>2026-04-19T09:13:44.236Z</time></trkpt><trkpt lat="42.1021497" lon="14.6421846"><ele>78.0</ele><time>2026-04-19T09:13:45.229Z</time></trkpt><trkpt lat="42.1022787" lon="14.6421768"><ele>78.0</ele><time>2026-04-19T09:13:46.202Z</time></trkpt><trkpt lat="42.1024042" lon="14.6421791"><ele>78.0</ele><time>2026-04-19T09:13:47.225Z</time></trkpt><trkpt lat="42.1025226" lon="14.6421748"><ele>78.0</ele><time>2026-04-19T09:13:48.206Z</time></trkpt><trkpt lat="42.1026357" lon="14.6421754"><ele>78.0</ele><time>2026-04-19T09:13:49.225Z</time></trkpt><trkpt lat="42.1027411" lon="14.6421803"><ele>78.0</ele><time>2026-04-19T09:13:50.215Z</time></trkpt><trkpt lat="42.1028411" lon="14.6421871"><ele>78.0</ele><time>2026-04-19T09:13:51.214Z</time></trkpt><trkpt lat="42.1029455" lon="14.6421847"><ele>78.0</ele><time>2026-04-19T09:13:52.224Z</time></trkpt><trkpt lat="42.1030506" lon="14.6421856"><ele>78.0</ele><time>2026-04-19T09:13:53.23Z</time></trkpt><trkpt lat="42.1031555" lon="14.6421976"><ele>78.0</ele><time>2026-04-19T09:13:54.238Z</time></trkpt><trkpt lat="42.103263" lon="14.6422171"><ele>76.6</ele><time>2026-04-19T09:13:55.254Z</time></trkpt><trkpt lat="42.10337" lon="14.6422385"><ele>75.19999999999999</ele><time>2026-04-19T09:13:56.233Z</time></trkpt><trkpt lat="42.1034711" lon="14.6422695"><ele>73.8</ele><time>2026-04-19T09:13:57.23Z</time></trkpt><trkpt lat="42.1035684" lon="14.6423024"><ele>72.39999999999999</ele><time>2026-04-19T09:13:58.258Z</time></trkpt><trkpt lat="42.1036607" lon="14.6423385"><ele>71.0</ele><time>2026-04-19T09:13:59.2Z</time></trkpt><trkpt lat="42.1037519" lon="14.6423736"><ele>71.0</ele><time>2026-04-19T09:14:00.216Z</time></trkpt><trkpt lat="42.1038415" lon="14.642408"><ele>71.0</ele><time>2026-04-19T09:14:01.28Z</time></trkpt><trkpt lat="42.1039378" lon="14.6424363"><ele>71.0</ele><time>2026-04-19T09:14:02.235Z</time></trkpt><trkpt lat="42.1040385" lon="14.6424668"><ele>71.0</ele><time>2026-04-19T09:14:03.256Z</time></trkpt><trkpt lat="42.1041374" lon="14.6424968"><ele>71.0</ele><time>2026-04-19T09:14:04.244Z</time></trkpt><trkpt lat="42.1042291" lon="14.6425232"><ele>70.28571428571428</ele><time>2026-04-19T09:14:05.214Z</time></trkpt><trkpt lat="42.1043132" lon="14.6425445"><ele>69.57142857142857</ele><time>2026-04-19T09:14:06.199Z</time></trkpt><trkpt lat="42.1043859" lon="14.6425705"><ele>68.85714285714286</ele><time>2026-04-19T09:14:07.206Z</time></trkpt><trkpt lat="42.1044508" lon="14.6426038"><ele>68.14285714285714</ele><time>2026-04-19T09:14:08.199Z</time></trkpt><trkpt lat="42.1045127" lon="14.6426385"><ele>67.42857142857143</ele><time>2026-04-19T09:14:09.22Z</time></trkpt><trkpt lat="42.1045725" lon="14.6426765"><ele>66.71428571428571</ele><time>2026-04-19T09:14:10.227Z</time></trkpt><trkpt lat="42.1046354" lon="14.642718"><ele>66.0</ele><time>2026-04-19T09:14:11.227Z</time></trkpt><trkpt lat="42.1046951" lon="14.6427606"><ele>66.5</ele><time>2026-04-19T09:14:12.216Z</time></trkpt><trkpt lat="42.1047614" lon="14.6428093"><ele>67.0</ele><time>2026-04-19T09:14:13.229Z</time></trkpt><trkpt lat="42.1048337" lon="14.6428686"><ele>67.5</ele><time>2026-04-19T09:14:14.253Z</time></trkpt><trkpt lat="42.1049138" lon="14.6429195"><ele>68.0</ele><time>2026-04-19T09:14:15.219Z</time></trkpt><trkpt lat="42.1049939" lon="14.642974"><ele>68.5</ele><time>2026-04-19T09:14:16.23Z</time></trkpt><trkpt lat="42.1050764" lon="14.6430387"><ele>69.0</ele><time>2026-04-19T09:14:17.224Z</time></trkpt><trkpt lat="42.1051625" lon="14.6431066"><ele>69.0</ele><time>2026-04-19T09:14:18.248Z</time></trkpt><trkpt lat="42.1052449" lon="14.6431768"><ele>69.0</ele><time>2026-04-19T09:14:19.254Z</time></trkpt><trkpt lat="42.1053318" lon="14.6432464"><ele>69.0</ele><time>2026-04-19T09:14:20.225Z</time></trkpt><trkpt lat="42.1054205" lon="14.6433166"><ele>69.0</ele><time>2026-04-19T09:14:21.234Z</time></trkpt><trkpt lat="42.1055069" lon="14.643387"><ele>69.0</ele><time>2026-04-19T09:14:22.242Z</time></trkpt><trkpt lat="42.1055902" lon="14.6434479"><ele>69.0</ele><time>2026-04-19T09:14:23.232Z</time></trkpt><trkpt lat="42.1056745" lon="14.6435107"><ele>69.0</ele><time>2026-04-19T09:14:24.246Z</time></trkpt><trkpt lat="42.105757" lon="14.6435719"><ele>69.0</ele><time>2026-04-19T09:14:25.213Z</time></trkpt><trkpt lat="42.1058384" lon="14.6436241"><ele>69.0</ele><time>2026-04-19T09:14:26.211Z</time></trkpt><trkpt lat="42.1059096" lon="14.6436791"><ele>69.0</ele><time>2026-04-19T09:14:27.2Z</time></trkpt><trkpt lat="42.1059744" lon="14.6437287"><ele>69.0</ele><time>2026-04-19T09:14:28.193Z</time></trkpt><trkpt lat="42.1060727" lon="14.6438121"><ele>69.5</ele><time>2026-04-19T09:14:30.241Z</time></trkpt><trkpt lat="42.106123" lon="14.6438734"><ele>70.0</ele><time>2026-04-19T09:14:32.221Z</time></trkpt><trkpt lat="42.1060999" lon="14.6439551"><ele>70.5</ele><time>2026-04-19T09:14:34.237Z</time></trkpt><trkpt lat="42.1060559" lon="14.6440188"><ele>71.0</ele><time>2026-04-19T09:14:35.258Z</time></trkpt><trkpt lat="42.1059955" lon="14.6440961"><ele>71.5</ele><time>2026-04-19T09:14:36.263Z</time></trkpt><trkpt lat="42.1059177" lon="14.6441397"><ele>72.0</ele><time>2026-04-19T09:14:38.254Z</time></trkpt><trkpt lat="42.1058179" lon="14.644132"><ele>72.0</ele><time>2026-04-19T09:14:40.237Z</time></trkpt><trkpt lat="42.1057331" lon="14.6441234"><ele>72.0</ele><time>2026-04-19T09:14:42.24Z</time></trkpt><trkpt lat="42.1056601" lon="14.6441485"><ele>72.0</ele><time>2026-04-19T09:14:48.219Z</time></trkpt><trkpt lat="42.1056754" lon="14.644251"><ele>72.0</ele><time>2026-04-19T09:14:50.21Z</time></trkpt><trkpt lat="42.1057452" lon="14.6442876"><ele>72.0</ele><time>2026-04-19T09:14:51.244Z</time></trkpt><trkpt lat="42.1058205" lon="14.6443108"><ele>72.0</ele><time>2026-04-19T09:14:52.223Z</time></trkpt><trkpt lat="42.1059204" lon="14.6443649"><ele>72.0</ele><time>2026-04-19T09:14:54.254Z</time></trkpt><trkpt lat="42.105972" lon="14.6444292"><ele>72.0</ele><time>2026-04-19T09:14:55.232Z</time></trkpt><trkpt lat="42.1059889" lon="14.6445264"><ele>72.0</ele><time>2026-04-19T09:14:56.247Z</time></trkpt><trkpt lat="42.1059769" lon="14.6446785"><ele>72.0</ele><time>2026-04-19T09:14:57.193Z</time></trkpt><trkpt lat="42.1060129" lon="14.6448409"><ele>72.0</ele><time>2026-04-19T09:14:58.242Z</time></trkpt><trkpt lat="42.1060489" lon="14.6450116"><ele>74.0</ele><time>2026-04-19T09:14:59.214Z</time></trkpt><trkpt lat="42.1060543" lon="14.6451799"><ele>76.0</ele><time>2026-04-19T09:15:00.235Z</time></trkpt><trkpt lat="42.10604" lon="14.6453568"><ele>78.0</ele><time>2026-04-19T09:15:01.249Z</time></trkpt><trkpt lat="42.1059997" lon="14.6455812"><ele>80.0</ele><time>2026-04-19T09:15:02.228Z</time></trkpt><trkpt lat="42.1059556" lon="14.6458234"><ele>81.66666666666667</ele><time>2026-04-19T09:15:03.222Z</time></trkpt><trkpt lat="42.1059206" lon="14.6460274"><ele>83.33333333333333</ele><time>2026-04-19T09:15:04.217Z</time></trkpt><trkpt lat="42.1058989" lon="14.6462128"><ele>85.0</ele><time>2026-04-19T09:15:05.203Z</time></trkpt><trkpt lat="42.1058686" lon="14.6464203"><ele>87.66666666666666</ele><time>2026-04-19T09:15:06.211Z</time></trkpt><trkpt lat="42.1058308" lon="14.6466406"><ele>90.33333333333333</ele><time>2026-04-19T09:15:07.199Z</time></trkpt><trkpt lat="42.1057958" lon="14.646862"><ele>93.0</ele><time>2026-04-19T09:15:08.217Z</time></trkpt><trkpt lat="42.1057674" lon="14.6470777"><ele>95.0</ele><time>2026-04-19T09:15:09.225Z</time></trkpt><trkpt lat="42.1057575" lon="14.6472681"><ele>97.0</ele><time>2026-04-19T09:15:10.243Z</time></trkpt><trkpt lat="42.1057529" lon="14.6474176"><ele>99.0</ele><time>2026-04-19T09:15:11.233Z</time></trkpt><trkpt lat="42.1057456" lon="14.6475423"><ele>101.0</ele><time>2026-04-19T09:15:12.239Z</time></trkpt><trkpt lat="42.1057266" lon="14.6476349"><ele>103.0</ele><time>2026-04-19T09:15:13.239Z</time></trkpt><trkpt lat="42.1057077" lon="14.6477276"><ele>106.83333333333334</ele><time>2026-04-19T09:15:14.196Z</time></trkpt><trkpt lat="42.1056865" lon="14.6478079"><ele>110.66666666666667</ele><time>2026-04-19T09:15:15.198Z</time></trkpt><trkpt lat="42.1056649" lon="14.6478988"><ele>114.5</ele><time>2026-04-19T09:15:16.196Z</time></trkpt><trkpt lat="42.1056392" lon="14.6479806"><ele>118.33333333333334</ele><time>2026-04-19T09:15:17.242Z</time></trkpt><trkpt lat="42.105621" lon="14.6480639"><ele>122.16666666666667</ele><time>2026-04-19T09:15:18.232Z</time></trkpt><trkpt lat="42.1055977" lon="14.6481814"><ele>126.0</ele><time>2026-04-19T09:15:19.218Z</time></trkpt><trkpt lat="42.105576" lon="14.6483285"><ele>126.0</ele><time>2026-04-19T09:15:20.207Z</time></trkpt><trkpt lat="42.1055526" lon="14.6485071"><ele>126.0</ele><time>2026-04-19T09:15:21.253Z</time></trkpt><trkpt lat="42.1055286" lon="14.6486811"><ele>126.0</ele><time>2026-04-19T09:15:22.221Z</time></trkpt><trkpt lat="42.1055119" lon="14.6488337"><ele>126.0</ele><time>2026-04-19T09:15:23.223Z</time></trkpt><trkpt lat="42.1054894" lon="14.6489585"><ele>128.0</ele><time>2026-04-19T09:15:24.226Z</time></trkpt><trkpt lat="42.1054532" lon="14.6490986"><ele>130.0</ele><time>2026-04-19T09:15:25.253Z</time></trkpt><trkpt lat="42.1054273" lon="14.6492561"><ele>132.0</ele><time>2026-04-19T09:15:26.245Z</time></trkpt><trkpt lat="42.1054076" lon="14.6494447"><ele>134.0</ele><time>2026-04-19T09:15:27.236Z</time></trkpt><trkpt lat="42.1053822" lon="14.6496578"><ele>136.25</ele><time>2026-04-19T09:15:28.208Z</time></trkpt><trkpt lat="42.1053621" lon="14.6498634"><ele>138.5</ele><time>2026-04-19T09:15:29.244Z</time></trkpt><trkpt lat="42.1053341" lon="14.650039"><ele>140.75</ele><time>2026-04-19T09:15:30.234Z</time></trkpt><trkpt lat="42.1053079" lon="14.6502141"><ele>143.0</ele><time>2026-04-19T09:15:31.196Z</time></trkpt><trkpt lat="42.1052834" lon="14.6503686"><ele>145.5</ele><time>2026-04-19T09:15:32.189Z</time></trkpt><trkpt lat="42.1052595" lon="14.6505174"><ele>148.0</ele><time>2026-04-19T09:15:33.211Z</time></trkpt><trkpt lat="42.1052329" lon="14.6506794"><ele>150.5</ele><time>2026-04-19T09:15:34.194Z</time></trkpt><trkpt lat="42.1052034" lon="14.6508517"><ele>153.0</ele><time>2026-04-19T09:15:35.229Z</time></trkpt><trkpt lat="42.1051826" lon="14.6510379"><ele>155.25</ele><time>2026-04-19T09:15:36.228Z</time></trkpt><trkpt lat="42.1051615" lon="14.6511901"><ele>157.5</ele><time>2026-04-19T09:15:37.236Z</time></trkpt><trkpt lat="42.1051429" lon="14.6513367"><ele>159.75</ele><time>2026-04-19T09:15:38.225Z</time></trkpt><trkpt lat="42.1051227" lon="14.6514883"><ele>162.0</ele><time>2026-04-19T09:15:39.245Z</time></trkpt><trkpt lat="42.1050951" lon="14.65165"><ele>162.0</ele><time>2026-04-19T09:15:40.235Z</time></trkpt><trkpt lat="42.1050646" lon="14.6518448"><ele>162.0</ele><time>2026-04-19T09:15:41.251Z</time></trkpt><trkpt lat="42.1050399" lon="14.6520391"><ele>162.0</ele><time>2026-04-19T09:15:42.247Z</time></trkpt><trkpt lat="42.1050182" lon="14.6522276"><ele>162.0</ele><time>2026-04-19T09:15:43.221Z</time></trkpt><trkpt lat="42.1049965" lon="14.6523899"><ele>164.25</ele><time>2026-04-19T09:15:44.244Z</time></trkpt><trkpt lat="42.1049732" lon="14.6525575"><ele>166.5</ele><time>2026-04-19T09:15:45.262Z</time></trkpt><trkpt lat="42.1049451" lon="14.6527582"><ele>168.75</ele><time>2026-04-19T09:15:46.224Z</time></trkpt><trkpt lat="42.1049191" lon="14.6529702"><ele>171.0</ele><time>2026-04-19T09:15:47.233Z</time></trkpt><trkpt lat="42.1048973" lon="14.6531627"><ele>176.5</ele><time>2026-04-19T09:15:48.238Z</time></trkpt><trkpt lat="42.1048785" lon="14.6533446"><ele>182.0</ele><time>2026-04-19T09:15:49.246Z</time></trkpt><trkpt lat="42.1048607" lon="14.6535284"><ele>187.5</ele><time>2026-04-19T09:15:50.245Z</time></trkpt><trkpt lat="42.104839" lon="14.6536813"><ele>193.0</ele><time>2026-04-19T09:15:51.231Z</time></trkpt><trkpt lat="42.1048235" lon="14.6537923"><ele>193.4</ele><time>2026-04-19T09:15:52.24Z</time></trkpt><trkpt lat="42.1048103" lon="14.653906"><ele>193.8</ele><time>2026-04-19T09:15:54.245Z</time></trkpt><trkpt lat="42.1048774" lon="14.6539658"><ele>194.2</ele><time>2026-04-19T09:16:10.196Z</time></trkpt><trkpt lat="42.1049792" lon="14.6539494"><ele>194.6</ele><time>2026-04-19T09:16:12.24Z</time></trkpt><trkpt lat="42.1050719" lon="14.6539225"><ele>195.0</ele><time>2026-04-19T09:16:13.236Z</time></trkpt><trkpt lat="42.1051984" lon="14.6538967"><ele>195.0</ele><time>2026-04-19T09:16:14.263Z</time></trkpt><trkpt lat="42.1053486" lon="14.6538718"><ele>195.0</ele><time>2026-04-19T09:16:15.247Z</time></trkpt><trkpt lat="42.1055046" lon="14.6538457"><ele>195.0</ele><time>2026-04-19T09:16:16.246Z</time></trkpt><trkpt lat="42.1056559" lon="14.6538201"><ele>192.75</ele><time>2026-04-19T09:16:17.242Z</time></trkpt><trkpt lat="42.1057998" lon="14.6538003"><ele>190.5</ele><time>2026-04-19T09:16:18.235Z</time></trkpt><trkpt lat="42.1059263" lon="14.653784"><ele>188.25</ele><time>2026-04-19T09:16:19.22Z</time></trkpt><trkpt lat="42.1060533" lon="14.6537683"><ele>186.0</ele><time>2026-04-19T09:16:20.239Z</time></trkpt><trkpt lat="42.1061689" lon="14.6537315"><ele>186.0</ele><time>2026-04-19T09:16:21.235Z</time></trkpt><trkpt lat="42.1062807" lon="14.6536742"><ele>186.0</ele><time>2026-04-19T09:16:22.226Z</time></trkpt><trkpt lat="42.1063874" lon="14.6535936"><ele>186.0</ele><time>2026-04-19T09:16:23.225Z</time></trkpt><trkpt lat="42.1064759" lon="14.6535"><ele>186.0</ele><time>2026-04-19T09:16:24.236Z</time></trkpt><trkpt lat="42.1065591" lon="14.6533894"><ele>181.60000000000002</ele><time>2026-04-19T09:16:25.249Z</time></trkpt><trkpt lat="42.1066313" lon="14.6533"><ele>177.2</ele><time>2026-04-19T09:16:26.251Z</time></trkpt><trkpt lat="42.106699" lon="14.6532305"><ele>172.8</ele><time>2026-04-19T09:16:27.235Z</time></trkpt><trkpt lat="42.1067741" lon="14.653172"><ele>168.39999999999998</ele><time>2026-04-19T09:16:28.234Z</time></trkpt><trkpt lat="42.1068749" lon="14.6531559"><ele>164.0</ele><time>2026-04-19T09:16:29.235Z</time></trkpt><trkpt lat="42.1070124" lon="14.6531775"><ele>164.0</ele><time>2026-04-19T09:16:30.242Z</time></trkpt><trkpt lat="42.107155" lon="14.6532029"><ele>164.0</ele><time>2026-04-19T09:16:31.248Z</time></trkpt><trkpt lat="42.1073016" lon="14.6532251"><ele>164.0</ele><time>2026-04-19T09:16:32.191Z</time></trkpt><trkpt lat="42.1074393" lon="14.6532365"><ele>164.0</ele><time>2026-04-19T09:16:33.237Z</time></trkpt><trkpt lat="42.1075707" lon="14.6532504"><ele>162.79999999999998</ele><time>2026-04-19T09:16:34.235Z</time></trkpt><trkpt lat="42.1076925" lon="14.6532663"><ele>161.6</ele><time>2026-04-19T09:16:35.203Z</time></trkpt><trkpt lat="42.1078011" lon="14.6532789"><ele>160.4</ele><time>2026-04-19T09:16:36.201Z</time></trkpt><trkpt lat="42.1078883" lon="14.6532821"><ele>159.2</ele><time>2026-04-19T09:16:37.242Z</time></trkpt><trkpt lat="42.1079587" lon="14.6532884"><ele>158.0</ele><time>2026-04-19T09:16:38.21Z</time></trkpt><trkpt lat="42.1080193" lon="14.6532406"><ele>158.0</ele><time>2026-04-19T09:16:41.222Z</time></trkpt><trkpt lat="42.1080261" lon="14.6531532"><ele>158.0</ele><time>2026-04-19T09:16:42.215Z</time></trkpt><trkpt lat="42.108044" lon="14.6530136"><ele>158.0</ele><time>2026-04-19T09:16:43.239Z</time></trkpt><trkpt lat="42.108074" lon="14.6528784"><ele>158.0</ele><time>2026-04-19T09:16:44.221Z</time></trkpt><trkpt lat="42.1080876" lon="14.6527954"><ele>158.0</ele><time>2026-04-19T09:16:45.193Z</time></trkpt><trkpt lat="42.1081626" lon="14.6526827"><ele>155.8</ele><time>2026-04-19T09:16:47.251Z</time></trkpt><trkpt lat="42.1082248" lon="14.6525908"><ele>153.60000000000002</ele><time>2026-04-19T09:16:48.253Z</time></trkpt><trkpt lat="42.1082729" lon="14.6524817"><ele>151.39999999999998</ele><time>2026-04-19T09:16:49.191Z</time></trkpt><trkpt lat="42.1083011" lon="14.6523766"><ele>149.2</ele><time>2026-04-19T09:16:50.219Z</time></trkpt><trkpt lat="42.1083302" lon="14.6522541"><ele>147.0</ele><time>2026-04-19T09:16:51.256Z</time></trkpt><trkpt lat="42.1083626" lon="14.6520834"><ele>143.79999999999998</ele><time>2026-04-19T09:16:52.247Z</time></trkpt><trkpt lat="42.1083956" lon="14.6519137"><ele>140.6</ele><time>2026-04-19T09:16:53.218Z</time></trkpt><trkpt lat="42.1084135" lon="14.651763"><ele>137.39999999999998</ele><time>2026-04-19T09:16:54.231Z</time></trkpt><trkpt lat="42.1084135" lon="14.6516477"><ele>134.2</ele><time>2026-04-19T09:16:55.231Z</time></trkpt><trkpt lat="42.1084057" lon="14.6515566"><ele>131.0</ele><time>2026-04-19T09:16:56.222Z</time></trkpt><trkpt lat="42.1084712" lon="14.6514954"><ele>131.0</ele><time>2026-04-19T09:16:59.192Z</time></trkpt><trkpt lat="42.1085811" lon="14.6514942"><ele>131.0</ele><time>2026-04-19T09:17:00.243Z</time></trkpt><trkpt lat="42.1086856" lon="14.6514973"><ele>131.0</ele><time>2026-04-19T09:17:01.248Z</time></trkpt><trkpt lat="42.1087559" lon="14.6515231"><ele>131.0</ele><time>2026-04-19T09:17:02.226Z</time></trkpt><trkpt lat="42.1088426" lon="14.6514932"><ele>131.0</ele><time>2026-04-19T09:17:04.243Z</time></trkpt><trkpt lat="42.1088968" lon="14.6513314"><ele>131.0</ele><time>2026-04-19T09:17:06.25Z</time></trkpt><trkpt lat="42.10892" lon="14.6512038"><ele>131.0</ele><time>2026-04-19T09:17:07.202Z</time></trkpt><trkpt lat="42.1089358" lon="14.6510701"><ele>131.0</ele><time>2026-04-19T09:17:08.238Z</time></trkpt><trkpt lat="42.1089568" lon="14.650927"><ele>131.0</ele><time>2026-04-19T09:17:09.23Z</time></trkpt><trkpt lat="42.1089796" lon="14.6507985"><ele>131.0</ele><time>2026-04-19T09:17:10.236Z</time></trkpt><trkpt lat="42.1089974" lon="14.650671"><ele>128.8</ele><time>2026-04-19T09:17:11.251Z</time></trkpt><trkpt lat="42.1090166" lon="14.6505439"><ele>126.6</ele><time>2026-04-19T09:17:12.203Z</time></trkpt><trkpt lat="42.1090463" lon="14.6504028"><ele>124.4</ele><time>2026-04-19T09:17:13.231Z</time></trkpt><trkpt lat="42.1090826" lon="14.6502526"><ele>122.2</ele><time>2026-04-19T09:17:14.244Z</time></trkpt><trkpt lat="42.1091125" lon="14.6500965"><ele>120.0</ele><time>2026-04-19T09:17:15.237Z</time></trkpt><trkpt lat="42.1091365" lon="14.649963"><ele>116.6</ele><time>2026-04-19T09:17:16.192Z</time></trkpt><trkpt lat="42.1091446" lon="14.6498584"><ele>113.2</ele><time>2026-04-19T09:17:17.228Z</time></trkpt><trkpt lat="42.1091526" lon="14.6497605"><ele>109.80000000000001</ele><time>2026-04-19T09:17:18.237Z</time></trkpt><trkpt lat="42.1092365" lon="14.649702"><ele>106.4</ele><time>2026-04-19T09:17:23.239Z</time></trkpt><trkpt lat="42.1093512" lon="14.6497174"><ele>103.0</ele><time>2026-04-19T09:17:24.227Z</time></trkpt><trkpt lat="42.1094815" lon="14.6497462"><ele>103.0</ele><time>2026-04-19T09:17:25.255Z</time></trkpt><trkpt lat="42.1095915" lon="14.6497685"><ele>103.0</ele><time>2026-04-19T09:17:26.227Z</time></trkpt><trkpt lat="42.1096817" lon="14.6497964"><ele>103.0</ele><time>2026-04-19T09:17:27.25Z</time></trkpt><trkpt lat="42.1097682" lon="14.6498329"><ele>103.0</ele><time>2026-04-19T09:17:28.258Z</time></trkpt><trkpt lat="42.1098546" lon="14.6498616"><ele>103.0</ele><time>2026-04-19T09:17:29.254Z</time></trkpt><trkpt lat="42.1099402" lon="14.6498594"><ele>99.25</ele><time>2026-04-19T09:17:31.232Z</time></trkpt><trkpt lat="42.1099966" lon="14.6496725"><ele>95.5</ele><time>2026-04-19T09:17:33.259Z</time></trkpt><trkpt lat="42.1100358" lon="14.6495073"><ele>91.75</ele><time>2026-04-19T09:17:34.232Z</time></trkpt><trkpt lat="42.1100917" lon="14.6493232"><ele>88.0</ele><time>2026-04-19T09:17:35.203Z</time></trkpt><trkpt lat="42.1101502" lon="14.6491829"><ele>86.66666666666666</ele><time>2026-04-19T09:17:36.244Z</time></trkpt><trkpt lat="42.1102007" lon="14.6490652"><ele>85.33333333333333</ele><time>2026-04-19T09:17:37.246Z</time></trkpt><trkpt lat="42.1102332" lon="14.6489763"><ele>84.0</ele><time>2026-04-19T09:17:38.198Z</time></trkpt><trkpt lat="42.1102645" lon="14.6489012"><ele>82.66666666666667</ele><time>2026-04-19T09:17:39.252Z</time></trkpt><trkpt lat="42.1103008" lon="14.648826"><ele>81.33333333333334</ele><time>2026-04-19T09:17:40.214Z</time></trkpt><trkpt lat="42.1103491" lon="14.6487573"><ele>80.0</ele><time>2026-04-19T09:17:41.199Z</time></trkpt><trkpt lat="42.1104042" lon="14.6486534"><ele>78.33333333333334</ele><time>2026-04-19T09:17:42.198Z</time></trkpt><trkpt lat="42.1104548" lon="14.6485291"><ele>76.66666666666667</ele><time>2026-04-19T09:17:43.247Z</time></trkpt><trkpt lat="42.1104966" lon="14.64842"><ele>75.0</ele><time>2026-04-19T09:17:44.212Z</time></trkpt><trkpt lat="42.1105268" lon="14.6483444"><ele>73.33333333333333</ele><time>2026-04-19T09:17:45.224Z</time></trkpt><trkpt lat="42.1105824" lon="14.6482562"><ele>71.66666666666666</ele><time>2026-04-19T09:17:47.224Z</time></trkpt><trkpt lat="42.1106372" lon="14.6482142"><ele>70.0</ele><time>2026-04-19T09:17:50.23Z</time></trkpt><trkpt lat="42.1106934" lon="14.6482539"><ele>69.0</ele><time>2026-04-19T09:17:53.209Z</time></trkpt><trkpt lat="42.1107767" lon="14.6482712"><ele>68.0</ele><time>2026-04-19T09:17:56.227Z</time></trkpt><trkpt lat="42.1108666" lon="14.6483602"><ele>67.0</ele><time>2026-04-19T09:17:59.227Z</time></trkpt><trkpt lat="42.1109613" lon="14.6484199"><ele>66.0</ele><time>2026-04-19T09:18:00.203Z</time></trkpt><trkpt lat="42.1110868" lon="14.6484825"><ele>65.0</ele><time>2026-04-19T09:18:01.233Z</time></trkpt><trkpt lat="42.1111968" lon="14.648532"><ele>65.0</ele><time>2026-04-19T09:18:02.235Z</time></trkpt><trkpt lat="42.1112777" lon="14.6485726"><ele>65.0</ele><time>2026-04-19T09:18:03.24Z</time></trkpt><trkpt lat="42.1113485" lon="14.6486239"><ele>65.0</ele><time>2026-04-19T09:18:04.232Z</time></trkpt><trkpt lat="42.1114218" lon="14.6486814"><ele>65.0</ele><time>2026-04-19T09:18:05.226Z</time></trkpt><trkpt lat="42.111528" lon="14.648727"><ele>65.0</ele><time>2026-04-19T09:18:07.196Z</time></trkpt><trkpt lat="42.1115995" lon="14.6486998"><ele>65.0</ele><time>2026-04-19T09:18:08.202Z</time></trkpt><trkpt lat="42.1116734" lon="14.6486737"><ele>65.2</ele><time>2026-04-19T09:18:09.245Z</time></trkpt><trkpt lat="42.1117491" lon="14.648683"><ele>65.4</ele><time>2026-04-19T09:18:10.249Z</time></trkpt><trkpt lat="42.1118484" lon="14.6487042"><ele>65.6</ele><time>2026-04-19T09:18:11.224Z</time></trkpt><trkpt lat="42.1119659" lon="14.6487498"><ele>65.8</ele><time>2026-04-19T09:18:12.247Z</time></trkpt><trkpt lat="42.1121034" lon="14.6487784"><ele>66.0</ele><time>2026-04-19T09:18:13.248Z</time></trkpt><trkpt lat="42.1122547" lon="14.6487922"><ele>65.75</ele><time>2026-04-19T09:18:14.242Z</time></trkpt><trkpt lat="42.1124291" lon="14.6488132"><ele>65.5</ele><time>2026-04-19T09:18:15.25Z</time></trkpt><trkpt lat="42.1125844" lon="14.6488408"><ele>65.25</ele><time>2026-04-19T09:18:16.232Z</time></trkpt><trkpt lat="42.1127003" lon="14.6488586"><ele>65.0</ele><time>2026-04-19T09:18:17.247Z</time></trkpt><trkpt lat="42.1127648" lon="14.6488606"><ele>65.0</ele><time>2026-04-19T09:18:18.238Z</time></trkpt><trkpt lat="42.1128299" lon="14.648884"><ele>65.0</ele><time>2026-04-19T09:18:21.209Z</time></trkpt><trkpt lat="42.1128285" lon="14.6490088"><ele>65.0</ele><time>2026-04-19T09:18:30.219Z</time></trkpt><trkpt lat="42.1127996" lon="14.6491189"><ele>65.0</ele><time>2026-04-19T09:18:31.204Z</time></trkpt><trkpt lat="42.1127781" lon="14.649279"><ele>65.0</ele><time>2026-04-19T09:18:32.237Z</time></trkpt><trkpt lat="42.1127599" lon="14.6494795"><ele>66.0</ele><time>2026-04-19T09:18:33.237Z</time></trkpt><trkpt lat="42.1127303" lon="14.6497248"><ele>67.0</ele><time>2026-04-19T09:18:34.232Z</time></trkpt><trkpt lat="42.1126972" lon="14.6499569"><ele>68.0</ele><time>2026-04-19T09:18:35.231Z</time></trkpt><trkpt lat="42.1126689" lon="14.6501888"><ele>70.33333333333334</ele><time>2026-04-19T09:18:36.209Z</time></trkpt><trkpt lat="42.1126331" lon="14.6504566"><ele>72.66666666666667</ele><time>2026-04-19T09:18:37.238Z</time></trkpt><trkpt lat="42.1125974" lon="14.6506977"><ele>75.0</ele><time>2026-04-19T09:18:38.21Z</time></trkpt><trkpt lat="42.1125675" lon="14.6509027"><ele>75.0</ele><time>2026-04-19T09:18:39.233Z</time></trkpt><trkpt lat="42.1125407" lon="14.6510604"><ele>75.0</ele><time>2026-04-19T09:18:40.228Z</time></trkpt><trkpt lat="42.1125294" lon="14.6511766"><ele>75.0</ele><time>2026-04-19T09:18:41.239Z</time></trkpt><trkpt lat="42.1125339" lon="14.6512889"><ele>75.0</ele><time>2026-04-19T09:18:43.207Z</time></trkpt><trkpt lat="42.1125822" lon="14.6513572"><ele>75.0</ele><time>2026-04-19T09:19:02.235Z</time></trkpt><trkpt lat="42.1126431" lon="14.6513926"><ele>75.0</ele><time>2026-04-19T09:19:29.255Z</time></trkpt><trkpt lat="42.1127276" lon="14.6514066"><ele>77.0</ele><time>2026-04-19T09:19:35.234Z</time></trkpt><trkpt lat="42.1128396" lon="14.6514255"><ele>79.0</ele><time>2026-04-19T09:19:36.249Z</time></trkpt><trkpt lat="42.1129685" lon="14.6514578"><ele>81.0</ele><time>2026-04-19T09:19:37.24Z</time></trkpt><trkpt lat="42.1130894" lon="14.651489"><ele>83.0</ele><time>2026-04-19T09:19:38.24Z</time></trkpt><trkpt lat="42.113213" lon="14.6515443"><ele>80.33333333333334</ele><time>2026-04-19T09:19:39.258Z</time></trkpt><trkpt lat="42.1133699" lon="14.6516004"><ele>77.66666666666667</ele><time>2026-04-19T09:19:40.237Z</time></trkpt><trkpt lat="42.1135434" lon="14.6516449"><ele>75.0</ele><time>2026-04-19T09:19:41.238Z</time></trkpt><trkpt lat="42.1137116" lon="14.6516698"><ele>75.0</ele><time>2026-04-19T09:19:42.25Z</time></trkpt><trkpt lat="42.1138647" lon="14.651691"><ele>75.0</ele><time>2026-04-19T09:19:43.261Z</time></trkpt><trkpt lat="42.1140132" lon="14.6517079"><ele>75.0</ele><time>2026-04-19T09:19:44.241Z</time></trkpt><trkpt lat="42.1141607" lon="14.6517351"><ele>74.0</ele><time>2026-04-19T09:19:45.229Z</time></trkpt><trkpt lat="42.1143154" lon="14.6517731"><ele>73.0</ele><time>2026-04-19T09:19:46.192Z</time></trkpt><trkpt lat="42.1144751" lon="14.6518076"><ele>72.0</ele><time>2026-04-19T09:19:47.22Z</time></trkpt><trkpt lat="42.1146303" lon="14.6518391"><ele>72.0</ele><time>2026-04-19T09:19:48.231Z</time></trkpt><trkpt lat="42.114775" lon="14.6518681"><ele>72.0</ele><time>2026-04-19T09:19:49.234Z</time></trkpt><trkpt lat="42.114916" lon="14.6519005"><ele>72.0</ele><time>2026-04-19T09:19:50.233Z</time></trkpt><trkpt lat="42.1150633" lon="14.6519258"><ele>72.0</ele><time>2026-04-19T09:19:51.196Z</time></trkpt><trkpt lat="42.1152028" lon="14.6519462"><ele>72.0</ele><time>2026-04-19T09:19:52.244Z</time></trkpt><trkpt lat="42.1153323" lon="14.6519699"><ele>72.0</ele><time>2026-04-19T09:19:53.229Z</time></trkpt><trkpt lat="42.1154494" lon="14.6519993"><ele>72.0</ele><time>2026-04-19T09:19:54.266Z</time></trkpt><trkpt lat="42.1155621" lon="14.6520235"><ele>72.0</ele><time>2026-04-19T09:19:55.244Z</time></trkpt><trkpt lat="42.1156884" lon="14.652038"><ele>71.25</ele><time>2026-04-19T09:19:56.243Z</time></trkpt><trkpt lat="42.1158217" lon="14.6520549"><ele>70.5</ele><time>2026-04-19T09:19:57.252Z</time></trkpt><trkpt lat="42.1159524" lon="14.6520785"><ele>69.75</ele><time>2026-04-19T09:19:58.229Z</time></trkpt><trkpt lat="42.1160878" lon="14.6521131"><ele>69.0</ele><time>2026-04-19T09:19:59.243Z</time></trkpt><trkpt lat="42.116231" lon="14.6521505"><ele>69.0</ele><time>2026-04-19T09:20:00.243Z</time></trkpt><trkpt lat="42.1163754" lon="14.6521835"><ele>69.0</ele><time>2026-04-19T09:20:01.237Z</time></trkpt><trkpt lat="42.1165141" lon="14.65221"><ele>69.0</ele><time>2026-04-19T09:20:02.238Z</time></trkpt><trkpt lat="42.1166659" lon="14.6522419"><ele>69.0</ele><time>2026-04-19T09:20:03.256Z</time></trkpt><trkpt lat="42.1168266" lon="14.6522749"><ele>68.75</ele><time>2026-04-19T09:20:04.244Z</time></trkpt><trkpt lat="42.1169805" lon="14.6523098"><ele>68.5</ele><time>2026-04-19T09:20:05.24Z</time></trkpt><trkpt lat="42.1171179" lon="14.6523378"><ele>68.25</ele><time>2026-04-19T09:20:06.188Z</time></trkpt><trkpt lat="42.1172457" lon="14.6523581"><ele>68.0</ele><time>2026-04-19T09:20:07.19Z</time></trkpt><trkpt lat="42.117372" lon="14.6523768"><ele>69.66666666666667</ele><time>2026-04-19T09:20:08.23Z</time></trkpt><trkpt lat="42.1175035" lon="14.6524018"><ele>71.33333333333333</ele><time>2026-04-19T09:20:09.21Z</time></trkpt><trkpt lat="42.1176595" lon="14.6524287"><ele>73.0</ele><time>2026-04-19T09:20:10.256Z</time></trkpt><trkpt lat="42.1178497" lon="14.6524613"><ele>73.0</ele><time>2026-04-19T09:20:11.256Z</time></trkpt><trkpt lat="42.1180357" lon="14.6525097"><ele>73.0</ele><time>2026-04-19T09:20:12.226Z</time></trkpt><trkpt lat="42.1181863" lon="14.6525555"><ele>73.0</ele><time>2026-04-19T09:20:13.244Z</time></trkpt><trkpt lat="42.1183117" lon="14.6525878"><ele>74.0</ele><time>2026-04-19T09:20:14.24Z</time></trkpt><trkpt lat="42.1183974" lon="14.6526108"><ele>75.0</ele><time>2026-04-19T09:20:15.227Z</time></trkpt><trkpt lat="42.1184616" lon="14.6526406"><ele>76.0</ele><time>2026-04-19T09:20:18.206Z</time></trkpt><trkpt lat="42.1184732" lon="14.6527447"><ele>77.0</ele><time>2026-04-19T09:20:20.239Z</time></trkpt><trkpt lat="42.1184631" lon="14.6528461"><ele>78.0</ele><time>2026-04-19T09:20:21.255Z</time></trkpt><trkpt lat="42.1184321" lon="14.6529722"><ele>79.0</ele><time>2026-04-19T09:20:22.216Z</time></trkpt><trkpt lat="42.1183923" lon="14.6531379"><ele>82.0</ele><time>2026-04-19T09:20:23.2Z</time></trkpt><trkpt lat="42.1183583" lon="14.6532932"><ele>85.0</ele><time>2026-04-19T09:20:24.205Z</time></trkpt><trkpt lat="42.1183281" lon="14.6534414"><ele>88.0</ele><time>2026-04-19T09:20:25.226Z</time></trkpt><trkpt lat="42.1183039" lon="14.653599"><ele>91.0</ele><time>2026-04-19T09:20:26.238Z</time></trkpt><trkpt lat="42.1182752" lon="14.6537641"><ele>92.6</ele><time>2026-04-19T09:20:27.229Z</time></trkpt><trkpt lat="42.1182435" lon="14.6539059"><ele>94.19999999999999</ele><time>2026-04-19T09:20:28.188Z</time></trkpt><trkpt lat="42.1182067" lon="14.6540025"><ele>95.80000000000001</ele><time>2026-04-19T09:20:29.239Z</time></trkpt><trkpt lat="42.1181553" lon="14.6541056"><ele>97.4</ele><time>2026-04-19T09:20:30.2Z</time></trkpt><trkpt lat="42.1180817" lon="14.6542062"><ele>99.0</ele><time>2026-04-19T09:20:31.248Z</time></trkpt><trkpt lat="42.1179965" lon="14.6543163"><ele>100.5</ele><time>2026-04-19T09:20:32.244Z</time></trkpt><trkpt lat="42.1179148" lon="14.6544395"><ele>102.0</ele><time>2026-04-19T09:20:33.231Z</time></trkpt><trkpt lat="42.1178169" lon="14.6545824"><ele>103.5</ele><time>2026-04-19T09:20:34.229Z</time></trkpt><trkpt lat="42.1176956" lon="14.6547544"><ele>105.0</ele><time>2026-04-19T09:20:35.249Z</time></trkpt><trkpt lat="42.1175801" lon="14.6549089"><ele>107.6</ele><time>2026-04-19T09:20:36.253Z</time></trkpt><trkpt lat="42.1174908" lon="14.6550264"><ele>110.2</ele><time>2026-04-19T09:20:37.226Z</time></trkpt><trkpt lat="42.117415" lon="14.6551501"><ele>112.80000000000001</ele><time>2026-04-19T09:20:38.192Z</time></trkpt><trkpt lat="42.1173424" lon="14.6552509"><ele>115.4</ele><time>2026-04-19T09:20:39.217Z</time></trkpt><trkpt lat="42.1172764" lon="14.6553321"><ele>118.0</ele><time>2026-04-19T09:20:40.235Z</time></trkpt><trkpt lat="42.117206" lon="14.6554065"><ele>122.25</ele><time>2026-04-19T09:20:41.221Z</time></trkpt><trkpt lat="42.1171243" lon="14.6554969"><ele>126.5</ele><time>2026-04-19T09:20:42.246Z</time></trkpt><trkpt lat="42.1170264" lon="14.6556138"><ele>130.75</ele><time>2026-04-19T09:20:43.224Z</time></trkpt><trkpt lat="42.1169203" lon="14.655712"><ele>135.0</ele><time>2026-04-19T09:20:44.202Z</time></trkpt><trkpt lat="42.116832" lon="14.6557637"><ele>135.0</ele><time>2026-04-19T09:20:45.233Z</time></trkpt><trkpt lat="42.116755" lon="14.6557918"><ele>135.0</ele><time>2026-04-19T09:20:46.226Z</time></trkpt><trkpt lat="42.1166709" lon="14.6557943"><ele>135.0</ele><time>2026-04-19T09:20:47.229Z</time></trkpt><trkpt lat="42.1165818" lon="14.6557892"><ele>135.0</ele><time>2026-04-19T09:20:48.233Z</time></trkpt><trkpt lat="42.1165056" lon="14.6557898"><ele>135.0</ele><time>2026-04-19T09:20:49.234Z</time></trkpt><trkpt lat="42.1164241" lon="14.6557964"><ele>135.0</ele><time>2026-04-19T09:20:50.224Z</time></trkpt><trkpt lat="42.1163105" lon="14.6558284"><ele>135.66666666666666</ele><time>2026-04-19T09:20:51.237Z</time></trkpt><trkpt lat="42.1161856" lon="14.6558688"><ele>136.33333333333334</ele><time>2026-04-19T09:20:52.196Z</time></trkpt><trkpt lat="42.1160864" lon="14.6559137"><ele>137.0</ele><time>2026-04-19T09:20:53.205Z</time></trkpt><trkpt lat="42.1160064" lon="14.655932"><ele>137.66666666666669</ele><time>2026-04-19T09:20:54.206Z</time></trkpt><trkpt lat="42.1159384" lon="14.655942"><ele>138.33333333333334</ele><time>2026-04-19T09:20:55.227Z</time></trkpt><trkpt lat="42.1158727" lon="14.6559444"><ele>139.0</ele><time>2026-04-19T09:20:56.213Z</time></trkpt><trkpt lat="42.115774" lon="14.6559392"><ele>139.0</ele><time>2026-04-19T09:20:58.218Z</time></trkpt><trkpt lat="42.1157101" lon="14.6559765"><ele>139.0</ele><time>2026-04-19T09:21:00.212Z</time></trkpt><trkpt lat="42.115744" lon="14.6561029"><ele>139.0</ele><time>2026-04-19T09:21:02.212Z</time></trkpt><trkpt lat="42.115796" lon="14.6562541"><ele>139.0</ele><time>2026-04-19T09:21:04.192Z</time></trkpt><trkpt lat="42.1158099" lon="14.6563513"><ele>139.0</ele><time>2026-04-19T09:21:05.19Z</time></trkpt><trkpt lat="42.1158374" lon="14.6564588"><ele>142.0</ele><time>2026-04-19T09:21:07.204Z</time></trkpt><trkpt lat="42.1157362" lon="14.6565432"><ele>145.0</ele><time>2026-04-19T09:21:10.222Z</time></trkpt><trkpt lat="42.1156581" lon="14.6565776"><ele>148.0</ele><time>2026-04-19T09:21:11.195Z</time></trkpt><trkpt lat="42.1155697" lon="14.6566539"><ele>151.0</ele><time>2026-04-19T09:21:12.2Z</time></trkpt><trkpt lat="42.1154837" lon="14.6567247"><ele>154.0</ele><time>2026-04-19T09:21:13.211Z</time></trkpt><trkpt lat="42.1153979" lon="14.6568069"><ele>154.0</ele><time>2026-04-19T09:21:14.243Z</time></trkpt><trkpt lat="42.1153303" lon="14.656902"><ele>154.0</ele><time>2026-04-19T09:21:15.224Z</time></trkpt><trkpt lat="42.1152812" lon="14.6570017"><ele>154.0</ele><time>2026-04-19T09:21:16.234Z</time></trkpt><trkpt lat="42.1152364" lon="14.657096"><ele>154.0</ele><time>2026-04-19T09:21:17.225Z</time></trkpt><trkpt lat="42.1151939" lon="14.657204"><ele>154.0</ele><time>2026-04-19T09:21:18.208Z</time></trkpt><trkpt lat="42.1151464" lon="14.6573476"><ele>157.83333333333334</ele><time>2026-04-19T09:21:19.263Z</time></trkpt><trkpt lat="42.11509" lon="14.6574851"><ele>161.66666666666669</ele><time>2026-04-19T09:21:20.232Z</time></trkpt><trkpt lat="42.1150494" lon="14.6575852"><ele>165.5</ele><time>2026-04-19T09:21:21.233Z</time></trkpt><trkpt lat="42.1150207" lon="14.6576634"><ele>169.33333333333334</ele><time>2026-04-19T09:21:22.245Z</time></trkpt><trkpt lat="42.1150004" lon="14.6577636"><ele>173.16666666666666</ele><time>2026-04-19T09:21:23.252Z</time></trkpt><trkpt lat="42.1149975" lon="14.6578859"><ele>177.0</ele><time>2026-04-19T09:21:24.242Z</time></trkpt><trkpt lat="42.1149906" lon="14.6579952"><ele>178.0</ele><time>2026-04-19T09:21:25.259Z</time></trkpt><trkpt lat="42.1149675" lon="14.6581194"><ele>179.0</ele><time>2026-04-19T09:21:27.246Z</time></trkpt><trkpt lat="42.1149996" lon="14.658308"><ele>180.0</ele><time>2026-04-19T09:21:29.244Z</time></trkpt><trkpt lat="42.1150497" lon="14.6584342"><ele>181.0</ele><time>2026-04-19T09:21:30.222Z</time></trkpt><trkpt lat="42.1151292" lon="14.6585925"><ele>180.75</ele><time>2026-04-19T09:21:31.19Z</time></trkpt><trkpt lat="42.1152114" lon="14.6587444"><ele>180.5</ele><time>2026-04-19T09:21:32.245Z</time></trkpt><trkpt lat="42.1152869" lon="14.6589049"><ele>180.25</ele><time>2026-04-19T09:21:33.242Z</time></trkpt><trkpt lat="42.1153709" lon="14.6590962"><ele>180.0</ele><time>2026-04-19T09:21:34.229Z</time></trkpt><trkpt lat="42.1154757" lon="14.6593265"><ele>180.33333333333334</ele><time>2026-04-19T09:21:35.237Z</time></trkpt><trkpt lat="42.1155881" lon="14.6595539"><ele>180.66666666666669</ele><time>2026-04-19T09:21:36.246Z</time></trkpt><trkpt lat="42.115688" lon="14.6597619"><ele>181.0</ele><time>2026-04-19T09:21:37.228Z</time></trkpt><trkpt lat="42.1157757" lon="14.65994"><ele>180.60000000000002</ele><time>2026-04-19T09:21:38.248Z</time></trkpt><trkpt lat="42.1158548" lon="14.6600875"><ele>180.2</ele><time>2026-04-19T09:21:39.225Z</time></trkpt><trkpt lat="42.1159211" lon="14.660208"><ele>179.8</ele><time>2026-04-19T09:21:40.234Z</time></trkpt><trkpt lat="42.1159781" lon="14.6602938"><ele>179.39999999999998</ele><time>2026-04-19T09:21:41.206Z</time></trkpt><trkpt lat="42.1160281" lon="14.6603463"><ele>179.0</ele><time>2026-04-19T09:21:42.237Z</time></trkpt><trkpt lat="42.1160759" lon="14.6604147"><ele>179.0</ele><time>2026-04-19T09:21:44.248Z</time></trkpt><trkpt lat="42.116011" lon="14.6604901"><ele>179.0</ele><time>2026-04-19T09:21:47.243Z</time></trkpt><trkpt lat="42.1158957" lon="14.6605277"><ele>179.0</ele><time>2026-04-19T09:21:49.231Z</time></trkpt><trkpt lat="42.1158248" lon="14.6605505"><ele>179.0</ele><time>2026-04-19T09:21:50.229Z</time></trkpt><trkpt lat="42.115762" lon="14.6605687"><ele>179.0</ele><time>2026-04-19T09:21:51.207Z</time></trkpt><trkpt lat="42.1156555" lon="14.6606013"><ele>179.6</ele><time>2026-04-19T09:21:53.25Z</time></trkpt><trkpt lat="42.1155685" lon="14.6606319"><ele>180.2</ele><time>2026-04-19T09:21:55.233Z</time></trkpt><trkpt lat="42.1154451" lon="14.6606624"><ele>180.79999999999998</ele><time>2026-04-19T09:21:57.225Z</time></trkpt><trkpt lat="42.1153601" lon="14.660678"><ele>181.39999999999998</ele><time>2026-04-19T09:21:58.225Z</time></trkpt><trkpt lat="42.1152652" lon="14.6606952"><ele>182.0</ele><time>2026-04-19T09:21:59.251Z</time></trkpt><trkpt lat="42.1151394" lon="14.6607311"><ele>182.0</ele><time>2026-04-19T09:22:00.237Z</time></trkpt><trkpt lat="42.114981" lon="14.6607853"><ele>182.0</ele><time>2026-04-19T09:22:01.238Z</time></trkpt><trkpt lat="42.1147973" lon="14.6608443"><ele>182.0</ele><time>2026-04-19T09:22:02.232Z</time></trkpt><trkpt lat="42.114588" lon="14.6609087"><ele>181.5</ele><time>2026-04-19T09:22:03.199Z</time></trkpt><trkpt lat="42.1143567" lon="14.6609799"><ele>181.0</ele><time>2026-04-19T09:22:04.202Z</time></trkpt><trkpt lat="42.1141257" lon="14.6610463"><ele>182.0</ele><time>2026-04-19T09:22:05.24Z</time></trkpt><trkpt lat="42.1139133" lon="14.6611105"><ele>183.0</ele><time>2026-04-19T09:22:06.226Z</time></trkpt><trkpt lat="42.1137117" lon="14.6611683"><ele>184.0</ele><time>2026-04-19T09:22:07.204Z</time></trkpt><trkpt lat="42.113522" lon="14.6612229"><ele>183.33333333333334</ele><time>2026-04-19T09:22:08.211Z</time></trkpt><trkpt lat="42.1133452" lon="14.6612733"><ele>182.66666666666666</ele><time>2026-04-19T09:22:09.228Z</time></trkpt><trkpt lat="42.1131839" lon="14.6613148"><ele>182.0</ele><time>2026-04-19T09:22:10.237Z</time></trkpt><trkpt lat="42.113026" lon="14.6613577"><ele>182.0</ele><time>2026-04-19T09:22:11.253Z</time></trkpt><trkpt lat="42.1128599" lon="14.6614019"><ele>182.0</ele><time>2026-04-19T09:22:12.226Z</time></trkpt><trkpt lat="42.11269" lon="14.6614503"><ele>182.0</ele><time>2026-04-19T09:22:13.226Z</time></trkpt><trkpt lat="42.1125402" lon="14.6614956"><ele>182.0</ele><time>2026-04-19T09:22:14.237Z</time></trkpt><trkpt lat="42.1124162" lon="14.6615327"><ele>182.0</ele><time>2026-04-19T09:22:15.234Z</time></trkpt><trkpt lat="42.1123113" lon="14.6615718"><ele>182.0</ele><time>2026-04-19T09:22:16.212Z</time></trkpt><trkpt lat="42.1122163" lon="14.6616378"><ele>182.0</ele><time>2026-04-19T09:22:17.253Z</time></trkpt><trkpt lat="42.1121128" lon="14.6617346"><ele>182.25</ele><time>2026-04-19T09:22:18.195Z</time></trkpt><trkpt lat="42.11201" lon="14.6618492"><ele>182.5</ele><time>2026-04-19T09:22:19.229Z</time></trkpt><trkpt lat="42.1119145" lon="14.6619549"><ele>182.75</ele><time>2026-04-19T09:22:20.232Z</time></trkpt><trkpt lat="42.1118378" lon="14.6620583"><ele>183.0</ele><time>2026-04-19T09:22:21.228Z</time></trkpt><trkpt lat="42.1117819" lon="14.6621741"><ele>183.0</ele><time>2026-04-19T09:22:22.225Z</time></trkpt><trkpt lat="42.11174" lon="14.6623274"><ele>183.0</ele><time>2026-04-19T09:22:23.248Z</time></trkpt><trkpt lat="42.1117005" lon="14.6625373"><ele>183.0</ele><time>2026-04-19T09:22:24.24Z</time></trkpt><trkpt lat="42.1116745" lon="14.6627637"><ele>183.33333333333334</ele><time>2026-04-19T09:22:25.239Z</time></trkpt><trkpt lat="42.1116621" lon="14.663002"><ele>183.66666666666669</ele><time>2026-04-19T09:22:26.223Z</time></trkpt><trkpt lat="42.1116607" lon="14.6632368"><ele>184.0</ele><time>2026-04-19T09:22:27.236Z</time></trkpt><trkpt lat="42.1116491" lon="14.6634559"><ele>183.5</ele><time>2026-04-19T09:22:28.234Z</time></trkpt><trkpt lat="42.1116371" lon="14.663661"><ele>183.0</ele><time>2026-04-19T09:22:29.256Z</time></trkpt><trkpt lat="42.1116288" lon="14.6638494"><ele>182.5</ele><time>2026-04-19T09:22:30.222Z</time></trkpt><trkpt lat="42.1116203" lon="14.6640329"><ele>182.0</ele><time>2026-04-19T09:22:31.241Z</time></trkpt><trkpt lat="42.1116166" lon="14.6642075"><ele>182.0</ele><time>2026-04-19T09:22:32.231Z</time></trkpt><trkpt lat="42.1116026" lon="14.6643683"><ele>182.0</ele><time>2026-04-19T09:22:33.245Z</time></trkpt><trkpt lat="42.1115912" lon="14.6645235"><ele>182.0</ele><time>2026-04-19T09:22:34.238Z</time></trkpt><trkpt lat="42.1115798" lon="14.6646739"><ele>182.0</ele><time>2026-04-19T09:22:35.232Z</time></trkpt><trkpt lat="42.1115535" lon="14.6648055"><ele>182.0</ele><time>2026-04-19T09:22:36.203Z</time></trkpt><trkpt lat="42.1115123" lon="14.6649427"><ele>181.8</ele><time>2026-04-19T09:22:37.235Z</time></trkpt><trkpt lat="42.11146" lon="14.6650765"><ele>181.6</ele><time>2026-04-19T09:22:38.216Z</time></trkpt><trkpt lat="42.1113995" lon="14.6652149"><ele>181.4</ele><time>2026-04-19T09:22:39.193Z</time></trkpt><trkpt lat="42.111339" lon="14.6653474"><ele>181.20000000000002</ele><time>2026-04-19T09:22:40.239Z</time></trkpt><trkpt lat="42.1112822" lon="14.6654618"><ele>181.0</ele><time>2026-04-19T09:22:41.251Z</time></trkpt><trkpt lat="42.1112269" lon="14.6655602"><ele>180.0</ele><time>2026-04-19T09:22:42.242Z</time></trkpt><trkpt lat="42.1111765" lon="14.6656452"><ele>179.0</ele><time>2026-04-19T09:22:43.246Z</time></trkpt><trkpt lat="42.1111294" lon="14.6657079"><ele>178.0</ele><time>2026-04-19T09:22:44.24Z</time></trkpt><trkpt lat="42.1110749" lon="14.6657868"><ele>177.0</ele><time>2026-04-19T09:22:46.236Z</time></trkpt><trkpt lat="42.1111319" lon="14.6659096"><ele>176.0</ele><time>2026-04-19T09:22:49.242Z</time></trkpt><trkpt lat="42.1112033" lon="14.6659948"><ele>175.0</ele><time>2026-04-19T09:22:50.221Z</time></trkpt><trkpt lat="42.1112943" lon="14.6660836"><ele>174.0</ele><time>2026-04-19T09:22:51.228Z</time></trkpt><trkpt lat="42.1113737" lon="14.6661643"><ele>173.0</ele><time>2026-04-19T09:22:52.212Z</time></trkpt><trkpt lat="42.1114344" lon="14.6662378"><ele>172.0</ele><time>2026-04-19T09:22:53.247Z</time></trkpt><trkpt lat="42.1114939" lon="14.6663088"><ele>171.0</ele><time>2026-04-19T09:22:54.241Z</time></trkpt><trkpt lat="42.1115504" lon="14.6663725"><ele>170.0</ele><time>2026-04-19T09:22:55.244Z</time></trkpt><trkpt lat="42.1115985" lon="14.6664589"><ele>169.0</ele><time>2026-04-19T09:22:56.234Z</time></trkpt><trkpt lat="42.1116424" lon="14.6665385"><ele>169.0</ele><time>2026-04-19T09:22:57.231Z</time></trkpt><trkpt lat="42.1117138" lon="14.6666651"><ele>169.0</ele><time>2026-04-19T09:22:59.22Z</time></trkpt><trkpt lat="42.1117662" lon="14.6667226"><ele>169.0</ele><time>2026-04-19T09:23:00.225Z</time></trkpt><trkpt lat="42.1118669" lon="14.6667493"><ele>169.0</ele><time>2026-04-19T09:23:01.206Z</time></trkpt><trkpt lat="42.1120208" lon="14.6667532"><ele>169.0</ele><time>2026-04-19T09:23:02.21Z</time></trkpt><trkpt lat="42.1121959" lon="14.6667672"><ele>169.0</ele><time>2026-04-19T09:23:03.224Z</time></trkpt><trkpt lat="42.112361" lon="14.6667803"><ele>169.0</ele><time>2026-04-19T09:23:04.186Z</time></trkpt><trkpt lat="42.1124895" lon="14.6668032"><ele>169.0</ele><time>2026-04-19T09:23:05.202Z</time></trkpt><trkpt lat="42.1125728" lon="14.6668123"><ele>169.0</ele><time>2026-04-19T09:23:06.199Z</time></trkpt><trkpt lat="42.1126458" lon="14.6668367"><ele>168.79999999999998</ele><time>2026-04-19T09:23:07.205Z</time></trkpt><trkpt lat="42.1127101" lon="14.6668568"><ele>168.6</ele><time>2026-04-19T09:23:08.206Z</time></trkpt><trkpt lat="42.1128488" lon="14.6668815"><ele>168.4</ele><time>2026-04-19T09:23:10.211Z</time></trkpt><trkpt lat="42.1129347" lon="14.6668944"><ele>168.2</ele><time>2026-04-19T09:23:11.213Z</time></trkpt><trkpt lat="42.1130225" lon="14.6669074"><ele>168.0</ele><time>2026-04-19T09:23:12.193Z</time></trkpt><trkpt lat="42.1131113" lon="14.6669142"><ele>168.0</ele><time>2026-04-19T09:23:13.22Z</time></trkpt><trkpt lat="42.1132138" lon="14.6669288"><ele>168.0</ele><time>2026-04-19T09:23:14.222Z</time></trkpt><trkpt lat="42.1133293" lon="14.6669434"><ele>168.0</ele><time>2026-04-19T09:23:15.204Z</time></trkpt><trkpt lat="42.113439" lon="14.6669621"><ele>168.0</ele><time>2026-04-19T09:23:16.221Z</time></trkpt><trkpt lat="42.113544" lon="14.6669671"><ele>168.0</ele><time>2026-04-19T09:23:17.21Z</time></trkpt><trkpt lat="42.1136424" lon="14.6669778"><ele>164.8</ele><time>2026-04-19T09:23:18.214Z</time></trkpt><trkpt lat="42.113743" lon="14.6669913"><ele>161.60000000000002</ele><time>2026-04-19T09:23:19.206Z</time></trkpt><trkpt lat="42.113844" lon="14.6670066"><ele>158.39999999999998</ele><time>2026-04-19T09:23:20.197Z</time></trkpt><trkpt lat="42.1139426" lon="14.667029"><ele>155.2</ele><time>2026-04-19T09:23:21.201Z</time></trkpt><trkpt lat="42.1140496" lon="14.6670386"><ele>152.0</ele><time>2026-04-19T09:23:22.209Z</time></trkpt><trkpt lat="42.1141635" lon="14.6670428"><ele>150.4</ele><time>2026-04-19T09:23:23.207Z</time></trkpt><trkpt lat="42.1142671" lon="14.6670511"><ele>148.79999999999998</ele><time>2026-04-19T09:23:24.238Z</time></trkpt><trkpt lat="42.1143699" lon="14.6670599"><ele>147.2</ele><time>2026-04-19T09:23:25.233Z</time></trkpt><trkpt lat="42.1144626" lon="14.6670686"><ele>145.6</ele><time>2026-04-19T09:23:26.237Z</time></trkpt><trkpt lat="42.1145499" lon="14.6670827"><ele>144.0</ele><time>2026-04-19T09:23:27.255Z</time></trkpt><trkpt lat="42.1146455" lon="14.6670962"><ele>144.0</ele><time>2026-04-19T09:23:28.228Z</time></trkpt><trkpt lat="42.1147636" lon="14.6671051"><ele>144.0</ele><time>2026-04-19T09:23:29.225Z</time></trkpt><trkpt lat="42.1149037" lon="14.6671032"><ele>144.0</ele><time>2026-04-19T09:23:30.219Z</time></trkpt><trkpt lat="42.115029" lon="14.6670925"><ele>144.0</ele><time>2026-04-19T09:23:31.251Z</time></trkpt><trkpt lat="42.1151322" lon="14.6671033"><ele>142.5</ele><time>2026-04-19T09:23:32.234Z</time></trkpt><trkpt lat="42.1152193" lon="14.667126"><ele>141.0</ele><time>2026-04-19T09:23:33.26Z</time></trkpt><trkpt lat="42.1152863" lon="14.6671507"><ele>139.5</ele><time>2026-04-19T09:23:34.238Z</time></trkpt><trkpt lat="42.115348" lon="14.667172"><ele>138.0</ele><time>2026-04-19T09:23:36.227Z</time></trkpt><trkpt lat="42.1154342" lon="14.6672174"><ele>136.5</ele><time>2026-04-19T09:23:39.218Z</time></trkpt><trkpt lat="42.1155233" lon="14.6672425"><ele>135.0</ele><time>2026-04-19T09:23:41.198Z</time></trkpt><trkpt lat="42.1156124" lon="14.6673085"><ele>135.0</ele><time>2026-04-19T09:23:43.233Z</time></trkpt><trkpt lat="42.1156946" lon="14.6673981"><ele>135.0</ele><time>2026-04-19T09:23:45.236Z</time></trkpt><trkpt lat="42.1157757" lon="14.6674897"><ele>135.0</ele><time>2026-04-19T09:23:47.229Z</time></trkpt><trkpt lat="42.1158797" lon="14.6675539"><ele>135.0</ele><time>2026-04-19T09:23:49.236Z</time></trkpt><trkpt lat="42.1159869" lon="14.6675854"><ele>135.0</ele><time>2026-04-19T09:23:51.232Z</time></trkpt><trkpt lat="42.1160954" lon="14.6676266"><ele>132.6</ele><time>2026-04-19T09:23:53.253Z</time></trkpt><trkpt lat="42.1161902" lon="14.6677076"><ele>130.2</ele><time>2026-04-19T09:23:55.24Z</time></trkpt><trkpt lat="42.1162731" lon="14.6678008"><ele>127.80000000000001</ele><time>2026-04-19T09:23:57.207Z</time></trkpt><trkpt lat="42.1163265" lon="14.6678464"><ele>125.4</ele><time>2026-04-19T09:23:59.212Z</time></trkpt><trkpt lat="42.1163641" lon="14.6679754"><ele>123.0</ele><time>2026-04-19T09:24:01.221Z</time></trkpt><trkpt lat="42.1163978" lon="14.6680863"><ele>122.16666666666667</ele><time>2026-04-19T09:24:02.205Z</time></trkpt><trkpt lat="42.1164291" lon="14.668178"><ele>121.33333333333334</ele><time>2026-04-19T09:24:03.209Z</time></trkpt><trkpt lat="42.116451" lon="14.6682694"><ele>120.5</ele><time>2026-04-19T09:24:04.219Z</time></trkpt><trkpt lat="42.116477" lon="14.6683538"><ele>119.66666666666667</ele><time>2026-04-19T09:24:05.236Z</time></trkpt><trkpt lat="42.1165054" lon="14.6684849"><ele>118.83333333333334</ele><time>2026-04-19T09:24:07.238Z</time></trkpt><trkpt lat="42.1165507" lon="14.6685559"><ele>118.0</ele><time>2026-04-19T09:24:09.221Z</time></trkpt><trkpt lat="42.1166178" lon="14.668586"><ele>116.60000000000001</ele><time>2026-04-19T09:24:11.249Z</time></trkpt><trkpt lat="42.1167019" lon="14.668544"><ele>115.20000000000002</ele><time>2026-04-19T09:24:12.226Z</time></trkpt><trkpt lat="42.1167936" lon="14.6684836"><ele>113.8</ele><time>2026-04-19T09:24:13.224Z</time></trkpt><trkpt lat="42.1168906" lon="14.6684115"><ele>112.4</ele><time>2026-04-19T09:24:14.208Z</time></trkpt><trkpt lat="42.1169917" lon="14.6683414"><ele>111.0</ele><time>2026-04-19T09:24:15.206Z</time></trkpt><trkpt lat="42.1170622" lon="14.6682889"><ele>111.0</ele><time>2026-04-19T09:24:16.194Z</time></trkpt><trkpt lat="42.1171608" lon="14.6681957"><ele>111.0</ele><time>2026-04-19T09:24:18.226Z</time></trkpt><trkpt lat="42.1172429" lon="14.668104"><ele>111.0</ele><time>2026-04-19T09:24:20.242Z</time></trkpt><trkpt lat="42.117289" lon="14.6680358"><ele>111.0</ele><time>2026-04-19T09:24:23.243Z</time></trkpt><trkpt lat="42.1173519" lon="14.6679893"><ele>111.0</ele><time>2026-04-19T09:24:26.199Z</time></trkpt><trkpt lat="42.1174171" lon="14.6679441"><ele>111.0</ele><time>2026-04-19T09:24:28.19Z</time></trkpt><trkpt lat="42.117502" lon="14.6678509"><ele>110.0</ele><time>2026-04-19T09:24:30.199Z</time></trkpt><trkpt lat="42.1175856" lon="14.667797"><ele>109.0</ele><time>2026-04-19T09:24:31.206Z</time></trkpt><trkpt lat="42.1176968" lon="14.6677375"><ele>108.0</ele><time>2026-04-19T09:24:32.195Z</time></trkpt><trkpt lat="42.1178264" lon="14.6676726"><ele>107.0</ele><time>2026-04-19T09:24:33.228Z</time></trkpt><trkpt lat="42.1179698" lon="14.6675991"><ele>107.0</ele><time>2026-04-19T09:24:34.196Z</time></trkpt><trkpt lat="42.1181147" lon="14.6675299"><ele>107.0</ele><time>2026-04-19T09:24:35.257Z</time></trkpt><trkpt lat="42.1182226" lon="14.6674874"><ele>107.0</ele><time>2026-04-19T09:24:36.194Z</time></trkpt><trkpt lat="42.1182883" lon="14.6674649"><ele>107.0</ele><time>2026-04-19T09:24:37.249Z</time></trkpt><trkpt lat="42.1183967" lon="14.6674106"><ele>107.71428571428572</ele><time>2026-04-19T09:24:39.228Z</time></trkpt><trkpt lat="42.1184556" lon="14.6673645"><ele>108.42857142857143</ele><time>2026-04-19T09:24:40.227Z</time></trkpt><trkpt lat="42.1185273" lon="14.6673163"><ele>109.14285714285714</ele><time>2026-04-19T09:24:41.242Z</time></trkpt><trkpt lat="42.1185932" lon="14.6672745"><ele>109.85714285714286</ele><time>2026-04-19T09:24:42.26Z</time></trkpt><trkpt lat="42.1186611" lon="14.6672425"><ele>110.57142857142857</ele><time>2026-04-19T09:24:43.243Z</time></trkpt><trkpt lat="42.1187263" lon="14.6672168"><ele>111.28571428571429</ele><time>2026-04-19T09:24:44.255Z</time></trkpt><trkpt lat="42.1187917" lon="14.6671856"><ele>112.0</ele><time>2026-04-19T09:24:45.232Z</time></trkpt><trkpt lat="42.1189011" lon="14.6671468"><ele>112.0</ele><time>2026-04-19T09:24:47.229Z</time></trkpt><trkpt lat="42.1189947" lon="14.6670961"><ele>111.99999999999999</ele><time>2026-04-19T09:24:49.242Z</time></trkpt><trkpt lat="42.1190724" lon="14.6670364"><ele>111.99999999999999</ele><time>2026-04-19T09:24:51.246Z</time></trkpt><trkpt lat="42.1191628" lon="14.6669634"><ele>112.0</ele><time>2026-04-19T09:24:53.238Z</time></trkpt><trkpt lat="42.1192384" lon="14.6669031"><ele>112.0</ele><time>2026-04-19T09:24:54.234Z</time></trkpt><trkpt lat="42.1193105" lon="14.6668409"><ele>112.8</ele><time>2026-04-19T09:24:55.218Z</time></trkpt><trkpt lat="42.1194121" lon="14.666775"><ele>113.6</ele><time>2026-04-19T09:24:57.192Z</time></trkpt><trkpt lat="42.1195124" lon="14.6667211"><ele>114.39999999999999</ele><time>2026-04-19T09:24:59.216Z</time></trkpt><trkpt lat="42.1196037" lon="14.6666724"><ele>115.19999999999999</ele><time>2026-04-19T09:25:01.21Z</time></trkpt><trkpt lat="42.1196754" lon="14.6666088"><ele>116.0</ele><time>2026-04-19T09:25:03.239Z</time></trkpt><trkpt lat="42.1197386" lon="14.6667015"><ele>116.0</ele><time>2026-04-19T09:25:05.22Z</time></trkpt><trkpt lat="42.1197907" lon="14.6668616"><ele>116.0</ele><time>2026-04-19T09:25:06.242Z</time></trkpt><trkpt lat="42.1198587" lon="14.667052"><ele>116.0</ele><time>2026-04-19T09:25:07.224Z</time></trkpt><trkpt lat="42.1199127" lon="14.6672113"><ele>116.0</ele><time>2026-04-19T09:25:08.228Z</time></trkpt><trkpt lat="42.1199521" lon="14.6673642"><ele>112.4</ele><time>2026-04-19T09:25:09.219Z</time></trkpt><trkpt lat="42.119982" lon="14.6674975"><ele>108.8</ele><time>2026-04-19T09:25:10.245Z</time></trkpt><trkpt lat="42.1200098" lon="14.6676264"><ele>105.2</ele><time>2026-04-19T09:25:11.264Z</time></trkpt><trkpt lat="42.1200274" lon="14.6677597"><ele>101.60000000000001</ele><time>2026-04-19T09:25:12.236Z</time></trkpt><trkpt lat="42.1200412" lon="14.6678957"><ele>98.0</ele><time>2026-04-19T09:25:13.242Z</time></trkpt><trkpt lat="42.1200584" lon="14.6680232"><ele>96.2</ele><time>2026-04-19T09:25:14.25Z</time></trkpt><trkpt lat="42.1200806" lon="14.6681528"><ele>94.4</ele><time>2026-04-19T09:25:15.256Z</time></trkpt><trkpt lat="42.1201048" lon="14.6683084"><ele>92.60000000000001</ele><time>2026-04-19T09:25:16.191Z</time></trkpt><trkpt lat="42.1201246" lon="14.6684721"><ele>90.80000000000001</ele><time>2026-04-19T09:25:17.189Z</time></trkpt><trkpt lat="42.1201349" lon="14.6685992"><ele>89.0</ele><time>2026-04-19T09:25:18.233Z</time></trkpt><trkpt lat="42.1201402" lon="14.6686872"><ele>86.75</ele><time>2026-04-19T09:25:19.228Z</time></trkpt><trkpt lat="42.1201626" lon="14.668841"><ele>84.5</ele><time>2026-04-19T09:25:21.198Z</time></trkpt><trkpt lat="42.1202226" lon="14.6690033"><ele>82.25</ele><time>2026-04-19T09:25:23.246Z</time></trkpt><trkpt lat="42.1202651" lon="14.6691127"><ele>80.0</ele><time>2026-04-19T09:25:24.196Z</time></trkpt><trkpt lat="42.1202895" lon="14.6692572"><ele>80.0</ele><time>2026-04-19T09:25:25.204Z</time></trkpt><trkpt lat="42.1203208" lon="14.66938"><ele>80.0</ele><time>2026-04-19T09:25:26.241Z</time></trkpt><trkpt lat="42.1203359" lon="14.669509"><ele>80.0</ele><time>2026-04-19T09:25:28.179Z</time></trkpt><trkpt lat="42.1203904" lon="14.6695627"><ele>80.0</ele><time>2026-04-19T09:25:35.201Z</time></trkpt><trkpt lat="42.1205519" lon="14.6695447"><ele>80.0</ele><time>2026-04-19T09:25:37.243Z</time></trkpt><trkpt lat="42.1206752" lon="14.6695388"><ele>79.33333333333334</ele><time>2026-04-19T09:25:38.231Z</time></trkpt><trkpt lat="42.1208384" lon="14.6695326"><ele>78.66666666666667</ele><time>2026-04-19T09:25:39.238Z</time></trkpt><trkpt lat="42.1210488" lon="14.6694981"><ele>78.0</ele><time>2026-04-19T09:25:40.242Z</time></trkpt><trkpt lat="42.1212063" lon="14.6694779"><ele>78.0</ele><time>2026-04-19T09:25:41.242Z</time></trkpt><trkpt lat="42.121319" lon="14.6694456"><ele>78.0</ele><time>2026-04-19T09:25:42.229Z</time></trkpt><trkpt lat="42.1214181" lon="14.6694137"><ele>78.0</ele><time>2026-04-19T09:25:43.227Z</time></trkpt><trkpt lat="42.1215117" lon="14.6693682"><ele>78.0</ele><time>2026-04-19T09:25:44.221Z</time></trkpt><trkpt lat="42.1216047" lon="14.6692927"><ele>78.0</ele><time>2026-04-19T09:25:45.234Z</time></trkpt><trkpt lat="42.1216757" lon="14.6691844"><ele>77.0</ele><time>2026-04-19T09:25:46.241Z</time></trkpt><trkpt lat="42.1217051" lon="14.6690531"><ele>76.0</ele><time>2026-04-19T09:25:47.2Z</time></trkpt><trkpt lat="42.1217301" lon="14.6688501"><ele>75.0</ele><time>2026-04-19T09:25:48.209Z</time></trkpt><trkpt lat="42.1217425" lon="14.6686248"><ele>74.0</ele><time>2026-04-19T09:25:49.228Z</time></trkpt><trkpt lat="42.1217604" lon="14.6683565"><ele>74.0</ele><time>2026-04-19T09:25:50.233Z</time></trkpt><trkpt lat="42.1217824" lon="14.6681173"><ele>74.0</ele><time>2026-04-19T09:25:51.198Z</time></trkpt><trkpt lat="42.1217983" lon="14.667932"><ele>74.0</ele><time>2026-04-19T09:25:52.241Z</time></trkpt><trkpt lat="42.1218259" lon="14.6677903"><ele>74.0</ele><time>2026-04-19T09:25:53.235Z</time></trkpt><trkpt lat="42.1218804" lon="14.6677016"><ele>75.75</ele><time>2026-04-19T09:25:54.234Z</time></trkpt><trkpt lat="42.1219725" lon="14.6675945"><ele>77.5</ele><time>2026-04-19T09:25:55.237Z</time></trkpt><trkpt lat="42.1220713" lon="14.6674845"><ele>79.25</ele><time>2026-04-19T09:25:56.229Z</time></trkpt><trkpt lat="42.1221688" lon="14.6674056"><ele>81.0</ele><time>2026-04-19T09:25:57.252Z</time></trkpt><trkpt lat="42.1223043" lon="14.6673215"><ele>79.0</ele><time>2026-04-19T09:25:58.233Z</time></trkpt><trkpt lat="42.1224631" lon="14.667213"><ele>77.0</ele><time>2026-04-19T09:25:59.263Z</time></trkpt><trkpt lat="42.1226351" lon="14.6671023"><ele>75.0</ele><time>2026-04-19T09:26:00.203Z</time></trkpt><trkpt lat="42.1227972" lon="14.6669946"><ele>75.5</ele><time>2026-04-19T09:26:01.244Z</time></trkpt><trkpt lat="42.1229337" lon="14.6669104"><ele>76.0</ele><time>2026-04-19T09:26:02.224Z</time></trkpt><trkpt lat="42.123048" lon="14.6668375"><ele>76.5</ele><time>2026-04-19T09:26:03.217Z</time></trkpt><trkpt lat="42.123136" lon="14.6667729"><ele>77.0</ele><time>2026-04-19T09:26:04.209Z</time></trkpt><trkpt lat="42.1232158" lon="14.6667103"><ele>75.5</ele><time>2026-04-19T09:26:05.206Z</time></trkpt><trkpt lat="42.1233059" lon="14.6666315"><ele>74.0</ele><time>2026-04-19T09:26:06.239Z</time></trkpt><trkpt lat="42.1234155" lon="14.6665177"><ele>72.5</ele><time>2026-04-19T09:26:07.206Z</time></trkpt><trkpt lat="42.1235128" lon="14.6663809"><ele>71.0</ele><time>2026-04-19T09:26:08.219Z</time></trkpt><trkpt lat="42.1236007" lon="14.6662129"><ele>72.0</ele><time>2026-04-19T09:26:09.23Z</time></trkpt><trkpt lat="42.1236924" lon="14.6660402"><ele>73.0</ele><time>2026-04-19T09:26:10.199Z</time></trkpt><trkpt lat="42.1237832" lon="14.6658672"><ele>74.0</ele><time>2026-04-19T09:26:11.235Z</time></trkpt><trkpt lat="42.1238922" lon="14.6656727"><ele>74.0</ele><time>2026-04-19T09:26:12.235Z</time></trkpt><trkpt lat="42.1240179" lon="14.6654624"><ele>74.0</ele><time>2026-04-19T09:26:13.203Z</time></trkpt><trkpt lat="42.1242117" lon="14.6651504"><ele>73.25</ele><time>2026-04-19T09:26:15.243Z</time></trkpt><trkpt lat="42.1242829" lon="14.665036"><ele>72.5</ele><time>2026-04-19T09:26:16.226Z</time></trkpt><trkpt lat="42.1243876" lon="14.6649344"><ele>71.75</ele><time>2026-04-19T09:26:17.237Z</time></trkpt><trkpt lat="42.1245207" lon="14.6648395"><ele>71.0</ele><time>2026-04-19T09:26:18.233Z</time></trkpt><trkpt lat="42.1246815" lon="14.6647366"><ele>71.0</ele><time>2026-04-19T09:26:19.253Z</time></trkpt><trkpt lat="42.1248489" lon="14.6646497"><ele>71.0</ele><time>2026-04-19T09:26:20.235Z</time></trkpt><trkpt lat="42.1250138" lon="14.6645835"><ele>71.0</ele><time>2026-04-19T09:26:21.226Z</time></trkpt><trkpt lat="42.1251716" lon="14.6645453"><ele>70.5</ele><time>2026-04-19T09:26:22.233Z</time></trkpt><trkpt lat="42.1253142" lon="14.6644968"><ele>70.0</ele><time>2026-04-19T09:26:23.215Z</time></trkpt><trkpt lat="42.1254491" lon="14.664433"><ele>69.5</ele><time>2026-04-19T09:26:24.217Z</time></trkpt><trkpt lat="42.1255768" lon="14.6643693"><ele>69.0</ele><time>2026-04-19T09:26:25.241Z</time></trkpt><trkpt lat="42.1256955" lon="14.6643139"><ele>68.4</ele><time>2026-04-19T09:26:26.195Z</time></trkpt><trkpt lat="42.1257994" lon="14.66426"><ele>67.80000000000001</ele><time>2026-04-19T09:26:27.201Z</time></trkpt><trkpt lat="42.125898" lon="14.664214"><ele>67.19999999999999</ele><time>2026-04-19T09:26:28.228Z</time></trkpt><trkpt lat="42.1259892" lon="14.6641847"><ele>66.6</ele><time>2026-04-19T09:26:29.24Z</time></trkpt><trkpt lat="42.1260752" lon="14.6641771"><ele>66.0</ele><time>2026-04-19T09:26:30.224Z</time></trkpt><trkpt lat="42.1261467" lon="14.6641692"><ele>66.0</ele><time>2026-04-19T09:26:31.196Z</time></trkpt><trkpt lat="42.1262574" lon="14.6641474"><ele>66.0</ele><time>2026-04-19T09:26:33.251Z</time></trkpt><trkpt lat="42.1263435" lon="14.6641335"><ele>66.0</ele><time>2026-04-19T09:26:35.281Z</time></trkpt><trkpt lat="42.1264159" lon="14.6641281"><ele>66.0</ele><time>2026-04-19T09:26:37.21Z</time></trkpt><trkpt lat="42.126506" lon="14.6641232"><ele>66.0</ele><time>2026-04-19T09:26:39.24Z</time></trkpt><trkpt lat="42.1265715" lon="14.6641198"><ele>66.0</ele><time>2026-04-19T09:26:40.226Z</time></trkpt><trkpt lat="42.1266561" lon="14.6641185"><ele>65.6</ele><time>2026-04-19T09:26:41.244Z</time></trkpt><trkpt lat="42.1267564" lon="14.6641191"><ele>65.19999999999999</ele><time>2026-04-19T09:26:42.238Z</time></trkpt><trkpt lat="42.1268648" lon="14.6641171"><ele>64.80000000000001</ele><time>2026-04-19T09:26:43.239Z</time></trkpt><trkpt lat="42.1269734" lon="14.6641134"><ele>64.4</ele><time>2026-04-19T09:26:44.237Z</time></trkpt><trkpt lat="42.1270781" lon="14.6641093"><ele>64.0</ele><time>2026-04-19T09:26:45.252Z</time></trkpt><trkpt lat="42.1271889" lon="14.6641015"><ele>63.99999999999999</ele><time>2026-04-19T09:26:46.235Z</time></trkpt><trkpt lat="42.1272899" lon="14.6640839"><ele>64.0</ele><time>2026-04-19T09:26:47.231Z</time></trkpt><trkpt lat="42.1273874" lon="14.6640768"><ele>64.0</ele><time>2026-04-19T09:26:48.25Z</time></trkpt><trkpt lat="42.1274776" lon="14.6640813"><ele>64.0</ele><time>2026-04-19T09:26:49.244Z</time></trkpt><trkpt lat="42.1275568" lon="14.6640906"><ele>63.99999999999999</ele><time>2026-04-19T09:26:50.235Z</time></trkpt><trkpt lat="42.1276233" lon="14.6640886"><ele>64.0</ele><time>2026-04-19T09:26:51.196Z</time></trkpt><trkpt lat="42.1277167" lon="14.6640517"><ele>63.75</ele><time>2026-04-19T09:26:53.235Z</time></trkpt><trkpt lat="42.1277594" lon="14.663874"><ele>63.5</ele><time>2026-04-19T09:26:55.237Z</time></trkpt><trkpt lat="42.1277594" lon="14.6637362"><ele>63.25</ele><time>2026-04-19T09:26:56.242Z</time></trkpt><trkpt lat="42.1277367" lon="14.6635804"><ele>63.0</ele><time>2026-04-19T09:26:57.19Z</time></trkpt><trkpt lat="42.1277386" lon="14.6634278"><ele>63.0</ele><time>2026-04-19T09:26:58.237Z</time></trkpt><trkpt lat="42.1277633" lon="14.6633068"><ele>63.0</ele><time>2026-04-19T09:26:59.216Z</time></trkpt><trkpt lat="42.1278029" lon="14.6632102"><ele>63.0</ele><time>2026-04-19T09:27:00.239Z</time></trkpt><trkpt lat="42.1278721" lon="14.6630604"><ele>63.0</ele><time>2026-04-19T09:27:01.199Z</time></trkpt><trkpt lat="42.1279742" lon="14.6628692"><ele>62.25</ele><time>2026-04-19T09:27:02.236Z</time></trkpt><trkpt lat="42.1280786" lon="14.6627074"><ele>61.5</ele><time>2026-04-19T09:27:03.234Z</time></trkpt><trkpt lat="42.1281856" lon="14.6625667"><ele>60.75</ele><time>2026-04-19T09:27:04.215Z</time></trkpt><trkpt lat="42.1282659" lon="14.6624468"><ele>60.0</ele><time>2026-04-19T09:27:05.223Z</time></trkpt><trkpt lat="42.1283436" lon="14.6623478"><ele>60.0</ele><time>2026-04-19T09:27:06.197Z</time></trkpt><trkpt lat="42.1284461" lon="14.6622774"><ele>60.0</ele><time>2026-04-19T09:27:07.208Z</time></trkpt><trkpt lat="42.1285809" lon="14.6622425"><ele>60.0</ele><time>2026-04-19T09:27:08.216Z</time></trkpt><trkpt lat="42.1287438" lon="14.6622218"><ele>60.0</ele><time>2026-04-19T09:27:09.223Z</time></trkpt><trkpt lat="42.1288861" lon="14.6622123"><ele>60.0</ele><time>2026-04-19T09:27:10.185Z</time></trkpt><trkpt lat="42.1289833" lon="14.6622053"><ele>60.0</ele><time>2026-04-19T09:27:11.205Z</time></trkpt><trkpt lat="42.1290638" lon="14.66219"><ele>60.0</ele><time>2026-04-19T09:27:12.209Z</time></trkpt><trkpt lat="42.1291504" lon="14.6621427"><ele>60.0</ele><time>2026-04-19T09:27:13.24Z</time></trkpt><trkpt lat="42.1292358" lon="14.6620435"><ele>60.0</ele><time>2026-04-19T09:27:14.233Z</time></trkpt><trkpt lat="42.1293084" lon="14.6619046"><ele>59.2</ele><time>2026-04-19T09:27:15.236Z</time></trkpt><trkpt lat="42.1293834" lon="14.6617448"><ele>58.4</ele><time>2026-04-19T09:27:16.201Z</time></trkpt><trkpt lat="42.1294474" lon="14.661609"><ele>57.599999999999994</ele><time>2026-04-19T09:27:17.214Z</time></trkpt><trkpt lat="42.1295034" lon="14.6614888"><ele>56.8</ele><time>2026-04-19T09:27:18.227Z</time></trkpt><trkpt lat="42.1295548" lon="14.6614072"><ele>56.0</ele><time>2026-04-19T09:27:19.219Z</time></trkpt><trkpt lat="42.1296117" lon="14.6613414"><ele>56.0</ele><time>2026-04-19T09:27:20.205Z</time></trkpt><trkpt lat="42.1296814" lon="14.6612837"><ele>55.99999999999999</ele><time>2026-04-19T09:27:21.243Z</time></trkpt><trkpt lat="42.129773" lon="14.6612362"><ele>55.99999999999999</ele><time>2026-04-19T09:27:22.241Z</time></trkpt><trkpt lat="42.1298848" lon="14.6611959"><ele>56.0</ele><time>2026-04-19T09:27:23.299Z</time></trkpt><trkpt lat="42.1299955" lon="14.6611614"><ele>56.0</ele><time>2026-04-19T09:27:24.222Z</time></trkpt><trkpt lat="42.1300895" lon="14.6611458"><ele>55.599999999999994</ele><time>2026-04-19T09:27:25.25Z</time></trkpt><trkpt lat="42.1301568" lon="14.6611289"><ele>55.199999999999996</ele><time>2026-04-19T09:27:26.205Z</time></trkpt><trkpt lat="42.1302524" lon="14.6610774"><ele>54.800000000000004</ele><time>2026-04-19T09:27:28.246Z</time></trkpt><trkpt lat="42.1302898" lon="14.660945"><ele>54.400000000000006</ele><time>2026-04-19T09:27:30.231Z</time></trkpt><trkpt lat="42.1302829" lon="14.6608246"><ele>54.0</ele><time>2026-04-19T09:27:31.255Z</time></trkpt><trkpt lat="42.1302578" lon="14.6606749"><ele>54.0</ele><time>2026-04-19T09:27:32.187Z</time></trkpt><trkpt lat="42.1302311" lon="14.6605099"><ele>54.00000000000001</ele><time>2026-04-19T09:27:33.242Z</time></trkpt><trkpt lat="42.1302069" lon="14.6603513"><ele>54.00000000000001</ele><time>2026-04-19T09:27:34.227Z</time></trkpt><trkpt lat="42.1301945" lon="14.6602211"><ele>54.0</ele><time>2026-04-19T09:27:35.231Z</time></trkpt><trkpt lat="42.1301886" lon="14.6600904"><ele>54.0</ele><time>2026-04-19T09:27:36.238Z</time></trkpt><trkpt lat="42.1301883" lon="14.6599677"><ele>54.166666666666664</ele><time>2026-04-19T09:27:37.234Z</time></trkpt><trkpt lat="42.1302135" lon="14.6598502"><ele>54.33333333333333</ele><time>2026-04-19T09:27:38.219Z</time></trkpt><trkpt lat="42.1302512" lon="14.659758"><ele>54.5</ele><time>2026-04-19T09:27:39.23Z</time></trkpt><trkpt lat="42.1303013" lon="14.6596889"><ele>54.666666666666664</ele><time>2026-04-19T09:27:40.188Z</time></trkpt><trkpt lat="42.1303756" lon="14.6596396"><ele>54.83333333333333</ele><time>2026-04-19T09:27:41.232Z</time></trkpt><trkpt lat="42.1304694" lon="14.659584"><ele>55.0</ele><time>2026-04-19T09:27:42.213Z</time></trkpt><trkpt lat="42.1305674" lon="14.6595195"><ele>55.0</ele><time>2026-04-19T09:27:43.224Z</time></trkpt><trkpt lat="42.130647" lon="14.6594527"><ele>55.0</ele><time>2026-04-19T09:27:44.189Z</time></trkpt><trkpt lat="42.130686" lon="14.6593848"><ele>55.0</ele><time>2026-04-19T09:27:45.186Z</time></trkpt><trkpt lat="42.130679" lon="14.6592672"><ele>55.0</ele><time>2026-04-19T09:27:46.2Z</time></trkpt><trkpt lat="42.1306656" lon="14.6590759"><ele>55.0</ele><time>2026-04-19T09:27:47.18Z</time></trkpt><trkpt lat="42.1306839" lon="14.6589028"><ele>54.666666666666664</ele><time>2026-04-19T09:27:48.186Z</time></trkpt><trkpt lat="42.130733" lon="14.6587374"><ele>54.33333333333333</ele><time>2026-04-19T09:27:49.193Z</time></trkpt><trkpt lat="42.1308049" lon="14.6585262"><ele>54.0</ele><time>2026-04-19T09:27:50.19Z</time></trkpt><trkpt lat="42.1308984" lon="14.6582866"><ele>54.0</ele><time>2026-04-19T09:27:51.195Z</time></trkpt><trkpt lat="42.1309926" lon="14.6580587"><ele>54.0</ele><time>2026-04-19T09:27:52.176Z</time></trkpt><trkpt lat="42.1310652" lon="14.657888"><ele>54.0</ele><time>2026-04-19T09:27:53.2Z</time></trkpt><trkpt lat="42.1311307" lon="14.6577211"><ele>55.2</ele><time>2026-04-19T09:27:54.209Z</time></trkpt><trkpt lat="42.1311852" lon="14.6575683"><ele>56.400000000000006</ele><time>2026-04-19T09:27:55.202Z</time></trkpt><trkpt lat="42.1312223" lon="14.6574058"><ele>57.6</ele><time>2026-04-19T09:27:56.204Z</time></trkpt><trkpt lat="42.1312583" lon="14.6572892"><ele>58.8</ele><time>2026-04-19T09:27:57.201Z</time></trkpt><trkpt lat="42.1313018" lon="14.6571929"><ele>60.0</ele><time>2026-04-19T09:27:58.201Z</time></trkpt><trkpt lat="42.1313515" lon="14.6571189"><ele>60.0</ele><time>2026-04-19T09:27:59.202Z</time></trkpt><trkpt lat="42.1313956" lon="14.6570486"><ele>60.0</ele><time>2026-04-19T09:28:00.257Z</time></trkpt><trkpt lat="42.1314418" lon="14.6569804"><ele>60.0</ele><time>2026-04-19T09:28:01.234Z</time></trkpt><trkpt lat="42.1314883" lon="14.6569222"><ele>60.0</ele><time>2026-04-19T09:28:02.221Z</time></trkpt><trkpt lat="42.131551" lon="14.6568401"><ele>60.0</ele><time>2026-04-19T09:28:04.245Z</time></trkpt><trkpt lat="42.1316168" lon="14.6567718"><ele>60.0</ele><time>2026-04-19T09:28:06.203Z</time></trkpt><trkpt lat="42.1316874" lon="14.6566913"><ele>59.0</ele><time>2026-04-19T09:28:08.215Z</time></trkpt><trkpt lat="42.1317464" lon="14.6566244"><ele>58.0</ele><time>2026-04-19T09:28:10.23Z</time></trkpt><trkpt lat="42.1317951" lon="14.6565641"><ele>57.0</ele><time>2026-04-19T09:28:12.259Z</time></trkpt><trkpt lat="42.1318487" lon="14.6564714"><ele>56.0</ele><time>2026-04-19T09:28:15.215Z</time></trkpt><trkpt lat="42.1319081" lon="14.656382"><ele>55.0</ele><time>2026-04-19T09:31:31.2Z</time></trkpt><trkpt lat="42.1319573" lon="14.6563138"><ele>54.0</ele><time>2026-04-19T09:31:32.198Z</time></trkpt><trkpt lat="42.1320088" lon="14.6562456"><ele>54.0</ele><time>2026-04-19T09:31:33.236Z</time></trkpt><trkpt lat="42.1320762" lon="14.6561741"><ele>54.0</ele><time>2026-04-19T09:31:34.244Z</time></trkpt><trkpt lat="42.1321525" lon="14.6561065"><ele>54.0</ele><time>2026-04-19T09:31:35.24Z</time></trkpt><trkpt lat="42.1322343" lon="14.6560595"><ele>54.0</ele><time>2026-04-19T09:31:36.246Z</time></trkpt><trkpt lat="42.1323198" lon="14.6560291"><ele>54.0</ele><time>2026-04-19T09:31:37.239Z</time></trkpt><trkpt lat="42.1324076" lon="14.6559988"><ele>54.0</ele><time>2026-04-19T09:31:38.254Z</time></trkpt><trkpt lat="42.1324966" lon="14.6559806"><ele>53.5</ele><time>2026-04-19T09:31:39.238Z</time></trkpt><trkpt lat="42.1325813" lon="14.6559645"><ele>53.0</ele><time>2026-04-19T09:31:40.246Z</time></trkpt><trkpt lat="42.1326531" lon="14.6559534"><ele>52.5</ele><time>2026-04-19T09:31:41.249Z</time></trkpt><trkpt lat="42.1327647" lon="14.6559523"><ele>52.0</ele><time>2026-04-19T09:31:43.261Z</time></trkpt><trkpt lat="42.1328398" lon="14.6559745"><ele>51.5</ele><time>2026-04-19T09:31:45.193Z</time></trkpt><trkpt lat="42.1328707" lon="14.6560506"><ele>51.0</ele><time>2026-04-19T09:31:47.222Z</time></trkpt><trkpt lat="42.1328817" lon="14.6561576"><ele>51.0</ele><time>2026-04-19T09:31:48.255Z</time></trkpt><trkpt lat="42.1328746" lon="14.6563174"><ele>51.0</ele><time>2026-04-19T09:31:49.245Z</time></trkpt><trkpt lat="42.1328683" lon="14.6565168"><ele>51.0</ele><time>2026-04-19T09:31:50.226Z</time></trkpt><trkpt lat="42.1328647" lon="14.6567193"><ele>51.0</ele><time>2026-04-19T09:31:51.25Z</time></trkpt><trkpt lat="42.1328617" lon="14.6568776"><ele>51.4</ele><time>2026-04-19T09:31:52.223Z</time></trkpt><trkpt lat="42.132868" lon="14.6570205"><ele>51.8</ele><time>2026-04-19T09:31:53.23Z</time></trkpt><trkpt lat="42.1328935" lon="14.6571329"><ele>52.199999999999996</ele><time>2026-04-19T09:31:54.257Z</time></trkpt><trkpt lat="42.1329483" lon="14.6572235"><ele>52.599999999999994</ele><time>2026-04-19T09:31:55.191Z</time></trkpt><trkpt lat="42.133046" lon="14.6572827"><ele>53.0</ele><time>2026-04-19T09:31:56.19Z</time></trkpt><trkpt lat="42.1331598" lon="14.6573138"><ele>54.5</ele><time>2026-04-19T09:31:57.228Z</time></trkpt><trkpt lat="42.1332978" lon="14.6573196"><ele>56.0</ele><time>2026-04-19T09:31:58.237Z</time></trkpt><trkpt lat="42.1334349" lon="14.6573024"><ele>57.5</ele><time>2026-04-19T09:31:59.188Z</time></trkpt><trkpt lat="42.1335795" lon="14.6572389"><ele>59.0</ele><time>2026-04-19T09:32:00.236Z</time></trkpt><trkpt lat="42.1337187" lon="14.6571671"><ele>59.0</ele><time>2026-04-19T09:32:01.251Z</time></trkpt><trkpt lat="42.1338368" lon="14.6570904"><ele>59.00000000000001</ele><time>2026-04-19T09:32:02.245Z</time></trkpt><trkpt lat="42.1339363" lon="14.6570232"><ele>59.00000000000001</ele><time>2026-04-19T09:32:03.223Z</time></trkpt><trkpt lat="42.1340147" lon="14.656982"><ele>59.0</ele><time>2026-04-19T09:32:04.241Z</time></trkpt><trkpt lat="42.134075" lon="14.6569502"><ele>59.0</ele><time>2026-04-19T09:32:05.227Z</time></trkpt><trkpt lat="42.1341698" lon="14.6569421"><ele>59.16666666666667</ele><time>2026-04-19T09:32:07.249Z</time></trkpt><trkpt lat="42.1342387" lon="14.6569557"><ele>59.333333333333336</ele><time>2026-04-19T09:32:08.228Z</time></trkpt><trkpt lat="42.1343171" lon="14.6569678"><ele>59.5</ele><time>2026-04-19T09:32:09.197Z</time></trkpt><trkpt lat="42.1343906" lon="14.6569537"><ele>59.66666666666667</ele><time>2026-04-19T09:32:10.226Z</time></trkpt><trkpt lat="42.1344729" lon="14.6569424"><ele>59.833333333333336</ele><time>2026-04-19T09:32:11.222Z</time></trkpt><trkpt lat="42.1345561" lon="14.656922"><ele>60.0</ele><time>2026-04-19T09:32:12.244Z</time></trkpt><trkpt lat="42.134623" lon="14.6569042"><ele>60.0</ele><time>2026-04-19T09:32:13.229Z</time></trkpt><trkpt lat="42.1346869" lon="14.6569023"><ele>60.0</ele><time>2026-04-19T09:32:14.207Z</time></trkpt><trkpt lat="42.1347556" lon="14.6569104"><ele>60.0</ele><time>2026-04-19T09:32:15.217Z</time></trkpt><trkpt lat="42.1348197" lon="14.6569347"><ele>60.0</ele><time>2026-04-19T09:32:16.249Z</time></trkpt><trkpt lat="42.134877" lon="14.6569721"><ele>60.0</ele><time>2026-04-19T09:32:17.227Z</time></trkpt><trkpt lat="42.1349375" lon="14.6570082"><ele>60.0</ele><time>2026-04-19T09:32:18.242Z</time></trkpt><trkpt lat="42.1350079" lon="14.6570421"><ele>60.0</ele><time>2026-04-19T09:32:19.212Z</time></trkpt><trkpt lat="42.1350991" lon="14.657097"><ele>63.5</ele><time>2026-04-19T09:32:20.183Z</time></trkpt><trkpt lat="42.1351911" lon="14.6571805"><ele>67.0</ele><time>2026-04-19T09:32:21.238Z</time></trkpt><trkpt lat="42.1352632" lon="14.6572653"><ele>70.5</ele><time>2026-04-19T09:32:22.235Z</time></trkpt><trkpt lat="42.1353062" lon="14.6573495"><ele>74.0</ele><time>2026-04-19T09:32:23.244Z</time></trkpt><trkpt lat="42.1353309" lon="14.6574464"><ele>77.5</ele><time>2026-04-19T09:32:24.224Z</time></trkpt><trkpt lat="42.1353358" lon="14.6575506"><ele>81.0</ele><time>2026-04-19T09:32:25.193Z</time></trkpt><trkpt lat="42.1353178" lon="14.6576409"><ele>81.0</ele><time>2026-04-19T09:32:26.199Z</time></trkpt><trkpt lat="42.1352443" lon="14.6577824"><ele>81.0</ele><time>2026-04-19T09:32:28.224Z</time></trkpt><trkpt lat="42.135192" lon="14.6578607"><ele>81.0</ele><time>2026-04-19T09:32:29.246Z</time></trkpt><trkpt lat="42.1351286" lon="14.6579395"><ele>81.0</ele><time>2026-04-19T09:32:30.228Z</time></trkpt><trkpt lat="42.1350716" lon="14.6580166"><ele>81.0</ele><time>2026-04-19T09:32:31.187Z</time></trkpt><trkpt lat="42.1350216" lon="14.6580751"><ele>81.0</ele><time>2026-04-19T09:32:32.233Z</time></trkpt><trkpt lat="42.1349595" lon="14.6581592"><ele>84.0</ele><time>2026-04-19T09:32:34.228Z</time></trkpt><trkpt lat="42.1349418" lon="14.6582694"><ele>87.0</ele><time>2026-04-19T09:32:37.222Z</time></trkpt><trkpt lat="42.1350689" lon="14.6583373"><ele>90.0</ele><time>2026-04-19T09:32:39.202Z</time></trkpt><trkpt lat="42.1351483" lon="14.6583574"><ele>93.0</ele><time>2026-04-19T09:32:40.196Z</time></trkpt><trkpt lat="42.1352564" lon="14.6583532"><ele>96.0</ele><time>2026-04-19T09:32:42.249Z</time></trkpt><trkpt lat="42.1353813" lon="14.6583463"><ele>96.0</ele><time>2026-04-19T09:32:44.195Z</time></trkpt><trkpt lat="42.1354481" lon="14.6583461"><ele>96.0</ele><time>2026-04-19T09:32:45.244Z</time></trkpt><trkpt lat="42.1355363" lon="14.6583457"><ele>96.0</ele><time>2026-04-19T09:32:46.248Z</time></trkpt><trkpt lat="42.1356356" lon="14.6583421"><ele>96.0</ele><time>2026-04-19T09:32:47.261Z</time></trkpt><trkpt lat="42.1357446" lon="14.6583396"><ele>96.0</ele><time>2026-04-19T09:32:48.221Z</time></trkpt><trkpt lat="42.1358476" lon="14.6583408"><ele>97.0</ele><time>2026-04-19T09:32:49.254Z</time></trkpt><trkpt lat="42.1359301" lon="14.6583467"><ele>98.0</ele><time>2026-04-19T09:32:50.217Z</time></trkpt><trkpt lat="42.1360177" lon="14.6583773"><ele>99.0</ele><time>2026-04-19T09:32:51.24Z</time></trkpt><trkpt lat="42.1361052" lon="14.6584195"><ele>100.0</ele><time>2026-04-19T09:32:52.227Z</time></trkpt><trkpt lat="42.1361905" lon="14.6584671"><ele>101.0</ele><time>2026-04-19T09:32:53.249Z</time></trkpt><trkpt lat="42.1362615" lon="14.6585293"><ele>102.0</ele><time>2026-04-19T09:32:54.215Z</time></trkpt><trkpt lat="42.1363231" lon="14.6586002"><ele>105.6</ele><time>2026-04-19T09:32:55.22Z</time></trkpt><trkpt lat="42.1363843" lon="14.6586935"><ele>109.19999999999999</ele><time>2026-04-19T09:32:56.223Z</time></trkpt><trkpt lat="42.1364358" lon="14.6587907"><ele>112.8</ele><time>2026-04-19T09:32:57.244Z</time></trkpt><trkpt lat="42.136475" lon="14.6588884"><ele>116.4</ele><time>2026-04-19T09:32:58.196Z</time></trkpt><trkpt lat="42.1365154" lon="14.6590218"><ele>120.0</ele><time>2026-04-19T09:32:59.245Z</time></trkpt><trkpt lat="42.1365433" lon="14.6591727"><ele>119.2</ele><time>2026-04-19T09:33:00.194Z</time></trkpt><trkpt lat="42.1365559" lon="14.6592771"><ele>118.4</ele><time>2026-04-19T09:33:01.204Z</time></trkpt><trkpt lat="42.1365549" lon="14.6593784"><ele>117.6</ele><time>2026-04-19T09:33:03.22Z</time></trkpt><trkpt lat="42.1365616" lon="14.6595537"><ele>116.8</ele><time>2026-04-19T09:33:05.255Z</time></trkpt><trkpt lat="42.1365795" lon="14.6597103"><ele>116.0</ele><time>2026-04-19T09:33:06.247Z</time></trkpt><trkpt lat="42.1366056" lon="14.6598844"><ele>119.25</ele><time>2026-04-19T09:33:07.243Z</time></trkpt><trkpt lat="42.1366341" lon="14.6600698"><ele>122.5</ele><time>2026-04-19T09:33:08.198Z</time></trkpt><trkpt lat="42.1366725" lon="14.6602575"><ele>125.75</ele><time>2026-04-19T09:33:09.198Z</time></trkpt><trkpt lat="42.1367135" lon="14.6604294"><ele>129.0</ele><time>2026-04-19T09:33:10.236Z</time></trkpt><trkpt lat="42.1367641" lon="14.6605758"><ele>132.0</ele><time>2026-04-19T09:33:11.22Z</time></trkpt><trkpt lat="42.1368331" lon="14.6607101"><ele>135.0</ele><time>2026-04-19T09:33:12.188Z</time></trkpt><trkpt lat="42.1369191" lon="14.6608439"><ele>138.0</ele><time>2026-04-19T09:33:13.207Z</time></trkpt><trkpt lat="42.1370022" lon="14.6609488"><ele>141.0</ele><time>2026-04-19T09:33:14.212Z</time></trkpt><trkpt lat="42.1370604" lon="14.6610339"><ele>142.25</ele><time>2026-04-19T09:33:15.254Z</time></trkpt><trkpt lat="42.1370743" lon="14.6611726"><ele>143.5</ele><time>2026-04-19T09:33:17.233Z</time></trkpt><trkpt lat="42.1369625" lon="14.6612847"><ele>144.75</ele><time>2026-04-19T09:33:19.229Z</time></trkpt><trkpt lat="42.1368551" lon="14.661382"><ele>146.0</ele><time>2026-04-19T09:33:20.256Z</time></trkpt><trkpt lat="42.1367389" lon="14.6615039"><ele>146.0</ele><time>2026-04-19T09:33:21.215Z</time></trkpt><trkpt lat="42.1366183" lon="14.6616475"><ele>146.0</ele><time>2026-04-19T09:33:22.24Z</time></trkpt><trkpt lat="42.1365051" lon="14.6617802"><ele>146.0</ele><time>2026-04-19T09:33:23.239Z</time></trkpt><trkpt lat="42.1364211" lon="14.6618751"><ele>146.0</ele><time>2026-04-19T09:33:24.24Z</time></trkpt><trkpt lat="42.1363601" lon="14.661972"><ele>146.75</ele><time>2026-04-19T09:33:26.226Z</time></trkpt><trkpt lat="42.1363677" lon="14.6620599"><ele>147.5</ele><time>2026-04-19T09:33:29.25Z</time></trkpt><trkpt lat="42.1365215" lon="14.6620964"><ele>148.25</ele><time>2026-04-19T09:33:31.232Z</time></trkpt><trkpt lat="42.1366568" lon="14.6620936"><ele>149.0</ele><time>2026-04-19T09:33:32.193Z</time></trkpt><trkpt lat="42.1368274" lon="14.6620714"><ele>147.33333333333331</ele><time>2026-04-19T09:33:33.303Z</time></trkpt><trkpt lat="42.1370121" lon="14.6620492"><ele>145.66666666666666</ele><time>2026-04-19T09:33:34.241Z</time></trkpt><trkpt lat="42.1372067" lon="14.6620137"><ele>144.0</ele><time>2026-04-19T09:33:35.25Z</time></trkpt><trkpt lat="42.1374156" lon="14.6619828"><ele>144.0</ele><time>2026-04-19T09:33:36.244Z</time></trkpt><trkpt lat="42.1376353" lon="14.661949"><ele>144.0</ele><time>2026-04-19T09:33:37.231Z</time></trkpt><trkpt lat="42.1378477" lon="14.66191"><ele>144.0</ele><time>2026-04-19T09:33:38.213Z</time></trkpt><trkpt lat="42.1380453" lon="14.661876"><ele>144.66666666666666</ele><time>2026-04-19T09:33:39.234Z</time></trkpt><trkpt lat="42.1382263" lon="14.6618403"><ele>145.33333333333331</ele><time>2026-04-19T09:33:40.242Z</time></trkpt><trkpt lat="42.1384003" lon="14.6618093"><ele>146.0</ele><time>2026-04-19T09:33:41.245Z</time></trkpt><trkpt lat="42.1385741" lon="14.6617766"><ele>146.0</ele><time>2026-04-19T09:33:42.244Z</time></trkpt><trkpt lat="42.1387485" lon="14.6617472"><ele>146.0</ele><time>2026-04-19T09:33:43.226Z</time></trkpt><trkpt lat="42.1389228" lon="14.6617164"><ele>146.0</ele><time>2026-04-19T09:33:44.212Z</time></trkpt><trkpt lat="42.1390927" lon="14.6616845"><ele>145.66666666666666</ele><time>2026-04-19T09:33:45.254Z</time></trkpt><trkpt lat="42.1392652" lon="14.6616456"><ele>145.33333333333334</ele><time>2026-04-19T09:33:46.253Z</time></trkpt><trkpt lat="42.1394377" lon="14.6615955"><ele>145.0</ele><time>2026-04-19T09:33:47.24Z</time></trkpt><trkpt lat="42.1396087" lon="14.6615249"><ele>145.0</ele><time>2026-04-19T09:33:48.237Z</time></trkpt><trkpt lat="42.1397796" lon="14.6614549"><ele>145.0</ele><time>2026-04-19T09:33:49.243Z</time></trkpt><trkpt lat="42.1399478" lon="14.6613854"><ele>145.0</ele><time>2026-04-19T09:33:50.246Z</time></trkpt><trkpt lat="42.1401145" lon="14.6613072"><ele>144.0</ele><time>2026-04-19T09:33:51.202Z</time></trkpt><trkpt lat="42.1402767" lon="14.6612379"><ele>143.0</ele><time>2026-04-19T09:33:52.221Z</time></trkpt><trkpt lat="42.1404334" lon="14.6611634"><ele>142.0</ele><time>2026-04-19T09:33:53.223Z</time></trkpt><trkpt lat="42.1405745" lon="14.6611025"><ele>141.79999999999998</ele><time>2026-04-19T09:33:54.216Z</time></trkpt><trkpt lat="42.1406959" lon="14.6610549"><ele>141.6</ele><time>2026-04-19T09:33:55.223Z</time></trkpt><trkpt lat="42.1407867" lon="14.6610145"><ele>141.39999999999998</ele><time>2026-04-19T09:33:56.193Z</time></trkpt><trkpt lat="42.1408538" lon="14.6609986"><ele>141.2</ele><time>2026-04-19T09:33:57.232Z</time></trkpt><trkpt lat="42.1409308" lon="14.6610759"><ele>141.0</ele><time>2026-04-19T09:33:59.23Z</time></trkpt><trkpt lat="42.1409461" lon="14.6611625"><ele>140.75</ele><time>2026-04-19T09:34:00.235Z</time></trkpt><trkpt lat="42.1409728" lon="14.6612798"><ele>140.5</ele><time>2026-04-19T09:34:01.242Z</time></trkpt><trkpt lat="42.141024" lon="14.6614236"><ele>140.25</ele><time>2026-04-19T09:34:02.19Z</time></trkpt><trkpt lat="42.1411162" lon="14.6616006"><ele>140.0</ele><time>2026-04-19T09:34:03.235Z</time></trkpt><trkpt lat="42.1412114" lon="14.6617798"><ele>140.0</ele><time>2026-04-19T09:34:04.242Z</time></trkpt><trkpt lat="42.141294" lon="14.661945"><ele>140.0</ele><time>2026-04-19T09:34:05.197Z</time></trkpt><trkpt lat="42.1413721" lon="14.6621113"><ele>140.0</ele><time>2026-04-19T09:34:06.202Z</time></trkpt><trkpt lat="42.1414466" lon="14.6622704"><ele>140.0</ele><time>2026-04-19T09:34:07.194Z</time></trkpt><trkpt lat="42.141521" lon="14.6624275"><ele>139.5</ele><time>2026-04-19T09:34:08.202Z</time></trkpt><trkpt lat="42.1415929" lon="14.662576"><ele>139.0</ele><time>2026-04-19T09:34:09.192Z</time></trkpt><trkpt lat="42.1416613" lon="14.662719"><ele>138.5</ele><time>2026-04-19T09:34:10.241Z</time></trkpt><trkpt lat="42.1417408" lon="14.6628604"><ele>138.0</ele><time>2026-04-19T09:34:11.233Z</time></trkpt><trkpt lat="42.1418263" lon="14.6630029"><ele>137.5</ele><time>2026-04-19T09:34:12.253Z</time></trkpt><trkpt lat="42.1419094" lon="14.6631347"><ele>137.0</ele><time>2026-04-19T09:34:13.243Z</time></trkpt><trkpt lat="42.1419987" lon="14.6632672"><ele>136.5</ele><time>2026-04-19T09:34:14.253Z</time></trkpt><trkpt lat="42.1420948" lon="14.6633943"><ele>136.0</ele><time>2026-04-19T09:34:15.253Z</time></trkpt><trkpt lat="42.1421928" lon="14.6635244"><ele>136.0</ele><time>2026-04-19T09:34:16.197Z</time></trkpt><trkpt lat="42.1422855" lon="14.6636312"><ele>136.0</ele><time>2026-04-19T09:34:17.221Z</time></trkpt><trkpt lat="42.1423791" lon="14.6637294"><ele>136.0</ele><time>2026-04-19T09:34:18.239Z</time></trkpt><trkpt lat="42.1424691" lon="14.6638238"><ele>136.0</ele><time>2026-04-19T09:34:19.192Z</time></trkpt><trkpt lat="42.1425575" lon="14.6639162"><ele>134.5</ele><time>2026-04-19T09:34:20.187Z</time></trkpt><trkpt lat="42.142652" lon="14.6640117"><ele>133.0</ele><time>2026-04-19T09:34:21.216Z</time></trkpt><trkpt lat="42.1427495" lon="14.6641141"><ele>131.5</ele><time>2026-04-19T09:34:22.211Z</time></trkpt><trkpt lat="42.1428452" lon="14.6642263"><ele>130.0</ele><time>2026-04-19T09:34:23.235Z</time></trkpt><trkpt lat="42.1429366" lon="14.6643441"><ele>129.75</ele><time>2026-04-19T09:34:24.25Z</time></trkpt><trkpt lat="42.1430214" lon="14.6644705"><ele>129.5</ele><time>2026-04-19T09:34:25.207Z</time></trkpt><trkpt lat="42.1430936" lon="14.6646047"><ele>129.25</ele><time>2026-04-19T09:34:26.246Z</time></trkpt><trkpt lat="42.1431642" lon="14.6647494"><ele>129.0</ele><time>2026-04-19T09:34:27.189Z</time></trkpt><trkpt lat="42.1432329" lon="14.6648966"><ele>127.5</ele><time>2026-04-19T09:34:28.264Z</time></trkpt><trkpt lat="42.1433011" lon="14.6650459"><ele>126.0</ele><time>2026-04-19T09:34:29.225Z</time></trkpt><trkpt lat="42.1433627" lon="14.6652054"><ele>124.5</ele><time>2026-04-19T09:34:30.268Z</time></trkpt><trkpt lat="42.143417" lon="14.6653596"><ele>123.0</ele><time>2026-04-19T09:34:31.236Z</time></trkpt><trkpt lat="42.1434652" lon="14.6655084"><ele>123.25</ele><time>2026-04-19T09:34:32.227Z</time></trkpt><trkpt lat="42.1435173" lon="14.6656675"><ele>123.5</ele><time>2026-04-19T09:34:33.185Z</time></trkpt><trkpt lat="42.1435711" lon="14.6658211"><ele>123.75</ele><time>2026-04-19T09:34:34.239Z</time></trkpt><trkpt lat="42.1436279" lon="14.6659777"><ele>124.0</ele><time>2026-04-19T09:34:35.232Z</time></trkpt><trkpt lat="42.1436842" lon="14.666133"><ele>124.0</ele><time>2026-04-19T09:34:36.234Z</time></trkpt><trkpt lat="42.1437417" lon="14.6662956"><ele>124.0</ele><time>2026-04-19T09:34:37.22Z</time></trkpt><trkpt lat="42.1438033" lon="14.6664492"><ele>124.0</ele><time>2026-04-19T09:34:38.243Z</time></trkpt><trkpt lat="42.1438615" lon="14.6665934"><ele>124.0</ele><time>2026-04-19T09:34:39.248Z</time></trkpt><trkpt lat="42.1439198" lon="14.6667252"><ele>124.0</ele><time>2026-04-19T09:34:40.208Z</time></trkpt><trkpt lat="42.1439795" lon="14.6668492"><ele>124.0</ele><time>2026-04-19T09:34:41.199Z</time></trkpt><trkpt lat="42.1440416" lon="14.6669685"><ele>124.0</ele><time>2026-04-19T09:34:42.205Z</time></trkpt><trkpt lat="42.1441233" lon="14.667079"><ele>124.0</ele><time>2026-04-19T09:34:43.225Z</time></trkpt><trkpt lat="42.1442144" lon="14.6671878"><ele>121.4</ele><time>2026-04-19T09:34:44.234Z</time></trkpt><trkpt lat="42.1443031" lon="14.6672786"><ele>118.80000000000001</ele><time>2026-04-19T09:34:45.228Z</time></trkpt><trkpt lat="42.1443789" lon="14.6673703"><ele>116.19999999999999</ele><time>2026-04-19T09:34:46.192Z</time></trkpt><trkpt lat="42.144441" lon="14.6674695"><ele>113.6</ele><time>2026-04-19T09:34:47.225Z</time></trkpt><trkpt lat="42.1444957" lon="14.6675844"><ele>111.0</ele><time>2026-04-19T09:34:48.227Z</time></trkpt><trkpt lat="42.1445257" lon="14.6677186"><ele>112.25</ele><time>2026-04-19T09:34:49.226Z</time></trkpt><trkpt lat="42.1445703" lon="14.6678701"><ele>113.5</ele><time>2026-04-19T09:34:50.213Z</time></trkpt><trkpt lat="42.1446148" lon="14.6680529"><ele>114.75</ele><time>2026-04-19T09:34:51.245Z</time></trkpt><trkpt lat="42.1446784" lon="14.6682304"><ele>116.0</ele><time>2026-04-19T09:34:52.217Z</time></trkpt><trkpt lat="42.1447398" lon="14.6684175"><ele>116.0</ele><time>2026-04-19T09:34:53.246Z</time></trkpt><trkpt lat="42.1447955" lon="14.6686057"><ele>116.0</ele><time>2026-04-19T09:34:54.23Z</time></trkpt><trkpt lat="42.1448501" lon="14.668807"><ele>116.0</ele><time>2026-04-19T09:34:55.249Z</time></trkpt><trkpt lat="42.1449173" lon="14.6690165"><ele>109.0</ele><time>2026-04-19T09:34:56.228Z</time></trkpt><trkpt lat="42.1449876" lon="14.6692133"><ele>102.0</ele><time>2026-04-19T09:34:57.244Z</time></trkpt><trkpt lat="42.1450551" lon="14.669408"><ele>95.0</ele><time>2026-04-19T09:34:58.225Z</time></trkpt><trkpt lat="42.1451185" lon="14.669588"><ele>94.75</ele><time>2026-04-19T09:34:59.243Z</time></trkpt><trkpt lat="42.1451823" lon="14.6697582"><ele>94.5</ele><time>2026-04-19T09:35:00.237Z</time></trkpt><trkpt lat="42.1452463" lon="14.6699256"><ele>94.25</ele><time>2026-04-19T09:35:01.239Z</time></trkpt><trkpt lat="42.1453112" lon="14.6700923"><ele>94.0</ele><time>2026-04-19T09:35:02.236Z</time></trkpt><trkpt lat="42.1453725" lon="14.6702617"><ele>92.25</ele><time>2026-04-19T09:35:03.244Z</time></trkpt><trkpt lat="42.1454122" lon="14.6704293"><ele>90.5</ele><time>2026-04-19T09:35:04.248Z</time></trkpt><trkpt lat="42.1454336" lon="14.670609"><ele>88.75</ele><time>2026-04-19T09:35:05.225Z</time></trkpt><trkpt lat="42.1454448" lon="14.6708055"><ele>87.0</ele><time>2026-04-19T09:35:06.24Z</time></trkpt><trkpt lat="42.1454526" lon="14.6710038"><ele>84.75</ele><time>2026-04-19T09:35:07.213Z</time></trkpt><trkpt lat="42.1454593" lon="14.6711914"><ele>82.5</ele><time>2026-04-19T09:35:08.195Z</time></trkpt><trkpt lat="42.1454617" lon="14.6713686"><ele>80.25</ele><time>2026-04-19T09:35:09.198Z</time></trkpt><trkpt lat="42.1454574" lon="14.6715425"><ele>78.0</ele><time>2026-04-19T09:35:10.225Z</time></trkpt><trkpt lat="42.1454479" lon="14.6717125"><ele>78.0</ele><time>2026-04-19T09:35:11.209Z</time></trkpt><trkpt lat="42.1454259" lon="14.6718875"><ele>78.0</ele><time>2026-04-19T09:35:12.207Z</time></trkpt><trkpt lat="42.1453873" lon="14.6720576"><ele>78.0</ele><time>2026-04-19T09:35:13.198Z</time></trkpt><trkpt lat="42.1453418" lon="14.6722182"><ele>78.0</ele><time>2026-04-19T09:35:14.198Z</time></trkpt><trkpt lat="42.1452977" lon="14.6723727"><ele>77.0</ele><time>2026-04-19T09:35:15.192Z</time></trkpt><trkpt lat="42.1452671" lon="14.6725292"><ele>76.0</ele><time>2026-04-19T09:35:16.228Z</time></trkpt><trkpt lat="42.1452482" lon="14.6726887"><ele>75.0</ele><time>2026-04-19T09:35:17.232Z</time></trkpt><trkpt lat="42.1452449" lon="14.6728437"><ele>74.0</ele><time>2026-04-19T09:35:18.214Z</time></trkpt><trkpt lat="42.1452581" lon="14.6729982"><ele>73.25</ele><time>2026-04-19T09:35:19.249Z</time></trkpt><trkpt lat="42.1452799" lon="14.6731619"><ele>72.5</ele><time>2026-04-19T09:35:20.227Z</time></trkpt><trkpt lat="42.1453133" lon="14.6733325"><ele>71.75</ele><time>2026-04-19T09:35:21.225Z</time></trkpt><trkpt lat="42.145351" lon="14.6735107"><ele>71.0</ele><time>2026-04-19T09:35:22.227Z</time></trkpt><trkpt lat="42.1453911" lon="14.6736871"><ele>69.5</ele><time>2026-04-19T09:35:23.189Z</time></trkpt><trkpt lat="42.1454299" lon="14.6738644"><ele>68.0</ele><time>2026-04-19T09:35:24.228Z</time></trkpt><trkpt lat="42.1454645" lon="14.6740501"><ele>66.5</ele><time>2026-04-19T09:35:25.238Z</time></trkpt><trkpt lat="42.1454969" lon="14.6742339"><ele>65.0</ele><time>2026-04-19T09:35:26.255Z</time></trkpt><trkpt lat="42.1455273" lon="14.6744011"><ele>64.4</ele><time>2026-04-19T09:35:27.247Z</time></trkpt><trkpt lat="42.1455596" lon="14.6745477"><ele>63.8</ele><time>2026-04-19T09:35:28.231Z</time></trkpt><trkpt lat="42.1455831" lon="14.6746762"><ele>63.2</ele><time>2026-04-19T09:35:29.222Z</time></trkpt><trkpt lat="42.1456042" lon="14.6747958"><ele>62.6</ele><time>2026-04-19T09:35:30.257Z</time></trkpt><trkpt lat="42.1456102" lon="14.6749072"><ele>62.0</ele><time>2026-04-19T09:35:31.238Z</time></trkpt><trkpt lat="42.1456034" lon="14.6750099"><ele>62.0</ele><time>2026-04-19T09:35:32.232Z</time></trkpt><trkpt lat="42.1455816" lon="14.6751391"><ele>62.0</ele><time>2026-04-19T09:35:34.214Z</time></trkpt><trkpt lat="42.1456277" lon="14.6752605"><ele>62.0</ele><time>2026-04-19T09:36:08.201Z</time></trkpt><trkpt lat="42.1457412" lon="14.6753884"><ele>62.0</ele><time>2026-04-19T09:36:09.221Z</time></trkpt><trkpt lat="42.1458638" lon="14.675539"><ele>62.0</ele><time>2026-04-19T09:36:10.214Z</time></trkpt><trkpt lat="42.1459916" lon="14.6756825"><ele>62.0</ele><time>2026-04-19T09:36:11.243Z</time></trkpt><trkpt lat="42.1461124" lon="14.6758114"><ele>62.0</ele><time>2026-04-19T09:36:12.22Z</time></trkpt><trkpt lat="42.1462284" lon="14.6759245"><ele>62.0</ele><time>2026-04-19T09:36:13.246Z</time></trkpt><trkpt lat="42.1463295" lon="14.6760349"><ele>62.0</ele><time>2026-04-19T09:36:14.243Z</time></trkpt><trkpt lat="42.1464255" lon="14.6761385"><ele>62.0</ele><time>2026-04-19T09:36:15.26Z</time></trkpt><trkpt lat="42.1465153" lon="14.6762613"><ele>62.0</ele><time>2026-04-19T09:36:16.223Z</time></trkpt><trkpt lat="42.1466001" lon="14.6764021"><ele>62.5</ele><time>2026-04-19T09:36:17.247Z</time></trkpt><trkpt lat="42.1466871" lon="14.6765653"><ele>63.0</ele><time>2026-04-19T09:36:18.234Z</time></trkpt><trkpt lat="42.1467725" lon="14.676731"><ele>63.5</ele><time>2026-04-19T09:36:19.196Z</time></trkpt><trkpt lat="42.146855" lon="14.6768933"><ele>64.0</ele><time>2026-04-19T09:36:20.215Z</time></trkpt><trkpt lat="42.1469433" lon="14.6770578"><ele>62.0</ele><time>2026-04-19T09:36:21.249Z</time></trkpt><trkpt lat="42.1470251" lon="14.6772149"><ele>60.0</ele><time>2026-04-19T09:36:22.193Z</time></trkpt><trkpt lat="42.1471027" lon="14.6773575"><ele>58.0</ele><time>2026-04-19T09:36:23.239Z</time></trkpt><trkpt lat="42.1471653" lon="14.6774869"><ele>56.0</ele><time>2026-04-19T09:36:24.26Z</time></trkpt><trkpt lat="42.1472149" lon="14.6775963"><ele>56.0</ele><time>2026-04-19T09:36:25.266Z</time></trkpt><trkpt lat="42.1472576" lon="14.6776873"><ele>55.99999999999999</ele><time>2026-04-19T09:36:26.223Z</time></trkpt><trkpt lat="42.1472718" lon="14.6778042"><ele>55.99999999999999</ele><time>2026-04-19T09:36:28.244Z</time></trkpt><trkpt lat="42.1472186" lon="14.6778903"><ele>56.0</ele><time>2026-04-19T09:36:30.237Z</time></trkpt><trkpt lat="42.1471265" lon="14.6779939"><ele>56.0</ele><time>2026-04-19T09:36:32.226Z</time></trkpt><trkpt lat="42.1470727" lon="14.6781431"><ele>55.833333333333336</ele><time>2026-04-19T09:36:34.245Z</time></trkpt><trkpt lat="42.147047" lon="14.6782644"><ele>55.66666666666667</ele><time>2026-04-19T09:36:35.24Z</time></trkpt><trkpt lat="42.1470333" lon="14.6783516"><ele>55.5</ele><time>2026-04-19T09:36:36.218Z</time></trkpt><trkpt lat="42.1469839" lon="14.6784411"><ele>55.33333333333333</ele><time>2026-04-19T09:36:39.233Z</time></trkpt><trkpt lat="42.1469278" lon="14.67851"><ele>55.166666666666664</ele><time>2026-04-19T09:36:41.191Z</time></trkpt><trkpt lat="42.1468605" lon="14.6785719"><ele>55.0</ele><time>2026-04-19T09:36:44.25Z</time></trkpt><trkpt lat="42.1467772" lon="14.678497"><ele>55.0</ele><time>2026-04-19T09:36:46.193Z</time></trkpt><trkpt lat="42.1467104" lon="14.6784462"><ele>55.0</ele><time>2026-04-19T09:36:48.198Z</time></trkpt><trkpt lat="42.1466139" lon="14.6785567"><ele>55.0</ele><time>2026-04-19T09:36:50.215Z</time></trkpt><trkpt lat="42.1465358" lon="14.6786936"><ele>55.0</ele><time>2026-04-19T09:36:51.23Z</time></trkpt><trkpt lat="42.1464417" lon="14.6788276"><ele>59.75</ele><time>2026-04-19T09:36:52.214Z</time></trkpt><trkpt lat="42.1463293" lon="14.6789705"><ele>64.5</ele><time>2026-04-19T09:36:53.235Z</time></trkpt><trkpt lat="42.1462291" lon="14.6791197"><ele>69.25</ele><time>2026-04-19T09:36:54.221Z</time></trkpt><trkpt lat="42.1461453" lon="14.6792468"><ele>74.0</ele><time>2026-04-19T09:36:55.239Z</time></trkpt><trkpt lat="42.1460577" lon="14.6793766"><ele>76.2</ele><time>2026-04-19T09:36:56.231Z</time></trkpt><trkpt lat="42.1459718" lon="14.679496"><ele>78.4</ele><time>2026-04-19T09:36:57.222Z</time></trkpt><trkpt lat="42.1458918" lon="14.6796011"><ele>80.6</ele><time>2026-04-19T09:36:58.205Z</time></trkpt><trkpt lat="42.1458318" lon="14.6796832"><ele>82.8</ele><time>2026-04-19T09:36:59.224Z</time></trkpt><trkpt lat="42.1457595" lon="14.6798046"><ele>85.0</ele><time>2026-04-19T09:37:01.245Z</time></trkpt><trkpt lat="42.1457442" lon="14.6799223"><ele>85.0</ele><time>2026-04-19T09:37:02.228Z</time></trkpt><trkpt lat="42.1457539" lon="14.6800314"><ele>85.0</ele><time>2026-04-19T09:37:03.232Z</time></trkpt><trkpt lat="42.1457937" lon="14.6801624"><ele>85.0</ele><time>2026-04-19T09:37:05.224Z</time></trkpt><trkpt lat="42.1458208" lon="14.6802488"><ele>85.0</ele><time>2026-04-19T09:37:06.212Z</time></trkpt><trkpt lat="42.1458541" lon="14.6803587"><ele>85.0</ele><time>2026-04-19T09:37:07.236Z</time></trkpt><trkpt lat="42.1458839" lon="14.6804555"><ele>85.0</ele><time>2026-04-19T09:37:08.236Z</time></trkpt><trkpt lat="42.1459126" lon="14.6805711"><ele>86.0</ele><time>2026-04-19T09:37:10.232Z</time></trkpt><trkpt lat="42.145948" lon="14.680687"><ele>87.0</ele><time>2026-04-19T09:37:12.231Z</time></trkpt><trkpt lat="42.146031" lon="14.6808267"><ele>88.0</ele><time>2026-04-19T09:37:14.211Z</time></trkpt><trkpt lat="42.1460911" lon="14.6809001"><ele>89.0</ele><time>2026-04-19T09:37:15.233Z</time></trkpt><trkpt lat="42.1461472" lon="14.6809513"><ele>90.0</ele><time>2026-04-19T09:37:16.196Z</time></trkpt><trkpt lat="42.1462133" lon="14.681044"><ele>90.0</ele><time>2026-04-19T09:37:18.228Z</time></trkpt><trkpt lat="42.1462177" lon="14.6811322"><ele>90.0</ele><time>2026-04-19T09:37:19.217Z</time></trkpt><trkpt lat="42.1462191" lon="14.6812654"><ele>90.0</ele><time>2026-04-19T09:37:20.188Z</time></trkpt><trkpt lat="42.1462167" lon="14.6814266"><ele>90.0</ele><time>2026-04-19T09:37:21.202Z</time></trkpt><trkpt lat="42.1462163" lon="14.6815458"><ele>90.0</ele><time>2026-04-19T09:37:22.238Z</time></trkpt><trkpt lat="42.1462219" lon="14.6816641"><ele>90.0</ele><time>2026-04-19T09:37:24.191Z</time></trkpt><trkpt lat="42.1462687" lon="14.6817372"><ele>90.0</ele><time>2026-04-19T09:37:25.222Z</time></trkpt><trkpt lat="42.1463009" lon="14.6818289"><ele>90.0</ele><time>2026-04-19T09:37:27.199Z</time></trkpt><trkpt lat="42.1462616" lon="14.6819329"><ele>90.0</ele><time>2026-04-19T09:37:30.232Z</time></trkpt><trkpt lat="42.1462313" lon="14.6820308"><ele>90.0</ele><time>2026-04-19T09:37:32.216Z</time></trkpt><trkpt lat="42.1462056" lon="14.6821476"><ele>90.0</ele><time>2026-04-19T09:37:34.217Z</time></trkpt><trkpt lat="42.1461829" lon="14.6822272"><ele>90.0</ele><time>2026-04-19T09:37:37.221Z</time></trkpt><trkpt lat="42.1461733" lon="14.6823159"><ele>90.0</ele><time>2026-04-19T09:37:41.239Z</time></trkpt><trkpt lat="42.1461478" lon="14.6824314"><ele>90.0</ele><time>2026-04-19T09:37:42.245Z</time></trkpt><trkpt lat="42.1461291" lon="14.6825579"><ele>90.0</ele><time>2026-04-19T09:37:43.247Z</time></trkpt><trkpt lat="42.1461147" lon="14.6826769"><ele>90.0</ele><time>2026-04-19T09:37:44.235Z</time></trkpt><trkpt lat="42.1461188" lon="14.6828785"><ele>90.0</ele><time>2026-04-19T09:37:45.229Z</time></trkpt><trkpt lat="42.1461132" lon="14.6831186"><ele>90.0</ele><time>2026-04-19T09:37:46.208Z</time></trkpt><trkpt lat="42.1461094" lon="14.683304"><ele>90.0</ele><time>2026-04-19T09:37:47.233Z</time></trkpt><trkpt lat="42.1460877" lon="14.6834696"><ele>90.0</ele><time>2026-04-19T09:37:48.256Z</time></trkpt><trkpt lat="42.1460581" lon="14.6836322"><ele>89.8</ele><time>2026-04-19T09:37:49.229Z</time></trkpt><trkpt lat="42.1460351" lon="14.6837818"><ele>89.6</ele><time>2026-04-19T09:37:50.216Z</time></trkpt><trkpt lat="42.1460232" lon="14.6839274"><ele>89.4</ele><time>2026-04-19T09:37:51.231Z</time></trkpt><trkpt lat="42.1460173" lon="14.6840467"><ele>89.2</ele><time>2026-04-19T09:37:52.232Z</time></trkpt><trkpt lat="42.1459997" lon="14.6841542"><ele>89.0</ele><time>2026-04-19T09:37:53.228Z</time></trkpt><trkpt lat="42.1459559" lon="14.6842679"><ele>89.0</ele><time>2026-04-19T09:37:54.24Z</time></trkpt><trkpt lat="42.1459149" lon="14.6843852"><ele>89.0</ele><time>2026-04-19T09:37:55.25Z</time></trkpt><trkpt lat="42.1458891" lon="14.6845484"><ele>89.0</ele><time>2026-04-19T09:37:56.216Z</time></trkpt><trkpt lat="42.1458523" lon="14.6847137"><ele>89.0</ele><time>2026-04-19T09:37:57.236Z</time></trkpt><trkpt lat="42.1458388" lon="14.6848421"><ele>89.0</ele><time>2026-04-19T09:37:58.233Z</time></trkpt><trkpt lat="42.1458298" lon="14.6849773"><ele>88.4</ele><time>2026-04-19T09:38:00.225Z</time></trkpt><trkpt lat="42.1458525" lon="14.6850833"><ele>87.80000000000001</ele><time>2026-04-19T09:38:02.199Z</time></trkpt><trkpt lat="42.1458458" lon="14.6852247"><ele>87.19999999999999</ele><time>2026-04-19T09:38:04.189Z</time></trkpt><trkpt lat="42.1458603" lon="14.6853244"><ele>86.6</ele><time>2026-04-19T09:38:06.212Z</time></trkpt><trkpt lat="42.14593" lon="14.6854152"><ele>86.0</ele><time>2026-04-19T09:38:07.226Z</time></trkpt><trkpt lat="42.1460294" lon="14.6855228"><ele>84.2</ele><time>2026-04-19T09:38:08.224Z</time></trkpt><trkpt lat="42.146126" lon="14.6856137"><ele>82.39999999999999</ele><time>2026-04-19T09:38:09.237Z</time></trkpt><trkpt lat="42.146226" lon="14.685681"><ele>80.6</ele><time>2026-04-19T09:38:10.232Z</time></trkpt><trkpt lat="42.1463255" lon="14.6857492"><ele>78.8</ele><time>2026-04-19T09:38:11.232Z</time></trkpt><trkpt lat="42.1463997" lon="14.6858041"><ele>77.0</ele><time>2026-04-19T09:38:12.229Z</time></trkpt><trkpt lat="42.1464646" lon="14.685861"><ele>77.5</ele><time>2026-04-19T09:38:13.23Z</time></trkpt><trkpt lat="42.1465494" lon="14.6859137"><ele>78.0</ele><time>2026-04-19T09:38:14.24Z</time></trkpt><trkpt lat="42.1466299" lon="14.685956"><ele>78.5</ele><time>2026-04-19T09:38:15.229Z</time></trkpt><trkpt lat="42.1466911" lon="14.6859921"><ele>79.0</ele><time>2026-04-19T09:38:16.243Z</time></trkpt><trkpt lat="42.1467624" lon="14.6860313"><ele>79.5</ele><time>2026-04-19T09:38:17.225Z</time></trkpt><trkpt lat="42.1468776" lon="14.6860853"><ele>80.0</ele><time>2026-04-19T09:38:18.238Z</time></trkpt><trkpt lat="42.1469889" lon="14.6861169"><ele>80.0</ele><time>2026-04-19T09:38:19.229Z</time></trkpt><trkpt lat="42.1470551" lon="14.6861305"><ele>80.0</ele><time>2026-04-19T09:38:20.223Z</time></trkpt><trkpt lat="42.1471139" lon="14.6860506"><ele>80.0</ele><time>2026-04-19T09:38:23.199Z</time></trkpt><trkpt lat="42.1471277" lon="14.6859464"><ele>80.0</ele><time>2026-04-19T09:38:24.217Z</time></trkpt><trkpt lat="42.1471841" lon="14.6857926"><ele>80.0</ele><time>2026-04-19T09:38:25.22Z</time></trkpt><trkpt lat="42.1472521" lon="14.6855891"><ele>80.0</ele><time>2026-04-19T09:38:26.216Z</time></trkpt><trkpt lat="42.1473353" lon="14.6853933"><ele>80.0</ele><time>2026-04-19T09:38:27.222Z</time></trkpt><trkpt lat="42.1474066" lon="14.6852402"><ele>80.0</ele><time>2026-04-19T09:38:28.221Z</time></trkpt><trkpt lat="42.147463" lon="14.6851215"><ele>80.0</ele><time>2026-04-19T09:38:29.219Z</time></trkpt><trkpt lat="42.1475073" lon="14.6850047"><ele>79.8</ele><time>2026-04-19T09:38:30.237Z</time></trkpt><trkpt lat="42.1475448" lon="14.6848831"><ele>79.6</ele><time>2026-04-19T09:38:31.226Z</time></trkpt><trkpt lat="42.1475796" lon="14.6847593"><ele>79.4</ele><time>2026-04-19T09:38:32.227Z</time></trkpt><trkpt lat="42.147618" lon="14.6846554"><ele>79.2</ele><time>2026-04-19T09:38:33.235Z</time></trkpt><trkpt lat="42.1476865" lon="14.6845363"><ele>79.0</ele><time>2026-04-19T09:38:34.247Z</time></trkpt><trkpt lat="42.1477995" lon="14.6843891"><ele>79.75</ele><time>2026-04-19T09:38:35.198Z</time></trkpt><trkpt lat="42.1479221" lon="14.6841954"><ele>80.5</ele><time>2026-04-19T09:38:36.222Z</time></trkpt><trkpt lat="42.1480192" lon="14.6840289"><ele>81.25</ele><time>2026-04-19T09:38:37.242Z</time></trkpt><trkpt lat="42.1480846" lon="14.6839354"><ele>82.0</ele><time>2026-04-19T09:38:38.228Z</time></trkpt><trkpt lat="42.148133" lon="14.6838659"><ele>82.0</ele><time>2026-04-19T09:38:39.197Z</time></trkpt><trkpt lat="42.148159" lon="14.6837779"><ele>82.0</ele><time>2026-04-19T09:38:42.2Z</time></trkpt><trkpt lat="42.148264" lon="14.683775"><ele>82.0</ele><time>2026-04-19T09:38:46.189Z</time></trkpt><trkpt lat="42.1483348" lon="14.6838284"><ele>82.0</ele><time>2026-04-19T09:38:47.249Z</time></trkpt><trkpt lat="42.1484189" lon="14.6838921"><ele>82.0</ele><time>2026-04-19T09:38:48.247Z</time></trkpt><trkpt lat="42.1484949" lon="14.6839391"><ele>82.0</ele><time>2026-04-19T09:38:49.262Z</time></trkpt><trkpt lat="42.1485656" lon="14.6839973"><ele>81.39999999999999</ele><time>2026-04-19T09:38:50.243Z</time></trkpt><trkpt lat="42.1486503" lon="14.6841004"><ele>80.8</ele><time>2026-04-19T09:38:51.237Z</time></trkpt><trkpt lat="42.148741" lon="14.6842107"><ele>80.2</ele><time>2026-04-19T09:38:52.207Z</time></trkpt><trkpt lat="42.1488049" lon="14.6843073"><ele>79.6</ele><time>2026-04-19T09:38:53.236Z</time></trkpt><trkpt lat="42.1488443" lon="14.6843855"><ele>79.0</ele><time>2026-04-19T09:38:54.258Z</time></trkpt><trkpt lat="42.148867" lon="14.6845002"><ele>79.0</ele><time>2026-04-19T09:38:55.254Z</time></trkpt><trkpt lat="42.1488896" lon="14.6846146"><ele>79.0</ele><time>2026-04-19T09:38:56.249Z</time></trkpt><trkpt lat="42.1489427" lon="14.6847147"><ele>79.0</ele><time>2026-04-19T09:38:57.249Z</time></trkpt><trkpt lat="42.1490052" lon="14.6848364"><ele>79.0</ele><time>2026-04-19T09:38:58.228Z</time></trkpt><trkpt lat="42.1490778" lon="14.6849711"><ele>79.0</ele><time>2026-04-19T09:38:59.254Z</time></trkpt><trkpt lat="42.1491291" lon="14.6850645"><ele>77.5</ele><time>2026-04-19T09:39:00.238Z</time></trkpt><trkpt lat="42.1491748" lon="14.6851617"><ele>76.0</ele><time>2026-04-19T09:39:01.223Z</time></trkpt><trkpt lat="42.1492116" lon="14.6852995"><ele>74.5</ele><time>2026-04-19T09:39:03.232Z</time></trkpt><trkpt lat="42.1492051" lon="14.6853927"><ele>73.0</ele><time>2026-04-19T09:39:04.236Z</time></trkpt><trkpt lat="42.1492014" lon="14.6855235"><ele>71.5</ele><time>2026-04-19T09:39:05.256Z</time></trkpt><trkpt lat="42.1492264" lon="14.6856237"><ele>70.0</ele><time>2026-04-19T09:39:06.228Z</time></trkpt><trkpt lat="42.1492835" lon="14.685812"><ele>69.83333333333333</ele><time>2026-04-19T09:39:08.24Z</time></trkpt><trkpt lat="42.1493139" lon="14.6859304"><ele>69.66666666666666</ele><time>2026-04-19T09:39:09.236Z</time></trkpt><trkpt lat="42.1493361" lon="14.6860262"><ele>69.5</ele><time>2026-04-19T09:39:10.234Z</time></trkpt><trkpt lat="42.1493582" lon="14.6861071"><ele>69.33333333333333</ele><time>2026-04-19T09:39:11.256Z</time></trkpt><trkpt lat="42.1494167" lon="14.6861822"><ele>69.16666666666667</ele><time>2026-04-19T09:39:13.238Z</time></trkpt><trkpt lat="42.1494876" lon="14.6861788"><ele>69.0</ele><time>2026-04-19T09:39:14.205Z</time></trkpt><trkpt lat="42.1496026" lon="14.6861589"><ele>66.0</ele><time>2026-04-19T09:39:15.246Z</time></trkpt><trkpt lat="42.1497285" lon="14.6861263"><ele>63.0</ele><time>2026-04-19T09:39:16.234Z</time></trkpt><trkpt lat="42.1498222" lon="14.6861056"><ele>60.0</ele><time>2026-04-19T09:39:17.202Z</time></trkpt><trkpt lat="42.1499267" lon="14.6861069"><ele>57.0</ele><time>2026-04-19T09:39:19.205Z</time></trkpt><trkpt lat="42.1499593" lon="14.6862785"><ele>55.5</ele><time>2026-04-19T09:39:21.223Z</time></trkpt><trkpt lat="42.1499829" lon="14.6863953"><ele>54.0</ele><time>2026-04-19T09:39:22.228Z</time></trkpt><trkpt lat="42.1500158" lon="14.6864957"><ele>52.5</ele><time>2026-04-19T09:39:23.204Z</time></trkpt><trkpt lat="42.1500538" lon="14.6865847"><ele>51.0</ele><time>2026-04-19T09:39:24.232Z</time></trkpt><trkpt lat="42.1500956" lon="14.686707"><ele>49.5</ele><time>2026-04-19T09:39:25.238Z</time></trkpt><trkpt lat="42.1501304" lon="14.6868131"><ele>48.0</ele><time>2026-04-19T09:39:26.225Z</time></trkpt><trkpt lat="42.1501616" lon="14.6869028"><ele>46.333333333333336</ele><time>2026-04-19T09:39:27.252Z</time></trkpt><trkpt lat="42.1501869" lon="14.6869916"><ele>44.666666666666664</ele><time>2026-04-19T09:39:28.201Z</time></trkpt><trkpt lat="42.1502157" lon="14.6870828"><ele>43.0</ele><time>2026-04-19T09:39:29.204Z</time></trkpt><trkpt lat="42.1502421" lon="14.6871743"><ele>41.33333333333333</ele><time>2026-04-19T09:39:30.233Z</time></trkpt><trkpt lat="42.1502758" lon="14.6872652"><ele>39.666666666666664</ele><time>2026-04-19T09:39:31.229Z</time></trkpt><trkpt lat="42.1503087" lon="14.6873488"><ele>38.0</ele><time>2026-04-19T09:39:32.198Z</time></trkpt><trkpt lat="42.1503902" lon="14.6874493"><ele>38.0</ele><time>2026-04-19T09:39:34.193Z</time></trkpt><trkpt lat="42.1504543" lon="14.6874743"><ele>38.0</ele><time>2026-04-19T09:39:36.223Z</time></trkpt><trkpt lat="42.1505194" lon="14.6874916"><ele>38.0</ele><time>2026-04-19T09:39:39.24Z</time></trkpt><trkpt lat="42.1506946" lon="14.6874015"><ele>38.0</ele><time>2026-04-19T09:39:41.227Z</time></trkpt><trkpt lat="42.1508655" lon="14.687301"><ele>37.0</ele><time>2026-04-19T09:39:42.247Z</time></trkpt><trkpt lat="42.151047" lon="14.6871789"><ele>36.0</ele><time>2026-04-19T09:39:43.226Z</time></trkpt><trkpt lat="42.1512107" lon="14.6870766"><ele>35.0</ele><time>2026-04-19T09:39:44.246Z</time></trkpt><trkpt lat="42.1513287" lon="14.6870027"><ele>35.0</ele><time>2026-04-19T09:39:45.237Z</time></trkpt><trkpt lat="42.151421" lon="14.6869561"><ele>35.0</ele><time>2026-04-19T09:39:46.24Z</time></trkpt><trkpt lat="42.1515006" lon="14.6869231"><ele>35.0</ele><time>2026-04-19T09:39:47.243Z</time></trkpt><trkpt lat="42.1515682" lon="14.6869156"><ele>35.0</ele><time>2026-04-19T09:39:48.19Z</time></trkpt><trkpt lat="42.151637" lon="14.6869224"><ele>35.0</ele><time>2026-04-19T09:39:49.232Z</time></trkpt><trkpt lat="42.151711" lon="14.6870018"><ele>35.0</ele><time>2026-04-19T09:39:51.23Z</time></trkpt><trkpt lat="42.1517358" lon="14.6870838"><ele>35.25</ele><time>2026-04-19T09:39:53.234Z</time></trkpt><trkpt lat="42.1518711" lon="14.6871118"><ele>35.5</ele><time>2026-04-19T09:39:56.24Z</time></trkpt><trkpt lat="42.1519776" lon="14.6870834"><ele>35.75</ele><time>2026-04-19T09:39:57.212Z</time></trkpt><trkpt lat="42.1521059" lon="14.6870619"><ele>36.0</ele><time>2026-04-19T09:39:58.229Z</time></trkpt><trkpt lat="42.152231" lon="14.6870464"><ele>36.0</ele><time>2026-04-19T09:39:59.247Z</time></trkpt><trkpt lat="42.1523414" lon="14.6870553"><ele>36.0</ele><time>2026-04-19T09:40:00.223Z</time></trkpt><trkpt lat="42.152438" lon="14.6870756"><ele>36.0</ele><time>2026-04-19T09:40:01.249Z</time></trkpt><trkpt lat="42.1525339" lon="14.68713"><ele>36.0</ele><time>2026-04-19T09:40:02.228Z</time></trkpt><trkpt lat="42.152627" lon="14.6872097"><ele>36.0</ele><time>2026-04-19T09:40:03.241Z</time></trkpt><trkpt lat="42.1527151" lon="14.6872845"><ele>35.833333333333336</ele><time>2026-04-19T09:40:04.223Z</time></trkpt><trkpt lat="42.1527847" lon="14.6873306"><ele>35.666666666666664</ele><time>2026-04-19T09:40:05.242Z</time></trkpt><trkpt lat="42.1528638" lon="14.6873437"><ele>35.5</ele><time>2026-04-19T09:40:07.228Z</time></trkpt><trkpt lat="42.1529315" lon="14.6873757"><ele>35.33333333333333</ele><time>2026-04-19T09:40:09.26Z</time></trkpt><trkpt lat="42.1530158" lon="14.6874085"><ele>35.166666666666664</ele><time>2026-04-19T09:40:11.236Z</time></trkpt><trkpt lat="42.1530984" lon="14.6874384"><ele>35.0</ele><time>2026-04-19T09:40:13.25Z</time></trkpt><trkpt lat="42.1531805" lon="14.6874513"><ele>35.166666666666664</ele><time>2026-04-19T09:40:15.227Z</time></trkpt><trkpt lat="42.1532945" lon="14.6874688"><ele>35.33333333333333</ele><time>2026-04-19T09:40:17.248Z</time></trkpt><trkpt lat="42.153359" lon="14.6874839"><ele>35.5</ele><time>2026-04-19T09:40:18.21Z</time></trkpt><trkpt lat="42.1534202" lon="14.6875064"><ele>35.666666666666664</ele><time>2026-04-19T09:40:19.2Z</time></trkpt><trkpt lat="42.1535192" lon="14.6875536"><ele>35.833333333333336</ele><time>2026-04-19T09:40:21.198Z</time></trkpt><trkpt lat="42.1535882" lon="14.6875914"><ele>36.0</ele><time>2026-04-19T09:40:23.217Z</time></trkpt><trkpt lat="42.1536525" lon="14.6876321"><ele>36.0</ele><time>2026-04-19T09:40:25.216Z</time></trkpt><trkpt lat="42.1537101" lon="14.6876936"><ele>36.0</ele><time>2026-04-19T09:40:28.222Z</time></trkpt><trkpt lat="42.1537677" lon="14.6877313"><ele>36.0</ele><time>2026-04-19T09:43:04.198Z</time></trkpt><trkpt lat="42.1537092" lon="14.6876674"><ele>36.0</ele><time>2026-04-19T09:43:08.191Z</time></trkpt><trkpt lat="42.1535892" lon="14.6876169"><ele>36.0</ele><time>2026-04-19T09:43:10.214Z</time></trkpt><trkpt lat="42.153513" lon="14.6875812"><ele>36.0</ele><time>2026-04-19T09:43:11.195Z</time></trkpt><trkpt lat="42.1534304" lon="14.6875451"><ele>36.0</ele><time>2026-04-19T09:43:12.232Z</time></trkpt><trkpt lat="42.1533469" lon="14.6875088"><ele>36.0</ele><time>2026-04-19T09:43:13.217Z</time></trkpt><trkpt lat="42.1532606" lon="14.6874804"><ele>36.0</ele><time>2026-04-19T09:43:14.244Z</time></trkpt><trkpt lat="42.1531728" lon="14.6874549"><ele>36.0</ele><time>2026-04-19T09:43:15.218Z</time></trkpt><trkpt lat="42.1530893" lon="14.6874392"><ele>36.0</ele><time>2026-04-19T09:43:16.201Z</time></trkpt><trkpt lat="42.1530175" lon="14.6874137"><ele>36.0</ele><time>2026-04-19T09:43:17.188Z</time></trkpt><trkpt lat="42.1529533" lon="14.687393"><ele>35.833333333333336</ele><time>2026-04-19T09:43:18.182Z</time></trkpt><trkpt lat="42.1528307" lon="14.6873503"><ele>35.666666666666664</ele><time>2026-04-19T09:43:20.225Z</time></trkpt><trkpt lat="42.1527663" lon="14.6873187"><ele>35.5</ele><time>2026-04-19T09:43:21.207Z</time></trkpt><trkpt lat="42.1526986" lon="14.6872704"><ele>35.33333333333333</ele><time>2026-04-19T09:43:22.233Z</time></trkpt><trkpt lat="42.1526458" lon="14.6872131"><ele>35.166666666666664</ele><time>2026-04-19T09:43:23.235Z</time></trkpt><trkpt lat="42.1525957" lon="14.6871614"><ele>35.0</ele><time>2026-04-19T09:43:24.235Z</time></trkpt><trkpt lat="42.1525331" lon="14.6871233"><ele>35.0</ele><time>2026-04-19T09:43:25.235Z</time></trkpt><trkpt lat="42.1524623" lon="14.6870867"><ele>35.0</ele><time>2026-04-19T09:43:26.221Z</time></trkpt><trkpt lat="42.1523885" lon="14.6870582"><ele>35.0</ele><time>2026-04-19T09:43:27.234Z</time></trkpt><trkpt lat="42.1523142" lon="14.6870406"><ele>35.0</ele><time>2026-04-19T09:43:28.219Z</time></trkpt><trkpt lat="42.1522402" lon="14.687041"><ele>35.0</ele><time>2026-04-19T09:43:29.22Z</time></trkpt><trkpt lat="42.1521652" lon="14.6870502"><ele>35.0</ele><time>2026-04-19T09:43:30.213Z</time></trkpt><trkpt lat="42.1520789" lon="14.6870612"><ele>35.166666666666664</ele><time>2026-04-19T09:43:31.251Z</time></trkpt><trkpt lat="42.1519922" lon="14.6870704"><ele>35.33333333333333</ele><time>2026-04-19T09:43:32.226Z</time></trkpt><trkpt lat="42.151918" lon="14.6870878"><ele>35.5</ele><time>2026-04-19T09:43:33.251Z</time></trkpt><trkpt lat="42.1518526" lon="14.6871024"><ele>35.666666666666664</ele><time>2026-04-19T09:43:34.243Z</time></trkpt><trkpt lat="42.1517715" lon="14.6870995"><ele>35.833333333333336</ele><time>2026-04-19T09:43:36.247Z</time></trkpt><trkpt lat="42.1517474" lon="14.6870015"><ele>36.0</ele><time>2026-04-19T09:43:38.214Z</time></trkpt><trkpt lat="42.1516991" lon="14.6869346"><ele>35.8</ele><time>2026-04-19T09:43:40.242Z</time></trkpt><trkpt lat="42.1516049" lon="14.6869188"><ele>35.6</ele><time>2026-04-19T09:43:42.201Z</time></trkpt><trkpt lat="42.1515328" lon="14.686925"><ele>35.4</ele><time>2026-04-19T09:43:43.185Z</time></trkpt><trkpt lat="42.1514399" lon="14.6869553"><ele>35.2</ele><time>2026-04-19T09:43:44.207Z</time></trkpt><trkpt lat="42.1513284" lon="14.6870098"><ele>35.0</ele><time>2026-04-19T09:43:45.203Z</time></trkpt><trkpt lat="42.1511974" lon="14.6870872"><ele>35.0</ele><time>2026-04-19T09:43:46.179Z</time></trkpt><trkpt lat="42.1510568" lon="14.6871669"><ele>35.0</ele><time>2026-04-19T09:43:47.188Z</time></trkpt><trkpt lat="42.1509015" lon="14.6872612"><ele>35.0</ele><time>2026-04-19T09:43:48.186Z</time></trkpt><trkpt lat="42.1507558" lon="14.6873457"><ele>35.6</ele><time>2026-04-19T09:43:49.202Z</time></trkpt><trkpt lat="42.1506269" lon="14.6874399"><ele>36.2</ele><time>2026-04-19T09:43:50.179Z</time></trkpt><trkpt lat="42.1505364" lon="14.6874845"><ele>36.8</ele><time>2026-04-19T09:43:51.186Z</time></trkpt><trkpt lat="42.1504546" lon="14.6875215"><ele>37.4</ele><time>2026-04-19T09:43:52.208Z</time></trkpt><trkpt lat="42.1503736" lon="14.6874054"><ele>38.0</ele><time>2026-04-19T09:44:05.195Z</time></trkpt><trkpt lat="42.1503188" lon="14.6873332"><ele>38.0</ele><time>2026-04-19T09:44:06.203Z</time></trkpt><trkpt lat="42.1502659" lon="14.6872105"><ele>38.0</ele><time>2026-04-19T09:44:07.218Z</time></trkpt><trkpt lat="42.1502156" lon="14.6870584"><ele>38.0</ele><time>2026-04-19T09:44:08.224Z</time></trkpt><trkpt lat="42.1501687" lon="14.6868878"><ele>38.0</ele><time>2026-04-19T09:44:09.218Z</time></trkpt><trkpt lat="42.150116" lon="14.6867085"><ele>40.5</ele><time>2026-04-19T09:44:10.212Z</time></trkpt><trkpt lat="42.1500567" lon="14.6865261"><ele>43.0</ele><time>2026-04-19T09:44:11.184Z</time></trkpt><trkpt lat="42.1499959" lon="14.6863484"><ele>45.5</ele><time>2026-04-19T09:44:12.193Z</time></trkpt><trkpt lat="42.1499536" lon="14.6862012"><ele>48.0</ele><time>2026-04-19T09:44:13.198Z</time></trkpt><trkpt lat="42.1499303" lon="14.6861038"><ele>49.8</ele><time>2026-04-19T09:44:14.193Z</time></trkpt><trkpt lat="42.1498686" lon="14.6860651"><ele>51.599999999999994</ele><time>2026-04-19T09:44:15.201Z</time></trkpt><trkpt lat="42.149784" lon="14.6861065"><ele>53.400000000000006</ele><time>2026-04-19T09:44:16.241Z</time></trkpt><trkpt lat="42.1496686" lon="14.6861401"><ele>55.2</ele><time>2026-04-19T09:44:17.198Z</time></trkpt><trkpt lat="42.1495386" lon="14.6861721"><ele>57.0</ele><time>2026-04-19T09:44:18.201Z</time></trkpt><trkpt lat="42.1494388" lon="14.6861841"><ele>57.0</ele><time>2026-04-19T09:44:19.194Z</time></trkpt><trkpt lat="42.1493636" lon="14.6861102"><ele>57.0</ele><time>2026-04-19T09:44:21.194Z</time></trkpt><trkpt lat="42.1493461" lon="14.686028"><ele>57.0</ele><time>2026-04-19T09:44:22.207Z</time></trkpt><trkpt lat="42.1493207" lon="14.6859227"><ele>57.0</ele><time>2026-04-19T09:44:23.227Z</time></trkpt><trkpt lat="42.1492859" lon="14.6857819"><ele>57.0</ele><time>2026-04-19T09:44:24.2Z</time></trkpt><trkpt lat="42.1492603" lon="14.685629"><ele>59.400000000000006</ele><time>2026-04-19T09:44:25.223Z</time></trkpt><trkpt lat="42.1492367" lon="14.6854863"><ele>61.800000000000004</ele><time>2026-04-19T09:44:26.224Z</time></trkpt><trkpt lat="42.1492568" lon="14.6853416"><ele>64.2</ele><time>2026-04-19T09:44:27.193Z</time></trkpt><trkpt lat="42.1492696" lon="14.6852427"><ele>66.60000000000001</ele><time>2026-04-19T09:44:28.178Z</time></trkpt><trkpt lat="42.1492566" lon="14.6851592"><ele>69.0</ele><time>2026-04-19T09:44:29.233Z</time></trkpt><trkpt lat="42.1491999" lon="14.6850569"><ele>69.25</ele><time>2026-04-19T09:44:30.243Z</time></trkpt><trkpt lat="42.1490998" lon="14.6849235"><ele>69.5</ele><time>2026-04-19T09:44:31.22Z</time></trkpt><trkpt lat="42.1489944" lon="14.6847702"><ele>69.75</ele><time>2026-04-19T09:44:32.213Z</time></trkpt><trkpt lat="42.1489327" lon="14.6846597"><ele>70.0</ele><time>2026-04-19T09:44:33.252Z</time></trkpt><trkpt lat="42.1488975" lon="14.6845748"><ele>71.8</ele><time>2026-04-19T09:44:34.227Z</time></trkpt><trkpt lat="42.1488743" lon="14.6844503"><ele>73.6</ele><time>2026-04-19T09:44:35.195Z</time></trkpt><trkpt lat="42.1488508" lon="14.6843239"><ele>75.4</ele><time>2026-04-19T09:44:36.224Z</time></trkpt><trkpt lat="42.1487865" lon="14.6842226"><ele>77.2</ele><time>2026-04-19T09:44:37.226Z</time></trkpt><trkpt lat="42.1486899" lon="14.6841189"><ele>79.0</ele><time>2026-04-19T09:44:38.235Z</time></trkpt><trkpt lat="42.1485918" lon="14.6840137"><ele>79.0</ele><time>2026-04-19T09:44:39.22Z</time></trkpt><trkpt lat="42.1485102" lon="14.6839429"><ele>79.0</ele><time>2026-04-19T09:44:40.23Z</time></trkpt><trkpt lat="42.1484416" lon="14.6838848"><ele>79.0</ele><time>2026-04-19T09:44:41.222Z</time></trkpt><trkpt lat="42.148358" lon="14.683823"><ele>79.0</ele><time>2026-04-19T09:44:42.215Z</time></trkpt><trkpt lat="42.148273" lon="14.6837709"><ele>79.0</ele><time>2026-04-19T09:44:43.187Z</time></trkpt><trkpt lat="42.1481844" lon="14.683749"><ele>79.4</ele><time>2026-04-19T09:44:45.225Z</time></trkpt><trkpt lat="42.1481197" lon="14.6837336"><ele>79.80000000000001</ele><time>2026-04-19T09:44:47.229Z</time></trkpt><trkpt lat="42.1480304" lon="14.6835984"><ele>80.19999999999999</ele><time>2026-04-19T09:44:49.201Z</time></trkpt><trkpt lat="42.1479422" lon="14.6835368"><ele>80.6</ele><time>2026-04-19T09:44:50.218Z</time></trkpt><trkpt lat="42.1478166" lon="14.6834544"><ele>81.0</ele><time>2026-04-19T09:44:51.243Z</time></trkpt><trkpt lat="42.1476942" lon="14.6833645"><ele>81.0</ele><time>2026-04-19T09:44:52.215Z</time></trkpt><trkpt lat="42.1475732" lon="14.6832929"><ele>81.0</ele><time>2026-04-19T09:44:53.222Z</time></trkpt><trkpt lat="42.147483" lon="14.6832294"><ele>81.0</ele><time>2026-04-19T09:44:54.238Z</time></trkpt><trkpt lat="42.1474174" lon="14.6831872"><ele>81.0</ele><time>2026-04-19T09:44:55.238Z</time></trkpt><trkpt lat="42.1473293" lon="14.6831499"><ele>81.0</ele><time>2026-04-19T09:44:56.206Z</time></trkpt><trkpt lat="42.1472314" lon="14.683083"><ele>81.83333333333333</ele><time>2026-04-19T09:44:57.213Z</time></trkpt><trkpt lat="42.1471701" lon="14.6830034"><ele>82.66666666666667</ele><time>2026-04-19T09:44:58.217Z</time></trkpt><trkpt lat="42.1470878" lon="14.6829932"><ele>83.5</ele><time>2026-04-19T09:45:00.229Z</time></trkpt><trkpt lat="42.1470366" lon="14.6830492"><ele>84.33333333333334</ele><time>2026-04-19T09:45:01.218Z</time></trkpt><trkpt lat="42.1470007" lon="14.6831206"><ele>85.16666666666667</ele><time>2026-04-19T09:45:02.243Z</time></trkpt><trkpt lat="42.1469584" lon="14.6832087"><ele>86.0</ele><time>2026-04-19T09:45:03.195Z</time></trkpt><trkpt lat="42.1468873" lon="14.6833256"><ele>86.0</ele><time>2026-04-19T09:45:04.196Z</time></trkpt><trkpt lat="42.1468075" lon="14.6834548"><ele>86.0</ele><time>2026-04-19T09:45:05.197Z</time></trkpt><trkpt lat="42.1467664" lon="14.6835398"><ele>86.0</ele><time>2026-04-19T09:45:06.201Z</time></trkpt><trkpt lat="42.1467832" lon="14.6836642"><ele>86.0</ele><time>2026-04-19T09:45:08.2Z</time></trkpt><trkpt lat="42.146745" lon="14.6838428"><ele>86.0</ele><time>2026-04-19T09:45:10.209Z</time></trkpt><trkpt lat="42.1466433" lon="14.6839869"><ele>86.0</ele><time>2026-04-19T09:45:11.21Z</time></trkpt><trkpt lat="42.1465191" lon="14.6841713"><ele>86.0</ele><time>2026-04-19T09:45:12.195Z</time></trkpt><trkpt lat="42.146378" lon="14.6843743"><ele>86.0</ele><time>2026-04-19T09:45:13.197Z</time></trkpt><trkpt lat="42.146239" lon="14.6845816"><ele>86.0</ele><time>2026-04-19T09:45:14.196Z</time></trkpt><trkpt lat="42.1461177" lon="14.6847616"><ele>86.0</ele><time>2026-04-19T09:45:15.187Z</time></trkpt><trkpt lat="42.1460328" lon="14.6849053"><ele>86.0</ele><time>2026-04-19T09:45:16.201Z</time></trkpt><trkpt lat="42.1459607" lon="14.6850229"><ele>86.0</ele><time>2026-04-19T09:45:17.232Z</time></trkpt><trkpt lat="42.1459025" lon="14.6851153"><ele>86.0</ele><time>2026-04-19T09:45:18.246Z</time></trkpt><trkpt lat="42.1458605" lon="14.6851835"><ele>86.0</ele><time>2026-04-19T09:45:19.224Z</time></trkpt><trkpt lat="42.1457822" lon="14.6852177"><ele>86.0</ele><time>2026-04-19T09:45:22.201Z</time></trkpt><trkpt lat="42.1457063" lon="14.6850816"><ele>86.0</ele><time>2026-04-19T09:45:24.227Z</time></trkpt><trkpt lat="42.1456459" lon="14.6849515"><ele>86.0</ele><time>2026-04-19T09:45:25.221Z</time></trkpt><trkpt lat="42.145576" lon="14.6847961"><ele>84.5</ele><time>2026-04-19T09:45:26.22Z</time></trkpt><trkpt lat="42.1455049" lon="14.6846671"><ele>83.0</ele><time>2026-04-19T09:45:27.241Z</time></trkpt><trkpt lat="42.1454086" lon="14.6845551"><ele>81.5</ele><time>2026-04-19T09:45:28.219Z</time></trkpt><trkpt lat="42.145289" lon="14.6844439"><ele>80.0</ele><time>2026-04-19T09:45:29.248Z</time></trkpt><trkpt lat="42.1451532" lon="14.6843272"><ele>83.0</ele><time>2026-04-19T09:45:30.204Z</time></trkpt><trkpt lat="42.1450057" lon="14.6842128"><ele>86.0</ele><time>2026-04-19T09:45:31.192Z</time></trkpt><trkpt lat="42.1448505" lon="14.6841257"><ele>89.0</ele><time>2026-04-19T09:45:32.207Z</time></trkpt><trkpt lat="42.1446871" lon="14.6840633"><ele>89.0</ele><time>2026-04-19T09:45:33.211Z</time></trkpt><trkpt lat="42.1445158" lon="14.6840163"><ele>89.0</ele><time>2026-04-19T09:45:34.226Z</time></trkpt><trkpt lat="42.1443584" lon="14.6839837"><ele>89.0</ele><time>2026-04-19T09:45:35.209Z</time></trkpt><trkpt lat="42.1442188" lon="14.6839625"><ele>89.0</ele><time>2026-04-19T09:45:36.231Z</time></trkpt><trkpt lat="42.1440928" lon="14.6839459"><ele>89.0</ele><time>2026-04-19T09:45:37.233Z</time></trkpt><trkpt lat="42.143982" lon="14.6839518"><ele>89.0</ele><time>2026-04-19T09:45:38.249Z</time></trkpt><trkpt lat="42.1438769" lon="14.6839615"><ele>89.0</ele><time>2026-04-19T09:45:39.235Z</time></trkpt><trkpt lat="42.1437967" lon="14.6839833"><ele>89.0</ele><time>2026-04-19T09:45:40.245Z</time></trkpt><trkpt lat="42.143731" lon="14.6840217"><ele>88.4</ele><time>2026-04-19T09:45:41.221Z</time></trkpt><trkpt lat="42.1436587" lon="14.6840952"><ele>87.80000000000001</ele><time>2026-04-19T09:45:42.242Z</time></trkpt><trkpt lat="42.1435863" lon="14.6842182"><ele>87.19999999999999</ele><time>2026-04-19T09:45:43.219Z</time></trkpt><trkpt lat="42.143525" lon="14.6843562"><ele>86.6</ele><time>2026-04-19T09:45:44.212Z</time></trkpt><trkpt lat="42.1434763" lon="14.684472"><ele>86.0</ele><time>2026-04-19T09:45:45.216Z</time></trkpt><trkpt lat="42.1434215" lon="14.6845659"><ele>85.75</ele><time>2026-04-19T09:45:47.197Z</time></trkpt><trkpt lat="42.1433082" lon="14.684579"><ele>85.5</ele><time>2026-04-19T09:45:49.242Z</time></trkpt><trkpt lat="42.1432135" lon="14.6845296"><ele>85.25</ele><time>2026-04-19T09:45:50.245Z</time></trkpt><trkpt lat="42.1430972" lon="14.6844623"><ele>85.0</ele><time>2026-04-19T09:45:51.227Z</time></trkpt><trkpt lat="42.1429662" lon="14.6843853"><ele>86.66666666666666</ele><time>2026-04-19T09:45:52.227Z</time></trkpt><trkpt lat="42.1428107" lon="14.6843237"><ele>88.33333333333333</ele><time>2026-04-19T09:45:53.251Z</time></trkpt><trkpt lat="42.1426484" lon="14.6842572"><ele>90.0</ele><time>2026-04-19T09:45:54.223Z</time></trkpt><trkpt lat="42.1424792" lon="14.6841729"><ele>91.75</ele><time>2026-04-19T09:45:55.233Z</time></trkpt><trkpt lat="42.1423106" lon="14.6840875"><ele>93.5</ele><time>2026-04-19T09:45:56.213Z</time></trkpt><trkpt lat="42.1421779" lon="14.6840265"><ele>95.25</ele><time>2026-04-19T09:45:57.19Z</time></trkpt><trkpt lat="42.1420936" lon="14.6839854"><ele>97.0</ele><time>2026-04-19T09:45:58.228Z</time></trkpt><trkpt lat="42.1420278" lon="14.683974"><ele>97.0</ele><time>2026-04-19T09:45:59.183Z</time></trkpt><trkpt lat="42.1419251" lon="14.6840449"><ele>97.0</ele><time>2026-04-19T09:46:01.239Z</time></trkpt><trkpt lat="42.141848" lon="14.684094"><ele>97.0</ele><time>2026-04-19T09:46:03.226Z</time></trkpt><trkpt lat="42.1417611" lon="14.6840205"><ele>97.0</ele><time>2026-04-19T09:46:05.209Z</time></trkpt><trkpt lat="42.1416991" lon="14.6839485"><ele>97.0</ele><time>2026-04-19T09:46:06.234Z</time></trkpt><trkpt lat="42.1416325" lon="14.6839007"><ele>97.0</ele><time>2026-04-19T09:46:07.224Z</time></trkpt><trkpt lat="42.1415673" lon="14.6838634"><ele>97.0</ele><time>2026-04-19T09:46:08.197Z</time></trkpt><trkpt lat="42.1414985" lon="14.6838081"><ele>97.0</ele><time>2026-04-19T09:46:09.193Z</time></trkpt><trkpt lat="42.1414243" lon="14.6837416"><ele>97.0</ele><time>2026-04-19T09:46:10.214Z</time></trkpt><trkpt lat="42.1413326" lon="14.6836822"><ele>97.0</ele><time>2026-04-19T09:46:11.197Z</time></trkpt><trkpt lat="42.141217" lon="14.6836225"><ele>98.19999999999999</ele><time>2026-04-19T09:46:12.203Z</time></trkpt><trkpt lat="42.141095" lon="14.6835642"><ele>99.4</ele><time>2026-04-19T09:46:13.203Z</time></trkpt><trkpt lat="42.1409904" lon="14.6835334"><ele>100.6</ele><time>2026-04-19T09:46:14.191Z</time></trkpt><trkpt lat="42.1408887" lon="14.6835099"><ele>101.80000000000001</ele><time>2026-04-19T09:46:15.193Z</time></trkpt><trkpt lat="42.1407805" lon="14.6834925"><ele>103.0</ele><time>2026-04-19T09:46:16.215Z</time></trkpt><trkpt lat="42.1406659" lon="14.6834902"><ele>104.0</ele><time>2026-04-19T09:46:17.213Z</time></trkpt><trkpt lat="42.1405642" lon="14.6834911"><ele>105.0</ele><time>2026-04-19T09:46:18.194Z</time></trkpt><trkpt lat="42.1404736" lon="14.6834868"><ele>106.00000000000001</ele><time>2026-04-19T09:46:19.203Z</time></trkpt><trkpt lat="42.1403681" lon="14.6834753"><ele>107.0</ele><time>2026-04-19T09:46:20.206Z</time></trkpt><trkpt lat="42.1402756" lon="14.6834625"><ele>108.0</ele><time>2026-04-19T09:46:21.227Z</time></trkpt><trkpt lat="42.1402022" lon="14.6834511"><ele>108.0</ele><time>2026-04-19T09:46:22.214Z</time></trkpt><trkpt lat="42.1401365" lon="14.6834396"><ele>108.00000000000001</ele><time>2026-04-19T09:46:24.223Z</time></trkpt><trkpt lat="42.1400895" lon="14.6833093"><ele>108.00000000000001</ele><time>2026-04-19T09:46:27.233Z</time></trkpt><trkpt lat="42.1400991" lon="14.683179"><ele>108.0</ele><time>2026-04-19T09:46:28.238Z</time></trkpt><trkpt lat="42.140109" lon="14.6829745"><ele>108.0</ele><time>2026-04-19T09:46:29.237Z</time></trkpt><trkpt lat="42.140127" lon="14.6827621"><ele>108.16666666666667</ele><time>2026-04-19T09:46:30.189Z</time></trkpt><trkpt lat="42.140135" lon="14.6826223"><ele>108.33333333333334</ele><time>2026-04-19T09:46:31.247Z</time></trkpt><trkpt lat="42.140111" lon="14.6824868"><ele>108.5</ele><time>2026-04-19T09:46:33.248Z</time></trkpt><trkpt lat="42.1400391" lon="14.6824614"><ele>108.66666666666667</ele><time>2026-04-19T09:46:35.244Z</time></trkpt><trkpt lat="42.1399864" lon="14.6823987"><ele>108.83333333333334</ele><time>2026-04-19T09:46:37.207Z</time></trkpt><trkpt lat="42.1399115" lon="14.6823479"><ele>109.0</ele><time>2026-04-19T09:46:40.209Z</time></trkpt><trkpt lat="42.1398345" lon="14.6823569"><ele>109.0</ele><time>2026-04-19T09:46:43.194Z</time></trkpt><trkpt lat="42.1397713" lon="14.6823432"><ele>109.0</ele><time>2026-04-19T09:51:49.238Z</time></trkpt><trkpt lat="42.1397105" lon="14.6823743"><ele>109.0</ele><time>2026-04-19T09:52:02.228Z</time></trkpt><trkpt lat="42.1397756" lon="14.6823628"><ele>109.0</ele><time>2026-04-19T09:55:13.215Z</time></trkpt><trkpt lat="42.1398457" lon="14.6823461"><ele>109.0</ele><time>2026-04-19T09:55:22.21Z</time></trkpt><trkpt lat="42.1399098" lon="14.6823677"><ele>109.0</ele><time>2026-04-19T09:55:29.225Z</time></trkpt><trkpt lat="42.1398408" lon="14.6823486"><ele>109.0</ele><time>2026-04-19T09:56:00.197Z</time></trkpt><trkpt lat="42.1397715" lon="14.6823454"><ele>109.0</ele><time>2026-04-19T09:56:08.188Z</time></trkpt><trkpt lat="42.1398392" lon="14.6823428"><ele>109.0</ele><time>2026-04-19T09:56:46.216Z</time></trkpt><trkpt lat="42.1399027" lon="14.6823611"><ele>109.0</ele><time>2026-04-19T09:56:55.185Z</time></trkpt><trkpt lat="42.1399663" lon="14.6823881"><ele>109.0</ele><time>2026-04-19T09:57:39.222Z</time></trkpt><trkpt lat="42.1399014" lon="14.6823685"><ele>109.0</ele><time>2026-04-19T10:00:54.228Z</time></trkpt><trkpt lat="42.1398234" lon="14.6823755"><ele>109.0</ele><time>2026-04-19T10:01:09.183Z</time></trkpt><trkpt lat="42.1397512" lon="14.6823767"><ele>109.0</ele><time>2026-04-19T10:01:15.208Z</time></trkpt><trkpt lat="42.1396986" lon="14.682428"><ele>112.0</ele><time>2026-04-19T10:02:06.21Z</time></trkpt><trkpt lat="42.1397526" lon="14.6823641"><ele>112.0</ele><time>2026-04-19T10:03:05.19Z</time></trkpt><trkpt lat="42.1398154" lon="14.6823703"><ele>112.0</ele><time>2026-04-19T10:03:36.199Z</time></trkpt><trkpt lat="42.139885" lon="14.6823583"><ele>109.0</ele><time>2026-04-19T10:03:42.198Z</time></trkpt><trkpt lat="42.1399494" lon="14.6824235"><ele>109.0</ele><time>2026-04-19T10:05:49.227Z</time></trkpt></trkseg></trk></gpx>